<?xml version="1.0" encoding="UTF-8" standalone="no" ?>
<gpx xmlns="http://www.topografix.com/GPX/1/1" xmlns:xsi="http://www.w3.org/2001/XMLSchema-instance" xsi:schemaLocation="http://www.topografix.com/GPX/1/1 http://www.topografix.com/GPX/1/1/gpx.xsd" version="1.1" creator="VisuGPX - https://www.visugpx.com">
  <metadata>
    <name>Boucle Tourette-Coursegoule-St Pons</name>
    <desc><![CDATA[Le lundi au soleil...]]></desc>
  </metadata>
  <trk>
    <name><![CDATA[Boucle Tourette Coursegoule]]></name>
    <cmt><![CDATA[Oh, le bon tour du loup ! 
Avec Stef, Pascual, Thomas Balay et Isa.
Belle et longue boucle finie de nuit par la descente du portail.]]></cmt>
    <trkseg>
      <trkpt lat="43.71844" lon="7.06379">
        <ele>397.45477294922</ele>
        <time>2013-12-09T08:32:22Z</time>
      </trkpt>
      <trkpt lat="43.71846" lon="7.06377">
        <ele>397.52685546875</ele>
        <time>2013-12-09T08:32:26Z</time>
      </trkpt>
      <trkpt lat="43.71849" lon="7.06372">
        <ele>397.56289672852</ele>
        <time>2013-12-09T08:32:29Z</time>
      </trkpt>
      <trkpt lat="43.71854" lon="7.06359">
        <ele>397.40991210938</ele>
        <time>2013-12-09T08:32:34Z</time>
      </trkpt>
      <trkpt lat="43.71859" lon="7.06348">
        <ele>397.3772277832</ele>
        <time>2013-12-09T08:32:39Z</time>
      </trkpt>
      <trkpt lat="43.71852" lon="7.06337">
        <ele>396.25680541992</ele>
        <time>2013-12-09T08:32:44Z</time>
      </trkpt>
      <trkpt lat="43.71845" lon="7.0633">
        <ele>395.05917358398</ele>
        <time>2013-12-09T08:32:48Z</time>
      </trkpt>
      <trkpt lat="43.71843" lon="7.06329">
        <ele>394.80221557617</ele>
        <time>2013-12-09T08:32:49Z</time>
      </trkpt>
      <trkpt lat="43.71831" lon="7.06321">
        <ele>393.32308959961</ele>
        <time>2013-12-09T08:32:54Z</time>
      </trkpt>
      <trkpt lat="43.71831" lon="7.06317">
        <ele>393.17858886719</ele>
        <time>2013-12-09T08:32:55Z</time>
      </trkpt>
      <trkpt lat="43.71833" lon="7.06312">
        <ele>393.19006347656</ele>
        <time>2013-12-09T08:32:57Z</time>
      </trkpt>
      <trkpt lat="43.71839" lon="7.06298">
        <ele>393.4753112793</ele>
        <time>2013-12-09T08:33:02Z</time>
      </trkpt>
      <trkpt lat="43.7184" lon="7.06274">
        <ele>393.70086669922</ele>
        <time>2013-12-09T08:33:09Z</time>
      </trkpt>
      <trkpt lat="43.7183" lon="7.06249">
        <ele>392.34997558594</ele>
        <time>2013-12-09T08:33:16Z</time>
      </trkpt>
      <trkpt lat="43.7181" lon="7.06205">
        <ele>386.82183837891</ele>
        <time>2013-12-09T08:33:27Z</time>
      </trkpt>
      <trkpt lat="43.71786" lon="7.06155">
        <ele>383.36761474609</ele>
        <time>2013-12-09T08:33:39Z</time>
      </trkpt>
      <trkpt lat="43.7177" lon="7.06117">
        <ele>382.26406860352</ele>
        <time>2013-12-09T08:33:48Z</time>
      </trkpt>
      <trkpt lat="43.71755" lon="7.06083">
        <ele>381.50830078125</ele>
        <time>2013-12-09T08:33:56Z</time>
      </trkpt>
      <trkpt lat="43.7174" lon="7.06053">
        <ele>382.26409912109</ele>
        <time>2013-12-09T08:34:04Z</time>
      </trkpt>
      <trkpt lat="43.71722" lon="7.06014">
        <ele>380.53112792969</ele>
        <time>2013-12-09T08:34:13Z</time>
      </trkpt>
      <trkpt lat="43.71707" lon="7.05966">
        <ele>382.15179443359</ele>
        <time>2013-12-09T08:34:23Z</time>
      </trkpt>
      <trkpt lat="43.71698" lon="7.05924">
        <ele>383.72894287109</ele>
        <time>2013-12-09T08:34:31Z</time>
      </trkpt>
      <trkpt lat="43.71686" lon="7.05887">
        <ele>384.67596435547</ele>
        <time>2013-12-09T08:34:39Z</time>
      </trkpt>
      <trkpt lat="43.71683" lon="7.05881">
        <ele>383.90863037109</ele>
        <time>2013-12-09T08:34:41Z</time>
      </trkpt>
      <trkpt lat="43.71679" lon="7.0588">
        <ele>382.86322021484</ele>
        <time>2013-12-09T08:34:42Z</time>
      </trkpt>
      <trkpt lat="43.71667" lon="7.05883">
        <ele>379.23773193359</ele>
        <time>2013-12-09T08:34:45Z</time>
      </trkpt>
      <trkpt lat="43.7165" lon="7.05897">
        <ele>372.4443359375</ele>
        <time>2013-12-09T08:34:50Z</time>
      </trkpt>
      <trkpt lat="43.71648" lon="7.05902">
        <ele>371.35647583008</ele>
        <time>2013-12-09T08:34:51Z</time>
      </trkpt>
      <trkpt lat="43.71643" lon="7.05911">
        <ele>368.81442260742</ele>
        <time>2013-12-09T08:34:53Z</time>
      </trkpt>
      <trkpt lat="43.71637" lon="7.0591">
        <ele>367.52395629883</ele>
        <time>2013-12-09T08:34:55Z</time>
      </trkpt>
      <trkpt lat="43.71634" lon="7.05906">
        <ele>367.59106445312</ele>
        <time>2013-12-09T08:34:56Z</time>
      </trkpt>
      <trkpt lat="43.71632" lon="7.05901">
        <ele>367.76879882812</ele>
        <time>2013-12-09T08:34:58Z</time>
      </trkpt>
      <trkpt lat="43.7163" lon="7.05897">
        <ele>368.02462768555</ele>
        <time>2013-12-09T08:35:01Z</time>
      </trkpt>
      <trkpt lat="43.71631" lon="7.05895">
        <ele>368.25299072266</ele>
        <time>2013-12-09T08:35:03Z</time>
      </trkpt>
      <trkpt lat="43.71632" lon="7.05894">
        <ele>368.44570922852</ele>
        <time>2013-12-09T08:35:05Z</time>
      </trkpt>
      <trkpt lat="43.71632" lon="7.05893">
        <ele>368.57263183594</ele>
        <time>2013-12-09T08:35:07Z</time>
      </trkpt>
      <trkpt lat="43.7163" lon="7.05887">
        <ele>368.90521240234</ele>
        <time>2013-12-09T08:35:13Z</time>
      </trkpt>
      <trkpt lat="43.71628" lon="7.05886">
        <ele>368.65036010742</ele>
        <time>2013-12-09T08:35:18Z</time>
      </trkpt>
      <trkpt lat="43.7163" lon="7.05887">
        <ele>368.92559814453</ele>
        <time>2013-12-09T08:35:23Z</time>
      </trkpt>
      <trkpt lat="43.71628" lon="7.05882">
        <ele>368.80816650391</ele>
        <time>2013-12-09T08:35:28Z</time>
      </trkpt>
      <trkpt lat="43.71628" lon="7.05878">
        <ele>369.0280456543</ele>
        <time>2013-12-09T08:35:31Z</time>
      </trkpt>
      <trkpt lat="43.71626" lon="7.05879">
        <ele>368.74710083008</ele>
        <time>2013-12-09T08:35:33Z</time>
      </trkpt>
      <trkpt lat="43.71629" lon="7.05881">
        <ele>369.04537963867</ele>
        <time>2013-12-09T08:35:38Z</time>
      </trkpt>
      <trkpt lat="43.71626" lon="7.05877">
        <ele>368.85858154297</ele>
        <time>2013-12-09T08:35:41Z</time>
      </trkpt>
      <trkpt lat="43.71625" lon="7.05876">
        <ele>368.73526000977</ele>
        <time>2013-12-09T08:35:42Z</time>
      </trkpt>
      <trkpt lat="43.71622" lon="7.05867">
        <ele>368.68182373047</ele>
        <time>2013-12-09T08:35:47Z</time>
      </trkpt>
      <trkpt lat="43.7162" lon="7.05862">
        <ele>368.52151489258</ele>
        <time>2013-12-09T08:35:50Z</time>
      </trkpt>
      <trkpt lat="43.71621" lon="7.05859">
        <ele>368.89520263672</ele>
        <time>2013-12-09T08:35:52Z</time>
      </trkpt>
      <trkpt lat="43.71624" lon="7.05849">
        <ele>370.39047241211</ele>
        <time>2013-12-09T08:35:56Z</time>
      </trkpt>
      <trkpt lat="43.71627" lon="7.05847">
        <ele>371.13778686523</ele>
        <time>2013-12-09T08:35:57Z</time>
      </trkpt>
      <trkpt lat="43.71646" lon="7.05839">
        <ele>376.1672668457</ele>
        <time>2013-12-09T08:36:02Z</time>
      </trkpt>
      <trkpt lat="43.71673" lon="7.05825">
        <ele>383.70861816406</ele>
        <time>2013-12-09T08:36:09Z</time>
      </trkpt>
      <trkpt lat="43.71686" lon="7.05822">
        <ele>387.33575439453</ele>
        <time>2013-12-09T08:36:14Z</time>
      </trkpt>
      <trkpt lat="43.71692" lon="7.05813">
        <ele>388.6904296875</ele>
        <time>2013-12-09T08:36:18Z</time>
      </trkpt>
      <trkpt lat="43.71696" lon="7.05799">
        <ele>389.11724853516</ele>
        <time>2013-12-09T08:36:23Z</time>
      </trkpt>
      <trkpt lat="43.717" lon="7.05788">
        <ele>389.36785888672</ele>
        <time>2013-12-09T08:36:27Z</time>
      </trkpt>
      <trkpt lat="43.71701" lon="7.05783">
        <ele>389.36785888672</ele>
        <time>2013-12-09T08:36:29Z</time>
      </trkpt>
      <trkpt lat="43.71706" lon="7.05767">
        <ele>389.75067138672</ele>
        <time>2013-12-09T08:36:35Z</time>
      </trkpt>
      <trkpt lat="43.71713" lon="7.05748">
        <ele>390.30395507812</ele>
        <time>2013-12-09T08:36:42Z</time>
      </trkpt>
      <trkpt lat="43.71723" lon="7.05735">
        <ele>391.73840332031</ele>
        <time>2013-12-09T08:36:49Z</time>
      </trkpt>
      <trkpt lat="43.71735" lon="7.05717">
        <ele>394.60516357422</ele>
        <time>2013-12-09T08:36:58Z</time>
      </trkpt>
      <trkpt lat="43.71741" lon="7.05707">
        <ele>395.77932739258</ele>
        <time>2013-12-09T08:37:03Z</time>
      </trkpt>
      <trkpt lat="43.71741" lon="7.05705">
        <ele>395.81881713867</ele>
        <time>2013-12-09T08:37:04Z</time>
      </trkpt>
      <trkpt lat="43.71743" lon="7.05685">
        <ele>395.53384399414</ele>
        <time>2013-12-09T08:37:10Z</time>
      </trkpt>
      <trkpt lat="43.7175" lon="7.05668">
        <ele>397.0290222168</ele>
        <time>2013-12-09T08:37:15Z</time>
      </trkpt>
      <trkpt lat="43.71752" lon="7.05668">
        <ele>397.43701171875</ele>
        <time>2013-12-09T08:37:16Z</time>
      </trkpt>
      <trkpt lat="43.71762" lon="7.05671">
        <ele>399.2532043457</ele>
        <time>2013-12-09T08:37:21Z</time>
      </trkpt>
      <trkpt lat="43.71778" lon="7.05676">
        <ele>402.57061767578</ele>
        <time>2013-12-09T08:37:31Z</time>
      </trkpt>
      <trkpt lat="43.71793" lon="7.05681">
        <ele>407.59143066406</ele>
        <time>2013-12-09T08:37:39Z</time>
      </trkpt>
      <trkpt lat="43.71801" lon="7.05692">
        <ele>411.21899414062</ele>
        <time>2013-12-09T08:37:45Z</time>
      </trkpt>
      <trkpt lat="43.71812" lon="7.05715">
        <ele>416.96273803711</ele>
        <time>2013-12-09T08:37:55Z</time>
      </trkpt>
      <trkpt lat="43.71828" lon="7.05736">
        <ele>424.46505737305</ele>
        <time>2013-12-09T08:38:06Z</time>
      </trkpt>
      <trkpt lat="43.71841" lon="7.05736">
        <ele>429.9150390625</ele>
        <time>2013-12-09T08:38:14Z</time>
      </trkpt>
      <trkpt lat="43.71853" lon="7.05735">
        <ele>434.17224121094</ele>
        <time>2013-12-09T08:38:22Z</time>
      </trkpt>
      <trkpt lat="43.71867" lon="7.05736">
        <ele>438.48712158203</ele>
        <time>2013-12-09T08:38:31Z</time>
      </trkpt>
      <trkpt lat="43.71878" lon="7.05737">
        <ele>441.44842529297</ele>
        <time>2013-12-09T08:38:39Z</time>
      </trkpt>
      <trkpt lat="43.7189" lon="7.05738">
        <ele>444.66833496094</ele>
        <time>2013-12-09T08:38:48Z</time>
      </trkpt>
      <trkpt lat="43.71901" lon="7.05739">
        <ele>447.35314941406</ele>
        <time>2013-12-09T08:38:56Z</time>
      </trkpt>
      <trkpt lat="43.71909" lon="7.05736">
        <ele>449.65338134766</ele>
        <time>2013-12-09T08:39:03Z</time>
      </trkpt>
      <trkpt lat="43.71921" lon="7.05731">
        <ele>452.52450561523</ele>
        <time>2013-12-09T08:39:13Z</time>
      </trkpt>
      <trkpt lat="43.7193" lon="7.05732">
        <ele>454.3369140625</ele>
        <time>2013-12-09T08:39:21Z</time>
      </trkpt>
      <trkpt lat="43.71938" lon="7.05734">
        <ele>455.91635131836</ele>
        <time>2013-12-09T08:39:29Z</time>
      </trkpt>
      <trkpt lat="43.71946" lon="7.05736">
        <ele>457.32272338867</ele>
        <time>2013-12-09T08:39:36Z</time>
      </trkpt>
      <trkpt lat="43.71954" lon="7.05738">
        <ele>458.46286010742</ele>
        <time>2013-12-09T08:39:44Z</time>
      </trkpt>
      <trkpt lat="43.71962" lon="7.0574">
        <ele>459.64016723633</ele>
        <time>2013-12-09T08:39:52Z</time>
      </trkpt>
      <trkpt lat="43.71971" lon="7.05745">
        <ele>460.93588256836</ele>
        <time>2013-12-09T08:40:01Z</time>
      </trkpt>
      <trkpt lat="43.71977" lon="7.05748">
        <ele>461.90765380859</ele>
        <time>2013-12-09T08:40:08Z</time>
      </trkpt>
      <trkpt lat="43.71979" lon="7.0575">
        <ele>462.24755859375</ele>
        <time>2013-12-09T08:40:11Z</time>
      </trkpt>
      <trkpt lat="43.71983" lon="7.05751">
        <ele>462.89932250977</ele>
        <time>2013-12-09T08:40:15Z</time>
      </trkpt>
      <trkpt lat="43.71991" lon="7.05755">
        <ele>464.04983520508</ele>
        <time>2013-12-09T08:40:24Z</time>
      </trkpt>
      <trkpt lat="43.71998" lon="7.05757">
        <ele>465.16107177734</ele>
        <time>2013-12-09T08:40:32Z</time>
      </trkpt>
      <trkpt lat="43.72002" lon="7.05757">
        <ele>465.86584472656</ele>
        <time>2013-12-09T08:40:35Z</time>
      </trkpt>
      <trkpt lat="43.72007" lon="7.05759">
        <ele>466.74816894531</ele>
        <time>2013-12-09T08:40:40Z</time>
      </trkpt>
      <trkpt lat="43.72013" lon="7.05762">
        <ele>467.96008300781</ele>
        <time>2013-12-09T08:40:47Z</time>
      </trkpt>
      <trkpt lat="43.72022" lon="7.05765">
        <ele>469.63208007812</ele>
        <time>2013-12-09T08:40:55Z</time>
      </trkpt>
      <trkpt lat="43.72033" lon="7.05768">
        <ele>471.54745483398</ele>
        <time>2013-12-09T08:41:05Z</time>
      </trkpt>
      <trkpt lat="43.7204" lon="7.05771">
        <ele>472.28076171875</ele>
        <time>2013-12-09T08:41:12Z</time>
      </trkpt>
      <trkpt lat="43.72041" lon="7.05772">
        <ele>472.39544677734</ele>
        <time>2013-12-09T08:41:13Z</time>
      </trkpt>
      <trkpt lat="43.72046" lon="7.05774">
        <ele>472.9817199707</ele>
        <time>2013-12-09T08:41:18Z</time>
      </trkpt>
      <trkpt lat="43.72049" lon="7.05774">
        <ele>473.44134521484</ele>
        <time>2013-12-09T08:41:21Z</time>
      </trkpt>
      <trkpt lat="43.72054" lon="7.05775">
        <ele>473.94808959961</ele>
        <time>2013-12-09T08:41:26Z</time>
      </trkpt>
      <trkpt lat="43.7206" lon="7.05776">
        <ele>474.9924621582</ele>
        <time>2013-12-09T08:41:32Z</time>
      </trkpt>
      <trkpt lat="43.72068" lon="7.05776">
        <ele>476.45690917969</ele>
        <time>2013-12-09T08:41:40Z</time>
      </trkpt>
      <trkpt lat="43.72075" lon="7.05776">
        <ele>477.66467285156</ele>
        <time>2013-12-09T08:41:46Z</time>
      </trkpt>
      <trkpt lat="43.72078" lon="7.05776">
        <ele>478.27322387695</ele>
        <time>2013-12-09T08:41:49Z</time>
      </trkpt>
      <trkpt lat="43.7208" lon="7.05776">
        <ele>478.62380981445</ele>
        <time>2013-12-09T08:41:51Z</time>
      </trkpt>
      <trkpt lat="43.72084" lon="7.05775">
        <ele>479.61853027344</ele>
        <time>2013-12-09T08:41:55Z</time>
      </trkpt>
      <trkpt lat="43.72094" lon="7.0577">
        <ele>481.62445068359</ele>
        <time>2013-12-09T08:42:05Z</time>
      </trkpt>
      <trkpt lat="43.72101" lon="7.05766">
        <ele>483.32165527344</ele>
        <time>2013-12-09T08:42:13Z</time>
      </trkpt>
      <trkpt lat="43.72108" lon="7.05764">
        <ele>484.45385742188</ele>
        <time>2013-12-09T08:42:20Z</time>
      </trkpt>
      <trkpt lat="43.72115" lon="7.05762">
        <ele>486.4426574707</ele>
        <time>2013-12-09T08:42:28Z</time>
      </trkpt>
      <trkpt lat="43.72124" lon="7.05762">
        <ele>488.77056884766</ele>
        <time>2013-12-09T08:42:38Z</time>
      </trkpt>
      <trkpt lat="43.72133" lon="7.05761">
        <ele>491.47143554688</ele>
        <time>2013-12-09T08:42:48Z</time>
      </trkpt>
      <trkpt lat="43.72141" lon="7.0576">
        <ele>493.41711425781</ele>
        <time>2013-12-09T08:42:56Z</time>
      </trkpt>
      <trkpt lat="43.72151" lon="7.0576">
        <ele>495.23468017578</ele>
        <time>2013-12-09T08:43:07Z</time>
      </trkpt>
      <trkpt lat="43.72158" lon="7.05763">
        <ele>495.76171875</ele>
        <time>2013-12-09T08:43:14Z</time>
      </trkpt>
      <trkpt lat="43.72165" lon="7.05766">
        <ele>496.35485839844</ele>
        <time>2013-12-09T08:43:22Z</time>
      </trkpt>
      <trkpt lat="43.72169" lon="7.05766">
        <ele>496.77679443359</ele>
        <time>2013-12-09T08:43:26Z</time>
      </trkpt>
      <trkpt lat="43.72172" lon="7.05768">
        <ele>497.0237121582</ele>
        <time>2013-12-09T08:43:30Z</time>
      </trkpt>
      <trkpt lat="43.72173" lon="7.05768">
        <ele>497.18621826172</ele>
        <time>2013-12-09T08:43:31Z</time>
      </trkpt>
      <trkpt lat="43.72177" lon="7.05764">
        <ele>498.5505065918</ele>
        <time>2013-12-09T08:43:35Z</time>
      </trkpt>
      <trkpt lat="43.7218" lon="7.05765">
        <ele>498.86569213867</ele>
        <time>2013-12-09T08:43:38Z</time>
      </trkpt>
      <trkpt lat="43.72185" lon="7.05768">
        <ele>499.05953979492</ele>
        <time>2013-12-09T08:43:43Z</time>
      </trkpt>
      <trkpt lat="43.72189" lon="7.05772">
        <ele>498.57238769531</ele>
        <time>2013-12-09T08:43:48Z</time>
      </trkpt>
      <trkpt lat="43.7219" lon="7.05774">
        <ele>498.44998168945</ele>
        <time>2013-12-09T08:43:50Z</time>
      </trkpt>
      <trkpt lat="43.72197" lon="7.05774">
        <ele>499.24783325195</ele>
        <time>2013-12-09T08:43:58Z</time>
      </trkpt>
      <trkpt lat="43.722" lon="7.05774">
        <ele>499.36987304688</ele>
        <time>2013-12-09T08:44:00Z</time>
      </trkpt>
      <trkpt lat="43.72203" lon="7.05777">
        <ele>498.833984375</ele>
        <time>2013-12-09T08:44:04Z</time>
      </trkpt>
      <trkpt lat="43.72206" lon="7.05777">
        <ele>499.17663574219</ele>
        <time>2013-12-09T08:44:07Z</time>
      </trkpt>
      <trkpt lat="43.7221" lon="7.05777">
        <ele>499.2917175293</ele>
        <time>2013-12-09T08:44:11Z</time>
      </trkpt>
      <trkpt lat="43.72217" lon="7.05778">
        <ele>499.6982421875</ele>
        <time>2013-12-09T08:44:19Z</time>
      </trkpt>
      <trkpt lat="43.72224" lon="7.05781">
        <ele>499.96994018555</ele>
        <time>2013-12-09T08:44:26Z</time>
      </trkpt>
      <trkpt lat="43.72231" lon="7.05785">
        <ele>500.90856933594</ele>
        <time>2013-12-09T08:44:33Z</time>
      </trkpt>
      <trkpt lat="43.72233" lon="7.05785">
        <ele>501.30627441406</ele>
        <time>2013-12-09T08:44:35Z</time>
      </trkpt>
      <trkpt lat="43.72241" lon="7.05788">
        <ele>502.322265625</ele>
        <time>2013-12-09T08:44:43Z</time>
      </trkpt>
      <trkpt lat="43.72242" lon="7.05788">
        <ele>502.3346862793</ele>
        <time>2013-12-09T08:44:44Z</time>
      </trkpt>
      <trkpt lat="43.72246" lon="7.0579">
        <ele>502.81158447266</ele>
        <time>2013-12-09T08:44:49Z</time>
      </trkpt>
      <trkpt lat="43.72252" lon="7.05793">
        <ele>503.18264770508</ele>
        <time>2013-12-09T08:44:56Z</time>
      </trkpt>
      <trkpt lat="43.72258" lon="7.05797">
        <ele>503.501953125</ele>
        <time>2013-12-09T08:45:03Z</time>
      </trkpt>
      <trkpt lat="43.72264" lon="7.05803">
        <ele>503.76971435547</ele>
        <time>2013-12-09T08:45:10Z</time>
      </trkpt>
      <trkpt lat="43.72272" lon="7.05806">
        <ele>504.69235229492</ele>
        <time>2013-12-09T08:45:18Z</time>
      </trkpt>
      <trkpt lat="43.72279" lon="7.05807">
        <ele>505.52575683594</ele>
        <time>2013-12-09T08:45:24Z</time>
      </trkpt>
      <trkpt lat="43.72281" lon="7.05804">
        <ele>506.36700439453</ele>
        <time>2013-12-09T08:45:26Z</time>
      </trkpt>
      <trkpt lat="43.72282" lon="7.05804">
        <ele>506.6042175293</ele>
        <time>2013-12-09T08:45:27Z</time>
      </trkpt>
      <trkpt lat="43.72284" lon="7.05804">
        <ele>506.63098144531</ele>
        <time>2013-12-09T08:45:30Z</time>
      </trkpt>
      <trkpt lat="43.72284" lon="7.05804">
        <ele>506.51718139648</ele>
        <time>2013-12-09T08:45:40Z</time>
      </trkpt>
      <trkpt lat="43.72284" lon="7.05805">
        <ele>506.37466430664</ele>
        <time>2013-12-09T08:45:49Z</time>
      </trkpt>
      <trkpt lat="43.72285" lon="7.05806">
        <ele>506.22613525391</ele>
        <time>2013-12-09T08:46:01Z</time>
      </trkpt>
      <trkpt lat="43.72284" lon="7.05807">
        <ele>505.78668212891</ele>
        <time>2013-12-09T08:46:30Z</time>
      </trkpt>
      <trkpt lat="43.72284" lon="7.05809">
        <ele>505.23736572266</ele>
        <time>2013-12-09T08:46:45Z</time>
      </trkpt>
      <trkpt lat="43.72288" lon="7.05813">
        <ele>504.11126708984</ele>
        <time>2013-12-09T08:46:55Z</time>
      </trkpt>
      <trkpt lat="43.72296" lon="7.05819">
        <ele>502.71051025391</ele>
        <time>2013-12-09T08:47:00Z</time>
      </trkpt>
      <trkpt lat="43.72305" lon="7.05819">
        <ele>502.98516845703</ele>
        <time>2013-12-09T08:47:05Z</time>
      </trkpt>
      <trkpt lat="43.7232" lon="7.05819">
        <ele>504.11184692383</ele>
        <time>2013-12-09T08:47:14Z</time>
      </trkpt>
      <trkpt lat="43.72322" lon="7.0582">
        <ele>503.94201660156</ele>
        <time>2013-12-09T08:47:16Z</time>
      </trkpt>
      <trkpt lat="43.72328" lon="7.05822">
        <ele>503.77111816406</ele>
        <time>2013-12-09T08:47:20Z</time>
      </trkpt>
      <trkpt lat="43.72341" lon="7.05822">
        <ele>504.18630981445</ele>
        <time>2013-12-09T08:47:29Z</time>
      </trkpt>
      <trkpt lat="43.72355" lon="7.05821">
        <ele>505.25238037109</ele>
        <time>2013-12-09T08:47:38Z</time>
      </trkpt>
      <trkpt lat="43.72363" lon="7.05819">
        <ele>506.34185791016</ele>
        <time>2013-12-09T08:47:45Z</time>
      </trkpt>
      <trkpt lat="43.72372" lon="7.05814">
        <ele>508.38119506836</ele>
        <time>2013-12-09T08:47:53Z</time>
      </trkpt>
      <trkpt lat="43.7238" lon="7.05809">
        <ele>510.52352905273</ele>
        <time>2013-12-09T08:48:00Z</time>
      </trkpt>
      <trkpt lat="43.72386" lon="7.05806">
        <ele>512.00445556641</ele>
        <time>2013-12-09T08:48:06Z</time>
      </trkpt>
      <trkpt lat="43.72392" lon="7.058">
        <ele>513.71704101562</ele>
        <time>2013-12-09T08:48:13Z</time>
      </trkpt>
      <trkpt lat="43.724" lon="7.05795">
        <ele>515.57281494141</ele>
        <time>2013-12-09T08:48:22Z</time>
      </trkpt>
      <trkpt lat="43.72407" lon="7.0579">
        <ele>517.12823486328</ele>
        <time>2013-12-09T08:48:29Z</time>
      </trkpt>
      <trkpt lat="43.72413" lon="7.05782">
        <ele>518.99615478516</ele>
        <time>2013-12-09T08:48:37Z</time>
      </trkpt>
      <trkpt lat="43.72417" lon="7.05779">
        <ele>519.72998046875</ele>
        <time>2013-12-09T08:48:42Z</time>
      </trkpt>
      <trkpt lat="43.72419" lon="7.05777">
        <ele>520.77380371094</ele>
        <time>2013-12-09T08:48:44Z</time>
      </trkpt>
      <trkpt lat="43.72427" lon="7.0577">
        <ele>526.83001708984</ele>
        <time>2013-12-09T08:48:53Z</time>
      </trkpt>
      <trkpt lat="43.72433" lon="7.05765">
        <ele>531.11468505859</ele>
        <time>2013-12-09T08:49:00Z</time>
      </trkpt>
      <trkpt lat="43.72437" lon="7.05757">
        <ele>538.28326416016</ele>
        <time>2013-12-09T08:49:08Z</time>
      </trkpt>
      <trkpt lat="43.72437" lon="7.05756">
        <ele>539.1484375</ele>
        <time>2013-12-09T08:49:09Z</time>
      </trkpt>
      <trkpt lat="43.72432" lon="7.05753">
        <ele>541.41436767578</ele>
        <time>2013-12-09T08:49:14Z</time>
      </trkpt>
      <trkpt lat="43.72424" lon="7.05756">
        <ele>539.23083496094</ele>
        <time>2013-12-09T08:49:22Z</time>
      </trkpt>
      <trkpt lat="43.7242" lon="7.05756">
        <ele>538.4892578125</ele>
        <time>2013-12-09T08:49:26Z</time>
      </trkpt>
      <trkpt lat="43.72416" lon="7.05758">
        <ele>537.13696289062</ele>
        <time>2013-12-09T08:49:30Z</time>
      </trkpt>
      <trkpt lat="43.72406" lon="7.05759">
        <ele>535.02941894531</ele>
        <time>2013-12-09T08:49:38Z</time>
      </trkpt>
      <trkpt lat="43.72402" lon="7.05756">
        <ele>537.29724121094</ele>
        <time>2013-12-09T08:49:42Z</time>
      </trkpt>
      <trkpt lat="43.72402" lon="7.05754">
        <ele>538.80206298828</ele>
        <time>2013-12-09T08:49:43Z</time>
      </trkpt>
      <trkpt lat="43.72405" lon="7.05749">
        <ele>542.96429443359</ele>
        <time>2013-12-09T08:49:47Z</time>
      </trkpt>
      <trkpt lat="43.72408" lon="7.05748">
        <ele>544.50280761719</ele>
        <time>2013-12-09T08:49:49Z</time>
      </trkpt>
      <trkpt lat="43.72416" lon="7.05742">
        <ele>550.36938476562</ele>
        <time>2013-12-09T08:49:58Z</time>
      </trkpt>
      <trkpt lat="43.72422" lon="7.05734">
        <ele>556.41729736328</ele>
        <time>2013-12-09T08:50:06Z</time>
      </trkpt>
      <trkpt lat="43.72428" lon="7.05728">
        <ele>561.39312744141</ele>
        <time>2013-12-09T08:50:13Z</time>
      </trkpt>
      <trkpt lat="43.72435" lon="7.05718">
        <ele>568.02044677734</ele>
        <time>2013-12-09T08:50:21Z</time>
      </trkpt>
      <trkpt lat="43.72442" lon="7.05709">
        <ele>573.05316162109</ele>
        <time>2013-12-09T08:50:28Z</time>
      </trkpt>
      <trkpt lat="43.72446" lon="7.05702">
        <ele>576.41058349609</ele>
        <time>2013-12-09T08:50:33Z</time>
      </trkpt>
      <trkpt lat="43.7245" lon="7.05698">
        <ele>578.48596191406</ele>
        <time>2013-12-09T08:50:37Z</time>
      </trkpt>
      <trkpt lat="43.72454" lon="7.05694">
        <ele>580.03698730469</ele>
        <time>2013-12-09T08:50:40Z</time>
      </trkpt>
      <trkpt lat="43.7246" lon="7.05688">
        <ele>582.32006835938</ele>
        <time>2013-12-09T08:50:46Z</time>
      </trkpt>
      <trkpt lat="43.72468" lon="7.05683">
        <ele>584.20837402344</ele>
        <time>2013-12-09T08:50:53Z</time>
      </trkpt>
      <trkpt lat="43.72477" lon="7.05675">
        <ele>587.00646972656</ele>
        <time>2013-12-09T08:51:02Z</time>
      </trkpt>
      <trkpt lat="43.72485" lon="7.05668">
        <ele>589.37536621094</ele>
        <time>2013-12-09T08:51:09Z</time>
      </trkpt>
      <trkpt lat="43.72489" lon="7.05665">
        <ele>590.33178710938</ele>
        <time>2013-12-09T08:51:13Z</time>
      </trkpt>
      <trkpt lat="43.72492" lon="7.05663">
        <ele>590.94464111328</ele>
        <time>2013-12-09T08:51:16Z</time>
      </trkpt>
      <trkpt lat="43.72499" lon="7.05656">
        <ele>592.65093994141</ele>
        <time>2013-12-09T08:51:23Z</time>
      </trkpt>
      <trkpt lat="43.72503" lon="7.05651">
        <ele>593.81103515625</ele>
        <time>2013-12-09T08:51:28Z</time>
      </trkpt>
      <trkpt lat="43.72504" lon="7.0565">
        <ele>593.91143798828</ele>
        <time>2013-12-09T08:51:29Z</time>
      </trkpt>
      <trkpt lat="43.72511" lon="7.05645">
        <ele>595.08917236328</ele>
        <time>2013-12-09T08:51:36Z</time>
      </trkpt>
      <trkpt lat="43.72516" lon="7.05639">
        <ele>596.46862792969</ele>
        <time>2013-12-09T08:51:44Z</time>
      </trkpt>
      <trkpt lat="43.72519" lon="7.05636">
        <ele>597.08538818359</ele>
        <time>2013-12-09T08:51:48Z</time>
      </trkpt>
      <trkpt lat="43.72521" lon="7.05634">
        <ele>597.71447753906</ele>
        <time>2013-12-09T08:51:51Z</time>
      </trkpt>
      <trkpt lat="43.72522" lon="7.05633">
        <ele>597.85241699219</ele>
        <time>2013-12-09T08:51:52Z</time>
      </trkpt>
      <trkpt lat="43.72526" lon="7.05632">
        <ele>598.14135742188</ele>
        <time>2013-12-09T08:51:56Z</time>
      </trkpt>
      <trkpt lat="43.72527" lon="7.05631">
        <ele>598.27124023438</ele>
        <time>2013-12-09T08:51:57Z</time>
      </trkpt>
      <trkpt lat="43.72527" lon="7.05631">
        <ele>598.29260253906</ele>
        <time>2013-12-09T08:51:58Z</time>
      </trkpt>
      <trkpt lat="43.72532" lon="7.05633">
        <ele>598.25109863281</ele>
        <time>2013-12-09T08:52:04Z</time>
      </trkpt>
      <trkpt lat="43.72538" lon="7.0564">
        <ele>597.05853271484</ele>
        <time>2013-12-09T08:52:11Z</time>
      </trkpt>
      <trkpt lat="43.7254" lon="7.05644">
        <ele>596.13238525391</ele>
        <time>2013-12-09T08:52:15Z</time>
      </trkpt>
      <trkpt lat="43.72543" lon="7.05643">
        <ele>596.76971435547</ele>
        <time>2013-12-09T08:52:18Z</time>
      </trkpt>
      <trkpt lat="43.72546" lon="7.05638">
        <ele>598.85388183594</ele>
        <time>2013-12-09T08:52:23Z</time>
      </trkpt>
      <trkpt lat="43.7255" lon="7.05632">
        <ele>600.32702636719</ele>
        <time>2013-12-09T08:52:28Z</time>
      </trkpt>
      <trkpt lat="43.72554" lon="7.05626">
        <ele>601.75</ele>
        <time>2013-12-09T08:52:33Z</time>
      </trkpt>
      <trkpt lat="43.72557" lon="7.05622">
        <ele>602.33477783203</ele>
        <time>2013-12-09T08:52:37Z</time>
      </trkpt>
      <trkpt lat="43.72562" lon="7.05614">
        <ele>603.28894042969</ele>
        <time>2013-12-09T08:52:44Z</time>
      </trkpt>
      <trkpt lat="43.72569" lon="7.05608">
        <ele>603.87951660156</ele>
        <time>2013-12-09T08:52:51Z</time>
      </trkpt>
      <trkpt lat="43.72577" lon="7.05605">
        <ele>603.96105957031</ele>
        <time>2013-12-09T08:52:58Z</time>
      </trkpt>
      <trkpt lat="43.72586" lon="7.05599">
        <ele>604.10504150391</ele>
        <time>2013-12-09T08:53:07Z</time>
      </trkpt>
      <trkpt lat="43.72594" lon="7.05593">
        <ele>603.98529052734</ele>
        <time>2013-12-09T08:53:15Z</time>
      </trkpt>
      <trkpt lat="43.72602" lon="7.05587">
        <ele>604.08435058594</ele>
        <time>2013-12-09T08:53:22Z</time>
      </trkpt>
      <trkpt lat="43.72617" lon="7.05577">
        <ele>604.70141601562</ele>
        <time>2013-12-09T08:53:33Z</time>
      </trkpt>
      <trkpt lat="43.72625" lon="7.0557">
        <ele>605.45330810547</ele>
        <time>2013-12-09T08:53:40Z</time>
      </trkpt>
      <trkpt lat="43.72636" lon="7.05565">
        <ele>606.20172119141</ele>
        <time>2013-12-09T08:53:47Z</time>
      </trkpt>
      <trkpt lat="43.72647" lon="7.05559">
        <ele>607.02569580078</ele>
        <time>2013-12-09T08:53:55Z</time>
      </trkpt>
      <trkpt lat="43.72662" lon="7.05554">
        <ele>608.00604248047</ele>
        <time>2013-12-09T08:54:04Z</time>
      </trkpt>
      <trkpt lat="43.72675" lon="7.0555">
        <ele>610.57965087891</ele>
        <time>2013-12-09T08:54:12Z</time>
      </trkpt>
      <trkpt lat="43.7268" lon="7.05547">
        <ele>611.72332763672</ele>
        <time>2013-12-09T08:54:15Z</time>
      </trkpt>
      <trkpt lat="43.72684" lon="7.05544">
        <ele>612.84600830078</ele>
        <time>2013-12-09T08:54:18Z</time>
      </trkpt>
      <trkpt lat="43.72685" lon="7.05543">
        <ele>613.14636230469</ele>
        <time>2013-12-09T08:54:19Z</time>
      </trkpt>
      <trkpt lat="43.72694" lon="7.05538">
        <ele>615.21624755859</ele>
        <time>2013-12-09T08:54:25Z</time>
      </trkpt>
      <trkpt lat="43.72705" lon="7.05531">
        <ele>616.19934082031</ele>
        <time>2013-12-09T08:54:32Z</time>
      </trkpt>
      <trkpt lat="43.72721" lon="7.05527">
        <ele>616.99359130859</ele>
        <time>2013-12-09T08:54:42Z</time>
      </trkpt>
      <trkpt lat="43.72729" lon="7.05538">
        <ele>617.13873291016</ele>
        <time>2013-12-09T08:54:48Z</time>
      </trkpt>
      <trkpt lat="43.72731" lon="7.05539">
        <ele>617.23828125</ele>
        <time>2013-12-09T08:54:49Z</time>
      </trkpt>
      <trkpt lat="43.72737" lon="7.05538">
        <ele>617.68975830078</ele>
        <time>2013-12-09T08:54:52Z</time>
      </trkpt>
      <trkpt lat="43.72741" lon="7.05537">
        <ele>618.060546875</ele>
        <time>2013-12-09T08:54:54Z</time>
      </trkpt>
      <trkpt lat="43.7275" lon="7.05532">
        <ele>618.86798095703</ele>
        <time>2013-12-09T08:55:00Z</time>
      </trkpt>
      <trkpt lat="43.7276" lon="7.05528">
        <ele>619.36859130859</ele>
        <time>2013-12-09T08:55:07Z</time>
      </trkpt>
      <trkpt lat="43.72773" lon="7.05524">
        <ele>619.86499023438</ele>
        <time>2013-12-09T08:55:16Z</time>
      </trkpt>
      <trkpt lat="43.72785" lon="7.0552">
        <ele>620</ele>
        <time>2013-12-09T08:55:24Z</time>
      </trkpt>
      <trkpt lat="43.72802" lon="7.05513">
        <ele>620</ele>
        <time>2013-12-09T08:55:36Z</time>
      </trkpt>
      <trkpt lat="43.7281" lon="7.05519">
        <ele>620.53527832031</ele>
        <time>2013-12-09T08:55:42Z</time>
      </trkpt>
      <trkpt lat="43.72809" lon="7.05531">
        <ele>620.61486816406</ele>
        <time>2013-12-09T08:55:49Z</time>
      </trkpt>
      <trkpt lat="43.72806" lon="7.0555">
        <ele>620.83648681641</ele>
        <time>2013-12-09T08:55:58Z</time>
      </trkpt>
      <trkpt lat="43.72804" lon="7.05563">
        <ele>621.19055175781</ele>
        <time>2013-12-09T08:56:05Z</time>
      </trkpt>
      <trkpt lat="43.72803" lon="7.05577">
        <ele>621.57635498047</ele>
        <time>2013-12-09T08:56:12Z</time>
      </trkpt>
      <trkpt lat="43.72804" lon="7.0558">
        <ele>621.79217529297</ele>
        <time>2013-12-09T08:56:14Z</time>
      </trkpt>
      <trkpt lat="43.72808" lon="7.05582">
        <ele>622.46899414062</ele>
        <time>2013-12-09T08:56:17Z</time>
      </trkpt>
      <trkpt lat="43.72813" lon="7.05575">
        <ele>622.99426269531</ele>
        <time>2013-12-09T08:56:21Z</time>
      </trkpt>
      <trkpt lat="43.7282" lon="7.05563">
        <ele>623.84228515625</ele>
        <time>2013-12-09T08:56:29Z</time>
      </trkpt>
      <trkpt lat="43.72823" lon="7.0556">
        <ele>624.23876953125</ele>
        <time>2013-12-09T08:56:31Z</time>
      </trkpt>
      <trkpt lat="43.72834" lon="7.0555">
        <ele>625.67431640625</ele>
        <time>2013-12-09T08:56:40Z</time>
      </trkpt>
      <trkpt lat="43.72845" lon="7.05538">
        <ele>626.38500976562</ele>
        <time>2013-12-09T08:56:49Z</time>
      </trkpt>
      <trkpt lat="43.72855" lon="7.05526">
        <ele>627.06805419922</ele>
        <time>2013-12-09T08:56:58Z</time>
      </trkpt>
      <trkpt lat="43.72867" lon="7.05516">
        <ele>628.59857177734</ele>
        <time>2013-12-09T08:57:07Z</time>
      </trkpt>
      <trkpt lat="43.7288" lon="7.05512">
        <ele>630.40954589844</ele>
        <time>2013-12-09T08:57:15Z</time>
      </trkpt>
      <trkpt lat="43.72897" lon="7.05509">
        <ele>632.81640625</ele>
        <time>2013-12-09T08:57:26Z</time>
      </trkpt>
      <trkpt lat="43.7291" lon="7.05508">
        <ele>634.63256835938</ele>
        <time>2013-12-09T08:57:35Z</time>
      </trkpt>
      <trkpt lat="43.72927" lon="7.05505">
        <ele>637.25671386719</ele>
        <time>2013-12-09T08:57:47Z</time>
      </trkpt>
      <trkpt lat="43.72942" lon="7.05501">
        <ele>639.67022705078</ele>
        <time>2013-12-09T08:57:57Z</time>
      </trkpt>
      <trkpt lat="43.72955" lon="7.05494">
        <ele>642.58477783203</ele>
        <time>2013-12-09T08:58:06Z</time>
      </trkpt>
      <trkpt lat="43.72963" lon="7.05492">
        <ele>644.36456298828</ele>
        <time>2013-12-09T08:58:13Z</time>
      </trkpt>
      <trkpt lat="43.72974" lon="7.05486">
        <ele>646.72106933594</ele>
        <time>2013-12-09T08:58:23Z</time>
      </trkpt>
      <trkpt lat="43.72983" lon="7.05481">
        <ele>649.20672607422</ele>
        <time>2013-12-09T08:58:32Z</time>
      </trkpt>
      <trkpt lat="43.72991" lon="7.05476">
        <ele>651.40747070312</ele>
        <time>2013-12-09T08:58:40Z</time>
      </trkpt>
      <trkpt lat="43.73001" lon="7.0547">
        <ele>653.95971679688</ele>
        <time>2013-12-09T08:58:49Z</time>
      </trkpt>
      <trkpt lat="43.73005" lon="7.05471">
        <ele>654.57769775391</ele>
        <time>2013-12-09T08:58:52Z</time>
      </trkpt>
      <trkpt lat="43.73006" lon="7.05476">
        <ele>655.06762695312</ele>
        <time>2013-12-09T08:58:55Z</time>
      </trkpt>
      <trkpt lat="43.73003" lon="7.05486">
        <ele>655.38818359375</ele>
        <time>2013-12-09T08:59:02Z</time>
      </trkpt>
      <trkpt lat="43.72999" lon="7.05496">
        <ele>655.41400146484</ele>
        <time>2013-12-09T08:59:08Z</time>
      </trkpt>
      <trkpt lat="43.72999" lon="7.05506">
        <ele>656.04632568359</ele>
        <time>2013-12-09T08:59:15Z</time>
      </trkpt>
      <trkpt lat="43.73006" lon="7.05504">
        <ele>657.07550048828</ele>
        <time>2013-12-09T08:59:22Z</time>
      </trkpt>
      <trkpt lat="43.73009" lon="7.05502">
        <ele>657.1474609375</ele>
        <time>2013-12-09T08:59:24Z</time>
      </trkpt>
      <trkpt lat="43.73013" lon="7.05498">
        <ele>657.31335449219</ele>
        <time>2013-12-09T08:59:29Z</time>
      </trkpt>
      <trkpt lat="43.73023" lon="7.05488">
        <ele>657.94061279297</ele>
        <time>2013-12-09T08:59:40Z</time>
      </trkpt>
      <trkpt lat="43.7303" lon="7.0548">
        <ele>659.04626464844</ele>
        <time>2013-12-09T08:59:48Z</time>
      </trkpt>
      <trkpt lat="43.73037" lon="7.05472">
        <ele>660.63317871094</ele>
        <time>2013-12-09T08:59:56Z</time>
      </trkpt>
      <trkpt lat="43.73045" lon="7.05469">
        <ele>662.42199707031</ele>
        <time>2013-12-09T09:00:03Z</time>
      </trkpt>
      <trkpt lat="43.73055" lon="7.05466">
        <ele>664.41400146484</ele>
        <time>2013-12-09T09:00:11Z</time>
      </trkpt>
      <trkpt lat="43.73066" lon="7.05461">
        <ele>667.89953613281</ele>
        <time>2013-12-09T09:00:21Z</time>
      </trkpt>
      <trkpt lat="43.73078" lon="7.05454">
        <ele>672.12854003906</ele>
        <time>2013-12-09T09:00:32Z</time>
      </trkpt>
      <trkpt lat="43.73087" lon="7.05446">
        <ele>673.73651123047</ele>
        <time>2013-12-09T09:00:41Z</time>
      </trkpt>
      <trkpt lat="43.73092" lon="7.05439">
        <ele>673.43225097656</ele>
        <time>2013-12-09T09:00:48Z</time>
      </trkpt>
      <trkpt lat="43.731" lon="7.05428">
        <ele>673.23907470703</ele>
        <time>2013-12-09T09:00:58Z</time>
      </trkpt>
      <trkpt lat="43.73108" lon="7.05422">
        <ele>673.95880126953</ele>
        <time>2013-12-09T09:01:06Z</time>
      </trkpt>
      <trkpt lat="43.73111" lon="7.05421">
        <ele>674.40844726562</ele>
        <time>2013-12-09T09:01:08Z</time>
      </trkpt>
      <trkpt lat="43.73114" lon="7.05426">
        <ele>675.88970947266</ele>
        <time>2013-12-09T09:01:12Z</time>
      </trkpt>
      <trkpt lat="43.73114" lon="7.05429">
        <ele>676.34478759766</ele>
        <time>2013-12-09T09:01:14Z</time>
      </trkpt>
      <trkpt lat="43.73112" lon="7.05441">
        <ele>677.02990722656</ele>
        <time>2013-12-09T09:01:21Z</time>
      </trkpt>
      <trkpt lat="43.73108" lon="7.05455">
        <ele>678.38275146484</ele>
        <time>2013-12-09T09:01:29Z</time>
      </trkpt>
      <trkpt lat="43.73104" lon="7.05467">
        <ele>679.80865478516</ele>
        <time>2013-12-09T09:01:37Z</time>
      </trkpt>
      <trkpt lat="43.73099" lon="7.05481">
        <ele>681.11071777344</ele>
        <time>2013-12-09T09:01:45Z</time>
      </trkpt>
      <trkpt lat="43.73095" lon="7.05493">
        <ele>682.02392578125</ele>
        <time>2013-12-09T09:01:52Z</time>
      </trkpt>
      <trkpt lat="43.73091" lon="7.05507">
        <ele>683.72131347656</ele>
        <time>2013-12-09T09:02:00Z</time>
      </trkpt>
      <trkpt lat="43.73087" lon="7.05518">
        <ele>685.3251953125</ele>
        <time>2013-12-09T09:02:07Z</time>
      </trkpt>
      <trkpt lat="43.73086" lon="7.05532">
        <ele>688.91613769531</ele>
        <time>2013-12-09T09:02:15Z</time>
      </trkpt>
      <trkpt lat="43.73093" lon="7.05531">
        <ele>690.55322265625</ele>
        <time>2013-12-09T09:02:21Z</time>
      </trkpt>
      <trkpt lat="43.73096" lon="7.05525">
        <ele>690.12927246094</ele>
        <time>2013-12-09T09:02:26Z</time>
      </trkpt>
      <trkpt lat="43.731" lon="7.05521">
        <ele>689.89215087891</ele>
        <time>2013-12-09T09:02:30Z</time>
      </trkpt>
      <trkpt lat="43.73108" lon="7.05513">
        <ele>689.84295654297</ele>
        <time>2013-12-09T09:02:40Z</time>
      </trkpt>
      <trkpt lat="43.73117" lon="7.05503">
        <ele>690.09906005859</ele>
        <time>2013-12-09T09:02:50Z</time>
      </trkpt>
      <trkpt lat="43.73124" lon="7.05494">
        <ele>690.95416259766</ele>
        <time>2013-12-09T09:02:59Z</time>
      </trkpt>
      <trkpt lat="43.73129" lon="7.05486">
        <ele>691.72479248047</ele>
        <time>2013-12-09T09:03:06Z</time>
      </trkpt>
      <trkpt lat="43.73134" lon="7.05483">
        <ele>693.62054443359</ele>
        <time>2013-12-09T09:03:12Z</time>
      </trkpt>
      <trkpt lat="43.73135" lon="7.05484">
        <ele>694.21917724609</ele>
        <time>2013-12-09T09:03:13Z</time>
      </trkpt>
      <trkpt lat="43.73137" lon="7.05491">
        <ele>695.93157958984</ele>
        <time>2013-12-09T09:03:18Z</time>
      </trkpt>
      <trkpt lat="43.73135" lon="7.05496">
        <ele>695.91510009766</ele>
        <time>2013-12-09T09:03:22Z</time>
      </trkpt>
      <trkpt lat="43.73134" lon="7.05499">
        <ele>695.89440917969</ele>
        <time>2013-12-09T09:03:24Z</time>
      </trkpt>
      <trkpt lat="43.7313" lon="7.05506">
        <ele>696.25817871094</ele>
        <time>2013-12-09T09:03:30Z</time>
      </trkpt>
      <trkpt lat="43.73126" lon="7.05519">
        <ele>697.91833496094</ele>
        <time>2013-12-09T09:03:39Z</time>
      </trkpt>
      <trkpt lat="43.73125" lon="7.05529">
        <ele>700.26379394531</ele>
        <time>2013-12-09T09:03:46Z</time>
      </trkpt>
      <trkpt lat="43.73125" lon="7.05532">
        <ele>700.98480224609</ele>
        <time>2013-12-09T09:03:48Z</time>
      </trkpt>
      <trkpt lat="43.73124" lon="7.05537">
        <ele>701.86370849609</ele>
        <time>2013-12-09T09:03:51Z</time>
      </trkpt>
      <trkpt lat="43.73123" lon="7.05544">
        <ele>703.24212646484</ele>
        <time>2013-12-09T09:03:56Z</time>
      </trkpt>
      <trkpt lat="43.7312" lon="7.0556">
        <ele>706.13098144531</ele>
        <time>2013-12-09T09:04:06Z</time>
      </trkpt>
      <trkpt lat="43.73114" lon="7.05572">
        <ele>705.88208007812</ele>
        <time>2013-12-09T09:04:14Z</time>
      </trkpt>
      <trkpt lat="43.73106" lon="7.05585">
        <ele>706.16589355469</ele>
        <time>2013-12-09T09:04:23Z</time>
      </trkpt>
      <trkpt lat="43.73098" lon="7.05597">
        <ele>707.49273681641</ele>
        <time>2013-12-09T09:04:31Z</time>
      </trkpt>
      <trkpt lat="43.73091" lon="7.05611">
        <ele>709.06530761719</ele>
        <time>2013-12-09T09:04:41Z</time>
      </trkpt>
      <trkpt lat="43.73084" lon="7.05622">
        <ele>710.40991210938</ele>
        <time>2013-12-09T09:04:50Z</time>
      </trkpt>
      <trkpt lat="43.73078" lon="7.05632">
        <ele>710.05560302734</ele>
        <time>2013-12-09T09:04:58Z</time>
      </trkpt>
      <trkpt lat="43.73068" lon="7.05643">
        <ele>707.64678955078</ele>
        <time>2013-12-09T09:05:08Z</time>
      </trkpt>
      <trkpt lat="43.73061" lon="7.05648">
        <ele>704.60522460938</ele>
        <time>2013-12-09T09:05:15Z</time>
      </trkpt>
      <trkpt lat="43.73052" lon="7.05653">
        <ele>701.26287841797</ele>
        <time>2013-12-09T09:05:22Z</time>
      </trkpt>
      <trkpt lat="43.73042" lon="7.05662">
        <ele>697.34613037109</ele>
        <time>2013-12-09T09:05:32Z</time>
      </trkpt>
      <trkpt lat="43.73036" lon="7.05675">
        <ele>696.73083496094</ele>
        <time>2013-12-09T09:05:41Z</time>
      </trkpt>
      <trkpt lat="43.73035" lon="7.05692">
        <ele>699.56457519531</ele>
        <time>2013-12-09T09:05:51Z</time>
      </trkpt>
      <trkpt lat="43.73032" lon="7.05704">
        <ele>699.25531005859</ele>
        <time>2013-12-09T09:05:58Z</time>
      </trkpt>
      <trkpt lat="43.73027" lon="7.05721">
        <ele>697.5126953125</ele>
        <time>2013-12-09T09:06:07Z</time>
      </trkpt>
      <trkpt lat="43.73023" lon="7.05744">
        <ele>697.94458007812</ele>
        <time>2013-12-09T09:06:17Z</time>
      </trkpt>
      <trkpt lat="43.73027" lon="7.05756">
        <ele>700.8896484375</ele>
        <time>2013-12-09T09:06:23Z</time>
      </trkpt>
      <trkpt lat="43.73028" lon="7.05757">
        <ele>701.78698730469</ele>
        <time>2013-12-09T09:06:24Z</time>
      </trkpt>
      <trkpt lat="43.73036" lon="7.05753">
        <ele>707.83245849609</ele>
        <time>2013-12-09T09:06:30Z</time>
      </trkpt>
      <trkpt lat="43.73038" lon="7.05752">
        <ele>708.97711181641</ele>
        <time>2013-12-09T09:06:31Z</time>
      </trkpt>
      <trkpt lat="43.73048" lon="7.0574">
        <ele>715.66198730469</ele>
        <time>2013-12-09T09:06:41Z</time>
      </trkpt>
      <trkpt lat="43.73054" lon="7.05733">
        <ele>719.70806884766</ele>
        <time>2013-12-09T09:06:47Z</time>
      </trkpt>
      <trkpt lat="43.7306" lon="7.05723">
        <ele>721.58740234375</ele>
        <time>2013-12-09T09:06:55Z</time>
      </trkpt>
      <trkpt lat="43.73065" lon="7.05712">
        <ele>721.60473632812</ele>
        <time>2013-12-09T09:07:03Z</time>
      </trkpt>
      <trkpt lat="43.73071" lon="7.05708">
        <ele>722.88873291016</ele>
        <time>2013-12-09T09:07:08Z</time>
      </trkpt>
      <trkpt lat="43.73073" lon="7.05709">
        <ele>723.81567382812</ele>
        <time>2013-12-09T09:07:10Z</time>
      </trkpt>
      <trkpt lat="43.73075" lon="7.0572">
        <ele>725.82757568359</ele>
        <time>2013-12-09T09:07:16Z</time>
      </trkpt>
      <trkpt lat="43.73067" lon="7.05733">
        <ele>725.60076904297</ele>
        <time>2013-12-09T09:07:23Z</time>
      </trkpt>
      <trkpt lat="43.73066" lon="7.05735">
        <ele>725.46575927734</ele>
        <time>2013-12-09T09:07:24Z</time>
      </trkpt>
      <trkpt lat="43.73061" lon="7.05748">
        <ele>725.03192138672</ele>
        <time>2013-12-09T09:07:30Z</time>
      </trkpt>
      <trkpt lat="43.73061" lon="7.05758">
        <ele>725.07470703125</ele>
        <time>2013-12-09T09:07:35Z</time>
      </trkpt>
      <trkpt lat="43.73062" lon="7.0576">
        <ele>725.51861572266</ele>
        <time>2013-12-09T09:07:36Z</time>
      </trkpt>
      <trkpt lat="43.73069" lon="7.0576">
        <ele>728.28851318359</ele>
        <time>2013-12-09T09:07:41Z</time>
      </trkpt>
      <trkpt lat="43.7307" lon="7.0576">
        <ele>728.78167724609</ele>
        <time>2013-12-09T09:07:42Z</time>
      </trkpt>
      <trkpt lat="43.73077" lon="7.05752">
        <ele>732.00823974609</ele>
        <time>2013-12-09T09:07:48Z</time>
      </trkpt>
      <trkpt lat="43.7308" lon="7.05745">
        <ele>732.64459228516</ele>
        <time>2013-12-09T09:07:53Z</time>
      </trkpt>
      <trkpt lat="43.73081" lon="7.05744">
        <ele>732.89050292969</ele>
        <time>2013-12-09T09:07:54Z</time>
      </trkpt>
      <trkpt lat="43.73086" lon="7.05736">
        <ele>732.63464355469</ele>
        <time>2013-12-09T09:08:00Z</time>
      </trkpt>
      <trkpt lat="43.73094" lon="7.05729">
        <ele>733.24078369141</ele>
        <time>2013-12-09T09:08:07Z</time>
      </trkpt>
      <trkpt lat="43.73101" lon="7.05719">
        <ele>733.58764648438</ele>
        <time>2013-12-09T09:08:15Z</time>
      </trkpt>
      <trkpt lat="43.73108" lon="7.05709">
        <ele>734.27429199219</ele>
        <time>2013-12-09T09:08:23Z</time>
      </trkpt>
      <trkpt lat="43.73117" lon="7.05696">
        <ele>735.56536865234</ele>
        <time>2013-12-09T09:08:33Z</time>
      </trkpt>
      <trkpt lat="43.73127" lon="7.05686">
        <ele>737.46875</ele>
        <time>2013-12-09T09:08:42Z</time>
      </trkpt>
      <trkpt lat="43.73135" lon="7.05677">
        <ele>739.68688964844</ele>
        <time>2013-12-09T09:08:50Z</time>
      </trkpt>
      <trkpt lat="43.73146" lon="7.05667">
        <ele>742.51892089844</ele>
        <time>2013-12-09T09:09:00Z</time>
      </trkpt>
      <trkpt lat="43.73157" lon="7.05658">
        <ele>745.15808105469</ele>
        <time>2013-12-09T09:09:10Z</time>
      </trkpt>
      <trkpt lat="43.73167" lon="7.05653">
        <ele>748.17974853516</ele>
        <time>2013-12-09T09:09:18Z</time>
      </trkpt>
      <trkpt lat="43.7318" lon="7.05646">
        <ele>751.65679931641</ele>
        <time>2013-12-09T09:09:29Z</time>
      </trkpt>
      <trkpt lat="43.7319" lon="7.0564">
        <ele>753.58575439453</ele>
        <time>2013-12-09T09:09:37Z</time>
      </trkpt>
      <trkpt lat="43.73199" lon="7.05629">
        <ele>754.27081298828</ele>
        <time>2013-12-09T09:09:46Z</time>
      </trkpt>
      <trkpt lat="43.73208" lon="7.05617">
        <ele>754.57489013672</ele>
        <time>2013-12-09T09:09:55Z</time>
      </trkpt>
      <trkpt lat="43.73216" lon="7.056">
        <ele>754.15911865234</ele>
        <time>2013-12-09T09:10:05Z</time>
      </trkpt>
      <trkpt lat="43.73224" lon="7.05581">
        <ele>753.06536865234</ele>
        <time>2013-12-09T09:10:16Z</time>
      </trkpt>
      <trkpt lat="43.73233" lon="7.05561">
        <ele>752.77349853516</ele>
        <time>2013-12-09T09:10:26Z</time>
      </trkpt>
      <trkpt lat="43.73239" lon="7.05551">
        <ele>752.66723632812</ele>
        <time>2013-12-09T09:10:34Z</time>
      </trkpt>
      <trkpt lat="43.7324" lon="7.0555">
        <ele>752.55889892578</ele>
        <time>2013-12-09T09:11:31Z</time>
      </trkpt>
      <trkpt lat="43.73242" lon="7.05547">
        <ele>752.44116210938</ele>
        <time>2013-12-09T09:13:10Z</time>
      </trkpt>
      <trkpt lat="43.73247" lon="7.05538">
        <ele>751.24383544922</ele>
        <time>2013-12-09T09:13:16Z</time>
      </trkpt>
      <trkpt lat="43.73258" lon="7.05529">
        <ele>751.72882080078</ele>
        <time>2013-12-09T09:13:23Z</time>
      </trkpt>
      <trkpt lat="43.73271" lon="7.05524">
        <ele>755.50799560547</ele>
        <time>2013-12-09T09:13:31Z</time>
      </trkpt>
      <trkpt lat="43.73283" lon="7.05521">
        <ele>759.21026611328</ele>
        <time>2013-12-09T09:13:39Z</time>
      </trkpt>
      <trkpt lat="43.73296" lon="7.05519">
        <ele>762.64660644531</ele>
        <time>2013-12-09T09:13:49Z</time>
      </trkpt>
      <trkpt lat="43.73309" lon="7.05519">
        <ele>766.80419921875</ele>
        <time>2013-12-09T09:13:58Z</time>
      </trkpt>
      <trkpt lat="43.73318" lon="7.0552">
        <ele>770.81811523438</ele>
        <time>2013-12-09T09:14:05Z</time>
      </trkpt>
      <trkpt lat="43.7333" lon="7.05517">
        <ele>774.81207275391</ele>
        <time>2013-12-09T09:14:15Z</time>
      </trkpt>
      <trkpt lat="43.7334" lon="7.05512">
        <ele>775.85906982422</ele>
        <time>2013-12-09T09:14:23Z</time>
      </trkpt>
      <trkpt lat="43.73351" lon="7.05505">
        <ele>776.67419433594</ele>
        <time>2013-12-09T09:14:33Z</time>
      </trkpt>
      <trkpt lat="43.73358" lon="7.0551">
        <ele>779.59899902344</ele>
        <time>2013-12-09T09:14:39Z</time>
      </trkpt>
      <trkpt lat="43.7336" lon="7.05522">
        <ele>783.22485351562</ele>
        <time>2013-12-09T09:14:46Z</time>
      </trkpt>
      <trkpt lat="43.73364" lon="7.05537">
        <ele>788.95062255859</ele>
        <time>2013-12-09T09:14:55Z</time>
      </trkpt>
      <trkpt lat="43.73371" lon="7.05551">
        <ele>795.48468017578</ele>
        <time>2013-12-09T09:15:05Z</time>
      </trkpt>
      <trkpt lat="43.7338" lon="7.05554">
        <ele>798.98474121094</ele>
        <time>2013-12-09T09:15:12Z</time>
      </trkpt>
      <trkpt lat="43.7339" lon="7.0555">
        <ele>800.85943603516</ele>
        <time>2013-12-09T09:15:20Z</time>
      </trkpt>
      <trkpt lat="43.73399" lon="7.05536">
        <ele>799.67895507812</ele>
        <time>2013-12-09T09:15:29Z</time>
      </trkpt>
      <trkpt lat="43.73404" lon="7.05525">
        <ele>798.28247070312</ele>
        <time>2013-12-09T09:15:36Z</time>
      </trkpt>
      <trkpt lat="43.73411" lon="7.05511">
        <ele>797.78082275391</ele>
        <time>2013-12-09T09:15:44Z</time>
      </trkpt>
      <trkpt lat="43.73421" lon="7.05492">
        <ele>798.61108398438</ele>
        <time>2013-12-09T09:15:55Z</time>
      </trkpt>
      <trkpt lat="43.73428" lon="7.05479">
        <ele>799.70288085938</ele>
        <time>2013-12-09T09:16:03Z</time>
      </trkpt>
      <trkpt lat="43.73436" lon="7.0547">
        <ele>801.46301269531</ele>
        <time>2013-12-09T09:16:11Z</time>
      </trkpt>
      <trkpt lat="43.73444" lon="7.05463">
        <ele>803.24829101562</ele>
        <time>2013-12-09T09:16:18Z</time>
      </trkpt>
      <trkpt lat="43.73455" lon="7.05457">
        <ele>806.18316650391</ele>
        <time>2013-12-09T09:16:27Z</time>
      </trkpt>
      <trkpt lat="43.73467" lon="7.0545">
        <ele>809.69982910156</ele>
        <time>2013-12-09T09:16:37Z</time>
      </trkpt>
      <trkpt lat="43.73478" lon="7.05446">
        <ele>812.9482421875</ele>
        <time>2013-12-09T09:16:46Z</time>
      </trkpt>
      <trkpt lat="43.73488" lon="7.05438">
        <ele>815.84112548828</ele>
        <time>2013-12-09T09:16:55Z</time>
      </trkpt>
      <trkpt lat="43.7349" lon="7.05436">
        <ele>816.31127929688</ele>
        <time>2013-12-09T09:16:57Z</time>
      </trkpt>
      <trkpt lat="43.73493" lon="7.05432">
        <ele>817.03503417969</ele>
        <time>2013-12-09T09:17:00Z</time>
      </trkpt>
      <trkpt lat="43.73502" lon="7.05422">
        <ele>818.91070556641</ele>
        <time>2013-12-09T09:17:09Z</time>
      </trkpt>
      <trkpt lat="43.7351" lon="7.05411">
        <ele>821.50549316406</ele>
        <time>2013-12-09T09:17:18Z</time>
      </trkpt>
      <trkpt lat="43.73518" lon="7.05402">
        <ele>824.31134033203</ele>
        <time>2013-12-09T09:17:26Z</time>
      </trkpt>
      <trkpt lat="43.73531" lon="7.0539">
        <ele>827.90747070312</ele>
        <time>2013-12-09T09:17:37Z</time>
      </trkpt>
      <trkpt lat="43.7354" lon="7.05379">
        <ele>831.61627197266</ele>
        <time>2013-12-09T09:17:46Z</time>
      </trkpt>
      <trkpt lat="43.73547" lon="7.05369">
        <ele>834.27362060547</ele>
        <time>2013-12-09T09:17:53Z</time>
      </trkpt>
      <trkpt lat="43.73555" lon="7.05357">
        <ele>837.32293701172</ele>
        <time>2013-12-09T09:18:02Z</time>
      </trkpt>
      <trkpt lat="43.73561" lon="7.05348">
        <ele>839.48553466797</ele>
        <time>2013-12-09T09:18:09Z</time>
      </trkpt>
      <trkpt lat="43.73567" lon="7.05337">
        <ele>841.67938232422</ele>
        <time>2013-12-09T09:18:17Z</time>
      </trkpt>
      <trkpt lat="43.73573" lon="7.05327">
        <ele>843.68981933594</ele>
        <time>2013-12-09T09:18:27Z</time>
      </trkpt>
      <trkpt lat="43.73573" lon="7.05325">
        <ele>843.81085205078</ele>
        <time>2013-12-09T09:18:28Z</time>
      </trkpt>
      <trkpt lat="43.73571" lon="7.05325">
        <ele>843.46954345703</ele>
        <time>2013-12-09T09:18:31Z</time>
      </trkpt>
      <trkpt lat="43.73572" lon="7.0533">
        <ele>843.34136962891</ele>
        <time>2013-12-09T09:18:36Z</time>
      </trkpt>
      <trkpt lat="43.73574" lon="7.05329">
        <ele>843.71685791016</ele>
        <time>2013-12-09T09:18:38Z</time>
      </trkpt>
      <trkpt lat="43.73574" lon="7.05329">
        <ele>843.82891845703</ele>
        <time>2013-12-09T09:18:39Z</time>
      </trkpt>
      <trkpt lat="43.73576" lon="7.05326">
        <ele>844.44744873047</ele>
        <time>2013-12-09T09:18:43Z</time>
      </trkpt>
      <trkpt lat="43.73577" lon="7.05325">
        <ele>844.71099853516</ele>
        <time>2013-12-09T09:18:44Z</time>
      </trkpt>
      <trkpt lat="43.73577" lon="7.05318">
        <ele>845.37817382812</ele>
        <time>2013-12-09T09:18:49Z</time>
      </trkpt>
      <trkpt lat="43.73577" lon="7.05316">
        <ele>845.55346679688</ele>
        <time>2013-12-09T09:18:51Z</time>
      </trkpt>
      <trkpt lat="43.73576" lon="7.05315">
        <ele>845.57995605469</ele>
        <time>2013-12-09T09:18:54Z</time>
      </trkpt>
      <trkpt lat="43.73572" lon="7.05311">
        <ele>845.10278320312</ele>
        <time>2013-12-09T09:19:10Z</time>
      </trkpt>
      <trkpt lat="43.7357" lon="7.05306">
        <ele>845.07275390625</ele>
        <time>2013-12-09T09:19:19Z</time>
      </trkpt>
      <trkpt lat="43.73574" lon="7.05306">
        <ele>845.90930175781</ele>
        <time>2013-12-09T09:19:24Z</time>
      </trkpt>
      <trkpt lat="43.73579" lon="7.05307">
        <ele>846.79541015625</ele>
        <time>2013-12-09T09:19:27Z</time>
      </trkpt>
      <trkpt lat="43.73581" lon="7.05306">
        <ele>847.30230712891</ele>
        <time>2013-12-09T09:19:29Z</time>
      </trkpt>
      <trkpt lat="43.73582" lon="7.05303">
        <ele>848.2236328125</ele>
        <time>2013-12-09T09:19:34Z</time>
      </trkpt>
      <trkpt lat="43.73588" lon="7.05296">
        <ele>850.42742919922</ele>
        <time>2013-12-09T09:19:42Z</time>
      </trkpt>
      <trkpt lat="43.73593" lon="7.05291">
        <ele>852.43426513672</ele>
        <time>2013-12-09T09:19:51Z</time>
      </trkpt>
      <trkpt lat="43.73595" lon="7.05288">
        <ele>853.19732666016</ele>
        <time>2013-12-09T09:19:56Z</time>
      </trkpt>
      <trkpt lat="43.73597" lon="7.05286">
        <ele>853.86193847656</ele>
        <time>2013-12-09T09:20:04Z</time>
      </trkpt>
      <trkpt lat="43.73598" lon="7.05283">
        <ele>854.58215332031</ele>
        <time>2013-12-09T09:20:10Z</time>
      </trkpt>
      <trkpt lat="43.736" lon="7.05279">
        <ele>855.31396484375</ele>
        <time>2013-12-09T09:20:15Z</time>
      </trkpt>
      <trkpt lat="43.73601" lon="7.05275">
        <ele>856.04699707031</ele>
        <time>2013-12-09T09:20:21Z</time>
      </trkpt>
      <trkpt lat="43.73604" lon="7.05272">
        <ele>856.90698242188</ele>
        <time>2013-12-09T09:20:27Z</time>
      </trkpt>
      <trkpt lat="43.73606" lon="7.05268">
        <ele>857.75335693359</ele>
        <time>2013-12-09T09:20:35Z</time>
      </trkpt>
      <trkpt lat="43.73609" lon="7.05263">
        <ele>858.57690429688</ele>
        <time>2013-12-09T09:20:43Z</time>
      </trkpt>
      <trkpt lat="43.73611" lon="7.05264">
        <ele>858.96667480469</ele>
        <time>2013-12-09T09:20:49Z</time>
      </trkpt>
      <trkpt lat="43.73613" lon="7.05264">
        <ele>859.33862304688</ele>
        <time>2013-12-09T09:20:55Z</time>
      </trkpt>
      <trkpt lat="43.73616" lon="7.0526">
        <ele>860.4853515625</ele>
        <time>2013-12-09T09:21:02Z</time>
      </trkpt>
      <trkpt lat="43.73618" lon="7.05258">
        <ele>861.14794921875</ele>
        <time>2013-12-09T09:21:08Z</time>
      </trkpt>
      <trkpt lat="43.7362" lon="7.05256">
        <ele>861.85864257812</ele>
        <time>2013-12-09T09:21:13Z</time>
      </trkpt>
      <trkpt lat="43.73619" lon="7.05254">
        <ele>861.8037109375</ele>
        <time>2013-12-09T09:21:18Z</time>
      </trkpt>
      <trkpt lat="43.73618" lon="7.05252">
        <ele>861.50500488281</ele>
        <time>2013-12-09T09:21:24Z</time>
      </trkpt>
      <trkpt lat="43.7362" lon="7.05249">
        <ele>862.30859375</ele>
        <time>2013-12-09T09:21:29Z</time>
      </trkpt>
      <trkpt lat="43.73624" lon="7.0525">
        <ele>863.37762451172</ele>
        <time>2013-12-09T09:21:36Z</time>
      </trkpt>
      <trkpt lat="43.73627" lon="7.05251">
        <ele>863.85681152344</ele>
        <time>2013-12-09T09:21:42Z</time>
      </trkpt>
      <trkpt lat="43.7363" lon="7.05254">
        <ele>864.50909423828</ele>
        <time>2013-12-09T09:21:50Z</time>
      </trkpt>
      <trkpt lat="43.73634" lon="7.05252">
        <ele>865.67980957031</ele>
        <time>2013-12-09T09:22:01Z</time>
      </trkpt>
      <trkpt lat="43.73634" lon="7.0525">
        <ele>865.78509521484</ele>
        <time>2013-12-09T09:22:06Z</time>
      </trkpt>
      <trkpt lat="43.73633" lon="7.05245">
        <ele>865.95654296875</ele>
        <time>2013-12-09T09:22:13Z</time>
      </trkpt>
      <trkpt lat="43.73634" lon="7.0524">
        <ele>866.65734863281</ele>
        <time>2013-12-09T09:22:20Z</time>
      </trkpt>
      <trkpt lat="43.73639" lon="7.0524">
        <ele>867.7041015625</ele>
        <time>2013-12-09T09:22:28Z</time>
      </trkpt>
      <trkpt lat="43.73641" lon="7.05241">
        <ele>868.01593017578</ele>
        <time>2013-12-09T09:22:33Z</time>
      </trkpt>
      <trkpt lat="43.73643" lon="7.05241">
        <ele>868.5849609375</ele>
        <time>2013-12-09T09:22:39Z</time>
      </trkpt>
      <trkpt lat="43.73645" lon="7.05238">
        <ele>869.01586914062</ele>
        <time>2013-12-09T09:22:45Z</time>
      </trkpt>
      <trkpt lat="43.73644" lon="7.05235">
        <ele>869.14410400391</ele>
        <time>2013-12-09T09:22:50Z</time>
      </trkpt>
      <trkpt lat="43.73645" lon="7.05229">
        <ele>869.58837890625</ele>
        <time>2013-12-09T09:22:58Z</time>
      </trkpt>
      <trkpt lat="43.73645" lon="7.05226">
        <ele>869.76379394531</ele>
        <time>2013-12-09T09:23:03Z</time>
      </trkpt>
      <trkpt lat="43.73643" lon="7.05217">
        <ele>870.1435546875</ele>
        <time>2013-12-09T09:23:13Z</time>
      </trkpt>
      <trkpt lat="43.73642" lon="7.05214">
        <ele>870.16674804688</ele>
        <time>2013-12-09T09:23:19Z</time>
      </trkpt>
      <trkpt lat="43.73642" lon="7.05209">
        <ele>870.43609619141</ele>
        <time>2013-12-09T09:23:26Z</time>
      </trkpt>
      <trkpt lat="43.73643" lon="7.05199">
        <ele>871.33343505859</ele>
        <time>2013-12-09T09:23:32Z</time>
      </trkpt>
      <trkpt lat="43.73644" lon="7.05191">
        <ele>871.94598388672</ele>
        <time>2013-12-09T09:23:39Z</time>
      </trkpt>
      <trkpt lat="43.73642" lon="7.05185">
        <ele>872.14855957031</ele>
        <time>2013-12-09T09:23:46Z</time>
      </trkpt>
      <trkpt lat="43.73642" lon="7.0518">
        <ele>872.52618408203</ele>
        <time>2013-12-09T09:23:53Z</time>
      </trkpt>
      <trkpt lat="43.73642" lon="7.05179">
        <ele>872.57769775391</ele>
        <time>2013-12-09T09:23:54Z</time>
      </trkpt>
      <trkpt lat="43.7364" lon="7.05176">
        <ele>872.53308105469</ele>
        <time>2013-12-09T09:23:57Z</time>
      </trkpt>
      <trkpt lat="43.7364" lon="7.05172">
        <ele>872.82489013672</ele>
        <time>2013-12-09T09:24:03Z</time>
      </trkpt>
      <trkpt lat="43.7364" lon="7.05164">
        <ele>873.42541503906</ele>
        <time>2013-12-09T09:24:10Z</time>
      </trkpt>
      <trkpt lat="43.7364" lon="7.05163">
        <ele>873.47351074219</ele>
        <time>2013-12-09T09:24:11Z</time>
      </trkpt>
      <trkpt lat="43.73639" lon="7.05161">
        <ele>873.63659667969</ele>
        <time>2013-12-09T09:24:13Z</time>
      </trkpt>
      <trkpt lat="43.73639" lon="7.05156">
        <ele>874.16186523438</ele>
        <time>2013-12-09T09:24:17Z</time>
      </trkpt>
      <trkpt lat="43.73639" lon="7.05154">
        <ele>874.42449951172</ele>
        <time>2013-12-09T09:24:19Z</time>
      </trkpt>
      <trkpt lat="43.7364" lon="7.05148">
        <ele>875.11114501953</ele>
        <time>2013-12-09T09:24:24Z</time>
      </trkpt>
      <trkpt lat="43.73642" lon="7.05143">
        <ele>875.93682861328</ele>
        <time>2013-12-09T09:24:31Z</time>
      </trkpt>
      <trkpt lat="43.73641" lon="7.05138">
        <ele>876.37799072266</ele>
        <time>2013-12-09T09:24:37Z</time>
      </trkpt>
      <trkpt lat="43.73639" lon="7.05134">
        <ele>876.58227539062</ele>
        <time>2013-12-09T09:24:42Z</time>
      </trkpt>
      <trkpt lat="43.7364" lon="7.05127">
        <ele>877.42346191406</ele>
        <time>2013-12-09T09:24:49Z</time>
      </trkpt>
      <trkpt lat="43.73638" lon="7.05119">
        <ele>877.98919677734</ele>
        <time>2013-12-09T09:24:57Z</time>
      </trkpt>
      <trkpt lat="43.73637" lon="7.05109">
        <ele>878.787109375</ele>
        <time>2013-12-09T09:25:05Z</time>
      </trkpt>
      <trkpt lat="43.73636" lon="7.05101">
        <ele>879.51153564453</ele>
        <time>2013-12-09T09:25:13Z</time>
      </trkpt>
      <trkpt lat="43.73635" lon="7.05095">
        <ele>879.85308837891</ele>
        <time>2013-12-09T09:25:18Z</time>
      </trkpt>
      <trkpt lat="43.73634" lon="7.0509">
        <ele>880.24780273438</ele>
        <time>2013-12-09T09:25:24Z</time>
      </trkpt>
      <trkpt lat="43.73633" lon="7.05086">
        <ele>880.45910644531</ele>
        <time>2013-12-09T09:25:29Z</time>
      </trkpt>
      <trkpt lat="43.73633" lon="7.0508">
        <ele>881.0234375</ele>
        <time>2013-12-09T09:25:35Z</time>
      </trkpt>
      <trkpt lat="43.73636" lon="7.05078">
        <ele>881.95037841797</ele>
        <time>2013-12-09T09:25:41Z</time>
      </trkpt>
      <trkpt lat="43.7364" lon="7.05079">
        <ele>882.64508056641</ele>
        <time>2013-12-09T09:25:49Z</time>
      </trkpt>
      <trkpt lat="43.7364" lon="7.05073">
        <ele>883.35009765625</ele>
        <time>2013-12-09T09:25:56Z</time>
      </trkpt>
      <trkpt lat="43.7364" lon="7.05063">
        <ele>884.32958984375</ele>
        <time>2013-12-09T09:26:05Z</time>
      </trkpt>
      <trkpt lat="43.73639" lon="7.05057">
        <ele>884.89508056641</ele>
        <time>2013-12-09T09:26:12Z</time>
      </trkpt>
      <trkpt lat="43.7364" lon="7.05054">
        <ele>885.26013183594</ele>
        <time>2013-12-09T09:26:17Z</time>
      </trkpt>
      <trkpt lat="43.73643" lon="7.05054">
        <ele>885.89916992188</ele>
        <time>2013-12-09T09:26:27Z</time>
      </trkpt>
      <trkpt lat="43.73645" lon="7.05051">
        <ele>886.61663818359</ele>
        <time>2013-12-09T09:26:33Z</time>
      </trkpt>
      <trkpt lat="43.73645" lon="7.05047">
        <ele>887.17541503906</ele>
        <time>2013-12-09T09:26:39Z</time>
      </trkpt>
      <trkpt lat="43.73645" lon="7.0504">
        <ele>887.93603515625</ele>
        <time>2013-12-09T09:26:46Z</time>
      </trkpt>
      <trkpt lat="43.73646" lon="7.05038">
        <ele>888.34118652344</ele>
        <time>2013-12-09T09:26:50Z</time>
      </trkpt>
      <trkpt lat="43.73645" lon="7.05032">
        <ele>888.90771484375</ele>
        <time>2013-12-09T09:26:56Z</time>
      </trkpt>
      <trkpt lat="43.73645" lon="7.05026">
        <ele>889.40026855469</ele>
        <time>2013-12-09T09:27:02Z</time>
      </trkpt>
      <trkpt lat="43.73643" lon="7.05021">
        <ele>889.51354980469</ele>
        <time>2013-12-09T09:27:08Z</time>
      </trkpt>
      <trkpt lat="43.73644" lon="7.05014">
        <ele>890.17272949219</ele>
        <time>2013-12-09T09:27:16Z</time>
      </trkpt>
      <trkpt lat="43.73647" lon="7.05008">
        <ele>891.21643066406</ele>
        <time>2013-12-09T09:27:25Z</time>
      </trkpt>
      <trkpt lat="43.73649" lon="7.05013">
        <ele>891.24047851562</ele>
        <time>2013-12-09T09:27:31Z</time>
      </trkpt>
      <trkpt lat="43.73651" lon="7.05017">
        <ele>891.38464355469</ele>
        <time>2013-12-09T09:27:38Z</time>
      </trkpt>
      <trkpt lat="43.73655" lon="7.05018">
        <ele>892.177734375</ele>
        <time>2013-12-09T09:27:45Z</time>
      </trkpt>
      <trkpt lat="43.73655" lon="7.05011">
        <ele>892.77508544922</ele>
        <time>2013-12-09T09:27:53Z</time>
      </trkpt>
      <trkpt lat="43.73657" lon="7.05005">
        <ele>893.52014160156</ele>
        <time>2013-12-09T09:28:01Z</time>
      </trkpt>
      <trkpt lat="43.73658" lon="7.04997">
        <ele>894.42510986328</ele>
        <time>2013-12-09T09:28:09Z</time>
      </trkpt>
      <trkpt lat="43.73661" lon="7.04995">
        <ele>895.60614013672</ele>
        <time>2013-12-09T09:28:17Z</time>
      </trkpt>
      <trkpt lat="43.73664" lon="7.04999">
        <ele>895.46881103516</ele>
        <time>2013-12-09T09:28:24Z</time>
      </trkpt>
      <trkpt lat="43.73668" lon="7.05002">
        <ele>896.12841796875</ele>
        <time>2013-12-09T09:28:32Z</time>
      </trkpt>
      <trkpt lat="43.73671" lon="7.05003">
        <ele>896.92761230469</ele>
        <time>2013-12-09T09:28:40Z</time>
      </trkpt>
      <trkpt lat="43.73673" lon="7.04998">
        <ele>897.91815185547</ele>
        <time>2013-12-09T09:28:47Z</time>
      </trkpt>
      <trkpt lat="43.73671" lon="7.04992">
        <ele>898.32153320312</ele>
        <time>2013-12-09T09:28:54Z</time>
      </trkpt>
      <trkpt lat="43.73671" lon="7.04986">
        <ele>899.36352539062</ele>
        <time>2013-12-09T09:29:02Z</time>
      </trkpt>
      <trkpt lat="43.73673" lon="7.04987">
        <ele>899.73675537109</ele>
        <time>2013-12-09T09:29:08Z</time>
      </trkpt>
      <trkpt lat="43.73675" lon="7.04991">
        <ele>899.59790039062</ele>
        <time>2013-12-09T09:29:13Z</time>
      </trkpt>
      <trkpt lat="43.73679" lon="7.04998">
        <ele>899.30963134766</ele>
        <time>2013-12-09T09:29:21Z</time>
      </trkpt>
      <trkpt lat="43.73679" lon="7.04999">
        <ele>899.11779785156</ele>
        <time>2013-12-09T09:29:28Z</time>
      </trkpt>
      <trkpt lat="43.7368" lon="7.05005">
        <ele>898.88751220703</ele>
        <time>2013-12-09T09:29:36Z</time>
      </trkpt>
      <trkpt lat="43.73684" lon="7.05005">
        <ele>899.84338378906</ele>
        <time>2013-12-09T09:29:43Z</time>
      </trkpt>
      <trkpt lat="43.73686" lon="7.04999">
        <ele>901.10424804688</ele>
        <time>2013-12-09T09:29:49Z</time>
      </trkpt>
      <trkpt lat="43.73689" lon="7.04999">
        <ele>901.78692626953</ele>
        <time>2013-12-09T09:29:52Z</time>
      </trkpt>
      <trkpt lat="43.73691" lon="7.05001">
        <ele>901.98175048828</ele>
        <time>2013-12-09T09:29:55Z</time>
      </trkpt>
      <trkpt lat="43.73694" lon="7.05003">
        <ele>902.43255615234</ele>
        <time>2013-12-09T09:30:01Z</time>
      </trkpt>
      <trkpt lat="43.73693" lon="7.04997">
        <ele>903.15216064453</ele>
        <time>2013-12-09T09:30:08Z</time>
      </trkpt>
      <trkpt lat="43.7369" lon="7.0499">
        <ele>903.96044921875</ele>
        <time>2013-12-09T09:30:15Z</time>
      </trkpt>
      <trkpt lat="43.73692" lon="7.04988">
        <ele>904.91015625</ele>
        <time>2013-12-09T09:30:19Z</time>
      </trkpt>
      <trkpt lat="43.73693" lon="7.04989">
        <ele>904.90686035156</ele>
        <time>2013-12-09T09:30:20Z</time>
      </trkpt>
      <trkpt lat="43.73701" lon="7.04993">
        <ele>907.98699951172</ele>
        <time>2013-12-09T09:30:30Z</time>
      </trkpt>
      <trkpt lat="43.73702" lon="7.04987">
        <ele>910.31372070312</ele>
        <time>2013-12-09T09:30:37Z</time>
      </trkpt>
      <trkpt lat="43.73707" lon="7.04982">
        <ele>914.11267089844</ele>
        <time>2013-12-09T09:30:45Z</time>
      </trkpt>
      <trkpt lat="43.73711" lon="7.04979">
        <ele>917.32604980469</ele>
        <time>2013-12-09T09:30:53Z</time>
      </trkpt>
      <trkpt lat="43.7371" lon="7.04972">
        <ele>918.41638183594</ele>
        <time>2013-12-09T09:31:01Z</time>
      </trkpt>
      <trkpt lat="43.73713" lon="7.04971">
        <ele>920.60888671875</ele>
        <time>2013-12-09T09:31:07Z</time>
      </trkpt>
      <trkpt lat="43.73719" lon="7.04973">
        <ele>923.93713378906</ele>
        <time>2013-12-09T09:31:17Z</time>
      </trkpt>
      <trkpt lat="43.7372" lon="7.04967">
        <ele>926.50708007812</ele>
        <time>2013-12-09T09:31:24Z</time>
      </trkpt>
      <trkpt lat="43.73721" lon="7.0496">
        <ele>928.97265625</ele>
        <time>2013-12-09T09:31:32Z</time>
      </trkpt>
      <trkpt lat="43.73725" lon="7.04964">
        <ele>930.38922119141</ele>
        <time>2013-12-09T09:31:38Z</time>
      </trkpt>
      <trkpt lat="43.7373" lon="7.04968">
        <ele>931.94494628906</ele>
        <time>2013-12-09T09:31:47Z</time>
      </trkpt>
      <trkpt lat="43.73736" lon="7.0497">
        <ele>933.96557617188</ele>
        <time>2013-12-09T09:31:55Z</time>
      </trkpt>
      <trkpt lat="43.73743" lon="7.04969">
        <ele>937.71923828125</ele>
        <time>2013-12-09T09:32:05Z</time>
      </trkpt>
      <trkpt lat="43.7374" lon="7.04965">
        <ele>938.43542480469</ele>
        <time>2013-12-09T09:32:11Z</time>
      </trkpt>
      <trkpt lat="43.73739" lon="7.0496">
        <ele>940.55639648438</ele>
        <time>2013-12-09T09:32:17Z</time>
      </trkpt>
      <trkpt lat="43.73745" lon="7.04955">
        <ele>946.34057617188</ele>
        <time>2013-12-09T09:32:26Z</time>
      </trkpt>
      <trkpt lat="43.73751" lon="7.04956">
        <ele>949.94201660156</ele>
        <time>2013-12-09T09:32:35Z</time>
      </trkpt>
      <trkpt lat="43.73756" lon="7.04961">
        <ele>955.0126953125</ele>
        <time>2013-12-09T09:32:44Z</time>
      </trkpt>
      <trkpt lat="43.73761" lon="7.04962">
        <ele>960.47082519531</ele>
        <time>2013-12-09T09:32:51Z</time>
      </trkpt>
      <trkpt lat="43.73766" lon="7.04964">
        <ele>965.83367919922</ele>
        <time>2013-12-09T09:32:58Z</time>
      </trkpt>
      <trkpt lat="43.73769" lon="7.04964">
        <ele>971.01837158203</ele>
        <time>2013-12-09T09:33:05Z</time>
      </trkpt>
      <trkpt lat="43.73773" lon="7.04964">
        <ele>975.58581542969</ele>
        <time>2013-12-09T09:33:12Z</time>
      </trkpt>
      <trkpt lat="43.73777" lon="7.04964">
        <ele>981.92034912109</ele>
        <time>2013-12-09T09:33:20Z</time>
      </trkpt>
      <trkpt lat="43.73782" lon="7.04967">
        <ele>983.18438720703</ele>
        <time>2013-12-09T09:33:29Z</time>
      </trkpt>
      <trkpt lat="43.73787" lon="7.04965">
        <ele>985.16192626953</ele>
        <time>2013-12-09T09:33:35Z</time>
      </trkpt>
      <trkpt lat="43.73791" lon="7.04966">
        <ele>986.37042236328</ele>
        <time>2013-12-09T09:33:42Z</time>
      </trkpt>
      <trkpt lat="43.73794" lon="7.04965">
        <ele>987.72998046875</ele>
        <time>2013-12-09T09:33:48Z</time>
      </trkpt>
      <trkpt lat="43.73798" lon="7.04966">
        <ele>989.06207275391</ele>
        <time>2013-12-09T09:33:55Z</time>
      </trkpt>
      <trkpt lat="43.73803" lon="7.0497">
        <ele>989.63885498047</ele>
        <time>2013-12-09T09:34:03Z</time>
      </trkpt>
      <trkpt lat="43.73808" lon="7.0497">
        <ele>991.02233886719</ele>
        <time>2013-12-09T09:34:10Z</time>
      </trkpt>
      <trkpt lat="43.73814" lon="7.04973">
        <ele>991.19372558594</ele>
        <time>2013-12-09T09:34:19Z</time>
      </trkpt>
      <trkpt lat="43.73818" lon="7.04978">
        <ele>990.6484375</ele>
        <time>2013-12-09T09:34:27Z</time>
      </trkpt>
      <trkpt lat="43.73825" lon="7.04984">
        <ele>990.02227783203</ele>
        <time>2013-12-09T09:34:38Z</time>
      </trkpt>
      <trkpt lat="43.7383" lon="7.04987">
        <ele>989.71374511719</ele>
        <time>2013-12-09T09:34:46Z</time>
      </trkpt>
      <trkpt lat="43.73834" lon="7.0499">
        <ele>989.53063964844</ele>
        <time>2013-12-09T09:34:53Z</time>
      </trkpt>
      <trkpt lat="43.73839" lon="7.04992">
        <ele>990.16925048828</ele>
        <time>2013-12-09T09:35:01Z</time>
      </trkpt>
      <trkpt lat="43.73843" lon="7.04995">
        <ele>990.26055908203</ele>
        <time>2013-12-09T09:35:08Z</time>
      </trkpt>
      <trkpt lat="43.73846" lon="7.05">
        <ele>989.60656738281</ele>
        <time>2013-12-09T09:35:15Z</time>
      </trkpt>
      <trkpt lat="43.73851" lon="7.05008">
        <ele>989.23028564453</ele>
        <time>2013-12-09T09:35:25Z</time>
      </trkpt>
      <trkpt lat="43.73854" lon="7.05013">
        <ele>988.88470458984</ele>
        <time>2013-12-09T09:35:33Z</time>
      </trkpt>
      <trkpt lat="43.73858" lon="7.05018">
        <ele>988.55065917969</ele>
        <time>2013-12-09T09:35:40Z</time>
      </trkpt>
      <trkpt lat="43.73862" lon="7.05024">
        <ele>988.23297119141</ele>
        <time>2013-12-09T09:35:49Z</time>
      </trkpt>
      <trkpt lat="43.73866" lon="7.0503">
        <ele>987.94641113281</ele>
        <time>2013-12-09T09:35:58Z</time>
      </trkpt>
      <trkpt lat="43.73868" lon="7.05036">
        <ele>986.27569580078</ele>
        <time>2013-12-09T09:36:05Z</time>
      </trkpt>
      <trkpt lat="43.7387" lon="7.0504">
        <ele>985.38983154297</ele>
        <time>2013-12-09T09:36:11Z</time>
      </trkpt>
      <trkpt lat="43.73874" lon="7.05045">
        <ele>984.54418945312</ele>
        <time>2013-12-09T09:36:19Z</time>
      </trkpt>
      <trkpt lat="43.73876" lon="7.05046">
        <ele>984.93682861328</ele>
        <time>2013-12-09T09:36:26Z</time>
      </trkpt>
      <trkpt lat="43.73878" lon="7.05049">
        <ele>984.0810546875</ele>
        <time>2013-12-09T09:36:31Z</time>
      </trkpt>
      <trkpt lat="43.73882" lon="7.05058">
        <ele>981.75689697266</ele>
        <time>2013-12-09T09:36:39Z</time>
      </trkpt>
      <trkpt lat="43.73887" lon="7.05063">
        <ele>981.3037109375</ele>
        <time>2013-12-09T09:36:48Z</time>
      </trkpt>
      <trkpt lat="43.73887" lon="7.05062">
        <ele>981.43243408203</ele>
        <time>2013-12-09T09:36:49Z</time>
      </trkpt>
      <trkpt lat="43.73893" lon="7.05063">
        <ele>983.228515625</ele>
        <time>2013-12-09T09:36:58Z</time>
      </trkpt>
      <trkpt lat="43.73898" lon="7.05062">
        <ele>985.77142333984</ele>
        <time>2013-12-09T09:37:08Z</time>
      </trkpt>
      <trkpt lat="43.73903" lon="7.05061">
        <ele>987.84020996094</ele>
        <time>2013-12-09T09:37:15Z</time>
      </trkpt>
      <trkpt lat="43.73909" lon="7.05062">
        <ele>990.07873535156</ele>
        <time>2013-12-09T09:37:24Z</time>
      </trkpt>
      <trkpt lat="43.73916" lon="7.05062">
        <ele>993.10321044922</ele>
        <time>2013-12-09T09:37:35Z</time>
      </trkpt>
      <trkpt lat="43.73922" lon="7.05064">
        <ele>993.95770263672</ele>
        <time>2013-12-09T09:37:43Z</time>
      </trkpt>
      <trkpt lat="43.73926" lon="7.05064">
        <ele>994.57153320312</ele>
        <time>2013-12-09T09:37:49Z</time>
      </trkpt>
      <trkpt lat="43.73932" lon="7.05066">
        <ele>995.44708251953</ele>
        <time>2013-12-09T09:37:58Z</time>
      </trkpt>
      <trkpt lat="43.73937" lon="7.05068">
        <ele>996.08990478516</ele>
        <time>2013-12-09T09:38:06Z</time>
      </trkpt>
      <trkpt lat="43.73942" lon="7.05069">
        <ele>997.005859375</ele>
        <time>2013-12-09T09:38:14Z</time>
      </trkpt>
      <trkpt lat="43.73947" lon="7.05072">
        <ele>998.01879882812</ele>
        <time>2013-12-09T09:38:22Z</time>
      </trkpt>
      <trkpt lat="43.73951" lon="7.05074">
        <ele>999.16387939453</ele>
        <time>2013-12-09T09:38:29Z</time>
      </trkpt>
      <trkpt lat="43.73955" lon="7.05078">
        <ele>1000.0162353516</ele>
        <time>2013-12-09T09:38:37Z</time>
      </trkpt>
      <trkpt lat="43.73959" lon="7.05081">
        <ele>1000.9012451172</ele>
        <time>2013-12-09T09:38:44Z</time>
      </trkpt>
      <trkpt lat="43.73963" lon="7.05084">
        <ele>1001.9201660156</ele>
        <time>2013-12-09T09:38:51Z</time>
      </trkpt>
      <trkpt lat="43.73967" lon="7.05087">
        <ele>1003.0527954102</ele>
        <time>2013-12-09T09:38:59Z</time>
      </trkpt>
      <trkpt lat="43.73973" lon="7.05091">
        <ele>1004.3514404297</ele>
        <time>2013-12-09T09:39:08Z</time>
      </trkpt>
      <trkpt lat="43.73973" lon="7.05086">
        <ele>1005.0874023438</ele>
        <time>2013-12-09T09:39:15Z</time>
      </trkpt>
      <trkpt lat="43.73975" lon="7.05081">
        <ele>1006.5420532227</ele>
        <time>2013-12-09T09:39:23Z</time>
      </trkpt>
      <trkpt lat="43.73981" lon="7.05085">
        <ele>1008.1968383789</ele>
        <time>2013-12-09T09:39:31Z</time>
      </trkpt>
      <trkpt lat="43.73984" lon="7.05085">
        <ele>1009.6036987305</ele>
        <time>2013-12-09T09:39:37Z</time>
      </trkpt>
      <trkpt lat="43.73989" lon="7.05082">
        <ele>1011.8559570312</ele>
        <time>2013-12-09T09:39:45Z</time>
      </trkpt>
      <trkpt lat="43.73993" lon="7.05082">
        <ele>1013.3776855469</ele>
        <time>2013-12-09T09:39:53Z</time>
      </trkpt>
      <trkpt lat="43.73998" lon="7.05083">
        <ele>1015.19921875</ele>
        <time>2013-12-09T09:40:01Z</time>
      </trkpt>
      <trkpt lat="43.74001" lon="7.05083">
        <ele>1016.6273193359</ele>
        <time>2013-12-09T09:40:06Z</time>
      </trkpt>
      <trkpt lat="43.74004" lon="7.05086">
        <ele>1018.251953125</ele>
        <time>2013-12-09T09:40:13Z</time>
      </trkpt>
      <trkpt lat="43.74005" lon="7.05086">
        <ele>1019.3143310547</ele>
        <time>2013-12-09T09:40:20Z</time>
      </trkpt>
      <trkpt lat="43.74004" lon="7.05085">
        <ele>1018.3418579102</ele>
        <time>2013-12-09T09:40:25Z</time>
      </trkpt>
      <trkpt lat="43.74005" lon="7.05086">
        <ele>1019.3423461914</ele>
        <time>2013-12-09T09:40:35Z</time>
      </trkpt>
      <trkpt lat="43.74006" lon="7.05084">
        <ele>1020.0140380859</ele>
        <time>2013-12-09T09:40:58Z</time>
      </trkpt>
      <trkpt lat="43.74006" lon="7.05089">
        <ele>1019.4282226562</ele>
        <time>2013-12-09T09:41:16Z</time>
      </trkpt>
      <trkpt lat="43.74007" lon="7.05088">
        <ele>1020.2459716797</ele>
        <time>2013-12-09T09:41:20Z</time>
      </trkpt>
      <trkpt lat="43.74008" lon="7.05089">
        <ele>1021.2348022461</ele>
        <time>2013-12-09T09:41:30Z</time>
      </trkpt>
      <trkpt lat="43.74006" lon="7.05086">
        <ele>1019.5952758789</ele>
        <time>2013-12-09T09:43:24Z</time>
      </trkpt>
      <trkpt lat="43.74006" lon="7.05086">
        <ele>1019.8513793945</ele>
        <time>2013-12-09T09:43:35Z</time>
      </trkpt>
      <trkpt lat="43.74009" lon="7.05089">
        <ele>1021.5305786133</ele>
        <time>2013-12-09T09:44:06Z</time>
      </trkpt>
      <trkpt lat="43.74009" lon="7.05089">
        <ele>1021.7710571289</ele>
        <time>2013-12-09T09:44:07Z</time>
      </trkpt>
      <trkpt lat="43.74012" lon="7.05092">
        <ele>1023.719543457</ele>
        <time>2013-12-09T09:44:14Z</time>
      </trkpt>
      <trkpt lat="43.74009" lon="7.05089">
        <ele>1021.5189208984</ele>
        <time>2013-12-09T09:44:43Z</time>
      </trkpt>
      <trkpt lat="43.74008" lon="7.05089">
        <ele>1021.0093383789</ele>
        <time>2013-12-09T09:44:51Z</time>
      </trkpt>
      <trkpt lat="43.74006" lon="7.05085">
        <ele>1019.8943481445</ele>
        <time>2013-12-09T09:45:41Z</time>
      </trkpt>
      <trkpt lat="43.74006" lon="7.05087">
        <ele>1020.0649414062</ele>
        <time>2013-12-09T09:45:48Z</time>
      </trkpt>
      <trkpt lat="43.74006" lon="7.05088">
        <ele>1019.4684448242</ele>
        <time>2013-12-09T09:45:57Z</time>
      </trkpt>
      <trkpt lat="43.74006" lon="7.05089">
        <ele>1019.6457519531</ele>
        <time>2013-12-09T09:46:33Z</time>
      </trkpt>
      <trkpt lat="43.74005" lon="7.0509">
        <ele>1018.7944946289</ele>
        <time>2013-12-09T09:47:22Z</time>
      </trkpt>
      <trkpt lat="43.74001" lon="7.0509">
        <ele>1016.1344604492</ele>
        <time>2013-12-09T09:49:09Z</time>
      </trkpt>
      <trkpt lat="43.74002" lon="7.05089">
        <ele>1017.2807617188</ele>
        <time>2013-12-09T09:49:11Z</time>
      </trkpt>
      <trkpt lat="43.74003" lon="7.05089">
        <ele>1017.5640869141</ele>
        <time>2013-12-09T09:49:18Z</time>
      </trkpt>
      <trkpt lat="43.74003" lon="7.05089">
        <ele>1017.7986450195</ele>
        <time>2013-12-09T09:49:27Z</time>
      </trkpt>
      <trkpt lat="43.74006" lon="7.05086">
        <ele>1019.5767211914</ele>
        <time>2013-12-09T09:50:55Z</time>
      </trkpt>
      <trkpt lat="43.74006" lon="7.05087">
        <ele>1019.5612182617</ele>
        <time>2013-12-09T09:51:01Z</time>
      </trkpt>
      <trkpt lat="43.74003" lon="7.05086">
        <ele>1017.7595825195</ele>
        <time>2013-12-09T09:51:08Z</time>
      </trkpt>
      <trkpt lat="43.74003" lon="7.05086">
        <ele>1017.7628173828</ele>
        <time>2013-12-09T09:51:13Z</time>
      </trkpt>
      <trkpt lat="43.74003" lon="7.05085">
        <ele>1018.0638427734</ele>
        <time>2013-12-09T09:51:48Z</time>
      </trkpt>
      <trkpt lat="43.74004" lon="7.05086">
        <ele>1018.5622558594</ele>
        <time>2013-12-09T09:52:56Z</time>
      </trkpt>
      <trkpt lat="43.74005" lon="7.05084">
        <ele>1019.4950561523</ele>
        <time>2013-12-09T09:53:20Z</time>
      </trkpt>
      <trkpt lat="43.74006" lon="7.05079">
        <ele>1020.3393554688</ele>
        <time>2013-12-09T09:53:23Z</time>
      </trkpt>
      <trkpt lat="43.74006" lon="7.05076">
        <ele>1020.4897460938</ele>
        <time>2013-12-09T09:53:24Z</time>
      </trkpt>
      <trkpt lat="43.74006" lon="7.05074">
        <ele>1020.377746582</ele>
        <time>2013-12-09T09:53:25Z</time>
      </trkpt>
      <trkpt lat="43.74005" lon="7.05064">
        <ele>1020.7447509766</ele>
        <time>2013-12-09T09:53:29Z</time>
      </trkpt>
      <trkpt lat="43.74006" lon="7.05052">
        <ele>1022.3168334961</ele>
        <time>2013-12-09T09:53:34Z</time>
      </trkpt>
      <trkpt lat="43.74009" lon="7.05036">
        <ele>1025.4685058594</ele>
        <time>2013-12-09T09:53:42Z</time>
      </trkpt>
      <trkpt lat="43.74012" lon="7.05026">
        <ele>1028.0366210938</ele>
        <time>2013-12-09T09:53:48Z</time>
      </trkpt>
      <trkpt lat="43.74015" lon="7.05015">
        <ele>1031.0924072266</ele>
        <time>2013-12-09T09:53:54Z</time>
      </trkpt>
      <trkpt lat="43.74017" lon="7.04999">
        <ele>1033.8260498047</ele>
        <time>2013-12-09T09:54:02Z</time>
      </trkpt>
      <trkpt lat="43.74022" lon="7.04984">
        <ele>1038.4384765625</ele>
        <time>2013-12-09T09:54:11Z</time>
      </trkpt>
      <trkpt lat="43.74026" lon="7.04972">
        <ele>1041.2504882812</ele>
        <time>2013-12-09T09:54:18Z</time>
      </trkpt>
      <trkpt lat="43.74028" lon="7.04967">
        <ele>1042.5512695312</ele>
        <time>2013-12-09T09:54:22Z</time>
      </trkpt>
      <trkpt lat="43.74029" lon="7.04965">
        <ele>1042.9013671875</ele>
        <time>2013-12-09T09:54:24Z</time>
      </trkpt>
      <trkpt lat="43.7403" lon="7.04962">
        <ele>1043.2824707031</ele>
        <time>2013-12-09T09:54:26Z</time>
      </trkpt>
      <trkpt lat="43.74031" lon="7.04956">
        <ele>1044.0961914062</ele>
        <time>2013-12-09T09:54:30Z</time>
      </trkpt>
      <trkpt lat="43.74031" lon="7.04955">
        <ele>1044.1322021484</ele>
        <time>2013-12-09T09:54:38Z</time>
      </trkpt>
      <trkpt lat="43.74029" lon="7.04952">
        <ele>1044.3125</ele>
        <time>2013-12-09T09:54:53Z</time>
      </trkpt>
      <trkpt lat="43.74027" lon="7.04947">
        <ele>1044.6131591797</ele>
        <time>2013-12-09T09:54:58Z</time>
      </trkpt>
      <trkpt lat="43.74028" lon="7.04943">
        <ele>1045.0694580078</ele>
        <time>2013-12-09T09:55:04Z</time>
      </trkpt>
      <trkpt lat="43.74026" lon="7.04935">
        <ele>1045.5799560547</ele>
        <time>2013-12-09T09:55:11Z</time>
      </trkpt>
      <trkpt lat="43.74026" lon="7.0493">
        <ele>1046.2049560547</ele>
        <time>2013-12-09T09:55:15Z</time>
      </trkpt>
      <trkpt lat="43.74027" lon="7.04928">
        <ele>1046.6013183594</ele>
        <time>2013-12-09T09:55:18Z</time>
      </trkpt>
      <trkpt lat="43.74028" lon="7.04924">
        <ele>1047.2415771484</ele>
        <time>2013-12-09T09:55:23Z</time>
      </trkpt>
      <trkpt lat="43.74029" lon="7.04916">
        <ele>1048.1713867188</ele>
        <time>2013-12-09T09:55:30Z</time>
      </trkpt>
      <trkpt lat="43.7403" lon="7.04908">
        <ele>1049.0400390625</ele>
        <time>2013-12-09T09:55:37Z</time>
      </trkpt>
      <trkpt lat="43.7403" lon="7.04908">
        <ele>1049.1241455078</ele>
        <time>2013-12-09T09:55:43Z</time>
      </trkpt>
      <trkpt lat="43.74035" lon="7.04907">
        <ele>1049.5739746094</ele>
        <time>2013-12-09T09:56:00Z</time>
      </trkpt>
      <trkpt lat="43.74043" lon="7.04903">
        <ele>1050.4923095703</ele>
        <time>2013-12-09T09:56:08Z</time>
      </trkpt>
      <trkpt lat="43.7405" lon="7.04901">
        <ele>1051.2973632812</ele>
        <time>2013-12-09T09:56:15Z</time>
      </trkpt>
      <trkpt lat="43.74052" lon="7.04902">
        <ele>1051.3643798828</ele>
        <time>2013-12-09T09:56:17Z</time>
      </trkpt>
      <trkpt lat="43.74053" lon="7.04904">
        <ele>1051.2098388672</ele>
        <time>2013-12-09T09:56:19Z</time>
      </trkpt>
      <trkpt lat="43.74054" lon="7.04904">
        <ele>1051.2338867188</ele>
        <time>2013-12-09T09:56:20Z</time>
      </trkpt>
      <trkpt lat="43.74056" lon="7.04904">
        <ele>1051.4381103516</ele>
        <time>2013-12-09T09:56:24Z</time>
      </trkpt>
      <trkpt lat="43.74061" lon="7.049">
        <ele>1052.1883544922</ele>
        <time>2013-12-09T09:56:30Z</time>
      </trkpt>
      <trkpt lat="43.74063" lon="7.04901">
        <ele>1052.2861328125</ele>
        <time>2013-12-09T09:56:32Z</time>
      </trkpt>
      <trkpt lat="43.74067" lon="7.04902">
        <ele>1052.4200439453</ele>
        <time>2013-12-09T09:56:35Z</time>
      </trkpt>
      <trkpt lat="43.74068" lon="7.04902">
        <ele>1052.4543457031</ele>
        <time>2013-12-09T09:56:36Z</time>
      </trkpt>
      <trkpt lat="43.7407" lon="7.04905">
        <ele>1052.2775878906</ele>
        <time>2013-12-09T09:56:41Z</time>
      </trkpt>
      <trkpt lat="43.74073" lon="7.04903">
        <ele>1052.7290039062</ele>
        <time>2013-12-09T09:56:48Z</time>
      </trkpt>
      <trkpt lat="43.74073" lon="7.04903">
        <ele>1052.7290039062</ele>
        <time>2013-12-09T09:56:56Z</time>
      </trkpt>
      <trkpt lat="43.74073" lon="7.04909">
        <ele>1052.0819091797</ele>
        <time>2013-12-09T09:57:05Z</time>
      </trkpt>
      <trkpt lat="43.74077" lon="7.04914">
        <ele>1051.8845214844</ele>
        <time>2013-12-09T09:57:10Z</time>
      </trkpt>
      <trkpt lat="43.74083" lon="7.04917">
        <ele>1051.9240722656</ele>
        <time>2013-12-09T09:57:17Z</time>
      </trkpt>
      <trkpt lat="43.74085" lon="7.04919">
        <ele>1051.8692626953</ele>
        <time>2013-12-09T09:57:19Z</time>
      </trkpt>
      <trkpt lat="43.74089" lon="7.04919">
        <ele>1052.0306396484</ele>
        <time>2013-12-09T09:57:23Z</time>
      </trkpt>
      <trkpt lat="43.7409" lon="7.04919">
        <ele>1052.0889892578</ele>
        <time>2013-12-09T09:57:25Z</time>
      </trkpt>
      <trkpt lat="43.74091" lon="7.04921">
        <ele>1051.9757080078</ele>
        <time>2013-12-09T09:57:30Z</time>
      </trkpt>
      <trkpt lat="43.74092" lon="7.04924">
        <ele>1051.7525634766</ele>
        <time>2013-12-09T09:57:33Z</time>
      </trkpt>
      <trkpt lat="43.74096" lon="7.04927">
        <ele>1051.6906738281</ele>
        <time>2013-12-09T09:57:36Z</time>
      </trkpt>
      <trkpt lat="43.74101" lon="7.04927">
        <ele>1051.8692626953</ele>
        <time>2013-12-09T09:57:41Z</time>
      </trkpt>
      <trkpt lat="43.74102" lon="7.04927">
        <ele>1051.9104003906</ele>
        <time>2013-12-09T09:57:47Z</time>
      </trkpt>
      <trkpt lat="43.741" lon="7.04929">
        <ele>1051.7593994141</ele>
        <time>2013-12-09T09:58:14Z</time>
      </trkpt>
      <trkpt lat="43.741" lon="7.04929">
        <ele>1051.7319335938</ele>
        <time>2013-12-09T09:58:17Z</time>
      </trkpt>
      <trkpt lat="43.74093" lon="7.04932">
        <ele>1051.2478027344</ele>
        <time>2013-12-09T09:58:21Z</time>
      </trkpt>
      <trkpt lat="43.74089" lon="7.04936">
        <ele>1050.7980957031</ele>
        <time>2013-12-09T09:58:23Z</time>
      </trkpt>
      <trkpt lat="43.74086" lon="7.04939">
        <ele>1050.4548339844</ele>
        <time>2013-12-09T09:58:25Z</time>
      </trkpt>
      <trkpt lat="43.74086" lon="7.04941">
        <ele>1050.3209228516</ele>
        <time>2013-12-09T09:58:30Z</time>
      </trkpt>
      <trkpt lat="43.74086" lon="7.04946">
        <ele>1049.8693847656</ele>
        <time>2013-12-09T09:58:34Z</time>
      </trkpt>
      <trkpt lat="43.74085" lon="7.04949">
        <ele>1049.5416259766</ele>
        <time>2013-12-09T09:58:36Z</time>
      </trkpt>
      <trkpt lat="43.74083" lon="7.0495">
        <ele>1049.3997802734</ele>
        <time>2013-12-09T09:58:38Z</time>
      </trkpt>
      <trkpt lat="43.74083" lon="7.04953">
        <ele>1049.0203857422</ele>
        <time>2013-12-09T09:58:42Z</time>
      </trkpt>
      <trkpt lat="43.74081" lon="7.04955">
        <ele>1048.7731933594</ele>
        <time>2013-12-09T09:58:43Z</time>
      </trkpt>
      <trkpt lat="43.74077" lon="7.04964">
        <ele>1047.4650878906</ele>
        <time>2013-12-09T09:58:49Z</time>
      </trkpt>
      <trkpt lat="43.74076" lon="7.04964">
        <ele>1047.3569335938</ele>
        <time>2013-12-09T09:58:50Z</time>
      </trkpt>
      <trkpt lat="43.74072" lon="7.04962">
        <ele>1047.2540283203</ele>
        <time>2013-12-09T09:58:54Z</time>
      </trkpt>
      <trkpt lat="43.74066" lon="7.04964">
        <ele>1046.6428222656</ele>
        <time>2013-12-09T09:58:58Z</time>
      </trkpt>
      <trkpt lat="43.7406" lon="7.04975">
        <ele>1044.9468994141</ele>
        <time>2013-12-09T09:59:02Z</time>
      </trkpt>
      <trkpt lat="43.74057" lon="7.04998">
        <ele>1042.3135986328</ele>
        <time>2013-12-09T09:59:06Z</time>
      </trkpt>
      <trkpt lat="43.74053" lon="7.05022">
        <ele>1040.1650390625</ele>
        <time>2013-12-09T09:59:10Z</time>
      </trkpt>
      <trkpt lat="43.74051" lon="7.05043">
        <ele>1038.5771484375</ele>
        <time>2013-12-09T09:59:13Z</time>
      </trkpt>
      <trkpt lat="43.74049" lon="7.05054">
        <ele>1037.6193847656</ele>
        <time>2013-12-09T09:59:15Z</time>
      </trkpt>
      <trkpt lat="43.74048" lon="7.05068">
        <ele>1036.9847412109</ele>
        <time>2013-12-09T09:59:17Z</time>
      </trkpt>
      <trkpt lat="43.74046" lon="7.05083">
        <ele>1036.3049316406</ele>
        <time>2013-12-09T09:59:19Z</time>
      </trkpt>
      <trkpt lat="43.74041" lon="7.05103">
        <ele>1035.2320556641</ele>
        <time>2013-12-09T09:59:23Z</time>
      </trkpt>
      <trkpt lat="43.74044" lon="7.05111">
        <ele>1035.1616210938</ele>
        <time>2013-12-09T09:59:26Z</time>
      </trkpt>
      <trkpt lat="43.74045" lon="7.05115">
        <ele>1034.9638671875</ele>
        <time>2013-12-09T09:59:28Z</time>
      </trkpt>
      <trkpt lat="43.74047" lon="7.05119">
        <ele>1034.8231201172</ele>
        <time>2013-12-09T09:59:30Z</time>
      </trkpt>
      <trkpt lat="43.74049" lon="7.05122">
        <ele>1034.7509765625</ele>
        <time>2013-12-09T09:59:32Z</time>
      </trkpt>
      <trkpt lat="43.74055" lon="7.05122">
        <ele>1035.1938476562</ele>
        <time>2013-12-09T09:59:35Z</time>
      </trkpt>
      <trkpt lat="43.74058" lon="7.05124">
        <ele>1035.2416992188</ele>
        <time>2013-12-09T09:59:36Z</time>
      </trkpt>
      <trkpt lat="43.74066" lon="7.05128">
        <ele>1035.4145507812</ele>
        <time>2013-12-09T09:59:39Z</time>
      </trkpt>
      <trkpt lat="43.74069" lon="7.05128">
        <ele>1035.5289306641</ele>
        <time>2013-12-09T09:59:40Z</time>
      </trkpt>
      <trkpt lat="43.74079" lon="7.05129">
        <ele>1036.1071777344</ele>
        <time>2013-12-09T09:59:45Z</time>
      </trkpt>
      <trkpt lat="43.74085" lon="7.05126">
        <ele>1036.5480957031</ele>
        <time>2013-12-09T09:59:50Z</time>
      </trkpt>
      <trkpt lat="43.74089" lon="7.05127">
        <ele>1036.7174072266</ele>
        <time>2013-12-09T09:59:55Z</time>
      </trkpt>
      <trkpt lat="43.74093" lon="7.05129">
        <ele>1036.9536132812</ele>
        <time>2013-12-09T10:00:00Z</time>
      </trkpt>
      <trkpt lat="43.74097" lon="7.0513">
        <ele>1037.1359863281</ele>
        <time>2013-12-09T10:00:06Z</time>
      </trkpt>
      <trkpt lat="43.74104" lon="7.05131">
        <ele>1037.5344238281</ele>
        <time>2013-12-09T10:00:13Z</time>
      </trkpt>
      <trkpt lat="43.74105" lon="7.05131">
        <ele>1037.6032714844</ele>
        <time>2013-12-09T10:00:14Z</time>
      </trkpt>
      <trkpt lat="43.74106" lon="7.05131">
        <ele>1037.7003173828</ele>
        <time>2013-12-09T10:00:18Z</time>
      </trkpt>
      <trkpt lat="43.7411" lon="7.05123">
        <ele>1037.9248046875</ele>
        <time>2013-12-09T10:00:22Z</time>
      </trkpt>
      <trkpt lat="43.74112" lon="7.0512">
        <ele>1038.0161132812</ele>
        <time>2013-12-09T10:00:27Z</time>
      </trkpt>
      <trkpt lat="43.74113" lon="7.05119">
        <ele>1038.0710449219</ele>
        <time>2013-12-09T10:00:32Z</time>
      </trkpt>
      <trkpt lat="43.74116" lon="7.05119">
        <ele>1038.1809082031</ele>
        <time>2013-12-09T10:00:38Z</time>
      </trkpt>
      <trkpt lat="43.74117" lon="7.05119">
        <ele>1038.1945800781</ele>
        <time>2013-12-09T10:00:39Z</time>
      </trkpt>
      <trkpt lat="43.7412" lon="7.05115">
        <ele>1038.3319091797</ele>
        <time>2013-12-09T10:00:43Z</time>
      </trkpt>
      <trkpt lat="43.74123" lon="7.05113">
        <ele>1038.4279785156</ele>
        <time>2013-12-09T10:00:50Z</time>
      </trkpt>
      <trkpt lat="43.74126" lon="7.05107">
        <ele>1038.6920166016</ele>
        <time>2013-12-09T10:00:54Z</time>
      </trkpt>
      <trkpt lat="43.74128" lon="7.05106">
        <ele>1038.7658691406</ele>
        <time>2013-12-09T10:00:55Z</time>
      </trkpt>
      <trkpt lat="43.74129" lon="7.05106">
        <ele>1038.8430175781</ele>
        <time>2013-12-09T10:00:58Z</time>
      </trkpt>
      <trkpt lat="43.74133" lon="7.05099">
        <ele>1039.220703125</ele>
        <time>2013-12-09T10:01:06Z</time>
      </trkpt>
      <trkpt lat="43.74134" lon="7.05099">
        <ele>1039.2739257812</ele>
        <time>2013-12-09T10:01:07Z</time>
      </trkpt>
      <trkpt lat="43.74137" lon="7.05099">
        <ele>1039.3992919922</ele>
        <time>2013-12-09T10:01:11Z</time>
      </trkpt>
      <trkpt lat="43.74144" lon="7.05101">
        <ele>1039.0471191406</ele>
        <time>2013-12-09T10:01:16Z</time>
      </trkpt>
      <trkpt lat="43.74155" lon="7.05105">
        <ele>1038.1866455078</ele>
        <time>2013-12-09T10:01:20Z</time>
      </trkpt>
      <trkpt lat="43.74162" lon="7.05107">
        <ele>1037.6370849609</ele>
        <time>2013-12-09T10:01:22Z</time>
      </trkpt>
      <trkpt lat="43.74173" lon="7.05109">
        <ele>1036.4382324219</ele>
        <time>2013-12-09T10:01:26Z</time>
      </trkpt>
      <trkpt lat="43.74174" lon="7.05106">
        <ele>1036.5412597656</ele>
        <time>2013-12-09T10:01:27Z</time>
      </trkpt>
      <trkpt lat="43.74181" lon="7.05097">
        <ele>1036.4793701172</ele>
        <time>2013-12-09T10:01:30Z</time>
      </trkpt>
      <trkpt lat="43.74186" lon="7.05096">
        <ele>1036.0330810547</ele>
        <time>2013-12-09T10:01:32Z</time>
      </trkpt>
      <trkpt lat="43.74194" lon="7.05092">
        <ele>1035.3807373047</ele>
        <time>2013-12-09T10:01:35Z</time>
      </trkpt>
      <trkpt lat="43.74197" lon="7.05091">
        <ele>1035.2056884766</ele>
        <time>2013-12-09T10:01:38Z</time>
      </trkpt>
      <trkpt lat="43.74224" lon="7.05081">
        <ele>1032.8024902344</ele>
        <time>2013-12-09T10:01:42Z</time>
      </trkpt>
      <trkpt lat="43.74247" lon="7.05067">
        <ele>1030.7893066406</ele>
        <time>2013-12-09T10:01:46Z</time>
      </trkpt>
      <trkpt lat="43.7425" lon="7.05062">
        <ele>1030.9635009766</ele>
        <time>2013-12-09T10:01:47Z</time>
      </trkpt>
      <trkpt lat="43.74265" lon="7.05052">
        <ele>1030.4686279297</ele>
        <time>2013-12-09T10:01:50Z</time>
      </trkpt>
      <trkpt lat="43.74279" lon="7.05036">
        <ele>1031.3666992188</ele>
        <time>2013-12-09T10:01:54Z</time>
      </trkpt>
      <trkpt lat="43.74284" lon="7.05021">
        <ele>1033.2879638672</ele>
        <time>2013-12-09T10:01:58Z</time>
      </trkpt>
      <trkpt lat="43.74285" lon="7.05018">
        <ele>1033.6041259766</ele>
        <time>2013-12-09T10:01:59Z</time>
      </trkpt>
      <trkpt lat="43.74292" lon="7.05005">
        <ele>1034.8210449219</ele>
        <time>2013-12-09T10:02:03Z</time>
      </trkpt>
      <trkpt lat="43.74294" lon="7.05004">
        <ele>1034.9345703125</ele>
        <time>2013-12-09T10:02:04Z</time>
      </trkpt>
      <trkpt lat="43.74297" lon="7.05003">
        <ele>1034.8737792969</ele>
        <time>2013-12-09T10:02:06Z</time>
      </trkpt>
      <trkpt lat="43.74301" lon="7.05004">
        <ele>1034.6179199219</ele>
        <time>2013-12-09T10:02:11Z</time>
      </trkpt>
      <trkpt lat="43.74305" lon="7.05005">
        <ele>1034.23046875</ele>
        <time>2013-12-09T10:02:16Z</time>
      </trkpt>
      <trkpt lat="43.74317" lon="7.05008">
        <ele>1033.84375</ele>
        <time>2013-12-09T10:02:21Z</time>
      </trkpt>
      <trkpt lat="43.74327" lon="7.05012">
        <ele>1033.205078125</ele>
        <time>2013-12-09T10:02:25Z</time>
      </trkpt>
      <trkpt lat="43.74343" lon="7.0501">
        <ele>1034.2180175781</ele>
        <time>2013-12-09T10:02:30Z</time>
      </trkpt>
      <trkpt lat="43.74356" lon="7.05004">
        <ele>1036.0307617188</ele>
        <time>2013-12-09T10:02:34Z</time>
      </trkpt>
      <trkpt lat="43.74365" lon="7.04995">
        <ele>1037.7731933594</ele>
        <time>2013-12-09T10:02:39Z</time>
      </trkpt>
      <trkpt lat="43.74369" lon="7.04992">
        <ele>1038.1232910156</ele>
        <time>2013-12-09T10:02:44Z</time>
      </trkpt>
      <trkpt lat="43.74369" lon="7.04992">
        <ele>1038.1645507812</ele>
        <time>2013-12-09T10:02:52Z</time>
      </trkpt>
      <trkpt lat="43.74373" lon="7.04991">
        <ele>1038.2744140625</ele>
        <time>2013-12-09T10:03:12Z</time>
      </trkpt>
      <trkpt lat="43.74379" lon="7.0499">
        <ele>1038.4666748047</ele>
        <time>2013-12-09T10:03:15Z</time>
      </trkpt>
      <trkpt lat="43.74383" lon="7.04987">
        <ele>1038.93359375</ele>
        <time>2013-12-09T10:03:17Z</time>
      </trkpt>
      <trkpt lat="43.74391" lon="7.04983">
        <ele>1039.2976074219</ele>
        <time>2013-12-09T10:03:21Z</time>
      </trkpt>
      <trkpt lat="43.74393" lon="7.04983">
        <ele>1039.3182373047</ele>
        <time>2013-12-09T10:03:22Z</time>
      </trkpt>
      <trkpt lat="43.74407" lon="7.04979">
        <ele>1039.3663330078</ele>
        <time>2013-12-09T10:03:30Z</time>
      </trkpt>
      <trkpt lat="43.74408" lon="7.04978">
        <ele>1039.5311279297</ele>
        <time>2013-12-09T10:03:31Z</time>
      </trkpt>
      <trkpt lat="43.74414" lon="7.04974">
        <ele>1039.8194580078</ele>
        <time>2013-12-09T10:03:34Z</time>
      </trkpt>
      <trkpt lat="43.7442" lon="7.04973">
        <ele>1039.8013916016</ele>
        <time>2013-12-09T10:03:38Z</time>
      </trkpt>
      <trkpt lat="43.74421" lon="7.04971">
        <ele>1039.92578125</ele>
        <time>2013-12-09T10:03:39Z</time>
      </trkpt>
      <trkpt lat="43.74425" lon="7.04971">
        <ele>1039.8897705078</ele>
        <time>2013-12-09T10:03:42Z</time>
      </trkpt>
      <trkpt lat="43.74425" lon="7.04972">
        <ele>1039.7111816406</ele>
        <time>2013-12-09T10:03:43Z</time>
      </trkpt>
      <trkpt lat="43.74424" lon="7.04972">
        <ele>1039.7541503906</ele>
        <time>2013-12-09T10:03:48Z</time>
      </trkpt>
      <trkpt lat="43.74426" lon="7.0497">
        <ele>1039.8897705078</ele>
        <time>2013-12-09T10:03:55Z</time>
      </trkpt>
      <trkpt lat="43.74428" lon="7.0497">
        <ele>1039.8468017578</ele>
        <time>2013-12-09T10:04:00Z</time>
      </trkpt>
      <trkpt lat="43.74432" lon="7.04968">
        <ele>1039.8605957031</ele>
        <time>2013-12-09T10:04:08Z</time>
      </trkpt>
      <trkpt lat="43.74437" lon="7.04967">
        <ele>1039.8297119141</ele>
        <time>2013-12-09T10:04:15Z</time>
      </trkpt>
      <trkpt lat="43.74443" lon="7.04965">
        <ele>1039.8829345703</ele>
        <time>2013-12-09T10:04:24Z</time>
      </trkpt>
      <trkpt lat="43.74448" lon="7.0497">
        <ele>1038.8980712891</ele>
        <time>2013-12-09T10:04:31Z</time>
      </trkpt>
      <trkpt lat="43.74451" lon="7.04979">
        <ele>1037.6641845703</ele>
        <time>2013-12-09T10:04:36Z</time>
      </trkpt>
      <trkpt lat="43.74456" lon="7.0499">
        <ele>1036.0588378906</ele>
        <time>2013-12-09T10:04:41Z</time>
      </trkpt>
      <trkpt lat="43.74464" lon="7.04997">
        <ele>1034.8927001953</ele>
        <time>2013-12-09T10:04:46Z</time>
      </trkpt>
      <trkpt lat="43.7447" lon="7.05008">
        <ele>1033.5444335938</ele>
        <time>2013-12-09T10:04:52Z</time>
      </trkpt>
      <trkpt lat="43.74472" lon="7.0501">
        <ele>1033.2663574219</ele>
        <time>2013-12-09T10:04:53Z</time>
      </trkpt>
      <trkpt lat="43.74477" lon="7.05012">
        <ele>1033.0657958984</ele>
        <time>2013-12-09T10:04:55Z</time>
      </trkpt>
      <trkpt lat="43.7448" lon="7.05012">
        <ele>1032.9599609375</ele>
        <time>2013-12-09T10:04:57Z</time>
      </trkpt>
      <trkpt lat="43.74484" lon="7.0501">
        <ele>1032.9794921875</ele>
        <time>2013-12-09T10:05:00Z</time>
      </trkpt>
      <trkpt lat="43.74493" lon="7.05006">
        <ele>1032.9794921875</ele>
        <time>2013-12-09T10:05:08Z</time>
      </trkpt>
      <trkpt lat="43.74501" lon="7.05003">
        <ele>1032.8876953125</ele>
        <time>2013-12-09T10:05:15Z</time>
      </trkpt>
      <trkpt lat="43.74501" lon="7.05003">
        <ele>1032.8911132812</ele>
        <time>2013-12-09T10:05:16Z</time>
      </trkpt>
      <trkpt lat="43.74506" lon="7.05001">
        <ele>1032.9581298828</ele>
        <time>2013-12-09T10:05:22Z</time>
      </trkpt>
      <trkpt lat="43.74519" lon="7.04998">
        <ele>1033.1428222656</ele>
        <time>2013-12-09T10:05:29Z</time>
      </trkpt>
      <trkpt lat="43.74539" lon="7.05">
        <ele>1033.4263916016</ele>
        <time>2013-12-09T10:05:36Z</time>
      </trkpt>
      <trkpt lat="43.74548" lon="7.05005">
        <ele>1033.5472412109</ele>
        <time>2013-12-09T10:05:39Z</time>
      </trkpt>
      <trkpt lat="43.74552" lon="7.05006">
        <ele>1033.677734375</ele>
        <time>2013-12-09T10:05:40Z</time>
      </trkpt>
      <trkpt lat="43.74575" lon="7.05005">
        <ele>1033.8259277344</ele>
        <time>2013-12-09T10:05:45Z</time>
      </trkpt>
      <trkpt lat="43.74597" lon="7.05004">
        <ele>1034.3582763672</ele>
        <time>2013-12-09T10:05:50Z</time>
      </trkpt>
      <trkpt lat="43.74611" lon="7.05009">
        <ele>1034.6810302734</ele>
        <time>2013-12-09T10:05:54Z</time>
      </trkpt>
      <trkpt lat="43.74614" lon="7.05009">
        <ele>1034.6352539062</ele>
        <time>2013-12-09T10:05:55Z</time>
      </trkpt>
      <trkpt lat="43.74619" lon="7.0501">
        <ele>1034.5270996094</ele>
        <time>2013-12-09T10:05:56Z</time>
      </trkpt>
      <trkpt lat="43.74628" lon="7.05014">
        <ele>1034.1903076172</ele>
        <time>2013-12-09T10:05:58Z</time>
      </trkpt>
      <trkpt lat="43.74643" lon="7.05026">
        <ele>1031.4016113281</ele>
        <time>2013-12-09T10:06:02Z</time>
      </trkpt>
      <trkpt lat="43.74647" lon="7.0503">
        <ele>1029.1121826172</ele>
        <time>2013-12-09T10:06:03Z</time>
      </trkpt>
      <trkpt lat="43.7466" lon="7.05042">
        <ele>1021.9556884766</ele>
        <time>2013-12-09T10:06:06Z</time>
      </trkpt>
      <trkpt lat="43.74664" lon="7.05046">
        <ele>1019.8820800781</ele>
        <time>2013-12-09T10:06:07Z</time>
      </trkpt>
      <trkpt lat="43.74672" lon="7.05057">
        <ele>1017.9311523438</ele>
        <time>2013-12-09T10:06:09Z</time>
      </trkpt>
      <trkpt lat="43.74676" lon="7.05063">
        <ele>1017.6333007812</ele>
        <time>2013-12-09T10:06:10Z</time>
      </trkpt>
      <trkpt lat="43.74688" lon="7.05081">
        <ele>1016.3763427734</ele>
        <time>2013-12-09T10:06:14Z</time>
      </trkpt>
      <trkpt lat="43.74702" lon="7.05104">
        <ele>1013.3225708008</ele>
        <time>2013-12-09T10:06:18Z</time>
      </trkpt>
      <trkpt lat="43.74704" lon="7.0511">
        <ele>1012.3082275391</ele>
        <time>2013-12-09T10:06:19Z</time>
      </trkpt>
      <trkpt lat="43.74713" lon="7.05125">
        <ele>1007.6976928711</ele>
        <time>2013-12-09T10:06:22Z</time>
      </trkpt>
      <trkpt lat="43.74719" lon="7.05136">
        <ele>1003.8764038086</ele>
        <time>2013-12-09T10:06:24Z</time>
      </trkpt>
      <trkpt lat="43.74728" lon="7.05153">
        <ele>1000.4772338867</ele>
        <time>2013-12-09T10:06:28Z</time>
      </trkpt>
      <trkpt lat="43.74741" lon="7.05157">
        <ele>1000.0755615234</ele>
        <time>2013-12-09T10:06:32Z</time>
      </trkpt>
      <trkpt lat="43.74751" lon="7.05168">
        <ele>998.97204589844</ele>
        <time>2013-12-09T10:06:36Z</time>
      </trkpt>
      <trkpt lat="43.74754" lon="7.05189">
        <ele>998.34552001953</ele>
        <time>2013-12-09T10:06:39Z</time>
      </trkpt>
      <trkpt lat="43.74754" lon="7.05197">
        <ele>998.04107666016</ele>
        <time>2013-12-09T10:06:40Z</time>
      </trkpt>
      <trkpt lat="43.74755" lon="7.05216">
        <ele>997.25384521484</ele>
        <time>2013-12-09T10:06:43Z</time>
      </trkpt>
      <trkpt lat="43.74757" lon="7.05223">
        <ele>996.96203613281</ele>
        <time>2013-12-09T10:06:44Z</time>
      </trkpt>
      <trkpt lat="43.7476" lon="7.05233">
        <ele>996.19299316406</ele>
        <time>2013-12-09T10:06:46Z</time>
      </trkpt>
      <trkpt lat="43.74763" lon="7.0524">
        <ele>995.70202636719</ele>
        <time>2013-12-09T10:06:48Z</time>
      </trkpt>
      <trkpt lat="43.74765" lon="7.05247">
        <ele>995.19049072266</ele>
        <time>2013-12-09T10:06:52Z</time>
      </trkpt>
      <trkpt lat="43.74767" lon="7.05253">
        <ele>994.88580322266</ele>
        <time>2013-12-09T10:06:55Z</time>
      </trkpt>
      <trkpt lat="43.74767" lon="7.05253">
        <ele>994.89782714844</ele>
        <time>2013-12-09T10:06:58Z</time>
      </trkpt>
      <trkpt lat="43.74766" lon="7.05254">
        <ele>994.8720703125</ele>
        <time>2013-12-09T10:07:07Z</time>
      </trkpt>
      <trkpt lat="43.74769" lon="7.05255">
        <ele>994.83258056641</ele>
        <time>2013-12-09T10:07:29Z</time>
      </trkpt>
      <trkpt lat="43.74771" lon="7.0526">
        <ele>994.65576171875</ele>
        <time>2013-12-09T10:07:31Z</time>
      </trkpt>
      <trkpt lat="43.74781" lon="7.05268">
        <ele>994.33990478516</ele>
        <time>2013-12-09T10:07:35Z</time>
      </trkpt>
      <trkpt lat="43.74784" lon="7.05273">
        <ele>994.17340087891</ele>
        <time>2013-12-09T10:07:36Z</time>
      </trkpt>
      <trkpt lat="43.74796" lon="7.05291">
        <ele>993.05938720703</ele>
        <time>2013-12-09T10:07:39Z</time>
      </trkpt>
      <trkpt lat="43.74809" lon="7.05305">
        <ele>992.01220703125</ele>
        <time>2013-12-09T10:07:42Z</time>
      </trkpt>
      <trkpt lat="43.74813" lon="7.05308">
        <ele>991.87689208984</ele>
        <time>2013-12-09T10:07:43Z</time>
      </trkpt>
      <trkpt lat="43.74822" lon="7.05315">
        <ele>991.43225097656</ele>
        <time>2013-12-09T10:07:46Z</time>
      </trkpt>
      <trkpt lat="43.74826" lon="7.05317">
        <ele>991.2861328125</ele>
        <time>2013-12-09T10:07:48Z</time>
      </trkpt>
      <trkpt lat="43.74829" lon="7.05317">
        <ele>991.24621582031</ele>
        <time>2013-12-09T10:07:49Z</time>
      </trkpt>
      <trkpt lat="43.74835" lon="7.05316">
        <ele>990.52081298828</ele>
        <time>2013-12-09T10:07:51Z</time>
      </trkpt>
      <trkpt lat="43.74849" lon="7.05316">
        <ele>985.07067871094</ele>
        <time>2013-12-09T10:07:54Z</time>
      </trkpt>
      <trkpt lat="43.74852" lon="7.05317">
        <ele>983.51049804688</ele>
        <time>2013-12-09T10:07:55Z</time>
      </trkpt>
      <trkpt lat="43.74873" lon="7.05321">
        <ele>979.32073974609</ele>
        <time>2013-12-09T10:07:59Z</time>
      </trkpt>
      <trkpt lat="43.74878" lon="7.05323">
        <ele>979.04516601562</ele>
        <time>2013-12-09T10:08:00Z</time>
      </trkpt>
      <trkpt lat="43.74881" lon="7.05323">
        <ele>978.85107421875</ele>
        <time>2013-12-09T10:08:02Z</time>
      </trkpt>
      <trkpt lat="43.74882" lon="7.05322">
        <ele>978.81164550781</ele>
        <time>2013-12-09T10:08:06Z</time>
      </trkpt>
      <trkpt lat="43.74886" lon="7.05327">
        <ele>978.41040039062</ele>
        <time>2013-12-09T10:08:25Z</time>
      </trkpt>
      <trkpt lat="43.74901" lon="7.05334">
        <ele>977.53466796875</ele>
        <time>2013-12-09T10:08:28Z</time>
      </trkpt>
      <trkpt lat="43.74908" lon="7.05334">
        <ele>977.3046875</ele>
        <time>2013-12-09T10:08:31Z</time>
      </trkpt>
      <trkpt lat="43.74913" lon="7.05329">
        <ele>977.28063964844</ele>
        <time>2013-12-09T10:08:35Z</time>
      </trkpt>
      <trkpt lat="43.74915" lon="7.0533">
        <ele>977.19311523438</ele>
        <time>2013-12-09T10:08:36Z</time>
      </trkpt>
      <trkpt lat="43.74921" lon="7.05341">
        <ele>976.73583984375</ele>
        <time>2013-12-09T10:08:40Z</time>
      </trkpt>
      <trkpt lat="43.74929" lon="7.05346">
        <ele>976.55383300781</ele>
        <time>2013-12-09T10:08:43Z</time>
      </trkpt>
      <trkpt lat="43.74933" lon="7.05361">
        <ele>976.00970458984</ele>
        <time>2013-12-09T10:08:47Z</time>
      </trkpt>
      <trkpt lat="43.74934" lon="7.05368">
        <ele>975.73675537109</ele>
        <time>2013-12-09T10:08:48Z</time>
      </trkpt>
      <trkpt lat="43.74938" lon="7.05381">
        <ele>975.28186035156</ele>
        <time>2013-12-09T10:08:50Z</time>
      </trkpt>
      <trkpt lat="43.7495" lon="7.05399">
        <ele>975.12823486328</ele>
        <time>2013-12-09T10:08:53Z</time>
      </trkpt>
      <trkpt lat="43.74954" lon="7.05406">
        <ele>975.12817382812</ele>
        <time>2013-12-09T10:08:54Z</time>
      </trkpt>
      <trkpt lat="43.74966" lon="7.05416">
        <ele>975.01031494141</ele>
        <time>2013-12-09T10:08:57Z</time>
      </trkpt>
      <trkpt lat="43.74973" lon="7.05418">
        <ele>974.94805908203</ele>
        <time>2013-12-09T10:08:59Z</time>
      </trkpt>
      <trkpt lat="43.74979" lon="7.05422">
        <ele>974.81243896484</ele>
        <time>2013-12-09T10:09:01Z</time>
      </trkpt>
      <trkpt lat="43.7498" lon="7.05431">
        <ele>974.47082519531</ele>
        <time>2013-12-09T10:09:04Z</time>
      </trkpt>
      <trkpt lat="43.74982" lon="7.05454">
        <ele>973.64685058594</ele>
        <time>2013-12-09T10:09:08Z</time>
      </trkpt>
      <trkpt lat="43.74995" lon="7.05479">
        <ele>972.95721435547</ele>
        <time>2013-12-09T10:09:13Z</time>
      </trkpt>
      <trkpt lat="43.75003" lon="7.05487">
        <ele>973.10986328125</ele>
        <time>2013-12-09T10:09:15Z</time>
      </trkpt>
      <trkpt lat="43.75016" lon="7.05495">
        <ele>973.59051513672</ele>
        <time>2013-12-09T10:09:18Z</time>
      </trkpt>
      <trkpt lat="43.75026" lon="7.05499">
        <ele>973.93383789062</ele>
        <time>2013-12-09T10:09:20Z</time>
      </trkpt>
      <trkpt lat="43.75045" lon="7.05508">
        <ele>973.69506835938</ele>
        <time>2013-12-09T10:09:24Z</time>
      </trkpt>
      <trkpt lat="43.75051" lon="7.05517">
        <ele>973.39465332031</ele>
        <time>2013-12-09T10:09:27Z</time>
      </trkpt>
      <trkpt lat="43.75054" lon="7.05519">
        <ele>973.30883789062</ele>
        <time>2013-12-09T10:09:28Z</time>
      </trkpt>
      <trkpt lat="43.75073" lon="7.05537">
        <ele>973</ele>
        <time>2013-12-09T10:09:35Z</time>
      </trkpt>
      <trkpt lat="43.75086" lon="7.05554">
        <ele>973.00433349609</ele>
        <time>2013-12-09T10:09:40Z</time>
      </trkpt>
      <trkpt lat="43.75099" lon="7.05566">
        <ele>972.84405517578</ele>
        <time>2013-12-09T10:09:46Z</time>
      </trkpt>
      <trkpt lat="43.75107" lon="7.05571">
        <ele>972.91534423828</ele>
        <time>2013-12-09T10:09:51Z</time>
      </trkpt>
      <trkpt lat="43.75109" lon="7.05571">
        <ele>972.96740722656</ele>
        <time>2013-12-09T10:09:53Z</time>
      </trkpt>
      <trkpt lat="43.75113" lon="7.05569">
        <ele>973</ele>
        <time>2013-12-09T10:09:57Z</time>
      </trkpt>
      <trkpt lat="43.75113" lon="7.0557">
        <ele>973</ele>
        <time>2013-12-09T10:10:32Z</time>
      </trkpt>
      <trkpt lat="43.75113" lon="7.0557">
        <ele>973</ele>
        <time>2013-12-09T10:10:51Z</time>
      </trkpt>
      <trkpt lat="43.75119" lon="7.05563">
        <ele>973</ele>
        <time>2013-12-09T10:11:41Z</time>
      </trkpt>
      <trkpt lat="43.75138" lon="7.05554">
        <ele>973.00262451172</ele>
        <time>2013-12-09T10:11:46Z</time>
      </trkpt>
      <trkpt lat="43.75154" lon="7.05533">
        <ele>972.89477539062</ele>
        <time>2013-12-09T10:11:50Z</time>
      </trkpt>
      <trkpt lat="43.75178" lon="7.05499">
        <ele>972.59814453125</ele>
        <time>2013-12-09T10:11:55Z</time>
      </trkpt>
      <trkpt lat="43.75193" lon="7.05483">
        <ele>972.06048583984</ele>
        <time>2013-12-09T10:11:58Z</time>
      </trkpt>
      <trkpt lat="43.75204" lon="7.05475">
        <ele>969.22314453125</ele>
        <time>2013-12-09T10:12:00Z</time>
      </trkpt>
      <trkpt lat="43.75235" lon="7.0545">
        <ele>964.82110595703</ele>
        <time>2013-12-09T10:12:06Z</time>
      </trkpt>
      <trkpt lat="43.75238" lon="7.05444">
        <ele>964.90643310547</ele>
        <time>2013-12-09T10:12:07Z</time>
      </trkpt>
      <trkpt lat="43.75249" lon="7.0543">
        <ele>964.62316894531</ele>
        <time>2013-12-09T10:12:10Z</time>
      </trkpt>
      <trkpt lat="43.75255" lon="7.05424">
        <ele>964.56158447266</ele>
        <time>2013-12-09T10:12:12Z</time>
      </trkpt>
      <trkpt lat="43.75264" lon="7.05414">
        <ele>964.60620117188</ele>
        <time>2013-12-09T10:12:15Z</time>
      </trkpt>
      <trkpt lat="43.75269" lon="7.054">
        <ele>964.92034912109</ele>
        <time>2013-12-09T10:12:18Z</time>
      </trkpt>
      <trkpt lat="43.7527" lon="7.05391">
        <ele>965.19500732422</ele>
        <time>2013-12-09T10:12:20Z</time>
      </trkpt>
      <trkpt lat="43.75278" lon="7.05368">
        <ele>965.7529296875</ele>
        <time>2013-12-09T10:12:25Z</time>
      </trkpt>
      <trkpt lat="43.75286" lon="7.05351">
        <ele>966.06365966797</ele>
        <time>2013-12-09T10:12:30Z</time>
      </trkpt>
      <trkpt lat="43.7529" lon="7.05329">
        <ele>966.61895751953</ele>
        <time>2013-12-09T10:12:35Z</time>
      </trkpt>
      <trkpt lat="43.75299" lon="7.05304">
        <ele>967.07305908203</ele>
        <time>2013-12-09T10:12:42Z</time>
      </trkpt>
      <trkpt lat="43.75312" lon="7.05284">
        <ele>967.33557128906</ele>
        <time>2013-12-09T10:12:47Z</time>
      </trkpt>
      <trkpt lat="43.7533" lon="7.05256">
        <ele>966.21459960938</ele>
        <time>2013-12-09T10:12:54Z</time>
      </trkpt>
      <trkpt lat="43.75348" lon="7.05229">
        <ele>965.66265869141</ele>
        <time>2013-12-09T10:13:01Z</time>
      </trkpt>
      <trkpt lat="43.75371" lon="7.05191">
        <ele>964.63787841797</ele>
        <time>2013-12-09T10:13:11Z</time>
      </trkpt>
      <trkpt lat="43.75385" lon="7.05166">
        <ele>964.1572265625</ele>
        <time>2013-12-09T10:13:16Z</time>
      </trkpt>
      <trkpt lat="43.75397" lon="7.05149">
        <ele>963.61859130859</ele>
        <time>2013-12-09T10:13:19Z</time>
      </trkpt>
      <trkpt lat="43.75407" lon="7.05144">
        <ele>963.22290039062</ele>
        <time>2013-12-09T10:13:21Z</time>
      </trkpt>
      <trkpt lat="43.75417" lon="7.05142">
        <ele>962.85485839844</ele>
        <time>2013-12-09T10:13:23Z</time>
      </trkpt>
      <trkpt lat="43.75422" lon="7.0514">
        <ele>962.76733398438</ele>
        <time>2013-12-09T10:13:24Z</time>
      </trkpt>
      <trkpt lat="43.75426" lon="7.05136">
        <ele>962.66033935547</ele>
        <time>2013-12-09T10:13:25Z</time>
      </trkpt>
      <trkpt lat="43.75436" lon="7.05124">
        <ele>962.28955078125</ele>
        <time>2013-12-09T10:13:28Z</time>
      </trkpt>
      <trkpt lat="43.75439" lon="7.05112">
        <ele>962.19342041016</ele>
        <time>2013-12-09T10:13:30Z</time>
      </trkpt>
      <trkpt lat="43.75449" lon="7.05091">
        <ele>962</ele>
        <time>2013-12-09T10:13:34Z</time>
      </trkpt>
      <trkpt lat="43.75453" lon="7.05065">
        <ele>962.46026611328</ele>
        <time>2013-12-09T10:13:38Z</time>
      </trkpt>
      <trkpt lat="43.75454" lon="7.05058">
        <ele>962.60443115234</ele>
        <time>2013-12-09T10:13:39Z</time>
      </trkpt>
      <trkpt lat="43.7546" lon="7.0501">
        <ele>963</ele>
        <time>2013-12-09T10:13:46Z</time>
      </trkpt>
      <trkpt lat="43.75465" lon="7.04992">
        <ele>963.07678222656</ele>
        <time>2013-12-09T10:13:49Z</time>
      </trkpt>
      <trkpt lat="43.75471" lon="7.04984">
        <ele>963.03094482422</ele>
        <time>2013-12-09T10:13:51Z</time>
      </trkpt>
      <trkpt lat="43.75486" lon="7.04971">
        <ele>962.54284667969</ele>
        <time>2013-12-09T10:13:56Z</time>
      </trkpt>
      <trkpt lat="43.75488" lon="7.04968">
        <ele>962.51605224609</ele>
        <time>2013-12-09T10:13:57Z</time>
      </trkpt>
      <trkpt lat="43.75499" lon="7.04945">
        <ele>962.96826171875</ele>
        <time>2013-12-09T10:14:02Z</time>
      </trkpt>
      <trkpt lat="43.75505" lon="7.04904">
        <ele>962.80389404297</ele>
        <time>2013-12-09T10:14:07Z</time>
      </trkpt>
      <trkpt lat="43.75509" lon="7.04865">
        <ele>962.66656494141</ele>
        <time>2013-12-09T10:14:11Z</time>
      </trkpt>
      <trkpt lat="43.75521" lon="7.04837">
        <ele>962.24084472656</ele>
        <time>2013-12-09T10:14:14Z</time>
      </trkpt>
      <trkpt lat="43.75537" lon="7.04794">
        <ele>960.67779541016</ele>
        <time>2013-12-09T10:14:19Z</time>
      </trkpt>
      <trkpt lat="43.75558" lon="7.04751">
        <ele>960</ele>
        <time>2013-12-09T10:14:25Z</time>
      </trkpt>
      <trkpt lat="43.75562" lon="7.04745">
        <ele>960.03680419922</ele>
        <time>2013-12-09T10:14:26Z</time>
      </trkpt>
      <trkpt lat="43.75577" lon="7.04725">
        <ele>960.69403076172</ele>
        <time>2013-12-09T10:14:30Z</time>
      </trkpt>
      <trkpt lat="43.75601" lon="7.04693">
        <ele>961</ele>
        <time>2013-12-09T10:14:37Z</time>
      </trkpt>
      <trkpt lat="43.75612" lon="7.04681">
        <ele>961</ele>
        <time>2013-12-09T10:14:40Z</time>
      </trkpt>
      <trkpt lat="43.75618" lon="7.04673">
        <ele>961</ele>
        <time>2013-12-09T10:14:42Z</time>
      </trkpt>
      <trkpt lat="43.75626" lon="7.04666">
        <ele>961</ele>
        <time>2013-12-09T10:14:44Z</time>
      </trkpt>
      <trkpt lat="43.7564" lon="7.04653">
        <ele>961</ele>
        <time>2013-12-09T10:14:48Z</time>
      </trkpt>
      <trkpt lat="43.75669" lon="7.04624">
        <ele>961</ele>
        <time>2013-12-09T10:14:57Z</time>
      </trkpt>
      <trkpt lat="43.75686" lon="7.04606">
        <ele>961</ele>
        <time>2013-12-09T10:15:03Z</time>
      </trkpt>
      <trkpt lat="43.75701" lon="7.04588">
        <ele>961</ele>
        <time>2013-12-09T10:15:09Z</time>
      </trkpt>
      <trkpt lat="43.75714" lon="7.04576">
        <ele>961</ele>
        <time>2013-12-09T10:15:15Z</time>
      </trkpt>
      <trkpt lat="43.75721" lon="7.0457">
        <ele>961</ele>
        <time>2013-12-09T10:15:20Z</time>
      </trkpt>
      <trkpt lat="43.75725" lon="7.04568">
        <ele>961</ele>
        <time>2013-12-09T10:15:22Z</time>
      </trkpt>
      <trkpt lat="43.75728" lon="7.0457">
        <ele>961</ele>
        <time>2013-12-09T10:15:24Z</time>
      </trkpt>
      <trkpt lat="43.75737" lon="7.04568">
        <ele>961</ele>
        <time>2013-12-09T10:15:30Z</time>
      </trkpt>
      <trkpt lat="43.75739" lon="7.04568">
        <ele>961</ele>
        <time>2013-12-09T10:15:31Z</time>
      </trkpt>
      <trkpt lat="43.75745" lon="7.04569">
        <ele>961</ele>
        <time>2013-12-09T10:15:37Z</time>
      </trkpt>
      <trkpt lat="43.75746" lon="7.0457">
        <ele>961</ele>
        <time>2013-12-09T10:15:38Z</time>
      </trkpt>
      <trkpt lat="43.75745" lon="7.0457">
        <ele>961</ele>
        <time>2013-12-09T10:15:42Z</time>
      </trkpt>
      <trkpt lat="43.75751" lon="7.04574">
        <ele>961</ele>
        <time>2013-12-09T10:16:29Z</time>
      </trkpt>
      <trkpt lat="43.75756" lon="7.04594">
        <ele>961</ele>
        <time>2013-12-09T10:16:35Z</time>
      </trkpt>
      <trkpt lat="43.75771" lon="7.04614">
        <ele>961</ele>
        <time>2013-12-09T10:16:41Z</time>
      </trkpt>
      <trkpt lat="43.75795" lon="7.04623">
        <ele>961</ele>
        <time>2013-12-09T10:16:47Z</time>
      </trkpt>
      <trkpt lat="43.75819" lon="7.04626">
        <ele>961</ele>
        <time>2013-12-09T10:16:52Z</time>
      </trkpt>
      <trkpt lat="43.75828" lon="7.04632">
        <ele>961</ele>
        <time>2013-12-09T10:16:54Z</time>
      </trkpt>
      <trkpt lat="43.75839" lon="7.04653">
        <ele>961.21240234375</ele>
        <time>2013-12-09T10:16:58Z</time>
      </trkpt>
      <trkpt lat="43.75843" lon="7.04665">
        <ele>961.34973144531</ele>
        <time>2013-12-09T10:17:00Z</time>
      </trkpt>
      <trkpt lat="43.75851" lon="7.04694">
        <ele>961.65185546875</ele>
        <time>2013-12-09T10:17:05Z</time>
      </trkpt>
      <trkpt lat="43.75859" lon="7.04714">
        <ele>961.94024658203</ele>
        <time>2013-12-09T10:17:08Z</time>
      </trkpt>
      <trkpt lat="43.75871" lon="7.04728">
        <ele>962.74719238281</ele>
        <time>2013-12-09T10:17:11Z</time>
      </trkpt>
      <trkpt lat="43.75875" lon="7.04732">
        <ele>963.14703369141</ele>
        <time>2013-12-09T10:17:12Z</time>
      </trkpt>
      <trkpt lat="43.75897" lon="7.0475">
        <ele>965.89129638672</ele>
        <time>2013-12-09T10:17:17Z</time>
      </trkpt>
      <trkpt lat="43.75906" lon="7.04758">
        <ele>966.66705322266</ele>
        <time>2013-12-09T10:17:19Z</time>
      </trkpt>
      <trkpt lat="43.75916" lon="7.04774">
        <ele>967.10711669922</ele>
        <time>2013-12-09T10:17:22Z</time>
      </trkpt>
      <trkpt lat="43.75918" lon="7.04778">
        <ele>967.10211181641</ele>
        <time>2013-12-09T10:17:23Z</time>
      </trkpt>
      <trkpt lat="43.75937" lon="7.04821">
        <ele>967.07196044922</ele>
        <time>2013-12-09T10:17:30Z</time>
      </trkpt>
      <trkpt lat="43.75957" lon="7.04872">
        <ele>967.68811035156</ele>
        <time>2013-12-09T10:17:38Z</time>
      </trkpt>
      <trkpt lat="43.75964" lon="7.04884">
        <ele>968.19512939453</ele>
        <time>2013-12-09T10:17:40Z</time>
      </trkpt>
      <trkpt lat="43.75977" lon="7.04898">
        <ele>969.30126953125</ele>
        <time>2013-12-09T10:17:43Z</time>
      </trkpt>
      <trkpt lat="43.75982" lon="7.04902">
        <ele>969.86608886719</ele>
        <time>2013-12-09T10:17:44Z</time>
      </trkpt>
      <trkpt lat="43.7599" lon="7.04913">
        <ele>970.63854980469</ele>
        <time>2013-12-09T10:17:46Z</time>
      </trkpt>
      <trkpt lat="43.75994" lon="7.04927">
        <ele>971.13293457031</ele>
        <time>2013-12-09T10:17:48Z</time>
      </trkpt>
      <trkpt lat="43.75998" lon="7.04942">
        <ele>971.56427001953</ele>
        <time>2013-12-09T10:17:50Z</time>
      </trkpt>
      <trkpt lat="43.76006" lon="7.04963">
        <ele>971.92266845703</ele>
        <time>2013-12-09T10:17:53Z</time>
      </trkpt>
      <trkpt lat="43.76014" lon="7.04982">
        <ele>972.11322021484</ele>
        <time>2013-12-09T10:17:55Z</time>
      </trkpt>
      <trkpt lat="43.76012" lon="7.04994">
        <ele>971.56390380859</ele>
        <time>2013-12-09T10:17:56Z</time>
      </trkpt>
      <trkpt lat="43.76003" lon="7.05013">
        <ele>969.80609130859</ele>
        <time>2013-12-09T10:17:58Z</time>
      </trkpt>
      <trkpt lat="43.75999" lon="7.05044">
        <ele>968.22064208984</ele>
        <time>2013-12-09T10:18:01Z</time>
      </trkpt>
      <trkpt lat="43.76005" lon="7.0508">
        <ele>967.64141845703</ele>
        <time>2013-12-09T10:18:05Z</time>
      </trkpt>
      <trkpt lat="43.76019" lon="7.05094">
        <ele>969.04180908203</ele>
        <time>2013-12-09T10:18:08Z</time>
      </trkpt>
      <trkpt lat="43.76037" lon="7.05092">
        <ele>971.20806884766</ele>
        <time>2013-12-09T10:18:11Z</time>
      </trkpt>
      <trkpt lat="43.76042" lon="7.05091">
        <ele>971.92218017578</ele>
        <time>2013-12-09T10:18:12Z</time>
      </trkpt>
      <trkpt lat="43.76049" lon="7.05093">
        <ele>972.85107421875</ele>
        <time>2013-12-09T10:18:13Z</time>
      </trkpt>
      <trkpt lat="43.7606" lon="7.051">
        <ele>973.73736572266</ele>
        <time>2013-12-09T10:18:15Z</time>
      </trkpt>
      <trkpt lat="43.76071" lon="7.05122">
        <ele>973.71166992188</ele>
        <time>2013-12-09T10:18:18Z</time>
      </trkpt>
      <trkpt lat="43.76065" lon="7.05145">
        <ele>972.35675048828</ele>
        <time>2013-12-09T10:18:21Z</time>
      </trkpt>
      <trkpt lat="43.76046" lon="7.05168">
        <ele>969.91857910156</ele>
        <time>2013-12-09T10:18:25Z</time>
      </trkpt>
      <trkpt lat="43.76043" lon="7.05176">
        <ele>969.35552978516</ele>
        <time>2013-12-09T10:18:26Z</time>
      </trkpt>
      <trkpt lat="43.76044" lon="7.05192">
        <ele>968.90234375</ele>
        <time>2013-12-09T10:18:28Z</time>
      </trkpt>
      <trkpt lat="43.76057" lon="7.05206">
        <ele>969.65783691406</ele>
        <time>2013-12-09T10:18:31Z</time>
      </trkpt>
      <trkpt lat="43.76073" lon="7.05206">
        <ele>970.56604003906</ele>
        <time>2013-12-09T10:18:34Z</time>
      </trkpt>
      <trkpt lat="43.76078" lon="7.05207">
        <ele>970.76617431641</ele>
        <time>2013-12-09T10:18:35Z</time>
      </trkpt>
      <trkpt lat="43.76091" lon="7.0522">
        <ele>970.9033203125</ele>
        <time>2013-12-09T10:18:38Z</time>
      </trkpt>
      <trkpt lat="43.76099" lon="7.05246">
        <ele>970.33441162109</ele>
        <time>2013-12-09T10:18:42Z</time>
      </trkpt>
      <trkpt lat="43.7611" lon="7.05272">
        <ele>970.15386962891</ele>
        <time>2013-12-09T10:18:46Z</time>
      </trkpt>
      <trkpt lat="43.76114" lon="7.05277">
        <ele>970.22424316406</ele>
        <time>2013-12-09T10:18:47Z</time>
      </trkpt>
      <trkpt lat="43.76128" lon="7.05291">
        <ele>970.44903564453</ele>
        <time>2013-12-09T10:18:50Z</time>
      </trkpt>
      <trkpt lat="43.76138" lon="7.053">
        <ele>970.36883544922</ele>
        <time>2013-12-09T10:18:52Z</time>
      </trkpt>
      <trkpt lat="43.76147" lon="7.0531">
        <ele>969.85504150391</ele>
        <time>2013-12-09T10:18:54Z</time>
      </trkpt>
      <trkpt lat="43.76159" lon="7.05328">
        <ele>969.19757080078</ele>
        <time>2013-12-09T10:18:57Z</time>
      </trkpt>
      <trkpt lat="43.76169" lon="7.0535">
        <ele>967.72796630859</ele>
        <time>2013-12-09T10:19:00Z</time>
      </trkpt>
      <trkpt lat="43.76179" lon="7.05372">
        <ele>965.76416015625</ele>
        <time>2013-12-09T10:19:03Z</time>
      </trkpt>
      <trkpt lat="43.76181" lon="7.0538">
        <ele>965.07409667969</ele>
        <time>2013-12-09T10:19:04Z</time>
      </trkpt>
      <trkpt lat="43.76199" lon="7.05433">
        <ele>960.716796875</ele>
        <time>2013-12-09T10:19:11Z</time>
      </trkpt>
      <trkpt lat="43.76218" lon="7.05491">
        <ele>959</ele>
        <time>2013-12-09T10:19:20Z</time>
      </trkpt>
      <trkpt lat="43.76243" lon="7.05565">
        <ele>957.75555419922</ele>
        <time>2013-12-09T10:19:32Z</time>
      </trkpt>
      <trkpt lat="43.7625" lon="7.05593">
        <ele>957.65252685547</ele>
        <time>2013-12-09T10:19:36Z</time>
      </trkpt>
      <trkpt lat="43.7625" lon="7.05607">
        <ele>957.1220703125</ele>
        <time>2013-12-09T10:19:38Z</time>
      </trkpt>
      <trkpt lat="43.76247" lon="7.05628">
        <ele>956.89288330078</ele>
        <time>2013-12-09T10:19:41Z</time>
      </trkpt>
      <trkpt lat="43.76241" lon="7.0564">
        <ele>956.671875</ele>
        <time>2013-12-09T10:19:43Z</time>
      </trkpt>
      <trkpt lat="43.76236" lon="7.05651">
        <ele>956.25280761719</ele>
        <time>2013-12-09T10:19:45Z</time>
      </trkpt>
      <trkpt lat="43.7623" lon="7.05662">
        <ele>955.69281005859</ele>
        <time>2013-12-09T10:19:47Z</time>
      </trkpt>
      <trkpt lat="43.76224" lon="7.05684">
        <ele>955.07659912109</ele>
        <time>2013-12-09T10:19:50Z</time>
      </trkpt>
      <trkpt lat="43.76225" lon="7.05713">
        <ele>954.46246337891</ele>
        <time>2013-12-09T10:19:54Z</time>
      </trkpt>
      <trkpt lat="43.7623" lon="7.05734">
        <ele>954.43402099609</ele>
        <time>2013-12-09T10:19:57Z</time>
      </trkpt>
      <trkpt lat="43.76236" lon="7.05755">
        <ele>954.41320800781</ele>
        <time>2013-12-09T10:20:00Z</time>
      </trkpt>
      <trkpt lat="43.7625" lon="7.05786">
        <ele>954.70758056641</ele>
        <time>2013-12-09T10:20:05Z</time>
      </trkpt>
      <trkpt lat="43.76256" lon="7.05799">
        <ele>955.29968261719</ele>
        <time>2013-12-09T10:20:07Z</time>
      </trkpt>
      <trkpt lat="43.76253" lon="7.0582">
        <ele>954.44128417969</ele>
        <time>2013-12-09T10:20:10Z</time>
      </trkpt>
      <trkpt lat="43.76243" lon="7.05826">
        <ele>953.57653808594</ele>
        <time>2013-12-09T10:20:12Z</time>
      </trkpt>
      <trkpt lat="43.76239" lon="7.0583">
        <ele>953.23413085938</ele>
        <time>2013-12-09T10:20:13Z</time>
      </trkpt>
      <trkpt lat="43.7623" lon="7.05848">
        <ele>952.02429199219</ele>
        <time>2013-12-09T10:20:16Z</time>
      </trkpt>
      <trkpt lat="43.76227" lon="7.05871">
        <ele>951.330078125</ele>
        <time>2013-12-09T10:20:19Z</time>
      </trkpt>
      <trkpt lat="43.76227" lon="7.05878">
        <ele>951.330078125</ele>
        <time>2013-12-09T10:20:20Z</time>
      </trkpt>
      <trkpt lat="43.7623" lon="7.05908">
        <ele>951.07653808594</ele>
        <time>2013-12-09T10:20:24Z</time>
      </trkpt>
      <trkpt lat="43.76231" lon="7.05916">
        <ele>950.96765136719</ele>
        <time>2013-12-09T10:20:25Z</time>
      </trkpt>
      <trkpt lat="43.7624" lon="7.05974">
        <ele>950.88781738281</ele>
        <time>2013-12-09T10:20:33Z</time>
      </trkpt>
      <trkpt lat="43.76243" lon="7.06012">
        <ele>950.40625</ele>
        <time>2013-12-09T10:20:38Z</time>
      </trkpt>
      <trkpt lat="43.7624" lon="7.06028">
        <ele>949.89691162109</ele>
        <time>2013-12-09T10:20:40Z</time>
      </trkpt>
      <trkpt lat="43.76233" lon="7.06041">
        <ele>948.73657226562</ele>
        <time>2013-12-09T10:20:42Z</time>
      </trkpt>
      <trkpt lat="43.76228" lon="7.06057">
        <ele>947.65991210938</ele>
        <time>2013-12-09T10:20:44Z</time>
      </trkpt>
      <trkpt lat="43.7623" lon="7.06079">
        <ele>947.86590576172</ele>
        <time>2013-12-09T10:20:47Z</time>
      </trkpt>
      <trkpt lat="43.76231" lon="7.06095">
        <ele>948.08410644531</ele>
        <time>2013-12-09T10:20:49Z</time>
      </trkpt>
      <trkpt lat="43.7623" lon="7.06103">
        <ele>948.02069091797</ele>
        <time>2013-12-09T10:20:50Z</time>
      </trkpt>
      <trkpt lat="43.76226" lon="7.06111">
        <ele>947.5478515625</ele>
        <time>2013-12-09T10:20:51Z</time>
      </trkpt>
      <trkpt lat="43.76212" lon="7.06126">
        <ele>944.85913085938</ele>
        <time>2013-12-09T10:20:54Z</time>
      </trkpt>
      <trkpt lat="43.76172" lon="7.06173">
        <ele>939.80493164062</ele>
        <time>2013-12-09T10:21:03Z</time>
      </trkpt>
      <trkpt lat="43.76166" lon="7.06186">
        <ele>938.9677734375</ele>
        <time>2013-12-09T10:21:05Z</time>
      </trkpt>
      <trkpt lat="43.76157" lon="7.06207">
        <ele>939.08978271484</ele>
        <time>2013-12-09T10:21:08Z</time>
      </trkpt>
      <trkpt lat="43.76155" lon="7.06213">
        <ele>939.27172851562</ele>
        <time>2013-12-09T10:21:09Z</time>
      </trkpt>
      <trkpt lat="43.76152" lon="7.06243">
        <ele>939.45965576172</ele>
        <time>2013-12-09T10:21:13Z</time>
      </trkpt>
      <trkpt lat="43.76151" lon="7.0625">
        <ele>939.44592285156</ele>
        <time>2013-12-09T10:21:14Z</time>
      </trkpt>
      <trkpt lat="43.76151" lon="7.06308">
        <ele>941.29840087891</ele>
        <time>2013-12-09T10:21:22Z</time>
      </trkpt>
      <trkpt lat="43.76152" lon="7.06345">
        <ele>941.94848632812</ele>
        <time>2013-12-09T10:21:27Z</time>
      </trkpt>
      <trkpt lat="43.76157" lon="7.0636">
        <ele>942.66259765625</ele>
        <time>2013-12-09T10:21:29Z</time>
      </trkpt>
      <trkpt lat="43.76175" lon="7.0638">
        <ele>945.48681640625</ele>
        <time>2013-12-09T10:21:33Z</time>
      </trkpt>
      <trkpt lat="43.76203" lon="7.06402">
        <ele>950.19946289062</ele>
        <time>2013-12-09T10:21:39Z</time>
      </trkpt>
      <trkpt lat="43.76208" lon="7.06422">
        <ele>951.0234375</ele>
        <time>2013-12-09T10:21:42Z</time>
      </trkpt>
      <trkpt lat="43.7621" lon="7.06431">
        <ele>951.2431640625</ele>
        <time>2013-12-09T10:21:43Z</time>
      </trkpt>
      <trkpt lat="43.76215" lon="7.06445">
        <ele>951.94970703125</ele>
        <time>2013-12-09T10:21:45Z</time>
      </trkpt>
      <trkpt lat="43.76223" lon="7.06455">
        <ele>952.32025146484</ele>
        <time>2013-12-09T10:21:47Z</time>
      </trkpt>
      <trkpt lat="43.76233" lon="7.06465">
        <ele>952.60522460938</ele>
        <time>2013-12-09T10:21:49Z</time>
      </trkpt>
      <trkpt lat="43.7625" lon="7.06485">
        <ele>952.56799316406</ele>
        <time>2013-12-09T10:21:53Z</time>
      </trkpt>
      <trkpt lat="43.7627" lon="7.0652">
        <ele>953.35498046875</ele>
        <time>2013-12-09T10:21:59Z</time>
      </trkpt>
      <trkpt lat="43.76293" lon="7.06582">
        <ele>951.31958007812</ele>
        <time>2013-12-09T10:22:07Z</time>
      </trkpt>
      <trkpt lat="43.76304" lon="7.06634">
        <ele>945.63952636719</ele>
        <time>2013-12-09T10:22:12Z</time>
      </trkpt>
      <trkpt lat="43.76308" lon="7.06643">
        <ele>944.96691894531</ele>
        <time>2013-12-09T10:22:13Z</time>
      </trkpt>
      <trkpt lat="43.76318" lon="7.06656">
        <ele>945.08709716797</ele>
        <time>2013-12-09T10:22:15Z</time>
      </trkpt>
      <trkpt lat="43.76334" lon="7.0667">
        <ele>945.64465332031</ele>
        <time>2013-12-09T10:22:18Z</time>
      </trkpt>
      <trkpt lat="43.76339" lon="7.06673">
        <ele>946.29681396484</ele>
        <time>2013-12-09T10:22:19Z</time>
      </trkpt>
      <trkpt lat="43.76352" lon="7.06686">
        <ele>947.69616699219</ele>
        <time>2013-12-09T10:22:22Z</time>
      </trkpt>
      <trkpt lat="43.7636" lon="7.06697">
        <ele>948.46954345703</ele>
        <time>2013-12-09T10:22:24Z</time>
      </trkpt>
      <trkpt lat="43.76379" lon="7.06732">
        <ele>948.83776855469</ele>
        <time>2013-12-09T10:22:30Z</time>
      </trkpt>
      <trkpt lat="43.76382" lon="7.06753">
        <ele>948.35845947266</ele>
        <time>2013-12-09T10:22:33Z</time>
      </trkpt>
      <trkpt lat="43.76383" lon="7.0676">
        <ele>947.87884521484</ele>
        <time>2013-12-09T10:22:34Z</time>
      </trkpt>
      <trkpt lat="43.76384" lon="7.06767">
        <ele>947.6826171875</ele>
        <time>2013-12-09T10:22:35Z</time>
      </trkpt>
      <trkpt lat="43.76384" lon="7.06782">
        <ele>946.31268310547</ele>
        <time>2013-12-09T10:22:37Z</time>
      </trkpt>
      <trkpt lat="43.76385" lon="7.06818">
        <ele>944.00207519531</ele>
        <time>2013-12-09T10:22:42Z</time>
      </trkpt>
      <trkpt lat="43.7639" lon="7.06832">
        <ele>944.21636962891</ele>
        <time>2013-12-09T10:22:44Z</time>
      </trkpt>
      <trkpt lat="43.76399" lon="7.0685">
        <ele>944.23742675781</ele>
        <time>2013-12-09T10:22:47Z</time>
      </trkpt>
      <trkpt lat="43.76405" lon="7.06865">
        <ele>943.98681640625</ele>
        <time>2013-12-09T10:22:49Z</time>
      </trkpt>
      <trkpt lat="43.76406" lon="7.06873">
        <ele>943.59545898438</ele>
        <time>2013-12-09T10:22:50Z</time>
      </trkpt>
      <trkpt lat="43.76409" lon="7.06895">
        <ele>942.54675292969</ele>
        <time>2013-12-09T10:22:53Z</time>
      </trkpt>
      <trkpt lat="43.76412" lon="7.06902">
        <ele>942.53247070312</ele>
        <time>2013-12-09T10:22:54Z</time>
      </trkpt>
      <trkpt lat="43.76427" lon="7.0691">
        <ele>942.80743408203</ele>
        <time>2013-12-09T10:22:57Z</time>
      </trkpt>
      <trkpt lat="43.76432" lon="7.06912">
        <ele>942.90014648438</ele>
        <time>2013-12-09T10:22:58Z</time>
      </trkpt>
      <trkpt lat="43.7646" lon="7.0692">
        <ele>944.32769775391</ele>
        <time>2013-12-09T10:23:03Z</time>
      </trkpt>
      <trkpt lat="43.7649" lon="7.06928">
        <ele>945.111328125</ele>
        <time>2013-12-09T10:23:09Z</time>
      </trkpt>
      <trkpt lat="43.76495" lon="7.06932">
        <ele>944.74072265625</ele>
        <time>2013-12-09T10:23:10Z</time>
      </trkpt>
      <trkpt lat="43.76511" lon="7.06954">
        <ele>942.56298828125</ele>
        <time>2013-12-09T10:23:14Z</time>
      </trkpt>
      <trkpt lat="43.76517" lon="7.06966">
        <ele>941.73553466797</ele>
        <time>2013-12-09T10:23:16Z</time>
      </trkpt>
      <trkpt lat="43.76522" lon="7.06985">
        <ele>940.37707519531</ele>
        <time>2013-12-09T10:23:19Z</time>
      </trkpt>
      <trkpt lat="43.76523" lon="7.06992">
        <ele>939.75946044922</ele>
        <time>2013-12-09T10:23:20Z</time>
      </trkpt>
      <trkpt lat="43.76523" lon="7.07013">
        <ele>939</ele>
        <time>2013-12-09T10:23:23Z</time>
      </trkpt>
      <trkpt lat="43.76522" lon="7.07026">
        <ele>939</ele>
        <time>2013-12-09T10:23:25Z</time>
      </trkpt>
      <trkpt lat="43.76519" lon="7.0705">
        <ele>938.21069335938</ele>
        <time>2013-12-09T10:23:30Z</time>
      </trkpt>
      <trkpt lat="43.76518" lon="7.07053">
        <ele>938.10083007812</ele>
        <time>2013-12-09T10:23:31Z</time>
      </trkpt>
      <trkpt lat="43.76517" lon="7.0706">
        <ele>938</ele>
        <time>2013-12-09T10:23:35Z</time>
      </trkpt>
      <trkpt lat="43.76517" lon="7.07063">
        <ele>938</ele>
        <time>2013-12-09T10:23:37Z</time>
      </trkpt>
      <trkpt lat="43.76521" lon="7.07064">
        <ele>938</ele>
        <time>2013-12-09T10:23:40Z</time>
      </trkpt>
      <trkpt lat="43.76531" lon="7.07065">
        <ele>938</ele>
        <time>2013-12-09T10:23:44Z</time>
      </trkpt>
      <trkpt lat="43.76534" lon="7.07064">
        <ele>938</ele>
        <time>2013-12-09T10:23:45Z</time>
      </trkpt>
      <trkpt lat="43.76551" lon="7.07059">
        <ele>938</ele>
        <time>2013-12-09T10:23:49Z</time>
      </trkpt>
      <trkpt lat="43.7658" lon="7.07051">
        <ele>938.166015625</ele>
        <time>2013-12-09T10:23:53Z</time>
      </trkpt>
      <trkpt lat="43.76625" lon="7.07037">
        <ele>938.66900634766</ele>
        <time>2013-12-09T10:23:58Z</time>
      </trkpt>
      <trkpt lat="43.76686" lon="7.0702">
        <ele>939</ele>
        <time>2013-12-09T10:24:04Z</time>
      </trkpt>
      <trkpt lat="43.76707" lon="7.07014">
        <ele>938.34063720703</ele>
        <time>2013-12-09T10:24:06Z</time>
      </trkpt>
      <trkpt lat="43.76761" lon="7.06999">
        <ele>933.49060058594</ele>
        <time>2013-12-09T10:24:12Z</time>
      </trkpt>
      <trkpt lat="43.76797" lon="7.06986">
        <ele>930.43011474609</ele>
        <time>2013-12-09T10:24:17Z</time>
      </trkpt>
      <trkpt lat="43.76823" lon="7.06973">
        <ele>927.74963378906</ele>
        <time>2013-12-09T10:24:22Z</time>
      </trkpt>
      <trkpt lat="43.76825" lon="7.06974">
        <ele>927.25524902344</ele>
        <time>2013-12-09T10:24:23Z</time>
      </trkpt>
      <trkpt lat="43.7683" lon="7.06977">
        <ele>926.16516113281</ele>
        <time>2013-12-09T10:24:27Z</time>
      </trkpt>
      <trkpt lat="43.7683" lon="7.06977">
        <ele>926.12744140625</ele>
        <time>2013-12-09T10:24:28Z</time>
      </trkpt>
      <trkpt lat="43.7683" lon="7.0697">
        <ele>926.75378417969</ele>
        <time>2013-12-09T10:24:32Z</time>
      </trkpt>
      <trkpt lat="43.7683" lon="7.0697">
        <ele>926.74694824219</ele>
        <time>2013-12-09T10:24:33Z</time>
      </trkpt>
      <trkpt lat="43.76828" lon="7.06968">
        <ele>927.20703125</ele>
        <time>2013-12-09T10:24:35Z</time>
      </trkpt>
      <trkpt lat="43.76828" lon="7.06966">
        <ele>927.34436035156</ele>
        <time>2013-12-09T10:24:36Z</time>
      </trkpt>
      <trkpt lat="43.76832" lon="7.06965">
        <ele>926.767578125</ele>
        <time>2013-12-09T10:24:39Z</time>
      </trkpt>
      <trkpt lat="43.76832" lon="7.06965">
        <ele>926.78125</ele>
        <time>2013-12-09T10:24:40Z</time>
      </trkpt>
      <trkpt lat="43.76832" lon="7.06965">
        <ele>926.77099609375</ele>
        <time>2013-12-09T10:24:46Z</time>
      </trkpt>
      <trkpt lat="43.76832" lon="7.06966">
        <ele>926.70574951172</ele>
        <time>2013-12-09T10:25:23Z</time>
      </trkpt>
      <trkpt lat="43.76836" lon="7.06969">
        <ele>925.79595947266</ele>
        <time>2013-12-09T10:25:44Z</time>
      </trkpt>
      <trkpt lat="43.76836" lon="7.06969">
        <ele>925.65863037109</ele>
        <time>2013-12-09T10:25:45Z</time>
      </trkpt>
      <trkpt lat="43.76837" lon="7.0697">
        <ele>925.56591796875</ele>
        <time>2013-12-09T10:25:52Z</time>
      </trkpt>
      <trkpt lat="43.76846" lon="7.06969">
        <ele>923.92828369141</ele>
        <time>2013-12-09T10:26:04Z</time>
      </trkpt>
      <trkpt lat="43.7686" lon="7.06979">
        <ele>920.99896240234</ele>
        <time>2013-12-09T10:26:07Z</time>
      </trkpt>
      <trkpt lat="43.76875" lon="7.06989">
        <ele>920.19213867188</ele>
        <time>2013-12-09T10:26:10Z</time>
      </trkpt>
      <trkpt lat="43.76884" lon="7.06996">
        <ele>920.02508544922</ele>
        <time>2013-12-09T10:26:12Z</time>
      </trkpt>
      <trkpt lat="43.76912" lon="7.07015">
        <ele>920</ele>
        <time>2013-12-09T10:26:18Z</time>
      </trkpt>
      <trkpt lat="43.76916" lon="7.07019">
        <ele>920</ele>
        <time>2013-12-09T10:26:19Z</time>
      </trkpt>
      <trkpt lat="43.76941" lon="7.07038">
        <ele>920</ele>
        <time>2013-12-09T10:26:24Z</time>
      </trkpt>
      <trkpt lat="43.76973" lon="7.07067">
        <ele>920</ele>
        <time>2013-12-09T10:26:30Z</time>
      </trkpt>
      <trkpt lat="43.76989" lon="7.07085">
        <ele>919.95068359375</ele>
        <time>2013-12-09T10:26:33Z</time>
      </trkpt>
      <trkpt lat="43.76998" lon="7.07099">
        <ele>919.42193603516</ele>
        <time>2013-12-09T10:26:35Z</time>
      </trkpt>
      <trkpt lat="43.77013" lon="7.07134">
        <ele>918.16540527344</ele>
        <time>2013-12-09T10:26:39Z</time>
      </trkpt>
      <trkpt lat="43.77017" lon="7.07143">
        <ele>917.90258789062</ele>
        <time>2013-12-09T10:26:40Z</time>
      </trkpt>
      <trkpt lat="43.77032" lon="7.07164">
        <ele>916.95324707031</ele>
        <time>2013-12-09T10:26:43Z</time>
      </trkpt>
      <trkpt lat="43.77039" lon="7.07169">
        <ele>916.5458984375</ele>
        <time>2013-12-09T10:26:44Z</time>
      </trkpt>
      <trkpt lat="43.77058" lon="7.07186">
        <ele>914.75463867188</ele>
        <time>2013-12-09T10:26:47Z</time>
      </trkpt>
      <trkpt lat="43.77066" lon="7.07191">
        <ele>912.81420898438</ele>
        <time>2013-12-09T10:26:48Z</time>
      </trkpt>
      <trkpt lat="43.77086" lon="7.07206">
        <ele>906.42602539062</ele>
        <time>2013-12-09T10:26:51Z</time>
      </trkpt>
      <trkpt lat="43.77093" lon="7.0721">
        <ele>906.11700439453</ele>
        <time>2013-12-09T10:26:52Z</time>
      </trkpt>
      <trkpt lat="43.77107" lon="7.07218">
        <ele>905.47839355469</ele>
        <time>2013-12-09T10:26:54Z</time>
      </trkpt>
      <trkpt lat="43.77114" lon="7.07223">
        <ele>904.91735839844</ele>
        <time>2013-12-09T10:26:55Z</time>
      </trkpt>
      <trkpt lat="43.77129" lon="7.0724">
        <ele>901.11682128906</ele>
        <time>2013-12-09T10:26:58Z</time>
      </trkpt>
      <trkpt lat="43.77131" lon="7.07245">
        <ele>900.14862060547</ele>
        <time>2013-12-09T10:27:01Z</time>
      </trkpt>
      <trkpt lat="43.77133" lon="7.07246">
        <ele>899.82934570312</ele>
        <time>2013-12-09T10:27:05Z</time>
      </trkpt>
      <trkpt lat="43.77138" lon="7.07251">
        <ele>898.91241455078</ele>
        <time>2013-12-09T10:27:07Z</time>
      </trkpt>
      <trkpt lat="43.7715" lon="7.07264">
        <ele>896.30908203125</ele>
        <time>2013-12-09T10:27:11Z</time>
      </trkpt>
      <trkpt lat="43.77164" lon="7.07287">
        <ele>891.09844970703</ele>
        <time>2013-12-09T10:27:15Z</time>
      </trkpt>
      <trkpt lat="43.77171" lon="7.07299">
        <ele>887.89642333984</ele>
        <time>2013-12-09T10:27:17Z</time>
      </trkpt>
      <trkpt lat="43.7718" lon="7.07314">
        <ele>883.6748046875</ele>
        <time>2013-12-09T10:27:19Z</time>
      </trkpt>
      <trkpt lat="43.77198" lon="7.07327">
        <ele>879.13873291016</ele>
        <time>2013-12-09T10:27:22Z</time>
      </trkpt>
      <trkpt lat="43.77205" lon="7.07331">
        <ele>878.73516845703</ele>
        <time>2013-12-09T10:27:23Z</time>
      </trkpt>
      <trkpt lat="43.77232" lon="7.07348">
        <ele>875.17370605469</ele>
        <time>2013-12-09T10:27:27Z</time>
      </trkpt>
      <trkpt lat="43.77253" lon="7.07363">
        <ele>869.69232177734</ele>
        <time>2013-12-09T10:27:31Z</time>
      </trkpt>
      <trkpt lat="43.77261" lon="7.07365">
        <ele>868.22290039062</ele>
        <time>2013-12-09T10:27:33Z</time>
      </trkpt>
      <trkpt lat="43.77264" lon="7.07367">
        <ele>867.76971435547</ele>
        <time>2013-12-09T10:27:34Z</time>
      </trkpt>
      <trkpt lat="43.7727" lon="7.0737">
        <ele>867.0625</ele>
        <time>2013-12-09T10:27:36Z</time>
      </trkpt>
      <trkpt lat="43.77275" lon="7.07373">
        <ele>866.14923095703</ele>
        <time>2013-12-09T10:27:39Z</time>
      </trkpt>
      <trkpt lat="43.77279" lon="7.07377">
        <ele>865.97064208984</ele>
        <time>2013-12-09T10:27:44Z</time>
      </trkpt>
      <trkpt lat="43.77282" lon="7.07382">
        <ele>865.62652587891</ele>
        <time>2013-12-09T10:27:53Z</time>
      </trkpt>
      <trkpt lat="43.77284" lon="7.07384">
        <ele>865.02777099609</ele>
        <time>2013-12-09T10:27:55Z</time>
      </trkpt>
      <trkpt lat="43.77293" lon="7.07396">
        <ele>863.58093261719</ele>
        <time>2013-12-09T10:27:59Z</time>
      </trkpt>
      <trkpt lat="43.77297" lon="7.07405">
        <ele>863.49432373047</ele>
        <time>2013-12-09T10:28:01Z</time>
      </trkpt>
      <trkpt lat="43.77301" lon="7.07408">
        <ele>862.30639648438</ele>
        <time>2013-12-09T10:28:02Z</time>
      </trkpt>
      <trkpt lat="43.77308" lon="7.07412">
        <ele>860.81579589844</ele>
        <time>2013-12-09T10:28:03Z</time>
      </trkpt>
      <trkpt lat="43.77324" lon="7.07431">
        <ele>860.42102050781</ele>
        <time>2013-12-09T10:28:07Z</time>
      </trkpt>
      <trkpt lat="43.77335" lon="7.07442">
        <ele>859.42352294922</ele>
        <time>2013-12-09T10:28:09Z</time>
      </trkpt>
      <trkpt lat="43.77339" lon="7.07448">
        <ele>860.15032958984</ele>
        <time>2013-12-09T10:28:10Z</time>
      </trkpt>
      <trkpt lat="43.77342" lon="7.07453">
        <ele>861.12603759766</ele>
        <time>2013-12-09T10:28:11Z</time>
      </trkpt>
      <trkpt lat="43.77351" lon="7.07462">
        <ele>862.40423583984</ele>
        <time>2013-12-09T10:28:13Z</time>
      </trkpt>
      <trkpt lat="43.7736" lon="7.0747">
        <ele>862.81134033203</ele>
        <time>2013-12-09T10:28:15Z</time>
      </trkpt>
      <trkpt lat="43.77368" lon="7.07475">
        <ele>861.52075195312</ele>
        <time>2013-12-09T10:28:17Z</time>
      </trkpt>
      <trkpt lat="43.77377" lon="7.07482">
        <ele>860.59991455078</ele>
        <time>2013-12-09T10:28:19Z</time>
      </trkpt>
      <trkpt lat="43.7739" lon="7.07494">
        <ele>860.39080810547</ele>
        <time>2013-12-09T10:28:22Z</time>
      </trkpt>
      <trkpt lat="43.77398" lon="7.075">
        <ele>860.81579589844</ele>
        <time>2013-12-09T10:28:23Z</time>
      </trkpt>
      <trkpt lat="43.7741" lon="7.07507">
        <ele>859.45794677734</ele>
        <time>2013-12-09T10:28:25Z</time>
      </trkpt>
      <trkpt lat="43.77427" lon="7.07516">
        <ele>855.25061035156</ele>
        <time>2013-12-09T10:28:28Z</time>
      </trkpt>
      <trkpt lat="43.77458" lon="7.07537">
        <ele>847.91357421875</ele>
        <time>2013-12-09T10:28:34Z</time>
      </trkpt>
      <trkpt lat="43.77468" lon="7.07547">
        <ele>847.23419189453</ele>
        <time>2013-12-09T10:28:36Z</time>
      </trkpt>
      <trkpt lat="43.77471" lon="7.07552">
        <ele>847.48132324219</ele>
        <time>2013-12-09T10:28:38Z</time>
      </trkpt>
      <trkpt lat="43.77471" lon="7.07547">
        <ele>845.88690185547</ele>
        <time>2013-12-09T10:28:40Z</time>
      </trkpt>
      <trkpt lat="43.77466" lon="7.07539">
        <ele>845.68609619141</ele>
        <time>2013-12-09T10:28:44Z</time>
      </trkpt>
      <trkpt lat="43.77464" lon="7.07537">
        <ele>845.69439697266</ele>
        <time>2013-12-09T10:28:46Z</time>
      </trkpt>
      <trkpt lat="43.77462" lon="7.07534">
        <ele>845.59826660156</ele>
        <time>2013-12-09T10:28:49Z</time>
      </trkpt>
      <trkpt lat="43.77461" lon="7.07533">
        <ele>845.89215087891</ele>
        <time>2013-12-09T10:28:54Z</time>
      </trkpt>
      <trkpt lat="43.77454" lon="7.07528">
        <ele>846.41265869141</ele>
        <time>2013-12-09T10:29:03Z</time>
      </trkpt>
      <trkpt lat="43.77443" lon="7.07517">
        <ele>848.08715820312</ele>
        <time>2013-12-09T10:29:07Z</time>
      </trkpt>
      <trkpt lat="43.77439" lon="7.07508">
        <ele>847.38854980469</ele>
        <time>2013-12-09T10:29:10Z</time>
      </trkpt>
      <trkpt lat="43.77442" lon="7.07509">
        <ele>846.42724609375</ele>
        <time>2013-12-09T10:29:11Z</time>
      </trkpt>
      <trkpt lat="43.77456" lon="7.07519">
        <ele>843.58746337891</ele>
        <time>2013-12-09T10:29:14Z</time>
      </trkpt>
      <trkpt lat="43.77461" lon="7.07523">
        <ele>842.65734863281</ele>
        <time>2013-12-09T10:29:15Z</time>
      </trkpt>
      <trkpt lat="43.77473" lon="7.07535">
        <ele>841.67974853516</ele>
        <time>2013-12-09T10:29:18Z</time>
      </trkpt>
      <trkpt lat="43.77479" lon="7.07547">
        <ele>843.45129394531</ele>
        <time>2013-12-09T10:29:21Z</time>
      </trkpt>
      <trkpt lat="43.7748" lon="7.07549">
        <ele>843.91821289062</ele>
        <time>2013-12-09T10:29:22Z</time>
      </trkpt>
      <trkpt lat="43.7749" lon="7.07564">
        <ele>845.32873535156</ele>
        <time>2013-12-09T10:29:26Z</time>
      </trkpt>
      <trkpt lat="43.77502" lon="7.07582">
        <ele>846.66937255859</ele>
        <time>2013-12-09T10:29:29Z</time>
      </trkpt>
      <trkpt lat="43.7751" lon="7.076">
        <ele>846.31604003906</ele>
        <time>2013-12-09T10:29:33Z</time>
      </trkpt>
      <trkpt lat="43.77517" lon="7.07597">
        <ele>842.15502929688</ele>
        <time>2013-12-09T10:29:36Z</time>
      </trkpt>
      <trkpt lat="43.77519" lon="7.07587">
        <ele>839.11315917969</ele>
        <time>2013-12-09T10:29:38Z</time>
      </trkpt>
      <trkpt lat="43.77522" lon="7.07586">
        <ele>837.63342285156</ele>
        <time>2013-12-09T10:29:39Z</time>
      </trkpt>
      <trkpt lat="43.77524" lon="7.07595">
        <ele>838.53637695312</ele>
        <time>2013-12-09T10:29:41Z</time>
      </trkpt>
      <trkpt lat="43.77523" lon="7.07611">
        <ele>842.21868896484</ele>
        <time>2013-12-09T10:29:46Z</time>
      </trkpt>
      <trkpt lat="43.77528" lon="7.07611">
        <ele>839.95086669922</ele>
        <time>2013-12-09T10:29:50Z</time>
      </trkpt>
      <trkpt lat="43.7753" lon="7.07612">
        <ele>838.36798095703</ele>
        <time>2013-12-09T10:29:52Z</time>
      </trkpt>
      <trkpt lat="43.7753" lon="7.07618">
        <ele>839.69165039062</ele>
        <time>2013-12-09T10:29:54Z</time>
      </trkpt>
      <trkpt lat="43.7753" lon="7.07622">
        <ele>840.53558349609</ele>
        <time>2013-12-09T10:29:57Z</time>
      </trkpt>
      <trkpt lat="43.77531" lon="7.07621">
        <ele>839.76348876953</ele>
        <time>2013-12-09T10:29:58Z</time>
      </trkpt>
      <trkpt lat="43.77538" lon="7.07613">
        <ele>833.01739501953</ele>
        <time>2013-12-09T10:30:01Z</time>
      </trkpt>
      <trkpt lat="43.77539" lon="7.0762">
        <ele>833.62518310547</ele>
        <time>2013-12-09T10:30:04Z</time>
      </trkpt>
      <trkpt lat="43.77537" lon="7.07629">
        <ele>837.43292236328</ele>
        <time>2013-12-09T10:30:06Z</time>
      </trkpt>
      <trkpt lat="43.77536" lon="7.07635">
        <ele>839.44085693359</ele>
        <time>2013-12-09T10:30:07Z</time>
      </trkpt>
      <trkpt lat="43.77537" lon="7.0765">
        <ele>842.81274414062</ele>
        <time>2013-12-09T10:30:11Z</time>
      </trkpt>
      <trkpt lat="43.77541" lon="7.07647">
        <ele>839.76916503906</ele>
        <time>2013-12-09T10:30:14Z</time>
      </trkpt>
      <trkpt lat="43.77544" lon="7.07645">
        <ele>836.95562744141</ele>
        <time>2013-12-09T10:30:15Z</time>
      </trkpt>
      <trkpt lat="43.77559" lon="7.07643">
        <ele>828.10583496094</ele>
        <time>2013-12-09T10:30:19Z</time>
      </trkpt>
      <trkpt lat="43.77568" lon="7.07649">
        <ele>825.86541748047</ele>
        <time>2013-12-09T10:30:22Z</time>
      </trkpt>
      <trkpt lat="43.77571" lon="7.07644">
        <ele>823.12670898438</ele>
        <time>2013-12-09T10:30:24Z</time>
      </trkpt>
      <trkpt lat="43.7758" lon="7.07648">
        <ele>820.24450683594</ele>
        <time>2013-12-09T10:30:27Z</time>
      </trkpt>
      <trkpt lat="43.77586" lon="7.07651">
        <ele>817.67254638672</ele>
        <time>2013-12-09T10:30:29Z</time>
      </trkpt>
      <trkpt lat="43.77587" lon="7.07652">
        <ele>817.45861816406</ele>
        <time>2013-12-09T10:30:30Z</time>
      </trkpt>
      <trkpt lat="43.77588" lon="7.07652">
        <ele>817.39642333984</ele>
        <time>2013-12-09T10:30:35Z</time>
      </trkpt>
      <trkpt lat="43.77597" lon="7.0766">
        <ele>813.98913574219</ele>
        <time>2013-12-09T10:31:29Z</time>
      </trkpt>
      <trkpt lat="43.77607" lon="7.07667">
        <ele>811.18981933594</ele>
        <time>2013-12-09T10:31:33Z</time>
      </trkpt>
      <trkpt lat="43.77617" lon="7.07662">
        <ele>805.75</ele>
        <time>2013-12-09T10:31:36Z</time>
      </trkpt>
      <trkpt lat="43.77622" lon="7.07658">
        <ele>802.900390625</ele>
        <time>2013-12-09T10:31:39Z</time>
      </trkpt>
      <trkpt lat="43.77625" lon="7.07655">
        <ele>801.16320800781</ele>
        <time>2013-12-09T10:31:40Z</time>
      </trkpt>
      <trkpt lat="43.77625" lon="7.07652">
        <ele>800.37353515625</ele>
        <time>2013-12-09T10:31:41Z</time>
      </trkpt>
      <trkpt lat="43.77631" lon="7.07651">
        <ele>797.81921386719</ele>
        <time>2013-12-09T10:31:43Z</time>
      </trkpt>
      <trkpt lat="43.77636" lon="7.07664">
        <ele>798.68096923828</ele>
        <time>2013-12-09T10:31:46Z</time>
      </trkpt>
      <trkpt lat="43.77633" lon="7.07685">
        <ele>801.83551025391</ele>
        <time>2013-12-09T10:31:50Z</time>
      </trkpt>
      <trkpt lat="43.77631" lon="7.07697">
        <ele>803.91278076172</ele>
        <time>2013-12-09T10:31:52Z</time>
      </trkpt>
      <trkpt lat="43.77634" lon="7.07707">
        <ele>803.10003662109</ele>
        <time>2013-12-09T10:31:54Z</time>
      </trkpt>
      <trkpt lat="43.77645" lon="7.07714">
        <ele>799.42486572266</ele>
        <time>2013-12-09T10:31:57Z</time>
      </trkpt>
      <trkpt lat="43.77641" lon="7.07731">
        <ele>802.44567871094</ele>
        <time>2013-12-09T10:32:00Z</time>
      </trkpt>
      <trkpt lat="43.77638" lon="7.07738">
        <ele>804.27606201172</ele>
        <time>2013-12-09T10:32:03Z</time>
      </trkpt>
      <trkpt lat="43.77649" lon="7.07736">
        <ele>801.29608154297</ele>
        <time>2013-12-09T10:32:06Z</time>
      </trkpt>
      <trkpt lat="43.7765" lon="7.07743">
        <ele>801.95251464844</ele>
        <time>2013-12-09T10:32:08Z</time>
      </trkpt>
      <trkpt lat="43.77659" lon="7.07737">
        <ele>798.88391113281</ele>
        <time>2013-12-09T10:32:11Z</time>
      </trkpt>
      <trkpt lat="43.77662" lon="7.0773">
        <ele>796.95343017578</ele>
        <time>2013-12-09T10:32:13Z</time>
      </trkpt>
      <trkpt lat="43.77663" lon="7.07729">
        <ele>796.24633789062</ele>
        <time>2013-12-09T10:32:14Z</time>
      </trkpt>
      <trkpt lat="43.77673" lon="7.07731">
        <ele>791.36206054688</ele>
        <time>2013-12-09T10:32:17Z</time>
      </trkpt>
      <trkpt lat="43.77685" lon="7.07727">
        <ele>781.11151123047</ele>
        <time>2013-12-09T10:32:21Z</time>
      </trkpt>
      <trkpt lat="43.77693" lon="7.07711">
        <ele>772.97967529297</ele>
        <time>2013-12-09T10:32:24Z</time>
      </trkpt>
      <trkpt lat="43.77695" lon="7.07707">
        <ele>771.07794189453</ele>
        <time>2013-12-09T10:32:25Z</time>
      </trkpt>
      <trkpt lat="43.77699" lon="7.07709">
        <ele>769.19110107422</ele>
        <time>2013-12-09T10:32:26Z</time>
      </trkpt>
      <trkpt lat="43.77704" lon="7.07712">
        <ele>767.32952880859</ele>
        <time>2013-12-09T10:32:27Z</time>
      </trkpt>
      <trkpt lat="43.77716" lon="7.07722">
        <ele>762.62689208984</ele>
        <time>2013-12-09T10:32:31Z</time>
      </trkpt>
      <trkpt lat="43.77729" lon="7.07733">
        <ele>755.09521484375</ele>
        <time>2013-12-09T10:32:35Z</time>
      </trkpt>
      <trkpt lat="43.77735" lon="7.07733">
        <ele>750.97534179688</ele>
        <time>2013-12-09T10:32:38Z</time>
      </trkpt>
      <trkpt lat="43.77737" lon="7.07733">
        <ele>749.60205078125</ele>
        <time>2013-12-09T10:32:39Z</time>
      </trkpt>
      <trkpt lat="43.77739" lon="7.07732">
        <ele>748.22875976562</ele>
        <time>2013-12-09T10:32:40Z</time>
      </trkpt>
      <trkpt lat="43.77739" lon="7.07723">
        <ele>748.22875976562</ele>
        <time>2013-12-09T10:32:42Z</time>
      </trkpt>
      <trkpt lat="43.77746" lon="7.07718">
        <ele>742.91235351562</ele>
        <time>2013-12-09T10:32:45Z</time>
      </trkpt>
      <trkpt lat="43.7776" lon="7.07725">
        <ele>733.12255859375</ele>
        <time>2013-12-09T10:32:49Z</time>
      </trkpt>
      <trkpt lat="43.77765" lon="7.07739">
        <ele>729.27734375</ele>
        <time>2013-12-09T10:32:52Z</time>
      </trkpt>
      <trkpt lat="43.77769" lon="7.07751">
        <ele>726.49871826172</ele>
        <time>2013-12-09T10:32:56Z</time>
      </trkpt>
      <trkpt lat="43.77771" lon="7.07756">
        <ele>725.00750732422</ele>
        <time>2013-12-09T10:32:57Z</time>
      </trkpt>
      <trkpt lat="43.77774" lon="7.07764">
        <ele>721.97503662109</ele>
        <time>2013-12-09T10:33:00Z</time>
      </trkpt>
      <trkpt lat="43.77774" lon="7.07768">
        <ele>722.13464355469</ele>
        <time>2013-12-09T10:33:01Z</time>
      </trkpt>
      <trkpt lat="43.77775" lon="7.07773">
        <ele>721.10693359375</ele>
        <time>2013-12-09T10:33:03Z</time>
      </trkpt>
      <trkpt lat="43.77776" lon="7.07775">
        <ele>720.17059326172</ele>
        <time>2013-12-09T10:33:04Z</time>
      </trkpt>
      <trkpt lat="43.77781" lon="7.07776">
        <ele>717.58172607422</ele>
        <time>2013-12-09T10:33:06Z</time>
      </trkpt>
      <trkpt lat="43.77781" lon="7.07779">
        <ele>717.36767578125</ele>
        <time>2013-12-09T10:33:07Z</time>
      </trkpt>
      <trkpt lat="43.7778" lon="7.07788">
        <ele>716.83178710938</ele>
        <time>2013-12-09T10:33:09Z</time>
      </trkpt>
      <trkpt lat="43.77789" lon="7.07803">
        <ele>710.10913085938</ele>
        <time>2013-12-09T10:33:12Z</time>
      </trkpt>
      <trkpt lat="43.77795" lon="7.07819">
        <ele>705.48809814453</ele>
        <time>2013-12-09T10:33:15Z</time>
      </trkpt>
      <trkpt lat="43.77796" lon="7.07824">
        <ele>705.16589355469</ele>
        <time>2013-12-09T10:33:16Z</time>
      </trkpt>
      <trkpt lat="43.77794" lon="7.07828">
        <ele>706.04516601562</ele>
        <time>2013-12-09T10:33:17Z</time>
      </trkpt>
      <trkpt lat="43.77791" lon="7.07841">
        <ele>707.08624267578</ele>
        <time>2013-12-09T10:33:19Z</time>
      </trkpt>
      <trkpt lat="43.77792" lon="7.07872">
        <ele>705.98577880859</ele>
        <time>2013-12-09T10:33:23Z</time>
      </trkpt>
      <trkpt lat="43.77794" lon="7.07878">
        <ele>705.37438964844</ele>
        <time>2013-12-09T10:33:24Z</time>
      </trkpt>
      <trkpt lat="43.778" lon="7.07887">
        <ele>702.25134277344</ele>
        <time>2013-12-09T10:33:26Z</time>
      </trkpt>
      <trkpt lat="43.77811" lon="7.07906">
        <ele>699.33117675781</ele>
        <time>2013-12-09T10:33:29Z</time>
      </trkpt>
      <trkpt lat="43.77811" lon="7.07911">
        <ele>699.19866943359</ele>
        <time>2013-12-09T10:33:30Z</time>
      </trkpt>
      <trkpt lat="43.77821" lon="7.07922">
        <ele>697.7255859375</ele>
        <time>2013-12-09T10:33:33Z</time>
      </trkpt>
      <trkpt lat="43.77825" lon="7.07939">
        <ele>697.17626953125</ele>
        <time>2013-12-09T10:33:36Z</time>
      </trkpt>
      <trkpt lat="43.77826" lon="7.07951">
        <ele>696.88140869141</ele>
        <time>2013-12-09T10:33:38Z</time>
      </trkpt>
      <trkpt lat="43.77826" lon="7.07961">
        <ele>696.63214111328</ele>
        <time>2013-12-09T10:33:40Z</time>
      </trkpt>
      <trkpt lat="43.77835" lon="7.07966">
        <ele>694.48248291016</ele>
        <time>2013-12-09T10:33:43Z</time>
      </trkpt>
      <trkpt lat="43.77841" lon="7.07968">
        <ele>691.94781494141</ele>
        <time>2013-12-09T10:33:46Z</time>
      </trkpt>
      <trkpt lat="43.77846" lon="7.07966">
        <ele>689.81530761719</ele>
        <time>2013-12-09T10:33:49Z</time>
      </trkpt>
      <trkpt lat="43.77854" lon="7.07976">
        <ele>686.07269287109</ele>
        <time>2013-12-09T10:33:52Z</time>
      </trkpt>
      <trkpt lat="43.77855" lon="7.07989">
        <ele>685.20739746094</ele>
        <time>2013-12-09T10:33:55Z</time>
      </trkpt>
      <trkpt lat="43.77859" lon="7.08014">
        <ele>682.59771728516</ele>
        <time>2013-12-09T10:33:59Z</time>
      </trkpt>
      <trkpt lat="43.77861" lon="7.08026">
        <ele>681.04498291016</ele>
        <time>2013-12-09T10:34:02Z</time>
      </trkpt>
      <trkpt lat="43.77861" lon="7.08042">
        <ele>680.4658203125</ele>
        <time>2013-12-09T10:34:06Z</time>
      </trkpt>
      <trkpt lat="43.77864" lon="7.08051">
        <ele>680.14758300781</ele>
        <time>2013-12-09T10:34:10Z</time>
      </trkpt>
      <trkpt lat="43.77871" lon="7.08053">
        <ele>680.06457519531</ele>
        <time>2013-12-09T10:34:13Z</time>
      </trkpt>
      <trkpt lat="43.7787" lon="7.08064">
        <ele>680</ele>
        <time>2013-12-09T10:34:16Z</time>
      </trkpt>
      <trkpt lat="43.77877" lon="7.08075">
        <ele>680</ele>
        <time>2013-12-09T10:34:20Z</time>
      </trkpt>
      <trkpt lat="43.77887" lon="7.08081">
        <ele>680</ele>
        <time>2013-12-09T10:34:23Z</time>
      </trkpt>
      <trkpt lat="43.77889" lon="7.08092">
        <ele>679.70153808594</ele>
        <time>2013-12-09T10:34:26Z</time>
      </trkpt>
      <trkpt lat="43.77894" lon="7.08104">
        <ele>679.23919677734</ele>
        <time>2013-12-09T10:34:30Z</time>
      </trkpt>
      <trkpt lat="43.77894" lon="7.08109">
        <ele>679.08294677734</ele>
        <time>2013-12-09T10:34:31Z</time>
      </trkpt>
      <trkpt lat="43.77892" lon="7.08115">
        <ele>678.98278808594</ele>
        <time>2013-12-09T10:34:33Z</time>
      </trkpt>
      <trkpt lat="43.77894" lon="7.08123">
        <ele>678.92407226562</ele>
        <time>2013-12-09T10:34:36Z</time>
      </trkpt>
      <trkpt lat="43.77896" lon="7.08124">
        <ele>678.88970947266</ele>
        <time>2013-12-09T10:34:37Z</time>
      </trkpt>
      <trkpt lat="43.77896" lon="7.08124">
        <ele>678.87908935547</ele>
        <time>2013-12-09T10:34:39Z</time>
      </trkpt>
      <trkpt lat="43.77897" lon="7.08123">
        <ele>678.87286376953</ele>
        <time>2013-12-09T10:34:40Z</time>
      </trkpt>
      <trkpt lat="43.77903" lon="7.08126">
        <ele>678.71130371094</ele>
        <time>2013-12-09T10:34:42Z</time>
      </trkpt>
      <trkpt lat="43.77908" lon="7.08133">
        <ele>678.47418212891</ele>
        <time>2013-12-09T10:34:44Z</time>
      </trkpt>
      <trkpt lat="43.77907" lon="7.08134">
        <ele>678.46118164062</ele>
        <time>2013-12-09T10:34:45Z</time>
      </trkpt>
      <trkpt lat="43.77907" lon="7.08134">
        <ele>678.466796875</ele>
        <time>2013-12-09T10:34:46Z</time>
      </trkpt>
      <trkpt lat="43.77907" lon="7.08137">
        <ele>678.37866210938</ele>
        <time>2013-12-09T10:35:01Z</time>
      </trkpt>
      <trkpt lat="43.77906" lon="7.08138">
        <ele>678.40563964844</ele>
        <time>2013-12-09T10:35:07Z</time>
      </trkpt>
      <trkpt lat="43.77903" lon="7.08134">
        <ele>678.58502197266</ele>
        <time>2013-12-09T10:35:14Z</time>
      </trkpt>
      <trkpt lat="43.779" lon="7.08135">
        <ele>678.66241455078</ele>
        <time>2013-12-09T10:35:20Z</time>
      </trkpt>
      <trkpt lat="43.77899" lon="7.08133">
        <ele>678.70416259766</ele>
        <time>2013-12-09T10:35:31Z</time>
      </trkpt>
      <trkpt lat="43.77909" lon="7.08134">
        <ele>678.40765380859</ele>
        <time>2013-12-09T10:36:08Z</time>
      </trkpt>
      <trkpt lat="43.77909" lon="7.08136">
        <ele>678.34924316406</ele>
        <time>2013-12-09T10:36:10Z</time>
      </trkpt>
      <trkpt lat="43.7791" lon="7.0814">
        <ele>678.23162841797</ele>
        <time>2013-12-09T10:36:14Z</time>
      </trkpt>
      <trkpt lat="43.77911" lon="7.08142">
        <ele>678.1904296875</ele>
        <time>2013-12-09T10:36:20Z</time>
      </trkpt>
      <trkpt lat="43.77911" lon="7.08145">
        <ele>678.20416259766</ele>
        <time>2013-12-09T10:36:31Z</time>
      </trkpt>
      <trkpt lat="43.77913" lon="7.08153">
        <ele>678.12176513672</ele>
        <time>2013-12-09T10:36:41Z</time>
      </trkpt>
      <trkpt lat="43.77917" lon="7.08171">
        <ele>677.81768798828</ele>
        <time>2013-12-09T10:36:47Z</time>
      </trkpt>
      <trkpt lat="43.77919" lon="7.08176">
        <ele>677.54431152344</ele>
        <time>2013-12-09T10:36:48Z</time>
      </trkpt>
      <trkpt lat="43.77921" lon="7.08183">
        <ele>677.15325927734</ele>
        <time>2013-12-09T10:36:50Z</time>
      </trkpt>
      <trkpt lat="43.77921" lon="7.08182">
        <ele>677.24176025391</ele>
        <time>2013-12-09T10:36:51Z</time>
      </trkpt>
      <trkpt lat="43.77924" lon="7.08182">
        <ele>677.02105712891</ele>
        <time>2013-12-09T10:36:58Z</time>
      </trkpt>
      <trkpt lat="43.7793" lon="7.08183">
        <ele>676.67755126953</ele>
        <time>2013-12-09T10:37:18Z</time>
      </trkpt>
      <trkpt lat="43.77931" lon="7.08185">
        <ele>676.4677734375</ele>
        <time>2013-12-09T10:37:26Z</time>
      </trkpt>
      <trkpt lat="43.77932" lon="7.08186">
        <ele>676.33752441406</ele>
        <time>2013-12-09T10:37:33Z</time>
      </trkpt>
      <trkpt lat="43.77933" lon="7.08194">
        <ele>675.82336425781</ele>
        <time>2013-12-09T10:38:04Z</time>
      </trkpt>
      <trkpt lat="43.77934" lon="7.08197">
        <ele>675.70880126953</ele>
        <time>2013-12-09T10:38:06Z</time>
      </trkpt>
      <trkpt lat="43.77934" lon="7.08199">
        <ele>675.56457519531</ele>
        <time>2013-12-09T10:38:08Z</time>
      </trkpt>
      <trkpt lat="43.77935" lon="7.08202">
        <ele>675.43243408203</ele>
        <time>2013-12-09T10:38:09Z</time>
      </trkpt>
      <trkpt lat="43.77938" lon="7.08208">
        <ele>674.95349121094</ele>
        <time>2013-12-09T10:38:12Z</time>
      </trkpt>
      <trkpt lat="43.77938" lon="7.08215">
        <ele>674.75610351562</ele>
        <time>2013-12-09T10:38:14Z</time>
      </trkpt>
      <trkpt lat="43.77932" lon="7.08224">
        <ele>674.81958007812</ele>
        <time>2013-12-09T10:38:18Z</time>
      </trkpt>
      <trkpt lat="43.77935" lon="7.08231">
        <ele>674.33551025391</ele>
        <time>2013-12-09T10:38:21Z</time>
      </trkpt>
      <trkpt lat="43.77937" lon="7.08236">
        <ele>674.03509521484</ele>
        <time>2013-12-09T10:38:23Z</time>
      </trkpt>
      <trkpt lat="43.77939" lon="7.08241">
        <ele>673.70892333984</ele>
        <time>2013-12-09T10:38:25Z</time>
      </trkpt>
      <trkpt lat="43.77946" lon="7.08249">
        <ele>673.14739990234</ele>
        <time>2013-12-09T10:38:29Z</time>
      </trkpt>
      <trkpt lat="43.77953" lon="7.0825">
        <ele>673.57531738281</ele>
        <time>2013-12-09T10:38:31Z</time>
      </trkpt>
      <trkpt lat="43.77961" lon="7.08264">
        <ele>673.17700195312</ele>
        <time>2013-12-09T10:38:35Z</time>
      </trkpt>
      <trkpt lat="43.77964" lon="7.08286">
        <ele>671.91052246094</ele>
        <time>2013-12-09T10:38:40Z</time>
      </trkpt>
      <trkpt lat="43.77966" lon="7.08289">
        <ele>671.79309082031</ele>
        <time>2013-12-09T10:38:41Z</time>
      </trkpt>
      <trkpt lat="43.77969" lon="7.08301">
        <ele>671.20690917969</ele>
        <time>2013-12-09T10:38:45Z</time>
      </trkpt>
      <trkpt lat="43.77969" lon="7.08303">
        <ele>671.05285644531</ele>
        <time>2013-12-09T10:38:46Z</time>
      </trkpt>
      <trkpt lat="43.77969" lon="7.08304">
        <ele>670.95336914062</ele>
        <time>2013-12-09T10:38:49Z</time>
      </trkpt>
      <trkpt lat="43.77967" lon="7.08307">
        <ele>670.68109130859</ele>
        <time>2013-12-09T10:38:51Z</time>
      </trkpt>
      <trkpt lat="43.77968" lon="7.08309">
        <ele>670.59869384766</ele>
        <time>2013-12-09T10:38:53Z</time>
      </trkpt>
      <trkpt lat="43.77971" lon="7.08317">
        <ele>670.14892578125</ele>
        <time>2013-12-09T10:39:00Z</time>
      </trkpt>
      <trkpt lat="43.77969" lon="7.08319">
        <ele>669.92578125</ele>
        <time>2013-12-09T10:39:06Z</time>
      </trkpt>
      <trkpt lat="43.77969" lon="7.08323">
        <ele>669.66143798828</ele>
        <time>2013-12-09T10:39:11Z</time>
      </trkpt>
      <trkpt lat="43.7797" lon="7.08327">
        <ele>669.36962890625</ele>
        <time>2013-12-09T10:39:14Z</time>
      </trkpt>
      <trkpt lat="43.7797" lon="7.0833">
        <ele>669.13269042969</ele>
        <time>2013-12-09T10:39:16Z</time>
      </trkpt>
      <trkpt lat="43.77974" lon="7.08336">
        <ele>669.11694335938</ele>
        <time>2013-12-09T10:39:22Z</time>
      </trkpt>
      <trkpt lat="43.77974" lon="7.08338">
        <ele>669.00720214844</ele>
        <time>2013-12-09T10:39:24Z</time>
      </trkpt>
      <trkpt lat="43.77974" lon="7.0834">
        <ele>668.95288085938</ele>
        <time>2013-12-09T10:39:27Z</time>
      </trkpt>
      <trkpt lat="43.77975" lon="7.08346">
        <ele>668.62750244141</ele>
        <time>2013-12-09T10:39:34Z</time>
      </trkpt>
      <trkpt lat="43.77975" lon="7.08349">
        <ele>668.09222412109</ele>
        <time>2013-12-09T10:39:37Z</time>
      </trkpt>
      <trkpt lat="43.77977" lon="7.08355">
        <ele>667.88629150391</ele>
        <time>2013-12-09T10:39:40Z</time>
      </trkpt>
      <trkpt lat="43.77978" lon="7.08357">
        <ele>668.04382324219</ele>
        <time>2013-12-09T10:39:42Z</time>
      </trkpt>
      <trkpt lat="43.77979" lon="7.08358">
        <ele>668.08361816406</ele>
        <time>2013-12-09T10:39:46Z</time>
      </trkpt>
      <trkpt lat="43.77985" lon="7.08368">
        <ele>668.63415527344</ele>
        <time>2013-12-09T10:39:51Z</time>
      </trkpt>
      <trkpt lat="43.77986" lon="7.0837">
        <ele>668.79608154297</ele>
        <time>2013-12-09T10:39:54Z</time>
      </trkpt>
      <trkpt lat="43.77987" lon="7.08375">
        <ele>668.6123046875</ele>
        <time>2013-12-09T10:39:57Z</time>
      </trkpt>
      <trkpt lat="43.77985" lon="7.08378">
        <ele>668.11682128906</ele>
        <time>2013-12-09T10:39:58Z</time>
      </trkpt>
      <trkpt lat="43.7799" lon="7.08389">
        <ele>668.19091796875</ele>
        <time>2013-12-09T10:40:02Z</time>
      </trkpt>
      <trkpt lat="43.77992" lon="7.08392">
        <ele>668.1943359375</ele>
        <time>2013-12-09T10:40:03Z</time>
      </trkpt>
      <trkpt lat="43.77998" lon="7.08406">
        <ele>667.28039550781</ele>
        <time>2013-12-09T10:40:07Z</time>
      </trkpt>
      <trkpt lat="43.77998" lon="7.08413">
        <ele>666.19219970703</ele>
        <time>2013-12-09T10:40:09Z</time>
      </trkpt>
      <trkpt lat="43.77996" lon="7.0842">
        <ele>664.88610839844</ele>
        <time>2013-12-09T10:40:11Z</time>
      </trkpt>
      <trkpt lat="43.77997" lon="7.08444">
        <ele>661.78985595703</ele>
        <time>2013-12-09T10:40:17Z</time>
      </trkpt>
      <trkpt lat="43.77995" lon="7.08455">
        <ele>661.02215576172</ele>
        <time>2013-12-09T10:40:20Z</time>
      </trkpt>
      <trkpt lat="43.77996" lon="7.08461">
        <ele>660.65930175781</ele>
        <time>2013-12-09T10:40:22Z</time>
      </trkpt>
      <trkpt lat="43.77994" lon="7.08466">
        <ele>660.34997558594</ele>
        <time>2013-12-09T10:40:23Z</time>
      </trkpt>
      <trkpt lat="43.77994" lon="7.08469">
        <ele>660.20166015625</ele>
        <time>2013-12-09T10:40:24Z</time>
      </trkpt>
      <trkpt lat="43.77993" lon="7.08484">
        <ele>660</ele>
        <time>2013-12-09T10:40:27Z</time>
      </trkpt>
      <trkpt lat="43.77985" lon="7.08497">
        <ele>660</ele>
        <time>2013-12-09T10:40:31Z</time>
      </trkpt>
      <trkpt lat="43.77979" lon="7.08511">
        <ele>660</ele>
        <time>2013-12-09T10:40:36Z</time>
      </trkpt>
      <trkpt lat="43.77975" lon="7.08531">
        <ele>660</ele>
        <time>2013-12-09T10:40:42Z</time>
      </trkpt>
      <trkpt lat="43.77975" lon="7.08542">
        <ele>660</ele>
        <time>2013-12-09T10:40:46Z</time>
      </trkpt>
      <trkpt lat="43.77976" lon="7.08546">
        <ele>660</ele>
        <time>2013-12-09T10:40:47Z</time>
      </trkpt>
      <trkpt lat="43.7798" lon="7.08553">
        <ele>660</ele>
        <time>2013-12-09T10:40:50Z</time>
      </trkpt>
      <trkpt lat="43.77982" lon="7.08557">
        <ele>660</ele>
        <time>2013-12-09T10:40:52Z</time>
      </trkpt>
      <trkpt lat="43.77986" lon="7.08564">
        <ele>660</ele>
        <time>2013-12-09T10:40:56Z</time>
      </trkpt>
      <trkpt lat="43.77988" lon="7.08568">
        <ele>660</ele>
        <time>2013-12-09T10:40:58Z</time>
      </trkpt>
      <trkpt lat="43.77999" lon="7.08585">
        <ele>660</ele>
        <time>2013-12-09T10:41:02Z</time>
      </trkpt>
      <trkpt lat="43.78011" lon="7.08604">
        <ele>660</ele>
        <time>2013-12-09T10:41:05Z</time>
      </trkpt>
      <trkpt lat="43.78024" lon="7.08607">
        <ele>660</ele>
        <time>2013-12-09T10:41:07Z</time>
      </trkpt>
      <trkpt lat="43.7803" lon="7.08608">
        <ele>660</ele>
        <time>2013-12-09T10:41:08Z</time>
      </trkpt>
      <trkpt lat="43.78061" lon="7.08619">
        <ele>660.28662109375</ele>
        <time>2013-12-09T10:41:14Z</time>
      </trkpt>
      <trkpt lat="43.78064" lon="7.08629">
        <ele>660.015625</ele>
        <time>2013-12-09T10:41:16Z</time>
      </trkpt>
      <trkpt lat="43.78065" lon="7.08632">
        <ele>659.90081787109</ele>
        <time>2013-12-09T10:41:17Z</time>
      </trkpt>
      <trkpt lat="43.7807" lon="7.08654">
        <ele>659.00341796875</ele>
        <time>2013-12-09T10:41:21Z</time>
      </trkpt>
      <trkpt lat="43.78071" lon="7.08658">
        <ele>658.84893798828</ele>
        <time>2013-12-09T10:41:22Z</time>
      </trkpt>
      <trkpt lat="43.78072" lon="7.08663">
        <ele>658.70129394531</ele>
        <time>2013-12-09T10:41:23Z</time>
      </trkpt>
      <trkpt lat="43.78076" lon="7.08672">
        <ele>658.59112548828</ele>
        <time>2013-12-09T10:41:25Z</time>
      </trkpt>
      <trkpt lat="43.78075" lon="7.08684">
        <ele>658.26800537109</ele>
        <time>2013-12-09T10:41:27Z</time>
      </trkpt>
      <trkpt lat="43.78075" lon="7.0869">
        <ele>658.10516357422</ele>
        <time>2013-12-09T10:41:28Z</time>
      </trkpt>
      <trkpt lat="43.78083" lon="7.08706">
        <ele>657.58581542969</ele>
        <time>2013-12-09T10:41:31Z</time>
      </trkpt>
      <trkpt lat="43.78079" lon="7.0872">
        <ele>657.09655761719</ele>
        <time>2013-12-09T10:41:34Z</time>
      </trkpt>
      <trkpt lat="43.78078" lon="7.08724">
        <ele>656.85467529297</ele>
        <time>2013-12-09T10:41:35Z</time>
      </trkpt>
      <trkpt lat="43.78077" lon="7.0873">
        <ele>656.48956298828</ele>
        <time>2013-12-09T10:41:36Z</time>
      </trkpt>
      <trkpt lat="43.78081" lon="7.0874">
        <ele>655.74462890625</ele>
        <time>2013-12-09T10:41:39Z</time>
      </trkpt>
      <trkpt lat="43.78082" lon="7.08743">
        <ele>655.53247070312</ele>
        <time>2013-12-09T10:41:40Z</time>
      </trkpt>
      <trkpt lat="43.78083" lon="7.08752">
        <ele>654.94610595703</ele>
        <time>2013-12-09T10:41:43Z</time>
      </trkpt>
      <trkpt lat="43.78083" lon="7.08754">
        <ele>654.86437988281</ele>
        <time>2013-12-09T10:41:44Z</time>
      </trkpt>
      <trkpt lat="43.78083" lon="7.08762">
        <ele>654.58453369141</ele>
        <time>2013-12-09T10:41:49Z</time>
      </trkpt>
      <trkpt lat="43.78086" lon="7.08764">
        <ele>654.62512207031</ele>
        <time>2013-12-09T10:41:51Z</time>
      </trkpt>
      <trkpt lat="43.78088" lon="7.08766">
        <ele>654.57702636719</ele>
        <time>2013-12-09T10:41:52Z</time>
      </trkpt>
      <trkpt lat="43.7809" lon="7.08768">
        <ele>654.59765625</ele>
        <time>2013-12-09T10:41:53Z</time>
      </trkpt>
      <trkpt lat="43.78107" lon="7.08786">
        <ele>654.27551269531</ele>
        <time>2013-12-09T10:41:58Z</time>
      </trkpt>
      <trkpt lat="43.78115" lon="7.08802">
        <ele>653.39318847656</ele>
        <time>2013-12-09T10:42:01Z</time>
      </trkpt>
      <trkpt lat="43.78127" lon="7.08797">
        <ele>654.21716308594</ele>
        <time>2013-12-09T10:42:04Z</time>
      </trkpt>
      <trkpt lat="43.78133" lon="7.08796">
        <ele>654.48150634766</ele>
        <time>2013-12-09T10:42:06Z</time>
      </trkpt>
      <trkpt lat="43.78134" lon="7.08797">
        <ele>654.40942382812</ele>
        <time>2013-12-09T10:42:07Z</time>
      </trkpt>
      <trkpt lat="43.78136" lon="7.08806">
        <ele>653.86010742188</ele>
        <time>2013-12-09T10:42:12Z</time>
      </trkpt>
      <trkpt lat="43.78136" lon="7.08809">
        <ele>653.62316894531</ele>
        <time>2013-12-09T10:42:14Z</time>
      </trkpt>
      <trkpt lat="43.78136" lon="7.08819">
        <ele>652.91253662109</ele>
        <time>2013-12-09T10:42:19Z</time>
      </trkpt>
      <trkpt lat="43.78139" lon="7.08823">
        <ele>652.78704833984</ele>
        <time>2013-12-09T10:42:22Z</time>
      </trkpt>
      <trkpt lat="43.78143" lon="7.08823">
        <ele>653.03070068359</ele>
        <time>2013-12-09T10:42:25Z</time>
      </trkpt>
      <trkpt lat="43.78146" lon="7.0882">
        <ele>653.38616943359</ele>
        <time>2013-12-09T10:42:28Z</time>
      </trkpt>
      <trkpt lat="43.78148" lon="7.08817">
        <ele>653.61663818359</ele>
        <time>2013-12-09T10:42:30Z</time>
      </trkpt>
      <trkpt lat="43.78151" lon="7.08811">
        <ele>654.13238525391</ele>
        <time>2013-12-09T10:42:35Z</time>
      </trkpt>
      <trkpt lat="43.78155" lon="7.0881">
        <ele>654.33544921875</ele>
        <time>2013-12-09T10:42:37Z</time>
      </trkpt>
      <trkpt lat="43.78156" lon="7.08809">
        <ele>654.41674804688</ele>
        <time>2013-12-09T10:42:39Z</time>
      </trkpt>
      <trkpt lat="43.78156" lon="7.08812">
        <ele>654.30035400391</ele>
        <time>2013-12-09T10:42:43Z</time>
      </trkpt>
      <trkpt lat="43.78155" lon="7.08819">
        <ele>653.87677001953</ele>
        <time>2013-12-09T10:42:50Z</time>
      </trkpt>
      <trkpt lat="43.78153" lon="7.08831">
        <ele>653.166015625</ele>
        <time>2013-12-09T10:42:57Z</time>
      </trkpt>
      <trkpt lat="43.78154" lon="7.08847">
        <ele>652.35192871094</ele>
        <time>2013-12-09T10:43:05Z</time>
      </trkpt>
      <trkpt lat="43.78152" lon="7.08854">
        <ele>651.79321289062</ele>
        <time>2013-12-09T10:43:09Z</time>
      </trkpt>
      <trkpt lat="43.78151" lon="7.08856">
        <ele>651.61328125</ele>
        <time>2013-12-09T10:43:11Z</time>
      </trkpt>
      <trkpt lat="43.78151" lon="7.0886">
        <ele>651.39013671875</ele>
        <time>2013-12-09T10:43:20Z</time>
      </trkpt>
      <trkpt lat="43.78152" lon="7.0886">
        <ele>651.46832275391</ele>
        <time>2013-12-09T10:43:24Z</time>
      </trkpt>
      <trkpt lat="43.78152" lon="7.08863">
        <ele>651.29797363281</ele>
        <time>2013-12-09T10:43:29Z</time>
      </trkpt>
      <trkpt lat="43.78153" lon="7.08867">
        <ele>651.10571289062</ele>
        <time>2013-12-09T10:43:31Z</time>
      </trkpt>
      <trkpt lat="43.78156" lon="7.08884">
        <ele>650.15124511719</ele>
        <time>2013-12-09T10:43:39Z</time>
      </trkpt>
      <trkpt lat="43.7816" lon="7.08895">
        <ele>649.90405273438</ele>
        <time>2013-12-09T10:43:46Z</time>
      </trkpt>
      <trkpt lat="43.78166" lon="7.08904">
        <ele>649.82855224609</ele>
        <time>2013-12-09T10:43:53Z</time>
      </trkpt>
      <trkpt lat="43.78172" lon="7.08914">
        <ele>649.95257568359</ele>
        <time>2013-12-09T10:44:00Z</time>
      </trkpt>
      <trkpt lat="43.78181" lon="7.08929">
        <ele>650.57891845703</ele>
        <time>2013-12-09T10:44:11Z</time>
      </trkpt>
      <trkpt lat="43.78186" lon="7.08946">
        <ele>650.68194580078</ele>
        <time>2013-12-09T10:44:21Z</time>
      </trkpt>
      <trkpt lat="43.78191" lon="7.08966">
        <ele>650.73168945312</ele>
        <time>2013-12-09T10:44:32Z</time>
      </trkpt>
      <trkpt lat="43.78199" lon="7.08982">
        <ele>652.57104492188</ele>
        <time>2013-12-09T10:44:41Z</time>
      </trkpt>
      <trkpt lat="43.78206" lon="7.08994">
        <ele>655.39166259766</ele>
        <time>2013-12-09T10:44:49Z</time>
      </trkpt>
      <trkpt lat="43.78213" lon="7.09008">
        <ele>657.57580566406</ele>
        <time>2013-12-09T10:44:57Z</time>
      </trkpt>
      <trkpt lat="43.7822" lon="7.09026">
        <ele>659.39569091797</ele>
        <time>2013-12-09T10:45:06Z</time>
      </trkpt>
      <trkpt lat="43.78223" lon="7.09032">
        <ele>660.20574951172</ele>
        <time>2013-12-09T10:45:12Z</time>
      </trkpt>
      <trkpt lat="43.78223" lon="7.09044">
        <ele>659.53094482422</ele>
        <time>2013-12-09T10:45:18Z</time>
      </trkpt>
      <trkpt lat="43.78216" lon="7.09058">
        <ele>655.69244384766</ele>
        <time>2013-12-09T10:45:26Z</time>
      </trkpt>
      <trkpt lat="43.78213" lon="7.09062">
        <ele>654.17218017578</ele>
        <time>2013-12-09T10:45:32Z</time>
      </trkpt>
      <trkpt lat="43.78212" lon="7.09064">
        <ele>653.80639648438</ele>
        <time>2013-12-09T10:45:39Z</time>
      </trkpt>
      <trkpt lat="43.7821" lon="7.09072">
        <ele>652.68499755859</ele>
        <time>2013-12-09T10:46:56Z</time>
      </trkpt>
      <trkpt lat="43.78205" lon="7.0909">
        <ele>650.51293945312</ele>
        <time>2013-12-09T10:47:04Z</time>
      </trkpt>
      <trkpt lat="43.782" lon="7.0911">
        <ele>649.08850097656</ele>
        <time>2013-12-09T10:47:13Z</time>
      </trkpt>
      <trkpt lat="43.78198" lon="7.09132">
        <ele>648.71002197266</ele>
        <time>2013-12-09T10:47:22Z</time>
      </trkpt>
      <trkpt lat="43.782" lon="7.09158">
        <ele>648.92999267578</ele>
        <time>2013-12-09T10:47:32Z</time>
      </trkpt>
      <trkpt lat="43.78196" lon="7.09182">
        <ele>646.79016113281</ele>
        <time>2013-12-09T10:47:40Z</time>
      </trkpt>
      <trkpt lat="43.78195" lon="7.09208">
        <ele>645.95849609375</ele>
        <time>2013-12-09T10:47:49Z</time>
      </trkpt>
      <trkpt lat="43.78196" lon="7.09228">
        <ele>645.73913574219</ele>
        <time>2013-12-09T10:47:55Z</time>
      </trkpt>
      <trkpt lat="43.7819" lon="7.09256">
        <ele>644.42724609375</ele>
        <time>2013-12-09T10:48:03Z</time>
      </trkpt>
      <trkpt lat="43.78189" lon="7.09285">
        <ele>644.96997070312</ele>
        <time>2013-12-09T10:48:11Z</time>
      </trkpt>
      <trkpt lat="43.78189" lon="7.09323">
        <ele>645.55377197266</ele>
        <time>2013-12-09T10:48:21Z</time>
      </trkpt>
      <trkpt lat="43.78185" lon="7.09351">
        <ele>645.11840820312</ele>
        <time>2013-12-09T10:48:30Z</time>
      </trkpt>
      <trkpt lat="43.7819" lon="7.0937">
        <ele>646.93933105469</ele>
        <time>2013-12-09T10:48:37Z</time>
      </trkpt>
      <trkpt lat="43.78196" lon="7.09383">
        <ele>649.99035644531</ele>
        <time>2013-12-09T10:48:44Z</time>
      </trkpt>
      <trkpt lat="43.78203" lon="7.09395">
        <ele>656.22833251953</ele>
        <time>2013-12-09T10:48:52Z</time>
      </trkpt>
      <trkpt lat="43.78212" lon="7.09411">
        <ele>663.86688232422</ele>
        <time>2013-12-09T10:49:02Z</time>
      </trkpt>
      <trkpt lat="43.78216" lon="7.09425">
        <ele>668.287109375</ele>
        <time>2013-12-09T10:49:10Z</time>
      </trkpt>
      <trkpt lat="43.78218" lon="7.09437">
        <ele>670.29553222656</ele>
        <time>2013-12-09T10:49:17Z</time>
      </trkpt>
      <trkpt lat="43.78219" lon="7.0945">
        <ele>671.72033691406</ele>
        <time>2013-12-09T10:49:24Z</time>
      </trkpt>
      <trkpt lat="43.78221" lon="7.09464">
        <ele>673.47644042969</ele>
        <time>2013-12-09T10:49:32Z</time>
      </trkpt>
      <trkpt lat="43.78223" lon="7.09476">
        <ele>676.20556640625</ele>
        <time>2013-12-09T10:49:39Z</time>
      </trkpt>
      <trkpt lat="43.78225" lon="7.09487">
        <ele>678.25146484375</ele>
        <time>2013-12-09T10:49:45Z</time>
      </trkpt>
      <trkpt lat="43.78229" lon="7.09503">
        <ele>681.67370605469</ele>
        <time>2013-12-09T10:49:53Z</time>
      </trkpt>
      <trkpt lat="43.78236" lon="7.09521">
        <ele>687.94348144531</ele>
        <time>2013-12-09T10:50:02Z</time>
      </trkpt>
      <trkpt lat="43.78241" lon="7.09536">
        <ele>693.32220458984</ele>
        <time>2013-12-09T10:50:09Z</time>
      </trkpt>
      <trkpt lat="43.78246" lon="7.09553">
        <ele>697.59979248047</ele>
        <time>2013-12-09T10:50:17Z</time>
      </trkpt>
      <trkpt lat="43.78253" lon="7.09569">
        <ele>699.79577636719</ele>
        <time>2013-12-09T10:50:25Z</time>
      </trkpt>
      <trkpt lat="43.78265" lon="7.09583">
        <ele>700.45208740234</ele>
        <time>2013-12-09T10:50:34Z</time>
      </trkpt>
      <trkpt lat="43.78279" lon="7.09595">
        <ele>702.18005371094</ele>
        <time>2013-12-09T10:50:44Z</time>
      </trkpt>
      <trkpt lat="43.7829" lon="7.09601">
        <ele>706.33801269531</ele>
        <time>2013-12-09T10:50:51Z</time>
      </trkpt>
      <trkpt lat="43.783" lon="7.09614">
        <ele>708.51977539062</ele>
        <time>2013-12-09T10:50:59Z</time>
      </trkpt>
      <trkpt lat="43.78313" lon="7.09629">
        <ele>712.85412597656</ele>
        <time>2013-12-09T10:51:09Z</time>
      </trkpt>
      <trkpt lat="43.78328" lon="7.09638">
        <ele>717.83526611328</ele>
        <time>2013-12-09T10:51:19Z</time>
      </trkpt>
      <trkpt lat="43.78337" lon="7.09647">
        <ele>725.86077880859</ele>
        <time>2013-12-09T10:51:26Z</time>
      </trkpt>
      <trkpt lat="43.78346" lon="7.09656">
        <ele>742.61614990234</ele>
        <time>2013-12-09T10:51:33Z</time>
      </trkpt>
      <trkpt lat="43.78357" lon="7.09668">
        <ele>761.85491943359</ele>
        <time>2013-12-09T10:51:42Z</time>
      </trkpt>
      <trkpt lat="43.78365" lon="7.0968">
        <ele>770.80279541016</ele>
        <time>2013-12-09T10:51:50Z</time>
      </trkpt>
      <trkpt lat="43.78373" lon="7.09694">
        <ele>774.80462646484</ele>
        <time>2013-12-09T10:51:58Z</time>
      </trkpt>
      <trkpt lat="43.78378" lon="7.09709">
        <ele>778.21368408203</ele>
        <time>2013-12-09T10:52:06Z</time>
      </trkpt>
      <trkpt lat="43.78379" lon="7.09724">
        <ele>778.08404541016</ele>
        <time>2013-12-09T10:52:14Z</time>
      </trkpt>
      <trkpt lat="43.78381" lon="7.09738">
        <ele>778.58941650391</ele>
        <time>2013-12-09T10:52:23Z</time>
      </trkpt>
      <trkpt lat="43.78384" lon="7.09734">
        <ele>782.39410400391</ele>
        <time>2013-12-09T10:52:28Z</time>
      </trkpt>
      <trkpt lat="43.78385" lon="7.09733">
        <ele>783.40350341797</ele>
        <time>2013-12-09T10:52:29Z</time>
      </trkpt>
      <trkpt lat="43.78385" lon="7.09731">
        <ele>784.03350830078</ele>
        <time>2013-12-09T10:52:30Z</time>
      </trkpt>
      <trkpt lat="43.78387" lon="7.09724">
        <ele>787.27575683594</ele>
        <time>2013-12-09T10:52:34Z</time>
      </trkpt>
      <trkpt lat="43.78387" lon="7.09714">
        <ele>787.86151123047</ele>
        <time>2013-12-09T10:52:40Z</time>
      </trkpt>
      <trkpt lat="43.78386" lon="7.09698">
        <ele>787.06115722656</ele>
        <time>2013-12-09T10:52:48Z</time>
      </trkpt>
      <trkpt lat="43.78381" lon="7.0968">
        <ele>784.87457275391</ele>
        <time>2013-12-09T10:52:57Z</time>
      </trkpt>
      <trkpt lat="43.78376" lon="7.09663">
        <ele>782.77520751953</ele>
        <time>2013-12-09T10:53:06Z</time>
      </trkpt>
      <trkpt lat="43.78369" lon="7.09648">
        <ele>779.93853759766</ele>
        <time>2013-12-09T10:53:15Z</time>
      </trkpt>
      <trkpt lat="43.78363" lon="7.0963">
        <ele>778.60430908203</ele>
        <time>2013-12-09T10:53:25Z</time>
      </trkpt>
      <trkpt lat="43.78357" lon="7.0961">
        <ele>771.66046142578</ele>
        <time>2013-12-09T10:53:36Z</time>
      </trkpt>
      <trkpt lat="43.78354" lon="7.09597">
        <ele>770.19470214844</ele>
        <time>2013-12-09T10:53:43Z</time>
      </trkpt>
      <trkpt lat="43.78347" lon="7.09577">
        <ele>769.21704101562</ele>
        <time>2013-12-09T10:53:54Z</time>
      </trkpt>
      <trkpt lat="43.78341" lon="7.0956">
        <ele>770.61358642578</ele>
        <time>2013-12-09T10:54:03Z</time>
      </trkpt>
      <trkpt lat="43.78335" lon="7.09546">
        <ele>768.31353759766</ele>
        <time>2013-12-09T10:54:11Z</time>
      </trkpt>
      <trkpt lat="43.78327" lon="7.0953">
        <ele>757.58807373047</ele>
        <time>2013-12-09T10:54:20Z</time>
      </trkpt>
      <trkpt lat="43.78317" lon="7.09515">
        <ele>744.51977539062</ele>
        <time>2013-12-09T10:54:30Z</time>
      </trkpt>
      <trkpt lat="43.7831" lon="7.09502">
        <ele>736.68884277344</ele>
        <time>2013-12-09T10:54:38Z</time>
      </trkpt>
      <trkpt lat="43.78306" lon="7.09483">
        <ele>736.37176513672</ele>
        <time>2013-12-09T10:54:47Z</time>
      </trkpt>
      <trkpt lat="43.78307" lon="7.09463">
        <ele>740.91528320312</ele>
        <time>2013-12-09T10:54:56Z</time>
      </trkpt>
      <trkpt lat="43.78307" lon="7.09451">
        <ele>742.79272460938</ele>
        <time>2013-12-09T10:55:03Z</time>
      </trkpt>
      <trkpt lat="43.78304" lon="7.09433">
        <ele>742.40673828125</ele>
        <time>2013-12-09T10:55:12Z</time>
      </trkpt>
      <trkpt lat="43.78303" lon="7.09415">
        <ele>742.65106201172</ele>
        <time>2013-12-09T10:55:20Z</time>
      </trkpt>
      <trkpt lat="43.78304" lon="7.09398">
        <ele>740.70654296875</ele>
        <time>2013-12-09T10:55:28Z</time>
      </trkpt>
      <trkpt lat="43.78304" lon="7.09384">
        <ele>739.22607421875</ele>
        <time>2013-12-09T10:55:35Z</time>
      </trkpt>
      <trkpt lat="43.78307" lon="7.0937">
        <ele>740.53411865234</ele>
        <time>2013-12-09T10:55:42Z</time>
      </trkpt>
      <trkpt lat="43.78315" lon="7.09355">
        <ele>745.51574707031</ele>
        <time>2013-12-09T10:55:51Z</time>
      </trkpt>
      <trkpt lat="43.78323" lon="7.09338">
        <ele>750.75415039062</ele>
        <time>2013-12-09T10:56:01Z</time>
      </trkpt>
      <trkpt lat="43.7833" lon="7.0932">
        <ele>755.44201660156</ele>
        <time>2013-12-09T10:56:11Z</time>
      </trkpt>
      <trkpt lat="43.78338" lon="7.09301">
        <ele>757.30010986328</ele>
        <time>2013-12-09T10:56:22Z</time>
      </trkpt>
      <trkpt lat="43.78345" lon="7.09285">
        <ele>756.09533691406</ele>
        <time>2013-12-09T10:56:31Z</time>
      </trkpt>
      <trkpt lat="43.7835" lon="7.09271">
        <ele>754.66613769531</ele>
        <time>2013-12-09T10:56:39Z</time>
      </trkpt>
      <trkpt lat="43.78358" lon="7.09252">
        <ele>752.56329345703</ele>
        <time>2013-12-09T10:56:50Z</time>
      </trkpt>
      <trkpt lat="43.78363" lon="7.09243">
        <ele>752.39886474609</ele>
        <time>2013-12-09T10:56:56Z</time>
      </trkpt>
      <trkpt lat="43.78371" lon="7.09231">
        <ele>752.59039306641</ele>
        <time>2013-12-09T10:57:04Z</time>
      </trkpt>
      <trkpt lat="43.78382" lon="7.09215">
        <ele>753.14923095703</ele>
        <time>2013-12-09T10:57:15Z</time>
      </trkpt>
      <trkpt lat="43.78394" lon="7.09202">
        <ele>753.32073974609</ele>
        <time>2013-12-09T10:57:25Z</time>
      </trkpt>
      <trkpt lat="43.78402" lon="7.09193">
        <ele>753.60540771484</ele>
        <time>2013-12-09T10:57:33Z</time>
      </trkpt>
      <trkpt lat="43.78413" lon="7.09185">
        <ele>755.24450683594</ele>
        <time>2013-12-09T10:57:42Z</time>
      </trkpt>
      <trkpt lat="43.78422" lon="7.09178">
        <ele>756.63922119141</ele>
        <time>2013-12-09T10:57:49Z</time>
      </trkpt>
      <trkpt lat="43.78435" lon="7.09172">
        <ele>758.43035888672</ele>
        <time>2013-12-09T10:57:58Z</time>
      </trkpt>
      <trkpt lat="43.78445" lon="7.09163">
        <ele>760.61437988281</ele>
        <time>2013-12-09T10:58:06Z</time>
      </trkpt>
      <trkpt lat="43.78462" lon="7.0915">
        <ele>771.64471435547</ele>
        <time>2013-12-09T10:58:18Z</time>
      </trkpt>
      <trkpt lat="43.78473" lon="7.09142">
        <ele>779.17718505859</ele>
        <time>2013-12-09T10:58:27Z</time>
      </trkpt>
      <trkpt lat="43.78483" lon="7.09134">
        <ele>784.76647949219</ele>
        <time>2013-12-09T10:58:34Z</time>
      </trkpt>
      <trkpt lat="43.78493" lon="7.09125">
        <ele>792.126953125</ele>
        <time>2013-12-09T10:58:42Z</time>
      </trkpt>
      <trkpt lat="43.78502" lon="7.09117">
        <ele>798.49780273438</ele>
        <time>2013-12-09T10:58:50Z</time>
      </trkpt>
      <trkpt lat="43.78511" lon="7.09106">
        <ele>803.40118408203</ele>
        <time>2013-12-09T10:58:59Z</time>
      </trkpt>
      <trkpt lat="43.78515" lon="7.09102">
        <ele>804.90838623047</ele>
        <time>2013-12-09T10:59:02Z</time>
      </trkpt>
      <trkpt lat="43.78519" lon="7.09105">
        <ele>804.84655761719</ele>
        <time>2013-12-09T10:59:05Z</time>
      </trkpt>
      <trkpt lat="43.78519" lon="7.0911">
        <ele>803.84582519531</ele>
        <time>2013-12-09T10:59:07Z</time>
      </trkpt>
      <trkpt lat="43.78516" lon="7.09115">
        <ele>801.93048095703</ele>
        <time>2013-12-09T10:59:10Z</time>
      </trkpt>
      <trkpt lat="43.78513" lon="7.09116">
        <ele>800.67602539062</ele>
        <time>2013-12-09T10:59:13Z</time>
      </trkpt>
      <trkpt lat="43.78511" lon="7.09119">
        <ele>799.58245849609</ele>
        <time>2013-12-09T10:59:15Z</time>
      </trkpt>
      <trkpt lat="43.78501" lon="7.0913">
        <ele>793.50274658203</ele>
        <time>2013-12-09T10:59:24Z</time>
      </trkpt>
      <trkpt lat="43.78493" lon="7.09144">
        <ele>786.16613769531</ele>
        <time>2013-12-09T10:59:33Z</time>
      </trkpt>
      <trkpt lat="43.78484" lon="7.09161">
        <ele>780.87738037109</ele>
        <time>2013-12-09T10:59:43Z</time>
      </trkpt>
      <trkpt lat="43.78477" lon="7.09172">
        <ele>777.51312255859</ele>
        <time>2013-12-09T10:59:50Z</time>
      </trkpt>
      <trkpt lat="43.78474" lon="7.09175">
        <ele>776.65112304688</ele>
        <time>2013-12-09T10:59:52Z</time>
      </trkpt>
      <trkpt lat="43.78469" lon="7.09183">
        <ele>773.62109375</ele>
        <time>2013-12-09T10:59:57Z</time>
      </trkpt>
      <trkpt lat="43.78455" lon="7.09202">
        <ele>767.60638427734</ele>
        <time>2013-12-09T11:00:09Z</time>
      </trkpt>
      <trkpt lat="43.78444" lon="7.09215">
        <ele>766.39910888672</ele>
        <time>2013-12-09T11:00:18Z</time>
      </trkpt>
      <trkpt lat="43.78431" lon="7.0923">
        <ele>768.62817382812</ele>
        <time>2013-12-09T11:00:28Z</time>
      </trkpt>
      <trkpt lat="43.78431" lon="7.09232">
        <ele>769.13482666016</ele>
        <time>2013-12-09T11:00:29Z</time>
      </trkpt>
      <trkpt lat="43.78434" lon="7.09237">
        <ele>770.67083740234</ele>
        <time>2013-12-09T11:00:32Z</time>
      </trkpt>
      <trkpt lat="43.78439" lon="7.09234">
        <ele>770.64282226562</ele>
        <time>2013-12-09T11:00:35Z</time>
      </trkpt>
      <trkpt lat="43.78441" lon="7.09231">
        <ele>770.01770019531</ele>
        <time>2013-12-09T11:00:37Z</time>
      </trkpt>
      <trkpt lat="43.78452" lon="7.09219">
        <ele>769.03356933594</ele>
        <time>2013-12-09T11:00:45Z</time>
      </trkpt>
      <trkpt lat="43.78468" lon="7.09205">
        <ele>772.64440917969</ele>
        <time>2013-12-09T11:00:57Z</time>
      </trkpt>
      <trkpt lat="43.78479" lon="7.09197">
        <ele>775.54724121094</ele>
        <time>2013-12-09T11:01:05Z</time>
      </trkpt>
      <trkpt lat="43.78493" lon="7.09188">
        <ele>779.28771972656</ele>
        <time>2013-12-09T11:01:15Z</time>
      </trkpt>
      <trkpt lat="43.78504" lon="7.0918">
        <ele>783.45208740234</ele>
        <time>2013-12-09T11:01:24Z</time>
      </trkpt>
      <trkpt lat="43.78514" lon="7.09173">
        <ele>788.01788330078</ele>
        <time>2013-12-09T11:01:32Z</time>
      </trkpt>
      <trkpt lat="43.78524" lon="7.09167">
        <ele>792.78289794922</ele>
        <time>2013-12-09T11:01:40Z</time>
      </trkpt>
      <trkpt lat="43.78539" lon="7.09159">
        <ele>797.61682128906</ele>
        <time>2013-12-09T11:01:50Z</time>
      </trkpt>
      <trkpt lat="43.7855" lon="7.09152">
        <ele>801.32727050781</ele>
        <time>2013-12-09T11:01:58Z</time>
      </trkpt>
      <trkpt lat="43.78562" lon="7.09142">
        <ele>805.47192382812</ele>
        <time>2013-12-09T11:02:06Z</time>
      </trkpt>
      <trkpt lat="43.78574" lon="7.09137">
        <ele>808.79693603516</ele>
        <time>2013-12-09T11:02:14Z</time>
      </trkpt>
      <trkpt lat="43.78587" lon="7.09128">
        <ele>814.50714111328</ele>
        <time>2013-12-09T11:02:23Z</time>
      </trkpt>
      <trkpt lat="43.78588" lon="7.09124">
        <ele>816.15576171875</ele>
        <time>2013-12-09T11:02:25Z</time>
      </trkpt>
      <trkpt lat="43.78588" lon="7.09119">
        <ele>817.35540771484</ele>
        <time>2013-12-09T11:02:27Z</time>
      </trkpt>
      <trkpt lat="43.78587" lon="7.09114">
        <ele>818.32153320312</ele>
        <time>2013-12-09T11:02:29Z</time>
      </trkpt>
      <trkpt lat="43.78584" lon="7.09101">
        <ele>821.39239501953</ele>
        <time>2013-12-09T11:02:35Z</time>
      </trkpt>
      <trkpt lat="43.78583" lon="7.09097">
        <ele>822.32434082031</ele>
        <time>2013-12-09T11:02:37Z</time>
      </trkpt>
      <trkpt lat="43.78579" lon="7.09075">
        <ele>827.54455566406</ele>
        <time>2013-12-09T11:02:47Z</time>
      </trkpt>
      <trkpt lat="43.78575" lon="7.09051">
        <ele>832.80822753906</ele>
        <time>2013-12-09T11:02:59Z</time>
      </trkpt>
      <trkpt lat="43.78569" lon="7.09034">
        <ele>837.71020507812</ele>
        <time>2013-12-09T11:03:08Z</time>
      </trkpt>
      <trkpt lat="43.78561" lon="7.09016">
        <ele>841.28924560547</ele>
        <time>2013-12-09T11:03:18Z</time>
      </trkpt>
      <trkpt lat="43.78551" lon="7.08997">
        <ele>843.19512939453</ele>
        <time>2013-12-09T11:03:29Z</time>
      </trkpt>
      <trkpt lat="43.78545" lon="7.08982">
        <ele>845.28253173828</ele>
        <time>2013-12-09T11:03:37Z</time>
      </trkpt>
      <trkpt lat="43.78538" lon="7.0897">
        <ele>845.69604492188</ele>
        <time>2013-12-09T11:03:44Z</time>
      </trkpt>
      <trkpt lat="43.78526" lon="7.0895">
        <ele>842.07678222656</ele>
        <time>2013-12-09T11:03:55Z</time>
      </trkpt>
      <trkpt lat="43.78518" lon="7.08937">
        <ele>841.79644775391</ele>
        <time>2013-12-09T11:04:03Z</time>
      </trkpt>
      <trkpt lat="43.78518" lon="7.08934">
        <ele>841.95434570312</ele>
        <time>2013-12-09T11:04:04Z</time>
      </trkpt>
      <trkpt lat="43.7852" lon="7.08932">
        <ele>842.4384765625</ele>
        <time>2013-12-09T11:04:05Z</time>
      </trkpt>
      <trkpt lat="43.78523" lon="7.08932">
        <ele>843.04614257812</ele>
        <time>2013-12-09T11:04:07Z</time>
      </trkpt>
      <trkpt lat="43.78524" lon="7.08932">
        <ele>843.18347167969</ele>
        <time>2013-12-09T11:04:08Z</time>
      </trkpt>
      <trkpt lat="43.78534" lon="7.08946">
        <ele>847.17041015625</ele>
        <time>2013-12-09T11:04:17Z</time>
      </trkpt>
      <trkpt lat="43.78543" lon="7.08956">
        <ele>851.06414794922</ele>
        <time>2013-12-09T11:04:25Z</time>
      </trkpt>
      <trkpt lat="43.78557" lon="7.08973">
        <ele>854.43273925781</ele>
        <time>2013-12-09T11:04:37Z</time>
      </trkpt>
      <trkpt lat="43.78567" lon="7.08986">
        <ele>854.02252197266</ele>
        <time>2013-12-09T11:04:46Z</time>
      </trkpt>
      <trkpt lat="43.7858" lon="7.09002">
        <ele>853.10803222656</ele>
        <time>2013-12-09T11:04:57Z</time>
      </trkpt>
      <trkpt lat="43.78593" lon="7.09018">
        <ele>854.30310058594</ele>
        <time>2013-12-09T11:05:08Z</time>
      </trkpt>
      <trkpt lat="43.78605" lon="7.09034">
        <ele>853.40063476562</ele>
        <time>2013-12-09T11:05:18Z</time>
      </trkpt>
      <trkpt lat="43.78613" lon="7.09044">
        <ele>852.75958251953</ele>
        <time>2013-12-09T11:05:25Z</time>
      </trkpt>
      <trkpt lat="43.78622" lon="7.09057">
        <ele>853.88714599609</ele>
        <time>2013-12-09T11:05:33Z</time>
      </trkpt>
      <trkpt lat="43.78633" lon="7.09069">
        <ele>857.52703857422</ele>
        <time>2013-12-09T11:05:42Z</time>
      </trkpt>
      <trkpt lat="43.78645" lon="7.09082">
        <ele>858.70092773438</ele>
        <time>2013-12-09T11:05:52Z</time>
      </trkpt>
      <trkpt lat="43.78655" lon="7.09095">
        <ele>856.10833740234</ele>
        <time>2013-12-09T11:06:00Z</time>
      </trkpt>
      <trkpt lat="43.78671" lon="7.09112">
        <ele>852.00769042969</ele>
        <time>2013-12-09T11:06:12Z</time>
      </trkpt>
      <trkpt lat="43.78682" lon="7.09124">
        <ele>850.41571044922</ele>
        <time>2013-12-09T11:06:21Z</time>
      </trkpt>
      <trkpt lat="43.78689" lon="7.09131">
        <ele>849.73968505859</ele>
        <time>2013-12-09T11:06:28Z</time>
      </trkpt>
      <trkpt lat="43.78703" lon="7.0914">
        <ele>850.40997314453</ele>
        <time>2013-12-09T11:06:38Z</time>
      </trkpt>
      <trkpt lat="43.78716" lon="7.09148">
        <ele>852.83752441406</ele>
        <time>2013-12-09T11:06:47Z</time>
      </trkpt>
      <trkpt lat="43.78727" lon="7.09154">
        <ele>853.94860839844</ele>
        <time>2013-12-09T11:06:55Z</time>
      </trkpt>
      <trkpt lat="43.78737" lon="7.0916">
        <ele>854.05572509766</ele>
        <time>2013-12-09T11:07:02Z</time>
      </trkpt>
      <trkpt lat="43.78747" lon="7.09166">
        <ele>854.64312744141</ele>
        <time>2013-12-09T11:07:11Z</time>
      </trkpt>
      <trkpt lat="43.78757" lon="7.0917">
        <ele>854.65686035156</ele>
        <time>2013-12-09T11:07:19Z</time>
      </trkpt>
      <trkpt lat="43.78768" lon="7.09175">
        <ele>854.58325195312</ele>
        <time>2013-12-09T11:07:28Z</time>
      </trkpt>
      <trkpt lat="43.7878" lon="7.09178">
        <ele>855.27972412109</ele>
        <time>2013-12-09T11:07:37Z</time>
      </trkpt>
      <trkpt lat="43.7878" lon="7.09178">
        <ele>855.40484619141</ele>
        <time>2013-12-09T11:07:46Z</time>
      </trkpt>
      <trkpt lat="43.78784" lon="7.09177">
        <ele>855.826171875</ele>
        <time>2013-12-09T11:09:20Z</time>
      </trkpt>
      <trkpt lat="43.78789" lon="7.09178">
        <ele>856.17083740234</ele>
        <time>2013-12-09T11:09:30Z</time>
      </trkpt>
      <trkpt lat="43.78802" lon="7.09179">
        <ele>857.30010986328</ele>
        <time>2013-12-09T11:09:42Z</time>
      </trkpt>
      <trkpt lat="43.78814" lon="7.0918">
        <ele>858.16003417969</ele>
        <time>2013-12-09T11:09:53Z</time>
      </trkpt>
      <trkpt lat="43.78825" lon="7.0918">
        <ele>858.93048095703</ele>
        <time>2013-12-09T11:10:04Z</time>
      </trkpt>
      <trkpt lat="43.78838" lon="7.0918">
        <ele>860.3759765625</ele>
        <time>2013-12-09T11:10:16Z</time>
      </trkpt>
      <trkpt lat="43.78848" lon="7.09177">
        <ele>862.47216796875</ele>
        <time>2013-12-09T11:10:25Z</time>
      </trkpt>
      <trkpt lat="43.78859" lon="7.09175">
        <ele>864.87353515625</ele>
        <time>2013-12-09T11:10:36Z</time>
      </trkpt>
      <trkpt lat="43.7887" lon="7.09173">
        <ele>867.404296875</ele>
        <time>2013-12-09T11:10:47Z</time>
      </trkpt>
      <trkpt lat="43.78881" lon="7.0917">
        <ele>869.97149658203</ele>
        <time>2013-12-09T11:10:57Z</time>
      </trkpt>
      <trkpt lat="43.78894" lon="7.09165">
        <ele>872.46246337891</ele>
        <time>2013-12-09T11:11:09Z</time>
      </trkpt>
      <trkpt lat="43.789" lon="7.09162">
        <ele>873.30438232422</ele>
        <time>2013-12-09T11:11:17Z</time>
      </trkpt>
      <trkpt lat="43.78904" lon="7.0916">
        <ele>873.71356201172</ele>
        <time>2013-12-09T11:11:22Z</time>
      </trkpt>
      <trkpt lat="43.78913" lon="7.09153">
        <ele>875.02691650391</ele>
        <time>2013-12-09T11:11:29Z</time>
      </trkpt>
      <trkpt lat="43.78928" lon="7.09144">
        <ele>876.83380126953</ele>
        <time>2013-12-09T11:11:39Z</time>
      </trkpt>
      <trkpt lat="43.7894" lon="7.09145">
        <ele>877.28240966797</ele>
        <time>2013-12-09T11:11:47Z</time>
      </trkpt>
      <trkpt lat="43.7895" lon="7.09151">
        <ele>877.88751220703</ele>
        <time>2013-12-09T11:11:55Z</time>
      </trkpt>
      <trkpt lat="43.78962" lon="7.09158">
        <ele>878.86389160156</ele>
        <time>2013-12-09T11:12:05Z</time>
      </trkpt>
      <trkpt lat="43.78971" lon="7.09162">
        <ele>879.5712890625</ele>
        <time>2013-12-09T11:12:12Z</time>
      </trkpt>
      <trkpt lat="43.78982" lon="7.09168">
        <ele>881.28662109375</ele>
        <time>2013-12-09T11:12:21Z</time>
      </trkpt>
      <trkpt lat="43.78985" lon="7.0917">
        <ele>881.75164794922</ele>
        <time>2013-12-09T11:12:23Z</time>
      </trkpt>
      <trkpt lat="43.7899" lon="7.09173">
        <ele>882.49212646484</ele>
        <time>2013-12-09T11:12:28Z</time>
      </trkpt>
      <trkpt lat="43.78999" lon="7.09177">
        <ele>883.53540039062</ele>
        <time>2013-12-09T11:12:35Z</time>
      </trkpt>
      <trkpt lat="43.7901" lon="7.09182">
        <ele>888.06866455078</ele>
        <time>2013-12-09T11:12:44Z</time>
      </trkpt>
      <trkpt lat="43.7902" lon="7.09184">
        <ele>892.86218261719</ele>
        <time>2013-12-09T11:12:52Z</time>
      </trkpt>
      <trkpt lat="43.7903" lon="7.09188">
        <ele>896.57971191406</ele>
        <time>2013-12-09T11:13:00Z</time>
      </trkpt>
      <trkpt lat="43.79039" lon="7.09192">
        <ele>897.02258300781</ele>
        <time>2013-12-09T11:13:08Z</time>
      </trkpt>
      <trkpt lat="43.79049" lon="7.09192">
        <ele>897.69549560547</ele>
        <time>2013-12-09T11:13:15Z</time>
      </trkpt>
      <trkpt lat="43.7906" lon="7.0919">
        <ele>898.75891113281</ele>
        <time>2013-12-09T11:13:24Z</time>
      </trkpt>
      <trkpt lat="43.79073" lon="7.09185">
        <ele>900.51281738281</ele>
        <time>2013-12-09T11:13:34Z</time>
      </trkpt>
      <trkpt lat="43.79082" lon="7.09179">
        <ele>902.74926757812</ele>
        <time>2013-12-09T11:13:42Z</time>
      </trkpt>
      <trkpt lat="43.79092" lon="7.09172">
        <ele>904.35467529297</ele>
        <time>2013-12-09T11:13:50Z</time>
      </trkpt>
      <trkpt lat="43.79105" lon="7.09163">
        <ele>906.35620117188</ele>
        <time>2013-12-09T11:14:01Z</time>
      </trkpt>
      <trkpt lat="43.79118" lon="7.09158">
        <ele>906.77630615234</ele>
        <time>2013-12-09T11:14:09Z</time>
      </trkpt>
      <trkpt lat="43.7913" lon="7.09153">
        <ele>906.61151123047</ele>
        <time>2013-12-09T11:14:18Z</time>
      </trkpt>
      <trkpt lat="43.79144" lon="7.09146">
        <ele>907.71136474609</ele>
        <time>2013-12-09T11:14:29Z</time>
      </trkpt>
      <trkpt lat="43.79155" lon="7.09134">
        <ele>910.3994140625</ele>
        <time>2013-12-09T11:14:39Z</time>
      </trkpt>
      <trkpt lat="43.79161" lon="7.09123">
        <ele>911.85980224609</ele>
        <time>2013-12-09T11:14:46Z</time>
      </trkpt>
      <trkpt lat="43.79168" lon="7.0911">
        <ele>913.33709716797</ele>
        <time>2013-12-09T11:14:55Z</time>
      </trkpt>
      <trkpt lat="43.79173" lon="7.09098">
        <ele>915.06787109375</ele>
        <time>2013-12-09T11:15:04Z</time>
      </trkpt>
      <trkpt lat="43.79177" lon="7.09085">
        <ele>916.67254638672</ele>
        <time>2013-12-09T11:15:13Z</time>
      </trkpt>
      <trkpt lat="43.79184" lon="7.0907">
        <ele>917.6044921875</ele>
        <time>2013-12-09T11:15:22Z</time>
      </trkpt>
      <trkpt lat="43.79191" lon="7.09055">
        <ele>918.00531005859</ele>
        <time>2013-12-09T11:15:30Z</time>
      </trkpt>
      <trkpt lat="43.79198" lon="7.09039">
        <ele>918.80255126953</ele>
        <time>2013-12-09T11:15:39Z</time>
      </trkpt>
      <trkpt lat="43.79203" lon="7.09023">
        <ele>919.44641113281</ele>
        <time>2013-12-09T11:15:48Z</time>
      </trkpt>
      <trkpt lat="43.79205" lon="7.09016">
        <ele>919.65399169922</ele>
        <time>2013-12-09T11:15:52Z</time>
      </trkpt>
      <trkpt lat="43.79206" lon="7.09007">
        <ele>919.86627197266</ele>
        <time>2013-12-09T11:15:56Z</time>
      </trkpt>
      <trkpt lat="43.79212" lon="7.08991">
        <ele>921.59368896484</ele>
        <time>2013-12-09T11:16:03Z</time>
      </trkpt>
      <trkpt lat="43.79216" lon="7.08988">
        <ele>922.11724853516</ele>
        <time>2013-12-09T11:16:05Z</time>
      </trkpt>
      <trkpt lat="43.79224" lon="7.08987">
        <ele>922.81915283203</ele>
        <time>2013-12-09T11:16:09Z</time>
      </trkpt>
      <trkpt lat="43.79236" lon="7.08981">
        <ele>925.86108398438</ele>
        <time>2013-12-09T11:16:17Z</time>
      </trkpt>
      <trkpt lat="43.79242" lon="7.08964">
        <ele>928.62884521484</ele>
        <time>2013-12-09T11:16:26Z</time>
      </trkpt>
      <trkpt lat="43.79248" lon="7.0895">
        <ele>930.46105957031</ele>
        <time>2013-12-09T11:16:33Z</time>
      </trkpt>
      <trkpt lat="43.79256" lon="7.08928">
        <ele>932.83209228516</ele>
        <time>2013-12-09T11:16:44Z</time>
      </trkpt>
      <trkpt lat="43.79261" lon="7.08916">
        <ele>934.03820800781</ele>
        <time>2013-12-09T11:16:51Z</time>
      </trkpt>
      <trkpt lat="43.79265" lon="7.08902">
        <ele>935.52380371094</ele>
        <time>2013-12-09T11:16:59Z</time>
      </trkpt>
      <trkpt lat="43.79271" lon="7.0888">
        <ele>937.21850585938</ele>
        <time>2013-12-09T11:17:10Z</time>
      </trkpt>
      <trkpt lat="43.79279" lon="7.08862">
        <ele>938.056640625</ele>
        <time>2013-12-09T11:17:19Z</time>
      </trkpt>
      <trkpt lat="43.79285" lon="7.08848">
        <ele>938.39642333984</ele>
        <time>2013-12-09T11:17:26Z</time>
      </trkpt>
      <trkpt lat="43.79292" lon="7.08833">
        <ele>938.50628662109</ele>
        <time>2013-12-09T11:17:33Z</time>
      </trkpt>
      <trkpt lat="43.79302" lon="7.08807">
        <ele>939.79718017578</ele>
        <time>2013-12-09T11:17:44Z</time>
      </trkpt>
      <trkpt lat="43.79312" lon="7.08779">
        <ele>940</ele>
        <time>2013-12-09T11:17:55Z</time>
      </trkpt>
      <trkpt lat="43.79322" lon="7.08749">
        <ele>940</ele>
        <time>2013-12-09T11:18:07Z</time>
      </trkpt>
      <trkpt lat="43.79327" lon="7.08735">
        <ele>940</ele>
        <time>2013-12-09T11:18:13Z</time>
      </trkpt>
      <trkpt lat="43.79335" lon="7.08714">
        <ele>940.19403076172</ele>
        <time>2013-12-09T11:18:22Z</time>
      </trkpt>
      <trkpt lat="43.79341" lon="7.08694">
        <ele>940.55169677734</ele>
        <time>2013-12-09T11:18:30Z</time>
      </trkpt>
      <trkpt lat="43.7935" lon="7.08662">
        <ele>940</ele>
        <time>2013-12-09T11:18:42Z</time>
      </trkpt>
      <trkpt lat="43.79362" lon="7.08634">
        <ele>940.13055419922</ele>
        <time>2013-12-09T11:18:53Z</time>
      </trkpt>
      <trkpt lat="43.79375" lon="7.08611">
        <ele>940.97955322266</ele>
        <time>2013-12-09T11:19:02Z</time>
      </trkpt>
      <trkpt lat="43.79391" lon="7.08584">
        <ele>940.416015625</ele>
        <time>2013-12-09T11:19:13Z</time>
      </trkpt>
      <trkpt lat="43.79408" lon="7.08561">
        <ele>940.48309326172</ele>
        <time>2013-12-09T11:19:22Z</time>
      </trkpt>
      <trkpt lat="43.79431" lon="7.08534">
        <ele>940.2265625</ele>
        <time>2013-12-09T11:19:33Z</time>
      </trkpt>
      <trkpt lat="43.79459" lon="7.08505">
        <ele>939.61157226562</ele>
        <time>2013-12-09T11:19:45Z</time>
      </trkpt>
      <trkpt lat="43.79486" lon="7.08479">
        <ele>939.80358886719</ele>
        <time>2013-12-09T11:19:56Z</time>
      </trkpt>
      <trkpt lat="43.79506" lon="7.08453">
        <ele>940.22540283203</ele>
        <time>2013-12-09T11:20:05Z</time>
      </trkpt>
      <trkpt lat="43.79526" lon="7.08425">
        <ele>940.12030029297</ele>
        <time>2013-12-09T11:20:14Z</time>
      </trkpt>
      <trkpt lat="43.79546" lon="7.08412">
        <ele>942.28857421875</ele>
        <time>2013-12-09T11:20:21Z</time>
      </trkpt>
      <trkpt lat="43.79568" lon="7.08401">
        <ele>944.34619140625</ele>
        <time>2013-12-09T11:20:29Z</time>
      </trkpt>
      <trkpt lat="43.796" lon="7.08391">
        <ele>946.49761962891</ele>
        <time>2013-12-09T11:20:40Z</time>
      </trkpt>
      <trkpt lat="43.79631" lon="7.08385">
        <ele>947.17614746094</ele>
        <time>2013-12-09T11:20:50Z</time>
      </trkpt>
      <trkpt lat="43.79658" lon="7.08385">
        <ele>952.39916992188</ele>
        <time>2013-12-09T11:20:58Z</time>
      </trkpt>
      <trkpt lat="43.79686" lon="7.08384">
        <ele>956.00646972656</ele>
        <time>2013-12-09T11:21:06Z</time>
      </trkpt>
      <trkpt lat="43.79707" lon="7.08385">
        <ele>956.32415771484</ele>
        <time>2013-12-09T11:21:12Z</time>
      </trkpt>
      <trkpt lat="43.79732" lon="7.08398">
        <ele>957.4814453125</ele>
        <time>2013-12-09T11:21:20Z</time>
      </trkpt>
      <trkpt lat="43.79733" lon="7.08401">
        <ele>957.73852539062</ele>
        <time>2013-12-09T11:21:21Z</time>
      </trkpt>
      <trkpt lat="43.79732" lon="7.08409">
        <ele>958.34344482422</ele>
        <time>2013-12-09T11:21:24Z</time>
      </trkpt>
      <trkpt lat="43.79732" lon="7.0841">
        <ele>958.47290039062</ele>
        <time>2013-12-09T11:21:25Z</time>
      </trkpt>
      <trkpt lat="43.79734" lon="7.08412">
        <ele>958.63000488281</ele>
        <time>2013-12-09T11:21:28Z</time>
      </trkpt>
      <trkpt lat="43.79735" lon="7.08409">
        <ele>958.44171142578</ele>
        <time>2013-12-09T11:21:33Z</time>
      </trkpt>
      <trkpt lat="43.79734" lon="7.08405">
        <ele>958.10662841797</ele>
        <time>2013-12-09T11:21:35Z</time>
      </trkpt>
      <trkpt lat="43.79733" lon="7.08399">
        <ele>957.59509277344</ele>
        <time>2013-12-09T11:21:41Z</time>
      </trkpt>
      <trkpt lat="43.79728" lon="7.08394">
        <ele>956.87463378906</ele>
        <time>2013-12-09T11:26:22Z</time>
      </trkpt>
      <trkpt lat="43.79727" lon="7.0838">
        <ele>956.08312988281</ele>
        <time>2013-12-09T11:26:26Z</time>
      </trkpt>
      <trkpt lat="43.7973" lon="7.08352">
        <ele>955.31408691406</ele>
        <time>2013-12-09T11:26:31Z</time>
      </trkpt>
      <trkpt lat="43.7974" lon="7.08322">
        <ele>954.90649414062</ele>
        <time>2013-12-09T11:26:36Z</time>
      </trkpt>
      <trkpt lat="43.79748" lon="7.083">
        <ele>955.50347900391</ele>
        <time>2013-12-09T11:26:41Z</time>
      </trkpt>
      <trkpt lat="43.79757" lon="7.08282">
        <ele>956.49877929688</ele>
        <time>2013-12-09T11:26:46Z</time>
      </trkpt>
      <trkpt lat="43.79762" lon="7.08256">
        <ele>956.41729736328</ele>
        <time>2013-12-09T11:26:51Z</time>
      </trkpt>
      <trkpt lat="43.79755" lon="7.08226">
        <ele>955.58337402344</ele>
        <time>2013-12-09T11:26:56Z</time>
      </trkpt>
      <trkpt lat="43.79749" lon="7.08213">
        <ele>954.37786865234</ele>
        <time>2013-12-09T11:26:58Z</time>
      </trkpt>
      <trkpt lat="43.79745" lon="7.08205">
        <ele>952.43981933594</ele>
        <time>2013-12-09T11:27:00Z</time>
      </trkpt>
      <trkpt lat="43.79745" lon="7.08204">
        <ele>952.244140625</ele>
        <time>2013-12-09T11:27:01Z</time>
      </trkpt>
      <trkpt lat="43.79744" lon="7.08203">
        <ele>952.05017089844</ele>
        <time>2013-12-09T11:27:03Z</time>
      </trkpt>
      <trkpt lat="43.79744" lon="7.08202">
        <ele>951.88537597656</ele>
        <time>2013-12-09T11:27:04Z</time>
      </trkpt>
      <trkpt lat="43.79742" lon="7.08198">
        <ele>950.99615478516</ele>
        <time>2013-12-09T11:27:10Z</time>
      </trkpt>
      <trkpt lat="43.79738" lon="7.08191">
        <ele>949.17559814453</ele>
        <time>2013-12-09T11:27:14Z</time>
      </trkpt>
      <trkpt lat="43.79726" lon="7.0817">
        <ele>942.25872802734</ele>
        <time>2013-12-09T11:27:20Z</time>
      </trkpt>
      <trkpt lat="43.79711" lon="7.08148">
        <ele>939.33502197266</ele>
        <time>2013-12-09T11:27:24Z</time>
      </trkpt>
      <trkpt lat="43.79705" lon="7.08138">
        <ele>938.740234375</ele>
        <time>2013-12-09T11:27:26Z</time>
      </trkpt>
      <trkpt lat="43.79699" lon="7.08123">
        <ele>937.84802246094</ele>
        <time>2013-12-09T11:27:28Z</time>
      </trkpt>
      <trkpt lat="43.79689" lon="7.08083">
        <ele>936.39282226562</ele>
        <time>2013-12-09T11:27:32Z</time>
      </trkpt>
      <trkpt lat="43.79678" lon="7.08065">
        <ele>934.51831054688</ele>
        <time>2013-12-09T11:27:34Z</time>
      </trkpt>
      <trkpt lat="43.79675" lon="7.08055">
        <ele>933.82995605469</ele>
        <time>2013-12-09T11:27:35Z</time>
      </trkpt>
      <trkpt lat="43.79672" lon="7.08043">
        <ele>933.15014648438</ele>
        <time>2013-12-09T11:27:37Z</time>
      </trkpt>
      <trkpt lat="43.79673" lon="7.08037">
        <ele>933.02825927734</ele>
        <time>2013-12-09T11:27:40Z</time>
      </trkpt>
      <trkpt lat="43.79671" lon="7.08032">
        <ele>932.68151855469</ele>
        <time>2013-12-09T11:27:44Z</time>
      </trkpt>
      <trkpt lat="43.79671" lon="7.08032">
        <ele>932.68322753906</ele>
        <time>2013-12-09T11:27:45Z</time>
      </trkpt>
      <trkpt lat="43.7967" lon="7.08029">
        <ele>932.36224365234</ele>
        <time>2013-12-09T11:27:55Z</time>
      </trkpt>
      <trkpt lat="43.79667" lon="7.08027">
        <ele>932.02331542969</ele>
        <time>2013-12-09T11:27:58Z</time>
      </trkpt>
      <trkpt lat="43.79667" lon="7.08025">
        <ele>931.87780761719</ele>
        <time>2013-12-09T11:27:59Z</time>
      </trkpt>
      <trkpt lat="43.79665" lon="7.08022">
        <ele>931.43664550781</ele>
        <time>2013-12-09T11:28:05Z</time>
      </trkpt>
      <trkpt lat="43.79662" lon="7.08015">
        <ele>930.76031494141</ele>
        <time>2013-12-09T11:28:11Z</time>
      </trkpt>
      <trkpt lat="43.79661" lon="7.08015">
        <ele>930.56976318359</ele>
        <time>2013-12-09T11:28:16Z</time>
      </trkpt>
      <trkpt lat="43.79662" lon="7.08014">
        <ele>930.59893798828</ele>
        <time>2013-12-09T11:28:21Z</time>
      </trkpt>
      <trkpt lat="43.79661" lon="7.08013">
        <ele>930.48736572266</ele>
        <time>2013-12-09T11:28:22Z</time>
      </trkpt>
      <trkpt lat="43.79659" lon="7.08008">
        <ele>929.90374755859</ele>
        <time>2013-12-09T11:28:24Z</time>
      </trkpt>
      <trkpt lat="43.79655" lon="7.08005">
        <ele>929.1484375</ele>
        <time>2013-12-09T11:28:27Z</time>
      </trkpt>
      <trkpt lat="43.79655" lon="7.08004">
        <ele>929.14324951172</ele>
        <time>2013-12-09T11:28:28Z</time>
      </trkpt>
      <trkpt lat="43.79653" lon="7.08">
        <ele>928.57061767578</ele>
        <time>2013-12-09T11:28:33Z</time>
      </trkpt>
      <trkpt lat="43.79652" lon="7.07999">
        <ele>928.29211425781</ele>
        <time>2013-12-09T11:28:35Z</time>
      </trkpt>
      <trkpt lat="43.79648" lon="7.07998">
        <ele>927.65710449219</ele>
        <time>2013-12-09T11:28:38Z</time>
      </trkpt>
      <trkpt lat="43.79645" lon="7.07997">
        <ele>927.07342529297</ele>
        <time>2013-12-09T11:28:41Z</time>
      </trkpt>
      <trkpt lat="43.79641" lon="7.07995">
        <ele>926.3056640625</ele>
        <time>2013-12-09T11:28:44Z</time>
      </trkpt>
      <trkpt lat="43.79637" lon="7.07993">
        <ele>925.38635253906</ele>
        <time>2013-12-09T11:28:51Z</time>
      </trkpt>
      <trkpt lat="43.79632" lon="7.07991">
        <ele>924.23278808594</ele>
        <time>2013-12-09T11:28:56Z</time>
      </trkpt>
      <trkpt lat="43.79625" lon="7.07989">
        <ele>922.67584228516</ele>
        <time>2013-12-09T11:29:01Z</time>
      </trkpt>
      <trkpt lat="43.79625" lon="7.07987">
        <ele>922.43548583984</ele>
        <time>2013-12-09T11:29:08Z</time>
      </trkpt>
      <trkpt lat="43.7962" lon="7.07979">
        <ele>921.25793457031</ele>
        <time>2013-12-09T11:29:13Z</time>
      </trkpt>
      <trkpt lat="43.7962" lon="7.07977">
        <ele>921.07080078125</ele>
        <time>2013-12-09T11:29:17Z</time>
      </trkpt>
      <trkpt lat="43.7962" lon="7.07976">
        <ele>920.95751953125</ele>
        <time>2013-12-09T11:29:18Z</time>
      </trkpt>
      <trkpt lat="43.79614" lon="7.07972">
        <ele>919.67572021484</ele>
        <time>2013-12-09T11:29:22Z</time>
      </trkpt>
      <trkpt lat="43.79612" lon="7.07971">
        <ele>919.06475830078</ele>
        <time>2013-12-09T11:29:27Z</time>
      </trkpt>
      <trkpt lat="43.79605" lon="7.0797">
        <ele>918.69500732422</ele>
        <time>2013-12-09T11:29:32Z</time>
      </trkpt>
      <trkpt lat="43.79596" lon="7.07958">
        <ele>917.67492675781</ele>
        <time>2013-12-09T11:29:37Z</time>
      </trkpt>
      <trkpt lat="43.7958" lon="7.07937">
        <ele>915.05737304688</ele>
        <time>2013-12-09T11:29:42Z</time>
      </trkpt>
      <trkpt lat="43.79579" lon="7.0793">
        <ele>914.39227294922</ele>
        <time>2013-12-09T11:29:45Z</time>
      </trkpt>
      <trkpt lat="43.7958" lon="7.07924">
        <ele>914.01672363281</ele>
        <time>2013-12-09T11:29:51Z</time>
      </trkpt>
      <trkpt lat="43.7958" lon="7.07913">
        <ele>913.07855224609</ele>
        <time>2013-12-09T11:29:56Z</time>
      </trkpt>
      <trkpt lat="43.79578" lon="7.07907">
        <ele>912.28515625</ele>
        <time>2013-12-09T11:30:00Z</time>
      </trkpt>
      <trkpt lat="43.79581" lon="7.07902">
        <ele>912.48657226562</ele>
        <time>2013-12-09T11:30:04Z</time>
      </trkpt>
      <trkpt lat="43.79583" lon="7.07897">
        <ele>912.52435302734</ele>
        <time>2013-12-09T11:30:08Z</time>
      </trkpt>
      <trkpt lat="43.79583" lon="7.07896">
        <ele>912.43103027344</ele>
        <time>2013-12-09T11:30:17Z</time>
      </trkpt>
      <trkpt lat="43.79585" lon="7.0789">
        <ele>912.42779541016</ele>
        <time>2013-12-09T11:30:35Z</time>
      </trkpt>
      <trkpt lat="43.79587" lon="7.07888">
        <ele>912.65728759766</ele>
        <time>2013-12-09T11:30:40Z</time>
      </trkpt>
      <trkpt lat="43.79586" lon="7.07887">
        <ele>912.50769042969</ele>
        <time>2013-12-09T11:31:10Z</time>
      </trkpt>
      <trkpt lat="43.79584" lon="7.07882">
        <ele>912.39434814453</ele>
        <time>2013-12-09T11:31:29Z</time>
      </trkpt>
      <trkpt lat="43.79581" lon="7.07879">
        <ele>911.75640869141</ele>
        <time>2013-12-09T11:31:33Z</time>
      </trkpt>
      <trkpt lat="43.79581" lon="7.07876">
        <ele>911.70825195312</ele>
        <time>2013-12-09T11:31:36Z</time>
      </trkpt>
      <trkpt lat="43.79583" lon="7.0788">
        <ele>912.22436523438</ele>
        <time>2013-12-09T11:31:40Z</time>
      </trkpt>
      <trkpt lat="43.79585" lon="7.07886">
        <ele>912.333984375</ele>
        <time>2013-12-09T11:31:45Z</time>
      </trkpt>
      <trkpt lat="43.79585" lon="7.07886">
        <ele>912.31072998047</ele>
        <time>2013-12-09T11:31:46Z</time>
      </trkpt>
      <trkpt lat="43.79585" lon="7.07887">
        <ele>912.27319335938</ele>
        <time>2013-12-09T11:31:55Z</time>
      </trkpt>
      <trkpt lat="43.79585" lon="7.07889">
        <ele>912.28826904297</ele>
        <time>2013-12-09T11:32:16Z</time>
      </trkpt>
      <trkpt lat="43.79584" lon="7.07888">
        <ele>912.11505126953</ele>
        <time>2013-12-09T11:32:20Z</time>
      </trkpt>
      <trkpt lat="43.79584" lon="7.07886">
        <ele>912.26544189453</ele>
        <time>2013-12-09T11:32:22Z</time>
      </trkpt>
      <trkpt lat="43.79583" lon="7.07884">
        <ele>912.18670654297</ele>
        <time>2013-12-09T11:32:24Z</time>
      </trkpt>
      <trkpt lat="43.79579" lon="7.07878">
        <ele>911.25885009766</ele>
        <time>2013-12-09T11:32:29Z</time>
      </trkpt>
      <trkpt lat="43.79578" lon="7.07874">
        <ele>910.86547851562</ele>
        <time>2013-12-09T11:32:34Z</time>
      </trkpt>
      <trkpt lat="43.79571" lon="7.07859">
        <ele>908.45367431641</ele>
        <time>2013-12-09T11:32:39Z</time>
      </trkpt>
      <trkpt lat="43.79568" lon="7.07852">
        <ele>906.65222167969</ele>
        <time>2013-12-09T11:32:42Z</time>
      </trkpt>
      <trkpt lat="43.79568" lon="7.07847">
        <ele>906.39392089844</ele>
        <time>2013-12-09T11:32:43Z</time>
      </trkpt>
      <trkpt lat="43.79572" lon="7.07833">
        <ele>906.63732910156</ele>
        <time>2013-12-09T11:32:46Z</time>
      </trkpt>
      <trkpt lat="43.79566" lon="7.0782">
        <ele>904.41979980469</ele>
        <time>2013-12-09T11:32:49Z</time>
      </trkpt>
      <trkpt lat="43.79562" lon="7.07816">
        <ele>903.01611328125</ele>
        <time>2013-12-09T11:32:50Z</time>
      </trkpt>
      <trkpt lat="43.79551" lon="7.07797">
        <ele>900.86602783203</ele>
        <time>2013-12-09T11:32:54Z</time>
      </trkpt>
      <trkpt lat="43.79548" lon="7.07793">
        <ele>901.05090332031</ele>
        <time>2013-12-09T11:32:55Z</time>
      </trkpt>
      <trkpt lat="43.79543" lon="7.07786">
        <ele>901.02545166016</ele>
        <time>2013-12-09T11:32:57Z</time>
      </trkpt>
      <trkpt lat="43.79541" lon="7.07782">
        <ele>901.01800537109</ele>
        <time>2013-12-09T11:32:58Z</time>
      </trkpt>
      <trkpt lat="43.79539" lon="7.07778">
        <ele>900.97247314453</ele>
        <time>2013-12-09T11:32:59Z</time>
      </trkpt>
      <trkpt lat="43.79536" lon="7.07762">
        <ele>900.98413085938</ele>
        <time>2013-12-09T11:33:02Z</time>
      </trkpt>
      <trkpt lat="43.79534" lon="7.0775">
        <ele>900.83410644531</ele>
        <time>2013-12-09T11:33:04Z</time>
      </trkpt>
      <trkpt lat="43.79533" lon="7.07744">
        <ele>900.74926757812</ele>
        <time>2013-12-09T11:33:05Z</time>
      </trkpt>
      <trkpt lat="43.79531" lon="7.07739">
        <ele>900.35565185547</ele>
        <time>2013-12-09T11:33:06Z</time>
      </trkpt>
      <trkpt lat="43.79522" lon="7.07733">
        <ele>898.88641357422</ele>
        <time>2013-12-09T11:33:09Z</time>
      </trkpt>
      <trkpt lat="43.79515" lon="7.07727">
        <ele>898.20758056641</ele>
        <time>2013-12-09T11:33:13Z</time>
      </trkpt>
      <trkpt lat="43.79514" lon="7.07725">
        <ele>897.95361328125</ele>
        <time>2013-12-09T11:33:15Z</time>
      </trkpt>
      <trkpt lat="43.79512" lon="7.07725">
        <ele>897.79797363281</ele>
        <time>2013-12-09T11:33:18Z</time>
      </trkpt>
      <trkpt lat="43.7951" lon="7.07723">
        <ele>897.41534423828</ele>
        <time>2013-12-09T11:33:21Z</time>
      </trkpt>
      <trkpt lat="43.7951" lon="7.07723">
        <ele>897.41070556641</ele>
        <time>2013-12-09T11:33:22Z</time>
      </trkpt>
      <trkpt lat="43.79511" lon="7.07723">
        <ele>897.57415771484</ele>
        <time>2013-12-09T11:33:25Z</time>
      </trkpt>
      <trkpt lat="43.79511" lon="7.07723">
        <ele>897.62945556641</ele>
        <time>2013-12-09T11:33:32Z</time>
      </trkpt>
      <trkpt lat="43.79511" lon="7.07724">
        <ele>897.63659667969</ele>
        <time>2013-12-09T11:33:37Z</time>
      </trkpt>
      <trkpt lat="43.79511" lon="7.07724">
        <ele>897.58197021484</ele>
        <time>2013-12-09T11:33:45Z</time>
      </trkpt>
      <trkpt lat="43.79511" lon="7.07726">
        <ele>897.59686279297</ele>
        <time>2013-12-09T11:33:57Z</time>
      </trkpt>
      <trkpt lat="43.7951" lon="7.07725">
        <ele>897.43432617188</ele>
        <time>2013-12-09T11:34:04Z</time>
      </trkpt>
      <trkpt lat="43.79509" lon="7.07725">
        <ele>897.3818359375</ele>
        <time>2013-12-09T11:34:27Z</time>
      </trkpt>
      <trkpt lat="43.79507" lon="7.07723">
        <ele>897.0234375</ele>
        <time>2013-12-09T11:35:27Z</time>
      </trkpt>
      <trkpt lat="43.79505" lon="7.07723">
        <ele>896.76995849609</ele>
        <time>2013-12-09T11:35:41Z</time>
      </trkpt>
      <trkpt lat="43.79505" lon="7.07724">
        <ele>896.78289794922</ele>
        <time>2013-12-09T11:35:51Z</time>
      </trkpt>
      <trkpt lat="43.79498" lon="7.07723">
        <ele>895.06817626953</ele>
        <time>2013-12-09T11:35:57Z</time>
      </trkpt>
      <trkpt lat="43.79492" lon="7.07721">
        <ele>892.95251464844</ele>
        <time>2013-12-09T11:36:00Z</time>
      </trkpt>
      <trkpt lat="43.79492" lon="7.0772">
        <ele>892.86828613281</ele>
        <time>2013-12-09T11:36:01Z</time>
      </trkpt>
      <trkpt lat="43.79488" lon="7.07716">
        <ele>891.36114501953</ele>
        <time>2013-12-09T11:36:05Z</time>
      </trkpt>
      <trkpt lat="43.79488" lon="7.07715">
        <ele>891.40112304688</ele>
        <time>2013-12-09T11:36:06Z</time>
      </trkpt>
      <trkpt lat="43.79486" lon="7.07708">
        <ele>891.01135253906</ele>
        <time>2013-12-09T11:36:10Z</time>
      </trkpt>
      <trkpt lat="43.79486" lon="7.07705">
        <ele>890.93255615234</ele>
        <time>2013-12-09T11:36:15Z</time>
      </trkpt>
      <trkpt lat="43.79482" lon="7.07701">
        <ele>889.35528564453</ele>
        <time>2013-12-09T11:36:21Z</time>
      </trkpt>
      <trkpt lat="43.7948" lon="7.077">
        <ele>888.52655029297</ele>
        <time>2013-12-09T11:36:23Z</time>
      </trkpt>
      <trkpt lat="43.79478" lon="7.07695">
        <ele>887.54632568359</ele>
        <time>2013-12-09T11:36:27Z</time>
      </trkpt>
      <trkpt lat="43.79477" lon="7.07689">
        <ele>888.08721923828</ele>
        <time>2013-12-09T11:36:33Z</time>
      </trkpt>
      <trkpt lat="43.79478" lon="7.07683">
        <ele>889.00946044922</ele>
        <time>2013-12-09T11:36:41Z</time>
      </trkpt>
      <trkpt lat="43.79477" lon="7.07674">
        <ele>889.93145751953</ele>
        <time>2013-12-09T11:36:47Z</time>
      </trkpt>
      <trkpt lat="43.79476" lon="7.07668">
        <ele>890.24127197266</ele>
        <time>2013-12-09T11:36:50Z</time>
      </trkpt>
      <trkpt lat="43.79473" lon="7.07665">
        <ele>889.88610839844</ele>
        <time>2013-12-09T11:36:52Z</time>
      </trkpt>
      <trkpt lat="43.79472" lon="7.07656">
        <ele>891.33044433594</ele>
        <time>2013-12-09T11:36:56Z</time>
      </trkpt>
      <trkpt lat="43.79472" lon="7.07651">
        <ele>892.32800292969</ele>
        <time>2013-12-09T11:37:02Z</time>
      </trkpt>
      <trkpt lat="43.79474" lon="7.07644">
        <ele>894.51538085938</ele>
        <time>2013-12-09T11:37:16Z</time>
      </trkpt>
      <trkpt lat="43.79473" lon="7.07637">
        <ele>895.66510009766</ele>
        <time>2013-12-09T11:37:22Z</time>
      </trkpt>
      <trkpt lat="43.79469" lon="7.07621">
        <ele>897.16522216797</ele>
        <time>2013-12-09T11:37:30Z</time>
      </trkpt>
      <trkpt lat="43.79462" lon="7.07607">
        <ele>897.41101074219</ele>
        <time>2013-12-09T11:37:37Z</time>
      </trkpt>
      <trkpt lat="43.79452" lon="7.07593">
        <ele>896.58917236328</ele>
        <time>2013-12-09T11:37:41Z</time>
      </trkpt>
      <trkpt lat="43.7944" lon="7.07582">
        <ele>895.06701660156</ele>
        <time>2013-12-09T11:37:45Z</time>
      </trkpt>
      <trkpt lat="43.79436" lon="7.07576">
        <ele>894.74554443359</ele>
        <time>2013-12-09T11:37:47Z</time>
      </trkpt>
      <trkpt lat="43.79433" lon="7.07569">
        <ele>895.22003173828</ele>
        <time>2013-12-09T11:37:49Z</time>
      </trkpt>
      <trkpt lat="43.79425" lon="7.07546">
        <ele>897.80096435547</ele>
        <time>2013-12-09T11:37:55Z</time>
      </trkpt>
      <trkpt lat="43.79417" lon="7.07526">
        <ele>900.20141601562</ele>
        <time>2013-12-09T11:38:00Z</time>
      </trkpt>
      <trkpt lat="43.79414" lon="7.0751">
        <ele>900.36346435547</ele>
        <time>2013-12-09T11:38:04Z</time>
      </trkpt>
      <trkpt lat="43.79413" lon="7.07502">
        <ele>900.61145019531</ele>
        <time>2013-12-09T11:38:09Z</time>
      </trkpt>
      <trkpt lat="43.79413" lon="7.075">
        <ele>900.62072753906</ele>
        <time>2013-12-09T11:38:10Z</time>
      </trkpt>
      <trkpt lat="43.79412" lon="7.0749">
        <ele>902.32861328125</ele>
        <time>2013-12-09T11:38:13Z</time>
      </trkpt>
      <trkpt lat="43.79415" lon="7.07479">
        <ele>905.26013183594</ele>
        <time>2013-12-09T11:38:18Z</time>
      </trkpt>
      <trkpt lat="43.79416" lon="7.07468">
        <ele>907.40087890625</ele>
        <time>2013-12-09T11:38:23Z</time>
      </trkpt>
      <trkpt lat="43.79416" lon="7.07465">
        <ele>907.79223632812</ele>
        <time>2013-12-09T11:38:24Z</time>
      </trkpt>
      <trkpt lat="43.79414" lon="7.0745">
        <ele>909.46081542969</ele>
        <time>2013-12-09T11:38:31Z</time>
      </trkpt>
      <trkpt lat="43.79413" lon="7.07444">
        <ele>909.93963623047</ele>
        <time>2013-12-09T11:38:35Z</time>
      </trkpt>
      <trkpt lat="43.79411" lon="7.07438">
        <ele>909.81689453125</ele>
        <time>2013-12-09T11:38:44Z</time>
      </trkpt>
      <trkpt lat="43.79406" lon="7.07428">
        <ele>909.6005859375</ele>
        <time>2013-12-09T11:38:51Z</time>
      </trkpt>
      <trkpt lat="43.79403" lon="7.07416">
        <ele>910.25677490234</ele>
        <time>2013-12-09T11:38:59Z</time>
      </trkpt>
      <trkpt lat="43.794" lon="7.07404">
        <ele>911.73931884766</ele>
        <time>2013-12-09T11:39:07Z</time>
      </trkpt>
      <trkpt lat="43.79395" lon="7.07394">
        <ele>912.44812011719</ele>
        <time>2013-12-09T11:39:14Z</time>
      </trkpt>
      <trkpt lat="43.79391" lon="7.07386">
        <ele>913.08703613281</ele>
        <time>2013-12-09T11:39:22Z</time>
      </trkpt>
      <trkpt lat="43.79391" lon="7.07386">
        <ele>912.94281005859</ele>
        <time>2013-12-09T11:39:29Z</time>
      </trkpt>
      <trkpt lat="43.79387" lon="7.07381">
        <ele>912.53771972656</ele>
        <time>2013-12-09T11:39:36Z</time>
      </trkpt>
      <trkpt lat="43.79374" lon="7.07373">
        <ele>910.45715332031</ele>
        <time>2013-12-09T11:39:41Z</time>
      </trkpt>
      <trkpt lat="43.79364" lon="7.07372">
        <ele>908.10192871094</ele>
        <time>2013-12-09T11:39:46Z</time>
      </trkpt>
      <trkpt lat="43.79351" lon="7.07369">
        <ele>903.47015380859</ele>
        <time>2013-12-09T11:39:52Z</time>
      </trkpt>
      <trkpt lat="43.79349" lon="7.07367">
        <ele>902.87292480469</ele>
        <time>2013-12-09T11:39:53Z</time>
      </trkpt>
      <trkpt lat="43.79345" lon="7.07363">
        <ele>901.80114746094</ele>
        <time>2013-12-09T11:39:56Z</time>
      </trkpt>
      <trkpt lat="43.79339" lon="7.07354">
        <ele>900.99139404297</ele>
        <time>2013-12-09T11:40:01Z</time>
      </trkpt>
      <trkpt lat="43.79332" lon="7.07344">
        <ele>900.30780029297</ele>
        <time>2013-12-09T11:40:09Z</time>
      </trkpt>
      <trkpt lat="43.79323" lon="7.07334">
        <ele>899.92718505859</ele>
        <time>2013-12-09T11:40:16Z</time>
      </trkpt>
      <trkpt lat="43.7932" lon="7.07332">
        <ele>899.26550292969</ele>
        <time>2013-12-09T11:40:18Z</time>
      </trkpt>
      <trkpt lat="43.79316" lon="7.07333">
        <ele>898.01416015625</ele>
        <time>2013-12-09T11:40:21Z</time>
      </trkpt>
      <trkpt lat="43.79314" lon="7.07332">
        <ele>897.64288330078</ele>
        <time>2013-12-09T11:40:28Z</time>
      </trkpt>
      <trkpt lat="43.79308" lon="7.07333">
        <ele>895.84741210938</ele>
        <time>2013-12-09T11:40:35Z</time>
      </trkpt>
      <trkpt lat="43.79306" lon="7.07332">
        <ele>895.38006591797</ele>
        <time>2013-12-09T11:40:40Z</time>
      </trkpt>
      <trkpt lat="43.79299" lon="7.07331">
        <ele>894.66772460938</ele>
        <time>2013-12-09T11:40:49Z</time>
      </trkpt>
      <trkpt lat="43.79286" lon="7.07325">
        <ele>894.12530517578</ele>
        <time>2013-12-09T11:40:55Z</time>
      </trkpt>
      <trkpt lat="43.79277" lon="7.07323">
        <ele>893.47497558594</ele>
        <time>2013-12-09T11:43:24Z</time>
      </trkpt>
      <trkpt lat="43.79263" lon="7.07319">
        <ele>892.24743652344</ele>
        <time>2013-12-09T11:43:28Z</time>
      </trkpt>
      <trkpt lat="43.79243" lon="7.07314">
        <ele>890.10479736328</ele>
        <time>2013-12-09T11:43:33Z</time>
      </trkpt>
      <trkpt lat="43.79224" lon="7.07315">
        <ele>887.19689941406</ele>
        <time>2013-12-09T11:43:37Z</time>
      </trkpt>
      <trkpt lat="43.7921" lon="7.07316">
        <ele>886.47802734375</ele>
        <time>2013-12-09T11:43:40Z</time>
      </trkpt>
      <trkpt lat="43.79205" lon="7.07316">
        <ele>886.19311523438</ele>
        <time>2013-12-09T11:43:41Z</time>
      </trkpt>
      <trkpt lat="43.79192" lon="7.07316">
        <ele>885.65942382812</ele>
        <time>2013-12-09T11:43:43Z</time>
      </trkpt>
      <trkpt lat="43.79182" lon="7.07311">
        <ele>885.53070068359</ele>
        <time>2013-12-09T11:43:45Z</time>
      </trkpt>
      <trkpt lat="43.79174" lon="7.07297">
        <ele>885.9375</ele>
        <time>2013-12-09T11:43:48Z</time>
      </trkpt>
      <trkpt lat="43.79171" lon="7.07291">
        <ele>885.95422363281</ele>
        <time>2013-12-09T11:43:50Z</time>
      </trkpt>
      <trkpt lat="43.7917" lon="7.07289">
        <ele>885.91302490234</ele>
        <time>2013-12-09T11:43:51Z</time>
      </trkpt>
      <trkpt lat="43.79167" lon="7.07283">
        <ele>885.82415771484</ele>
        <time>2013-12-09T11:43:53Z</time>
      </trkpt>
      <trkpt lat="43.79157" lon="7.07264">
        <ele>886.24719238281</ele>
        <time>2013-12-09T11:43:59Z</time>
      </trkpt>
      <trkpt lat="43.79148" lon="7.07246">
        <ele>886.65167236328</ele>
        <time>2013-12-09T11:44:05Z</time>
      </trkpt>
      <trkpt lat="43.79138" lon="7.07226">
        <ele>887.46728515625</ele>
        <time>2013-12-09T11:44:12Z</time>
      </trkpt>
      <trkpt lat="43.79123" lon="7.07202">
        <ele>886.38092041016</ele>
        <time>2013-12-09T11:44:21Z</time>
      </trkpt>
      <trkpt lat="43.7911" lon="7.07185">
        <ele>885.486328125</ele>
        <time>2013-12-09T11:44:28Z</time>
      </trkpt>
      <trkpt lat="43.79092" lon="7.07166">
        <ele>884.34747314453</ele>
        <time>2013-12-09T11:44:36Z</time>
      </trkpt>
      <trkpt lat="43.79071" lon="7.07138">
        <ele>883.19329833984</ele>
        <time>2013-12-09T11:44:45Z</time>
      </trkpt>
      <trkpt lat="43.79062" lon="7.07121">
        <ele>882.62170410156</ele>
        <time>2013-12-09T11:44:50Z</time>
      </trkpt>
      <trkpt lat="43.79046" lon="7.071">
        <ele>882.13610839844</ele>
        <time>2013-12-09T11:44:57Z</time>
      </trkpt>
      <trkpt lat="43.79027" lon="7.07077">
        <ele>882.39141845703</ele>
        <time>2013-12-09T11:45:05Z</time>
      </trkpt>
      <trkpt lat="43.79025" lon="7.07059">
        <ele>883.65747070312</ele>
        <time>2013-12-09T11:45:09Z</time>
      </trkpt>
      <trkpt lat="43.79022" lon="7.07045">
        <ele>884.57476806641</ele>
        <time>2013-12-09T11:45:13Z</time>
      </trkpt>
      <trkpt lat="43.79015" lon="7.07039">
        <ele>884.75329589844</ele>
        <time>2013-12-09T11:45:17Z</time>
      </trkpt>
      <trkpt lat="43.79007" lon="7.07038">
        <ele>884.49926757812</ele>
        <time>2013-12-09T11:45:21Z</time>
      </trkpt>
      <trkpt lat="43.79002" lon="7.0704">
        <ele>884.2314453125</ele>
        <time>2013-12-09T11:45:23Z</time>
      </trkpt>
      <trkpt lat="43.79" lon="7.07042">
        <ele>883.98425292969</ele>
        <time>2013-12-09T11:45:25Z</time>
      </trkpt>
      <trkpt lat="43.78998" lon="7.07045">
        <ele>883.88494873047</ele>
        <time>2013-12-09T11:45:27Z</time>
      </trkpt>
      <trkpt lat="43.78991" lon="7.07044">
        <ele>884.55694580078</ele>
        <time>2013-12-09T11:45:32Z</time>
      </trkpt>
      <trkpt lat="43.78989" lon="7.07036">
        <ele>885.4990234375</ele>
        <time>2013-12-09T11:45:36Z</time>
      </trkpt>
      <trkpt lat="43.78987" lon="7.0703">
        <ele>886.15057373047</ele>
        <time>2013-12-09T11:45:39Z</time>
      </trkpt>
      <trkpt lat="43.78984" lon="7.07023">
        <ele>887.27758789062</ele>
        <time>2013-12-09T11:45:43Z</time>
      </trkpt>
      <trkpt lat="43.78983" lon="7.07022">
        <ele>887.49389648438</ele>
        <time>2013-12-09T11:45:44Z</time>
      </trkpt>
      <trkpt lat="43.78979" lon="7.07019">
        <ele>888.18908691406</ele>
        <time>2013-12-09T11:45:47Z</time>
      </trkpt>
      <trkpt lat="43.78975" lon="7.07011">
        <ele>889.51263427734</ele>
        <time>2013-12-09T11:45:53Z</time>
      </trkpt>
      <trkpt lat="43.78976" lon="7.07009">
        <ele>889.65679931641</ele>
        <time>2013-12-09T11:45:54Z</time>
      </trkpt>
      <trkpt lat="43.78977" lon="7.07001">
        <ele>890.3623046875</ele>
        <time>2013-12-09T11:45:59Z</time>
      </trkpt>
      <trkpt lat="43.78978" lon="7.07">
        <ele>890.40356445312</ele>
        <time>2013-12-09T11:46:00Z</time>
      </trkpt>
      <trkpt lat="43.78979" lon="7.06993">
        <ele>891.19348144531</ele>
        <time>2013-12-09T11:46:05Z</time>
      </trkpt>
      <trkpt lat="43.78978" lon="7.06985">
        <ele>892.36981201172</ele>
        <time>2013-12-09T11:46:12Z</time>
      </trkpt>
      <trkpt lat="43.78977" lon="7.06981">
        <ele>893.08764648438</ele>
        <time>2013-12-09T11:46:17Z</time>
      </trkpt>
      <trkpt lat="43.78975" lon="7.06985">
        <ele>892.91973876953</ele>
        <time>2013-12-09T11:46:23Z</time>
      </trkpt>
      <trkpt lat="43.7897" lon="7.06983">
        <ele>893.88275146484</ele>
        <time>2013-12-09T11:46:31Z</time>
      </trkpt>
      <trkpt lat="43.78971" lon="7.06978">
        <ele>894.5625</ele>
        <time>2013-12-09T11:46:37Z</time>
      </trkpt>
      <trkpt lat="43.78968" lon="7.06972">
        <ele>896.07202148438</ele>
        <time>2013-12-09T11:46:45Z</time>
      </trkpt>
      <trkpt lat="43.78962" lon="7.06969">
        <ele>897.94317626953</ele>
        <time>2013-12-09T11:46:55Z</time>
      </trkpt>
      <trkpt lat="43.78957" lon="7.06973">
        <ele>898.65490722656</ele>
        <time>2013-12-09T11:47:02Z</time>
      </trkpt>
      <trkpt lat="43.78955" lon="7.06973">
        <ele>899.15618896484</ele>
        <time>2013-12-09T11:47:08Z</time>
      </trkpt>
      <trkpt lat="43.78955" lon="7.06972">
        <ele>899.38745117188</ele>
        <time>2013-12-09T11:47:17Z</time>
      </trkpt>
      <trkpt lat="43.78949" lon="7.0697">
        <ele>901.03826904297</ele>
        <time>2013-12-09T11:47:24Z</time>
      </trkpt>
      <trkpt lat="43.78944" lon="7.06967">
        <ele>903.05114746094</ele>
        <time>2013-12-09T11:47:29Z</time>
      </trkpt>
      <trkpt lat="43.78935" lon="7.06963">
        <ele>906.01745605469</ele>
        <time>2013-12-09T11:47:35Z</time>
      </trkpt>
      <trkpt lat="43.78931" lon="7.06959">
        <ele>907.68603515625</ele>
        <time>2013-12-09T11:47:39Z</time>
      </trkpt>
      <trkpt lat="43.78931" lon="7.06958">
        <ele>907.94696044922</ele>
        <time>2013-12-09T11:47:41Z</time>
      </trkpt>
      <trkpt lat="43.78927" lon="7.06959">
        <ele>908.94946289062</ele>
        <time>2013-12-09T11:47:46Z</time>
      </trkpt>
      <trkpt lat="43.78925" lon="7.06959">
        <ele>909.3408203125</ele>
        <time>2013-12-09T11:47:47Z</time>
      </trkpt>
      <trkpt lat="43.78923" lon="7.06959">
        <ele>910.01379394531</ele>
        <time>2013-12-09T11:47:51Z</time>
      </trkpt>
      <trkpt lat="43.78921" lon="7.06956">
        <ele>911.05059814453</ele>
        <time>2013-12-09T11:48:01Z</time>
      </trkpt>
      <trkpt lat="43.78917" lon="7.06952">
        <ele>912.8564453125</ele>
        <time>2013-12-09T11:48:06Z</time>
      </trkpt>
      <trkpt lat="43.78916" lon="7.0695">
        <ele>913.19207763672</ele>
        <time>2013-12-09T11:48:07Z</time>
      </trkpt>
      <trkpt lat="43.78911" lon="7.06951">
        <ele>913.56530761719</ele>
        <time>2013-12-09T11:48:11Z</time>
      </trkpt>
      <trkpt lat="43.78904" lon="7.0695">
        <ele>914.23748779297</ele>
        <time>2013-12-09T11:48:17Z</time>
      </trkpt>
      <trkpt lat="43.78904" lon="7.06952">
        <ele>913.88952636719</ele>
        <time>2013-12-09T11:48:22Z</time>
      </trkpt>
      <trkpt lat="43.78905" lon="7.06952">
        <ele>913.82757568359</ele>
        <time>2013-12-09T11:48:23Z</time>
      </trkpt>
      <trkpt lat="43.78906" lon="7.06952">
        <ele>913.77044677734</ele>
        <time>2013-12-09T11:48:24Z</time>
      </trkpt>
      <trkpt lat="43.78906" lon="7.06951">
        <ele>913.88824462891</ele>
        <time>2013-12-09T11:48:27Z</time>
      </trkpt>
      <trkpt lat="43.78909" lon="7.0695">
        <ele>913.80291748047</ele>
        <time>2013-12-09T11:48:37Z</time>
      </trkpt>
      <trkpt lat="43.78912" lon="7.06949">
        <ele>913.69421386719</ele>
        <time>2013-12-09T11:48:38Z</time>
      </trkpt>
      <trkpt lat="43.78917" lon="7.06945">
        <ele>913.8681640625</ele>
        <time>2013-12-09T11:48:42Z</time>
      </trkpt>
      <trkpt lat="43.78919" lon="7.06944">
        <ele>913.41455078125</ele>
        <time>2013-12-09T11:48:46Z</time>
      </trkpt>
      <trkpt lat="43.78917" lon="7.06937">
        <ele>915.67004394531</ele>
        <time>2013-12-09T11:48:51Z</time>
      </trkpt>
      <trkpt lat="43.78916" lon="7.06935">
        <ele>916.02569580078</ele>
        <time>2013-12-09T11:48:52Z</time>
      </trkpt>
      <trkpt lat="43.78913" lon="7.06928">
        <ele>917.57611083984</ele>
        <time>2013-12-09T11:48:57Z</time>
      </trkpt>
      <trkpt lat="43.78909" lon="7.0692">
        <ele>919.31811523438</ele>
        <time>2013-12-09T11:49:03Z</time>
      </trkpt>
      <trkpt lat="43.78905" lon="7.06914">
        <ele>920.21740722656</ele>
        <time>2013-12-09T11:49:08Z</time>
      </trkpt>
      <trkpt lat="43.78904" lon="7.06911">
        <ele>920.47326660156</ele>
        <time>2013-12-09T11:49:10Z</time>
      </trkpt>
      <trkpt lat="43.78902" lon="7.06904">
        <ele>921.08966064453</ele>
        <time>2013-12-09T11:49:15Z</time>
      </trkpt>
      <trkpt lat="43.78899" lon="7.06899">
        <ele>921.498046875</ele>
        <time>2013-12-09T11:49:19Z</time>
      </trkpt>
      <trkpt lat="43.78898" lon="7.06896">
        <ele>921.70477294922</ele>
        <time>2013-12-09T11:49:21Z</time>
      </trkpt>
      <trkpt lat="43.78895" lon="7.06889">
        <ele>922.23767089844</ele>
        <time>2013-12-09T11:49:28Z</time>
      </trkpt>
      <trkpt lat="43.78891" lon="7.06882">
        <ele>922.77398681641</ele>
        <time>2013-12-09T11:49:36Z</time>
      </trkpt>
      <trkpt lat="43.78886" lon="7.06877">
        <ele>922.92926025391</ele>
        <time>2013-12-09T11:49:42Z</time>
      </trkpt>
      <trkpt lat="43.78884" lon="7.06876">
        <ele>922.81329345703</ele>
        <time>2013-12-09T11:49:45Z</time>
      </trkpt>
      <trkpt lat="43.78882" lon="7.06874">
        <ele>922.68768310547</ele>
        <time>2013-12-09T11:49:49Z</time>
      </trkpt>
      <trkpt lat="43.78877" lon="7.06866">
        <ele>922.86407470703</ele>
        <time>2013-12-09T11:50:03Z</time>
      </trkpt>
      <trkpt lat="43.78872" lon="7.06859">
        <ele>922.67498779297</ele>
        <time>2013-12-09T11:50:08Z</time>
      </trkpt>
      <trkpt lat="43.78864" lon="7.06849">
        <ele>921.91589355469</ele>
        <time>2013-12-09T11:50:15Z</time>
      </trkpt>
      <trkpt lat="43.78855" lon="7.06837">
        <ele>918.22888183594</ele>
        <time>2013-12-09T11:50:22Z</time>
      </trkpt>
      <trkpt lat="43.78844" lon="7.06824">
        <ele>912.66387939453</ele>
        <time>2013-12-09T11:50:30Z</time>
      </trkpt>
      <trkpt lat="43.78836" lon="7.06813">
        <ele>908.38726806641</ele>
        <time>2013-12-09T11:50:36Z</time>
      </trkpt>
      <trkpt lat="43.78834" lon="7.06807">
        <ele>907.46026611328</ele>
        <time>2013-12-09T11:50:38Z</time>
      </trkpt>
      <trkpt lat="43.78835" lon="7.06804">
        <ele>908.02868652344</ele>
        <time>2013-12-09T11:50:40Z</time>
      </trkpt>
      <trkpt lat="43.78836" lon="7.06799">
        <ele>908.64025878906</ele>
        <time>2013-12-09T11:50:44Z</time>
      </trkpt>
      <trkpt lat="43.78835" lon="7.06798">
        <ele>908.4208984375</ele>
        <time>2013-12-09T11:50:46Z</time>
      </trkpt>
      <trkpt lat="43.78834" lon="7.06797">
        <ele>907.78845214844</ele>
        <time>2013-12-09T11:51:03Z</time>
      </trkpt>
      <trkpt lat="43.78833" lon="7.06785">
        <ele>907.60858154297</ele>
        <time>2013-12-09T11:53:09Z</time>
      </trkpt>
      <trkpt lat="43.78837" lon="7.06772">
        <ele>909.95343017578</ele>
        <time>2013-12-09T11:53:15Z</time>
      </trkpt>
      <trkpt lat="43.78846" lon="7.06768">
        <ele>914.18353271484</ele>
        <time>2013-12-09T11:53:21Z</time>
      </trkpt>
      <trkpt lat="43.78851" lon="7.06767">
        <ele>916.49322509766</ele>
        <time>2013-12-09T11:53:25Z</time>
      </trkpt>
      <trkpt lat="43.78854" lon="7.06766">
        <ele>917.34857177734</ele>
        <time>2013-12-09T11:53:27Z</time>
      </trkpt>
      <trkpt lat="43.78859" lon="7.06759">
        <ele>918.9267578125</ele>
        <time>2013-12-09T11:53:32Z</time>
      </trkpt>
      <trkpt lat="43.7886" lon="7.06758">
        <ele>918.83447265625</ele>
        <time>2013-12-09T11:53:33Z</time>
      </trkpt>
      <trkpt lat="43.7886" lon="7.06744">
        <ele>917.77545166016</ele>
        <time>2013-12-09T11:53:40Z</time>
      </trkpt>
      <trkpt lat="43.7886" lon="7.06742">
        <ele>917.64367675781</ele>
        <time>2013-12-09T11:53:41Z</time>
      </trkpt>
      <trkpt lat="43.7886" lon="7.0674">
        <ele>917.51477050781</ele>
        <time>2013-12-09T11:53:44Z</time>
      </trkpt>
      <trkpt lat="43.78859" lon="7.06737">
        <ele>917.12646484375</ele>
        <time>2013-12-09T11:53:46Z</time>
      </trkpt>
      <trkpt lat="43.78859" lon="7.0673">
        <ele>917.27648925781</ele>
        <time>2013-12-09T11:53:51Z</time>
      </trkpt>
      <trkpt lat="43.78861" lon="7.06717">
        <ele>918.2919921875</ele>
        <time>2013-12-09T11:54:01Z</time>
      </trkpt>
      <trkpt lat="43.78863" lon="7.06705">
        <ele>920.72778320312</ele>
        <time>2013-12-09T11:54:11Z</time>
      </trkpt>
      <trkpt lat="43.78867" lon="7.06697">
        <ele>924.3017578125</ele>
        <time>2013-12-09T11:54:19Z</time>
      </trkpt>
      <trkpt lat="43.78872" lon="7.06692">
        <ele>928.21081542969</ele>
        <time>2013-12-09T11:54:27Z</time>
      </trkpt>
      <trkpt lat="43.78873" lon="7.06691">
        <ele>928.53851318359</ele>
        <time>2013-12-09T11:54:54Z</time>
      </trkpt>
      <trkpt lat="43.78948" lon="7.06342">
        <ele>965.03887939453</ele>
        <time>2013-12-09T12:29:55Z</time>
      </trkpt>
      <trkpt lat="43.78949" lon="7.06337">
        <ele>965.36328125</ele>
        <time>2013-12-09T12:29:58Z</time>
      </trkpt>
      <trkpt lat="43.78949" lon="7.06335">
        <ele>965.46801757812</ele>
        <time>2013-12-09T12:29:59Z</time>
      </trkpt>
      <trkpt lat="43.78951" lon="7.06323">
        <ele>966.84173583984</ele>
        <time>2013-12-09T12:30:06Z</time>
      </trkpt>
      <trkpt lat="43.78953" lon="7.0631">
        <ele>968.41760253906</ele>
        <time>2013-12-09T12:30:13Z</time>
      </trkpt>
      <trkpt lat="43.78959" lon="7.06297">
        <ele>970.26391601562</ele>
        <time>2013-12-09T12:30:21Z</time>
      </trkpt>
      <trkpt lat="43.78963" lon="7.06286">
        <ele>971.88946533203</ele>
        <time>2013-12-09T12:30:27Z</time>
      </trkpt>
      <trkpt lat="43.78968" lon="7.06274">
        <ele>973.52685546875</ele>
        <time>2013-12-09T12:30:35Z</time>
      </trkpt>
      <trkpt lat="43.78975" lon="7.06264">
        <ele>975.11730957031</ele>
        <time>2013-12-09T12:30:43Z</time>
      </trkpt>
      <trkpt lat="43.78975" lon="7.06262">
        <ele>975.28082275391</ele>
        <time>2013-12-09T12:30:45Z</time>
      </trkpt>
      <trkpt lat="43.78976" lon="7.06258">
        <ele>975.54644775391</ele>
        <time>2013-12-09T12:30:48Z</time>
      </trkpt>
      <trkpt lat="43.78975" lon="7.06257">
        <ele>975.50579833984</ele>
        <time>2013-12-09T12:30:49Z</time>
      </trkpt>
      <trkpt lat="43.78968" lon="7.06245">
        <ele>974.98962402344</ele>
        <time>2013-12-09T12:30:53Z</time>
      </trkpt>
      <trkpt lat="43.78969" lon="7.06235">
        <ele>976.10412597656</ele>
        <time>2013-12-09T12:30:57Z</time>
      </trkpt>
      <trkpt lat="43.78971" lon="7.06218">
        <ele>978.05700683594</ele>
        <time>2013-12-09T12:31:05Z</time>
      </trkpt>
      <trkpt lat="43.78973" lon="7.06196">
        <ele>980.03637695312</ele>
        <time>2013-12-09T12:31:13Z</time>
      </trkpt>
      <trkpt lat="43.78967" lon="7.06176">
        <ele>980.40881347656</ele>
        <time>2013-12-09T12:31:21Z</time>
      </trkpt>
      <trkpt lat="43.78967" lon="7.06165">
        <ele>981.15808105469</ele>
        <time>2013-12-09T12:31:27Z</time>
      </trkpt>
      <trkpt lat="43.78967" lon="7.06161">
        <ele>981.49395751953</ele>
        <time>2013-12-09T12:31:30Z</time>
      </trkpt>
      <trkpt lat="43.78967" lon="7.06157">
        <ele>981.95928955078</ele>
        <time>2013-12-09T12:31:32Z</time>
      </trkpt>
      <trkpt lat="43.78962" lon="7.0615">
        <ele>981.67291259766</ele>
        <time>2013-12-09T12:31:36Z</time>
      </trkpt>
      <trkpt lat="43.78952" lon="7.0614">
        <ele>980.65661621094</ele>
        <time>2013-12-09T12:31:42Z</time>
      </trkpt>
      <trkpt lat="43.78943" lon="7.06126">
        <ele>978.96075439453</ele>
        <time>2013-12-09T12:31:50Z</time>
      </trkpt>
      <trkpt lat="43.78935" lon="7.06114">
        <ele>977.17919921875</ele>
        <time>2013-12-09T12:31:57Z</time>
      </trkpt>
      <trkpt lat="43.78931" lon="7.06106">
        <ele>977.05865478516</ele>
        <time>2013-12-09T12:32:03Z</time>
      </trkpt>
      <trkpt lat="43.78927" lon="7.06095">
        <ele>977.61535644531</ele>
        <time>2013-12-09T12:32:10Z</time>
      </trkpt>
      <trkpt lat="43.78925" lon="7.06089">
        <ele>978.26202392578</ele>
        <time>2013-12-09T12:32:14Z</time>
      </trkpt>
      <trkpt lat="43.78923" lon="7.06085">
        <ele>978.40484619141</ele>
        <time>2013-12-09T12:32:16Z</time>
      </trkpt>
      <trkpt lat="43.78922" lon="7.06082">
        <ele>978.56866455078</ele>
        <time>2013-12-09T12:32:18Z</time>
      </trkpt>
      <trkpt lat="43.78914" lon="7.06069">
        <ele>978.14361572266</ele>
        <time>2013-12-09T12:32:26Z</time>
      </trkpt>
      <trkpt lat="43.7891" lon="7.06059">
        <ele>978.12329101562</ele>
        <time>2013-12-09T12:32:33Z</time>
      </trkpt>
      <trkpt lat="43.78905" lon="7.06049">
        <ele>977.06451416016</ele>
        <time>2013-12-09T12:32:40Z</time>
      </trkpt>
      <trkpt lat="43.78904" lon="7.06047">
        <ele>976.55981445312</ele>
        <time>2013-12-09T12:32:41Z</time>
      </trkpt>
      <trkpt lat="43.78899" lon="7.06037">
        <ele>975.45776367188</ele>
        <time>2013-12-09T12:32:46Z</time>
      </trkpt>
      <trkpt lat="43.78894" lon="7.06023">
        <ele>974.37322998047</ele>
        <time>2013-12-09T12:32:51Z</time>
      </trkpt>
      <trkpt lat="43.78894" lon="7.06">
        <ele>975.75274658203</ele>
        <time>2013-12-09T12:32:57Z</time>
      </trkpt>
      <trkpt lat="43.78896" lon="7.05977">
        <ele>978.40533447266</ele>
        <time>2013-12-09T12:33:01Z</time>
      </trkpt>
      <trkpt lat="43.78902" lon="7.05953">
        <ele>980.76245117188</ele>
        <time>2013-12-09T12:33:05Z</time>
      </trkpt>
      <trkpt lat="43.78904" lon="7.0594">
        <ele>980.80737304688</ele>
        <time>2013-12-09T12:33:08Z</time>
      </trkpt>
      <trkpt lat="43.78903" lon="7.05937">
        <ele>980.16882324219</ele>
        <time>2013-12-09T12:33:09Z</time>
      </trkpt>
      <trkpt lat="43.789" lon="7.05912">
        <ele>977.09387207031</ele>
        <time>2013-12-09T12:33:14Z</time>
      </trkpt>
      <trkpt lat="43.78899" lon="7.05894">
        <ele>975.78100585938</ele>
        <time>2013-12-09T12:33:19Z</time>
      </trkpt>
      <trkpt lat="43.78897" lon="7.0589">
        <ele>975.13531494141</ele>
        <time>2013-12-09T12:33:22Z</time>
      </trkpt>
      <trkpt lat="43.78899" lon="7.05886">
        <ele>975.33746337891</ele>
        <time>2013-12-09T12:33:25Z</time>
      </trkpt>
      <trkpt lat="43.78899" lon="7.05878">
        <ele>975.16754150391</ele>
        <time>2013-12-09T12:33:30Z</time>
      </trkpt>
      <trkpt lat="43.78899" lon="7.05877">
        <ele>975.12805175781</ele>
        <time>2013-12-09T12:33:31Z</time>
      </trkpt>
      <trkpt lat="43.789" lon="7.05875">
        <ele>975.24816894531</ele>
        <time>2013-12-09T12:33:33Z</time>
      </trkpt>
      <trkpt lat="43.789" lon="7.05871">
        <ele>975.20703125</ele>
        <time>2013-12-09T12:33:36Z</time>
      </trkpt>
      <trkpt lat="43.78901" lon="7.0587">
        <ele>975.26879882812</ele>
        <time>2013-12-09T12:33:37Z</time>
      </trkpt>
      <trkpt lat="43.78902" lon="7.05867">
        <ele>975.43701171875</ele>
        <time>2013-12-09T12:33:40Z</time>
      </trkpt>
      <trkpt lat="43.78903" lon="7.05864">
        <ele>975.703125</ele>
        <time>2013-12-09T12:33:43Z</time>
      </trkpt>
      <trkpt lat="43.78903" lon="7.05859">
        <ele>975.41424560547</ele>
        <time>2013-12-09T12:33:46Z</time>
      </trkpt>
      <trkpt lat="43.78905" lon="7.05847">
        <ele>974.87445068359</ele>
        <time>2013-12-09T12:33:52Z</time>
      </trkpt>
      <trkpt lat="43.78907" lon="7.05842">
        <ele>974.65289306641</ele>
        <time>2013-12-09T12:33:55Z</time>
      </trkpt>
      <trkpt lat="43.78907" lon="7.05836">
        <ele>974.12939453125</ele>
        <time>2013-12-09T12:33:58Z</time>
      </trkpt>
      <trkpt lat="43.78913" lon="7.05814">
        <ele>973.08636474609</ele>
        <time>2013-12-09T12:34:06Z</time>
      </trkpt>
      <trkpt lat="43.78925" lon="7.05801">
        <ele>975.09265136719</ele>
        <time>2013-12-09T12:34:09Z</time>
      </trkpt>
      <trkpt lat="43.78931" lon="7.05795">
        <ele>976.74743652344</ele>
        <time>2013-12-09T12:34:12Z</time>
      </trkpt>
      <trkpt lat="43.78935" lon="7.05791">
        <ele>977.8203125</ele>
        <time>2013-12-09T12:34:17Z</time>
      </trkpt>
      <trkpt lat="43.78936" lon="7.05789">
        <ele>977.86499023438</ele>
        <time>2013-12-09T12:34:19Z</time>
      </trkpt>
      <trkpt lat="43.78937" lon="7.05787">
        <ele>978.12072753906</ele>
        <time>2013-12-09T12:34:22Z</time>
      </trkpt>
      <trkpt lat="43.78936" lon="7.05777">
        <ele>977.35241699219</ele>
        <time>2013-12-09T12:34:31Z</time>
      </trkpt>
      <trkpt lat="43.78935" lon="7.05768">
        <ele>976.25378417969</ele>
        <time>2013-12-09T12:34:36Z</time>
      </trkpt>
      <trkpt lat="43.78934" lon="7.05767">
        <ele>975.92596435547</ele>
        <time>2013-12-09T12:34:41Z</time>
      </trkpt>
      <trkpt lat="43.78934" lon="7.05764">
        <ele>975.59637451172</ele>
        <time>2013-12-09T12:34:43Z</time>
      </trkpt>
      <trkpt lat="43.78935" lon="7.05762">
        <ele>975.54656982422</ele>
        <time>2013-12-09T12:34:45Z</time>
      </trkpt>
      <trkpt lat="43.78934" lon="7.05753">
        <ele>974.18701171875</ele>
        <time>2013-12-09T12:34:51Z</time>
      </trkpt>
      <trkpt lat="43.78937" lon="7.05731">
        <ele>972.40814208984</ele>
        <time>2013-12-09T12:34:56Z</time>
      </trkpt>
      <trkpt lat="43.78941" lon="7.05721">
        <ele>971.96063232422</ele>
        <time>2013-12-09T12:35:01Z</time>
      </trkpt>
      <trkpt lat="43.7894" lon="7.0572">
        <ele>971.78570556641</ele>
        <time>2013-12-09T12:35:02Z</time>
      </trkpt>
      <trkpt lat="43.78942" lon="7.0571">
        <ele>971.48999023438</ele>
        <time>2013-12-09T12:35:05Z</time>
      </trkpt>
      <trkpt lat="43.78936" lon="7.05704">
        <ele>969.69488525391</ele>
        <time>2013-12-09T12:35:08Z</time>
      </trkpt>
      <trkpt lat="43.78933" lon="7.05699">
        <ele>968.68603515625</ele>
        <time>2013-12-09T12:35:11Z</time>
      </trkpt>
      <trkpt lat="43.78932" lon="7.05698">
        <ele>968.47711181641</ele>
        <time>2013-12-09T12:35:12Z</time>
      </trkpt>
      <trkpt lat="43.78932" lon="7.05699">
        <ele>968.59613037109</ele>
        <time>2013-12-09T12:35:16Z</time>
      </trkpt>
      <trkpt lat="43.78933" lon="7.05688">
        <ele>967.61267089844</ele>
        <time>2013-12-09T12:36:16Z</time>
      </trkpt>
      <trkpt lat="43.78941" lon="7.05661">
        <ele>965.9765625</ele>
        <time>2013-12-09T12:36:21Z</time>
      </trkpt>
      <trkpt lat="43.78949" lon="7.05627">
        <ele>962.44689941406</ele>
        <time>2013-12-09T12:36:26Z</time>
      </trkpt>
      <trkpt lat="43.78957" lon="7.05596">
        <ele>956.37933349609</ele>
        <time>2013-12-09T12:36:30Z</time>
      </trkpt>
      <trkpt lat="43.7896" lon="7.0559">
        <ele>954.69488525391</ele>
        <time>2013-12-09T12:36:31Z</time>
      </trkpt>
      <trkpt lat="43.78965" lon="7.05563">
        <ele>950.88623046875</ele>
        <time>2013-12-09T12:36:34Z</time>
      </trkpt>
      <trkpt lat="43.78965" lon="7.05525">
        <ele>945.69024658203</ele>
        <time>2013-12-09T12:36:38Z</time>
      </trkpt>
      <trkpt lat="43.78961" lon="7.05501">
        <ele>942.46557617188</ele>
        <time>2013-12-09T12:36:41Z</time>
      </trkpt>
      <trkpt lat="43.78957" lon="7.05488">
        <ele>941.7255859375</ele>
        <time>2013-12-09T12:36:43Z</time>
      </trkpt>
      <trkpt lat="43.78958" lon="7.05474">
        <ele>940.62896728516</ele>
        <time>2013-12-09T12:36:45Z</time>
      </trkpt>
      <trkpt lat="43.78958" lon="7.05459">
        <ele>940.04193115234</ele>
        <time>2013-12-09T12:36:47Z</time>
      </trkpt>
      <trkpt lat="43.78959" lon="7.05439">
        <ele>939.52014160156</ele>
        <time>2013-12-09T12:36:50Z</time>
      </trkpt>
      <trkpt lat="43.78959" lon="7.05433">
        <ele>939.50640869141</ele>
        <time>2013-12-09T12:36:51Z</time>
      </trkpt>
      <trkpt lat="43.78957" lon="7.05425">
        <ele>939.46520996094</ele>
        <time>2013-12-09T12:36:53Z</time>
      </trkpt>
      <trkpt lat="43.78957" lon="7.05421">
        <ele>939.43774414062</ele>
        <time>2013-12-09T12:36:54Z</time>
      </trkpt>
      <trkpt lat="43.78957" lon="7.05419">
        <ele>939.46520996094</ele>
        <time>2013-12-09T12:36:55Z</time>
      </trkpt>
      <trkpt lat="43.7896" lon="7.05417">
        <ele>939.57507324219</ele>
        <time>2013-12-09T12:36:57Z</time>
      </trkpt>
      <trkpt lat="43.78968" lon="7.05414">
        <ele>939.76605224609</ele>
        <time>2013-12-09T12:37:02Z</time>
      </trkpt>
      <trkpt lat="43.78969" lon="7.05413">
        <ele>939.74377441406</ele>
        <time>2013-12-09T12:37:03Z</time>
      </trkpt>
      <trkpt lat="43.78967" lon="7.05409">
        <ele>939.5498046875</ele>
        <time>2013-12-09T12:37:06Z</time>
      </trkpt>
      <trkpt lat="43.78964" lon="7.05402">
        <ele>939.19616699219</ele>
        <time>2013-12-09T12:37:09Z</time>
      </trkpt>
      <trkpt lat="43.78966" lon="7.05401">
        <ele>939.20300292969</ele>
        <time>2013-12-09T12:37:10Z</time>
      </trkpt>
      <trkpt lat="43.78972" lon="7.05404">
        <ele>939.51373291016</ele>
        <time>2013-12-09T12:37:13Z</time>
      </trkpt>
      <trkpt lat="43.78975" lon="7.05398">
        <ele>939.33270263672</ele>
        <time>2013-12-09T12:37:17Z</time>
      </trkpt>
      <trkpt lat="43.78976" lon="7.05387">
        <ele>938.93658447266</ele>
        <time>2013-12-09T12:37:21Z</time>
      </trkpt>
      <trkpt lat="43.78982" lon="7.05377">
        <ele>938.71942138672</ele>
        <time>2013-12-09T12:37:25Z</time>
      </trkpt>
      <trkpt lat="43.78986" lon="7.05372">
        <ele>938.69738769531</ele>
        <time>2013-12-09T12:37:29Z</time>
      </trkpt>
      <trkpt lat="43.78989" lon="7.05372">
        <ele>938.76885986328</ele>
        <time>2013-12-09T12:37:35Z</time>
      </trkpt>
      <trkpt lat="43.78991" lon="7.05369">
        <ele>938.75238037109</ele>
        <time>2013-12-09T12:37:39Z</time>
      </trkpt>
      <trkpt lat="43.78991" lon="7.05369">
        <ele>938.76184082031</ele>
        <time>2013-12-09T12:37:40Z</time>
      </trkpt>
      <trkpt lat="43.78995" lon="7.0536">
        <ele>938.82476806641</ele>
        <time>2013-12-09T12:37:46Z</time>
      </trkpt>
      <trkpt lat="43.79003" lon="7.05355">
        <ele>939.09942626953</ele>
        <time>2013-12-09T12:37:51Z</time>
      </trkpt>
      <trkpt lat="43.79008" lon="7.05348">
        <ele>939.30541992188</ele>
        <time>2013-12-09T12:37:56Z</time>
      </trkpt>
      <trkpt lat="43.79012" lon="7.05348">
        <ele>939.41528320312</ele>
        <time>2013-12-09T12:37:58Z</time>
      </trkpt>
      <trkpt lat="43.79015" lon="7.05349">
        <ele>939.55261230469</ele>
        <time>2013-12-09T12:38:01Z</time>
      </trkpt>
      <trkpt lat="43.79019" lon="7.05343">
        <ele>939.68994140625</ele>
        <time>2013-12-09T12:38:05Z</time>
      </trkpt>
      <trkpt lat="43.7902" lon="7.05342">
        <ele>939.73114013672</ele>
        <time>2013-12-09T12:38:06Z</time>
      </trkpt>
      <trkpt lat="43.79025" lon="7.05337">
        <ele>939.90966796875</ele>
        <time>2013-12-09T12:38:10Z</time>
      </trkpt>
      <trkpt lat="43.79027" lon="7.05334">
        <ele>939.97833251953</ele>
        <time>2013-12-09T12:38:12Z</time>
      </trkpt>
      <trkpt lat="43.79026" lon="7.05327">
        <ele>939.93713378906</ele>
        <time>2013-12-09T12:38:18Z</time>
      </trkpt>
      <trkpt lat="43.79026" lon="7.05338">
        <ele>939.93713378906</ele>
        <time>2013-12-09T12:38:22Z</time>
      </trkpt>
      <trkpt lat="43.79019" lon="7.05341">
        <ele>939.67620849609</ele>
        <time>2013-12-09T12:38:26Z</time>
      </trkpt>
      <trkpt lat="43.79018" lon="7.05342">
        <ele>939.66247558594</ele>
        <time>2013-12-09T12:38:27Z</time>
      </trkpt>
      <trkpt lat="43.79016" lon="7.05347">
        <ele>939.59381103516</ele>
        <time>2013-12-09T12:38:30Z</time>
      </trkpt>
      <trkpt lat="43.79017" lon="7.05346">
        <ele>939.62127685547</ele>
        <time>2013-12-09T12:38:34Z</time>
      </trkpt>
      <trkpt lat="43.79018" lon="7.05346">
        <ele>939.64874267578</ele>
        <time>2013-12-09T12:38:45Z</time>
      </trkpt>
      <trkpt lat="43.79021" lon="7.05338">
        <ele>939.77233886719</ele>
        <time>2013-12-09T12:38:53Z</time>
      </trkpt>
      <trkpt lat="43.79028" lon="7.0533">
        <ele>939.99206542969</ele>
        <time>2013-12-09T12:38:58Z</time>
      </trkpt>
      <trkpt lat="43.7903" lon="7.05326">
        <ele>940.46447753906</ele>
        <time>2013-12-09T12:39:00Z</time>
      </trkpt>
      <trkpt lat="43.79032" lon="7.05312">
        <ele>940.90197753906</ele>
        <time>2013-12-09T12:39:05Z</time>
      </trkpt>
      <trkpt lat="43.79036" lon="7.05291">
        <ele>942.08184814453</ele>
        <time>2013-12-09T12:39:13Z</time>
      </trkpt>
      <trkpt lat="43.79038" lon="7.05275">
        <ele>942.96765136719</ele>
        <time>2013-12-09T12:39:20Z</time>
      </trkpt>
      <trkpt lat="43.79043" lon="7.05253">
        <ele>945.41864013672</ele>
        <time>2013-12-09T12:39:29Z</time>
      </trkpt>
      <trkpt lat="43.79049" lon="7.05231">
        <ele>948.12780761719</ele>
        <time>2013-12-09T12:39:38Z</time>
      </trkpt>
      <trkpt lat="43.79052" lon="7.05217">
        <ele>950.16644287109</ele>
        <time>2013-12-09T12:39:44Z</time>
      </trkpt>
      <trkpt lat="43.79053" lon="7.05214">
        <ele>950.52746582031</ele>
        <time>2013-12-09T12:39:45Z</time>
      </trkpt>
      <trkpt lat="43.79056" lon="7.05198">
        <ele>952.83203125</ele>
        <time>2013-12-09T12:39:52Z</time>
      </trkpt>
      <trkpt lat="43.79056" lon="7.05177">
        <ele>954.27905273438</ele>
        <time>2013-12-09T12:40:01Z</time>
      </trkpt>
      <trkpt lat="43.79055" lon="7.05163">
        <ele>955.17413330078</ele>
        <time>2013-12-09T12:40:08Z</time>
      </trkpt>
      <trkpt lat="43.79056" lon="7.05147">
        <ele>956.48486328125</ele>
        <time>2013-12-09T12:40:16Z</time>
      </trkpt>
      <trkpt lat="43.79059" lon="7.05126">
        <ele>958.15631103516</ele>
        <time>2013-12-09T12:40:26Z</time>
      </trkpt>
      <trkpt lat="43.79062" lon="7.05106">
        <ele>959.35888671875</ele>
        <time>2013-12-09T12:40:35Z</time>
      </trkpt>
      <trkpt lat="43.79064" lon="7.05091">
        <ele>959.79864501953</ele>
        <time>2013-12-09T12:40:42Z</time>
      </trkpt>
      <trkpt lat="43.79067" lon="7.05072">
        <ele>961.16162109375</ele>
        <time>2013-12-09T12:40:51Z</time>
      </trkpt>
      <trkpt lat="43.79063" lon="7.0506">
        <ele>962.13891601562</ele>
        <time>2013-12-09T12:40:57Z</time>
      </trkpt>
      <trkpt lat="43.79049" lon="7.05052">
        <ele>962.45562744141</ele>
        <time>2013-12-09T12:41:04Z</time>
      </trkpt>
      <trkpt lat="43.79033" lon="7.05046">
        <ele>963.22772216797</ele>
        <time>2013-12-09T12:41:12Z</time>
      </trkpt>
      <trkpt lat="43.79016" lon="7.05033">
        <ele>962.59283447266</ele>
        <time>2013-12-09T12:41:21Z</time>
      </trkpt>
      <trkpt lat="43.79007" lon="7.05011">
        <ele>962.38342285156</ele>
        <time>2013-12-09T12:41:29Z</time>
      </trkpt>
      <trkpt lat="43.79006" lon="7.04982">
        <ele>963.40344238281</ele>
        <time>2013-12-09T12:41:38Z</time>
      </trkpt>
      <trkpt lat="43.79012" lon="7.04954">
        <ele>965.59417724609</ele>
        <time>2013-12-09T12:41:47Z</time>
      </trkpt>
      <trkpt lat="43.79016" lon="7.04926">
        <ele>967.56561279297</ele>
        <time>2013-12-09T12:41:56Z</time>
      </trkpt>
      <trkpt lat="43.79021" lon="7.04901">
        <ele>969.40924072266</ele>
        <time>2013-12-09T12:42:04Z</time>
      </trkpt>
      <trkpt lat="43.79025" lon="7.04878">
        <ele>970.74786376953</ele>
        <time>2013-12-09T12:42:12Z</time>
      </trkpt>
      <trkpt lat="43.79028" lon="7.0486">
        <ele>972.23974609375</ele>
        <time>2013-12-09T12:42:19Z</time>
      </trkpt>
      <trkpt lat="43.7903" lon="7.04842">
        <ele>974.94262695312</ele>
        <time>2013-12-09T12:42:26Z</time>
      </trkpt>
      <trkpt lat="43.79035" lon="7.04828">
        <ele>976.70397949219</ele>
        <time>2013-12-09T12:42:32Z</time>
      </trkpt>
      <trkpt lat="43.79041" lon="7.04811">
        <ele>978.15979003906</ele>
        <time>2013-12-09T12:42:40Z</time>
      </trkpt>
      <trkpt lat="43.79053" lon="7.04804">
        <ele>978.15612792969</ele>
        <time>2013-12-09T12:42:47Z</time>
      </trkpt>
      <trkpt lat="43.7907" lon="7.04799">
        <ele>979.04632568359</ele>
        <time>2013-12-09T12:42:56Z</time>
      </trkpt>
      <trkpt lat="43.7909" lon="7.04794">
        <ele>979.48992919922</ele>
        <time>2013-12-09T12:43:06Z</time>
      </trkpt>
      <trkpt lat="43.79105" lon="7.04793">
        <ele>979.18505859375</ele>
        <time>2013-12-09T12:43:13Z</time>
      </trkpt>
      <trkpt lat="43.79121" lon="7.04793">
        <ele>978.92694091797</ele>
        <time>2013-12-09T12:43:21Z</time>
      </trkpt>
      <trkpt lat="43.79133" lon="7.04796">
        <ele>979.02661132812</ele>
        <time>2013-12-09T12:43:27Z</time>
      </trkpt>
      <trkpt lat="43.79145" lon="7.04798">
        <ele>979.31628417969</ele>
        <time>2013-12-09T12:43:34Z</time>
      </trkpt>
      <trkpt lat="43.79151" lon="7.048">
        <ele>979.53918457031</ele>
        <time>2013-12-09T12:43:40Z</time>
      </trkpt>
      <trkpt lat="43.79152" lon="7.048">
        <ele>979.55236816406</ele>
        <time>2013-12-09T12:43:42Z</time>
      </trkpt>
      <trkpt lat="43.79153" lon="7.04798">
        <ele>979.46374511719</ele>
        <time>2013-12-09T12:48:52Z</time>
      </trkpt>
      <trkpt lat="43.79155" lon="7.04797">
        <ele>979.41003417969</ele>
        <time>2013-12-09T12:48:55Z</time>
      </trkpt>
      <trkpt lat="43.79156" lon="7.04795">
        <ele>979.35015869141</ele>
        <time>2013-12-09T12:48:56Z</time>
      </trkpt>
      <trkpt lat="43.79169" lon="7.04784">
        <ele>979.29943847656</ele>
        <time>2013-12-09T12:49:01Z</time>
      </trkpt>
      <trkpt lat="43.79182" lon="7.04771">
        <ele>979.21984863281</ele>
        <time>2013-12-09T12:49:07Z</time>
      </trkpt>
      <trkpt lat="43.79188" lon="7.04753">
        <ele>979.11285400391</ele>
        <time>2013-12-09T12:49:13Z</time>
      </trkpt>
      <trkpt lat="43.79195" lon="7.04732">
        <ele>978.73474121094</ele>
        <time>2013-12-09T12:49:20Z</time>
      </trkpt>
      <trkpt lat="43.79203" lon="7.0471">
        <ele>978.30279541016</ele>
        <time>2013-12-09T12:49:28Z</time>
      </trkpt>
      <trkpt lat="43.79211" lon="7.04695">
        <ele>978.79577636719</ele>
        <time>2013-12-09T12:49:35Z</time>
      </trkpt>
      <trkpt lat="43.79217" lon="7.0468">
        <ele>979.30841064453</ele>
        <time>2013-12-09T12:49:41Z</time>
      </trkpt>
      <trkpt lat="43.79223" lon="7.04667">
        <ele>980.03784179688</ele>
        <time>2013-12-09T12:49:47Z</time>
      </trkpt>
      <trkpt lat="43.79228" lon="7.0465">
        <ele>979.744140625</ele>
        <time>2013-12-09T12:49:55Z</time>
      </trkpt>
      <trkpt lat="43.79232" lon="7.0463">
        <ele>979.54132080078</ele>
        <time>2013-12-09T12:50:03Z</time>
      </trkpt>
      <trkpt lat="43.79236" lon="7.04615">
        <ele>979.54248046875</ele>
        <time>2013-12-09T12:50:10Z</time>
      </trkpt>
      <trkpt lat="43.7924" lon="7.046">
        <ele>979.77856445312</ele>
        <time>2013-12-09T12:50:18Z</time>
      </trkpt>
      <trkpt lat="43.7924" lon="7.04598">
        <ele>979.70111083984</ele>
        <time>2013-12-09T12:50:19Z</time>
      </trkpt>
      <trkpt lat="43.79241" lon="7.04591">
        <ele>979.76574707031</ele>
        <time>2013-12-09T12:50:22Z</time>
      </trkpt>
      <trkpt lat="43.79241" lon="7.04591">
        <ele>979.76800537109</ele>
        <time>2013-12-09T12:50:23Z</time>
      </trkpt>
      <trkpt lat="43.79241" lon="7.04589">
        <ele>979.73791503906</ele>
        <time>2013-12-09T12:50:27Z</time>
      </trkpt>
      <trkpt lat="43.79241" lon="7.04578">
        <ele>979.42718505859</ele>
        <time>2013-12-09T12:50:34Z</time>
      </trkpt>
      <trkpt lat="43.79243" lon="7.04567">
        <ele>979.25115966797</ele>
        <time>2013-12-09T12:50:42Z</time>
      </trkpt>
      <trkpt lat="43.79246" lon="7.04558">
        <ele>979.38543701172</ele>
        <time>2013-12-09T12:50:49Z</time>
      </trkpt>
      <trkpt lat="43.79249" lon="7.04546">
        <ele>979.77178955078</ele>
        <time>2013-12-09T12:50:58Z</time>
      </trkpt>
      <trkpt lat="43.7925" lon="7.04545">
        <ele>980.15264892578</ele>
        <time>2013-12-09T12:51:00Z</time>
      </trkpt>
      <trkpt lat="43.79252" lon="7.04543">
        <ele>981.01428222656</ele>
        <time>2013-12-09T12:51:03Z</time>
      </trkpt>
      <trkpt lat="43.79253" lon="7.04542">
        <ele>981.35235595703</ele>
        <time>2013-12-09T12:51:05Z</time>
      </trkpt>
      <trkpt lat="43.79255" lon="7.0454">
        <ele>982.2001953125</ele>
        <time>2013-12-09T12:51:08Z</time>
      </trkpt>
      <trkpt lat="43.79258" lon="7.04539">
        <ele>983.38934326172</ele>
        <time>2013-12-09T12:51:10Z</time>
      </trkpt>
      <trkpt lat="43.7926" lon="7.04536">
        <ele>984.37567138672</ele>
        <time>2013-12-09T12:51:12Z</time>
      </trkpt>
      <trkpt lat="43.79262" lon="7.04531">
        <ele>985.31201171875</ele>
        <time>2013-12-09T12:51:15Z</time>
      </trkpt>
      <trkpt lat="43.79264" lon="7.04528">
        <ele>986.08251953125</ele>
        <time>2013-12-09T12:51:17Z</time>
      </trkpt>
      <trkpt lat="43.79266" lon="7.04524">
        <ele>986.58190917969</ele>
        <time>2013-12-09T12:51:20Z</time>
      </trkpt>
      <trkpt lat="43.79266" lon="7.04521">
        <ele>986.45465087891</ele>
        <time>2013-12-09T12:51:22Z</time>
      </trkpt>
      <trkpt lat="43.79267" lon="7.04512">
        <ele>986.69268798828</ele>
        <time>2013-12-09T12:51:29Z</time>
      </trkpt>
      <trkpt lat="43.79269" lon="7.04504">
        <ele>986.92504882812</ele>
        <time>2013-12-09T12:51:36Z</time>
      </trkpt>
      <trkpt lat="43.79269" lon="7.04505">
        <ele>987.08551025391</ele>
        <time>2013-12-09T12:51:40Z</time>
      </trkpt>
      <trkpt lat="43.79269" lon="7.04503">
        <ele>986.87432861328</ele>
        <time>2013-12-09T12:51:47Z</time>
      </trkpt>
      <trkpt lat="43.79268" lon="7.04495">
        <ele>986.34765625</ele>
        <time>2013-12-09T12:51:54Z</time>
      </trkpt>
      <trkpt lat="43.79269" lon="7.04494">
        <ele>986.53283691406</ele>
        <time>2013-12-09T12:51:59Z</time>
      </trkpt>
      <trkpt lat="43.79271" lon="7.04481">
        <ele>986.39373779297</ele>
        <time>2013-12-09T12:52:04Z</time>
      </trkpt>
      <trkpt lat="43.79274" lon="7.04455">
        <ele>986.27600097656</ele>
        <time>2013-12-09T12:52:09Z</time>
      </trkpt>
      <trkpt lat="43.79277" lon="7.04432">
        <ele>985.92279052734</ele>
        <time>2013-12-09T12:52:14Z</time>
      </trkpt>
      <trkpt lat="43.79281" lon="7.04404">
        <ele>985.22277832031</ele>
        <time>2013-12-09T12:52:19Z</time>
      </trkpt>
      <trkpt lat="43.79286" lon="7.04378">
        <ele>985.05682373047</ele>
        <time>2013-12-09T12:52:23Z</time>
      </trkpt>
      <trkpt lat="43.7929" lon="7.04353">
        <ele>984.13671875</ele>
        <time>2013-12-09T12:52:26Z</time>
      </trkpt>
      <trkpt lat="43.79298" lon="7.04306">
        <ele>983.72613525391</ele>
        <time>2013-12-09T12:52:31Z</time>
      </trkpt>
      <trkpt lat="43.79304" lon="7.04267">
        <ele>981.96801757812</ele>
        <time>2013-12-09T12:52:35Z</time>
      </trkpt>
      <trkpt lat="43.79305" lon="7.04257">
        <ele>981.49420166016</ele>
        <time>2013-12-09T12:52:36Z</time>
      </trkpt>
      <trkpt lat="43.79311" lon="7.042">
        <ele>979.98138427734</ele>
        <time>2013-12-09T12:52:42Z</time>
      </trkpt>
      <trkpt lat="43.79313" lon="7.04191">
        <ele>979.62994384766</ele>
        <time>2013-12-09T12:52:43Z</time>
      </trkpt>
      <trkpt lat="43.79316" lon="7.04164">
        <ele>977.83410644531</ele>
        <time>2013-12-09T12:52:46Z</time>
      </trkpt>
      <trkpt lat="43.7932" lon="7.04153">
        <ele>978.13110351562</ele>
        <time>2013-12-09T12:52:48Z</time>
      </trkpt>
      <trkpt lat="43.79322" lon="7.04151">
        <ele>978.48645019531</ele>
        <time>2013-12-09T12:52:49Z</time>
      </trkpt>
      <trkpt lat="43.79322" lon="7.04145">
        <ele>978.25122070312</ele>
        <time>2013-12-09T12:52:52Z</time>
      </trkpt>
      <trkpt lat="43.79327" lon="7.04123">
        <ele>978.08843994141</ele>
        <time>2013-12-09T12:52:56Z</time>
      </trkpt>
      <trkpt lat="43.79329" lon="7.04116">
        <ele>978.24682617188</ele>
        <time>2013-12-09T12:52:57Z</time>
      </trkpt>
      <trkpt lat="43.79342" lon="7.04083">
        <ele>977.78082275391</ele>
        <time>2013-12-09T12:53:01Z</time>
      </trkpt>
      <trkpt lat="43.79349" lon="7.04053">
        <ele>977.19116210938</ele>
        <time>2013-12-09T12:53:04Z</time>
      </trkpt>
      <trkpt lat="43.7935" lon="7.04042">
        <ele>976.20751953125</ele>
        <time>2013-12-09T12:53:05Z</time>
      </trkpt>
      <trkpt lat="43.79362" lon="7.03956">
        <ele>969.40789794922</ele>
        <time>2013-12-09T12:53:12Z</time>
      </trkpt>
      <trkpt lat="43.79367" lon="7.03918">
        <ele>965.8486328125</ele>
        <time>2013-12-09T12:53:15Z</time>
      </trkpt>
      <trkpt lat="43.79371" lon="7.03891">
        <ele>962.93402099609</ele>
        <time>2013-12-09T12:53:17Z</time>
      </trkpt>
      <trkpt lat="43.79374" lon="7.03863">
        <ele>959.73864746094</ele>
        <time>2013-12-09T12:53:19Z</time>
      </trkpt>
      <trkpt lat="43.79378" lon="7.03838">
        <ele>959.09692382812</ele>
        <time>2013-12-09T12:53:21Z</time>
      </trkpt>
      <trkpt lat="43.79379" lon="7.03814">
        <ele>958.73651123047</ele>
        <time>2013-12-09T12:53:23Z</time>
      </trkpt>
      <trkpt lat="43.79375" lon="7.03805">
        <ele>958.51129150391</ele>
        <time>2013-12-09T12:53:24Z</time>
      </trkpt>
      <trkpt lat="43.79363" lon="7.03792">
        <ele>957.60778808594</ele>
        <time>2013-12-09T12:53:26Z</time>
      </trkpt>
      <trkpt lat="43.79347" lon="7.03783">
        <ele>956.67407226562</ele>
        <time>2013-12-09T12:53:28Z</time>
      </trkpt>
      <trkpt lat="43.7934" lon="7.03776">
        <ele>956.19006347656</ele>
        <time>2013-12-09T12:53:29Z</time>
      </trkpt>
      <trkpt lat="43.79332" lon="7.03755">
        <ele>955.06115722656</ele>
        <time>2013-12-09T12:53:31Z</time>
      </trkpt>
      <trkpt lat="43.79325" lon="7.03732">
        <ele>953.72045898438</ele>
        <time>2013-12-09T12:53:33Z</time>
      </trkpt>
      <trkpt lat="43.7932" lon="7.03721">
        <ele>953.05041503906</ele>
        <time>2013-12-09T12:53:34Z</time>
      </trkpt>
      <trkpt lat="43.79316" lon="7.03712">
        <ele>952.74829101562</ele>
        <time>2013-12-09T12:53:35Z</time>
      </trkpt>
      <trkpt lat="43.79304" lon="7.03698">
        <ele>951.86938476562</ele>
        <time>2013-12-09T12:53:38Z</time>
      </trkpt>
      <trkpt lat="43.79297" lon="7.03685">
        <ele>951.83746337891</ele>
        <time>2013-12-09T12:53:41Z</time>
      </trkpt>
      <trkpt lat="43.79304" lon="7.03684">
        <ele>952.28472900391</ele>
        <time>2013-12-09T12:53:43Z</time>
      </trkpt>
      <trkpt lat="43.79313" lon="7.03695">
        <ele>952.55603027344</ele>
        <time>2013-12-09T12:53:46Z</time>
      </trkpt>
      <trkpt lat="43.79326" lon="7.03709">
        <ele>953.48986816406</ele>
        <time>2013-12-09T12:53:49Z</time>
      </trkpt>
      <trkpt lat="43.79332" lon="7.03707">
        <ele>953.90185546875</ele>
        <time>2013-12-09T12:53:50Z</time>
      </trkpt>
      <trkpt lat="43.7934" lon="7.03693">
        <ele>954.5732421875</ele>
        <time>2013-12-09T12:53:52Z</time>
      </trkpt>
      <trkpt lat="43.79344" lon="7.03665">
        <ele>955.82110595703</ele>
        <time>2013-12-09T12:53:55Z</time>
      </trkpt>
      <trkpt lat="43.79346" lon="7.03656">
        <ele>956.11016845703</ele>
        <time>2013-12-09T12:53:56Z</time>
      </trkpt>
      <trkpt lat="43.79353" lon="7.03607">
        <ele>957.73553466797</ele>
        <time>2013-12-09T12:54:01Z</time>
      </trkpt>
      <trkpt lat="43.79356" lon="7.03598">
        <ele>957.89379882812</ele>
        <time>2013-12-09T12:54:02Z</time>
      </trkpt>
      <trkpt lat="43.79367" lon="7.03577">
        <ele>958.44085693359</ele>
        <time>2013-12-09T12:54:05Z</time>
      </trkpt>
      <trkpt lat="43.79377" lon="7.03539">
        <ele>959.58514404297</ele>
        <time>2013-12-09T12:54:10Z</time>
      </trkpt>
      <trkpt lat="43.79371" lon="7.0352">
        <ele>959.53179931641</ele>
        <time>2013-12-09T12:54:13Z</time>
      </trkpt>
      <trkpt lat="43.7936" lon="7.03516">
        <ele>959.40661621094</ele>
        <time>2013-12-09T12:54:16Z</time>
      </trkpt>
      <trkpt lat="43.79354" lon="7.03515">
        <ele>959.45635986328</ele>
        <time>2013-12-09T12:54:17Z</time>
      </trkpt>
      <trkpt lat="43.79347" lon="7.03512">
        <ele>959.55767822266</ele>
        <time>2013-12-09T12:54:19Z</time>
      </trkpt>
      <trkpt lat="43.79343" lon="7.03507">
        <ele>959.75164794922</ele>
        <time>2013-12-09T12:54:21Z</time>
      </trkpt>
      <trkpt lat="43.79346" lon="7.03495">
        <ele>960</ele>
        <time>2013-12-09T12:54:24Z</time>
      </trkpt>
      <trkpt lat="43.79347" lon="7.03492">
        <ele>960</ele>
        <time>2013-12-09T12:54:25Z</time>
      </trkpt>
      <trkpt lat="43.79355" lon="7.03471">
        <ele>960.04083251953</ele>
        <time>2013-12-09T12:54:32Z</time>
      </trkpt>
      <trkpt lat="43.79359" lon="7.0345">
        <ele>960.81158447266</ele>
        <time>2013-12-09T12:54:40Z</time>
      </trkpt>
      <trkpt lat="43.79363" lon="7.03427">
        <ele>962.30780029297</ele>
        <time>2013-12-09T12:54:49Z</time>
      </trkpt>
      <trkpt lat="43.79369" lon="7.0341">
        <ele>963.63031005859</ele>
        <time>2013-12-09T12:54:56Z</time>
      </trkpt>
      <trkpt lat="43.79375" lon="7.03403">
        <ele>964.52398681641</ele>
        <time>2013-12-09T12:55:01Z</time>
      </trkpt>
      <trkpt lat="43.79387" lon="7.03399">
        <ele>965.67150878906</ele>
        <time>2013-12-09T12:55:07Z</time>
      </trkpt>
      <trkpt lat="43.79405" lon="7.03396">
        <ele>967.69750976562</ele>
        <time>2013-12-09T12:55:16Z</time>
      </trkpt>
      <trkpt lat="43.79421" lon="7.03394">
        <ele>969.17797851562</ele>
        <time>2013-12-09T12:55:24Z</time>
      </trkpt>
      <trkpt lat="43.79438" lon="7.03392">
        <ele>970.34124755859</ele>
        <time>2013-12-09T12:55:33Z</time>
      </trkpt>
      <trkpt lat="43.79452" lon="7.03389">
        <ele>971.54235839844</ele>
        <time>2013-12-09T12:55:41Z</time>
      </trkpt>
      <trkpt lat="43.79466" lon="7.03382">
        <ele>973.28472900391</ele>
        <time>2013-12-09T12:55:49Z</time>
      </trkpt>
      <trkpt lat="43.79483" lon="7.03367">
        <ele>974.64178466797</ele>
        <time>2013-12-09T12:55:58Z</time>
      </trkpt>
      <trkpt lat="43.79499" lon="7.03353">
        <ele>974.68090820312</ele>
        <time>2013-12-09T12:56:06Z</time>
      </trkpt>
      <trkpt lat="43.79515" lon="7.03339">
        <ele>975.60540771484</ele>
        <time>2013-12-09T12:56:14Z</time>
      </trkpt>
      <trkpt lat="43.79523" lon="7.03325">
        <ele>976.38928222656</ele>
        <time>2013-12-09T12:56:20Z</time>
      </trkpt>
      <trkpt lat="43.79533" lon="7.03309">
        <ele>977.04144287109</ele>
        <time>2013-12-09T12:56:26Z</time>
      </trkpt>
      <trkpt lat="43.79549" lon="7.03293">
        <ele>977.87084960938</ele>
        <time>2013-12-09T12:56:33Z</time>
      </trkpt>
      <trkpt lat="43.79569" lon="7.03277">
        <ele>978.99688720703</ele>
        <time>2013-12-09T12:56:40Z</time>
      </trkpt>
      <trkpt lat="43.79586" lon="7.03279">
        <ele>980</ele>
        <time>2013-12-09T12:56:44Z</time>
      </trkpt>
      <trkpt lat="43.79598" lon="7.03296">
        <ele>980</ele>
        <time>2013-12-09T12:56:48Z</time>
      </trkpt>
      <trkpt lat="43.79609" lon="7.03319">
        <ele>979.52368164062</ele>
        <time>2013-12-09T12:56:54Z</time>
      </trkpt>
      <trkpt lat="43.79614" lon="7.03342">
        <ele>979.09954833984</ele>
        <time>2013-12-09T12:57:01Z</time>
      </trkpt>
      <trkpt lat="43.79617" lon="7.03374">
        <ele>979.64953613281</ele>
        <time>2013-12-09T12:57:11Z</time>
      </trkpt>
      <trkpt lat="43.79615" lon="7.03403">
        <ele>980.25207519531</ele>
        <time>2013-12-09T12:57:20Z</time>
      </trkpt>
      <trkpt lat="43.79608" lon="7.03427">
        <ele>979.787109375</ele>
        <time>2013-12-09T12:57:28Z</time>
      </trkpt>
      <trkpt lat="43.79594" lon="7.03458">
        <ele>979.30261230469</ele>
        <time>2013-12-09T12:57:38Z</time>
      </trkpt>
      <trkpt lat="43.79581" lon="7.03475">
        <ele>978.74169921875</ele>
        <time>2013-12-09T12:57:45Z</time>
      </trkpt>
      <trkpt lat="43.79565" lon="7.03495">
        <ele>975.5400390625</ele>
        <time>2013-12-09T12:57:55Z</time>
      </trkpt>
      <trkpt lat="43.79559" lon="7.03509">
        <ele>974.31414794922</ele>
        <time>2013-12-09T12:58:02Z</time>
      </trkpt>
      <trkpt lat="43.79553" lon="7.03526">
        <ele>974.27685546875</ele>
        <time>2013-12-09T12:58:10Z</time>
      </trkpt>
      <trkpt lat="43.79553" lon="7.0354">
        <ele>974.91522216797</ele>
        <time>2013-12-09T12:58:16Z</time>
      </trkpt>
      <trkpt lat="43.79554" lon="7.03562">
        <ele>976.220703125</ele>
        <time>2013-12-09T12:58:24Z</time>
      </trkpt>
      <trkpt lat="43.79561" lon="7.0358">
        <ele>978.88671875</ele>
        <time>2013-12-09T12:58:32Z</time>
      </trkpt>
      <trkpt lat="43.7957" lon="7.03591">
        <ele>981.90454101562</ele>
        <time>2013-12-09T12:58:40Z</time>
      </trkpt>
      <trkpt lat="43.79581" lon="7.03594">
        <ele>984.59350585938</ele>
        <time>2013-12-09T12:58:47Z</time>
      </trkpt>
      <trkpt lat="43.79594" lon="7.03587">
        <ele>986.75689697266</ele>
        <time>2013-12-09T12:58:55Z</time>
      </trkpt>
      <trkpt lat="43.79606" lon="7.03577">
        <ele>988.2109375</ele>
        <time>2013-12-09T12:59:03Z</time>
      </trkpt>
      <trkpt lat="43.79619" lon="7.03562">
        <ele>989.3564453125</ele>
        <time>2013-12-09T12:59:12Z</time>
      </trkpt>
      <trkpt lat="43.79634" lon="7.03543">
        <ele>991.44183349609</ele>
        <time>2013-12-09T12:59:22Z</time>
      </trkpt>
      <trkpt lat="43.79646" lon="7.03525">
        <ele>993.10125732422</ele>
        <time>2013-12-09T12:59:31Z</time>
      </trkpt>
      <trkpt lat="43.79659" lon="7.03506">
        <ele>993.96301269531</ele>
        <time>2013-12-09T12:59:40Z</time>
      </trkpt>
      <trkpt lat="43.79671" lon="7.03501">
        <ele>995.77075195312</ele>
        <time>2013-12-09T12:59:47Z</time>
      </trkpt>
      <trkpt lat="43.79684" lon="7.03506">
        <ele>998.01953125</ele>
        <time>2013-12-09T12:59:55Z</time>
      </trkpt>
      <trkpt lat="43.79694" lon="7.03502">
        <ele>999.08721923828</ele>
        <time>2013-12-09T13:00:02Z</time>
      </trkpt>
      <trkpt lat="43.79701" lon="7.03494">
        <ele>1000.8281860352</ele>
        <time>2013-12-09T13:00:08Z</time>
      </trkpt>
      <trkpt lat="43.79707" lon="7.03482">
        <ele>1001.3009643555</ele>
        <time>2013-12-09T13:00:14Z</time>
      </trkpt>
      <trkpt lat="43.79713" lon="7.03467">
        <ele>1001.5719604492</ele>
        <time>2013-12-09T13:00:22Z</time>
      </trkpt>
      <trkpt lat="43.79717" lon="7.03456">
        <ele>1001.1522827148</ele>
        <time>2013-12-09T13:00:29Z</time>
      </trkpt>
      <trkpt lat="43.79723" lon="7.0345">
        <ele>1002.3387451172</ele>
        <time>2013-12-09T13:00:35Z</time>
      </trkpt>
      <trkpt lat="43.79723" lon="7.03449">
        <ele>1002.2300415039</ele>
        <time>2013-12-09T13:00:36Z</time>
      </trkpt>
      <trkpt lat="43.79725" lon="7.03448">
        <ele>1002.7132568359</ele>
        <time>2013-12-09T13:00:39Z</time>
      </trkpt>
      <trkpt lat="43.79725" lon="7.03448">
        <ele>1002.9436035156</ele>
        <time>2013-12-09T13:00:54Z</time>
      </trkpt>
      <trkpt lat="43.79725" lon="7.03448">
        <ele>1002.9769897461</ele>
        <time>2013-12-09T13:01:20Z</time>
      </trkpt>
      <trkpt lat="43.79728" lon="7.0344">
        <ele>1003.5614624023</ele>
        <time>2013-12-09T13:01:43Z</time>
      </trkpt>
      <trkpt lat="43.79734" lon="7.03428">
        <ele>1005.295715332</ele>
        <time>2013-12-09T13:01:51Z</time>
      </trkpt>
      <trkpt lat="43.79741" lon="7.03414">
        <ele>1006.3308105469</ele>
        <time>2013-12-09T13:02:00Z</time>
      </trkpt>
      <trkpt lat="43.79748" lon="7.03403">
        <ele>1007.40625</ele>
        <time>2013-12-09T13:02:08Z</time>
      </trkpt>
      <trkpt lat="43.79754" lon="7.03393">
        <ele>1008.1699829102</ele>
        <time>2013-12-09T13:02:15Z</time>
      </trkpt>
      <trkpt lat="43.7976" lon="7.03381">
        <ele>1009.4097290039</ele>
        <time>2013-12-09T13:02:23Z</time>
      </trkpt>
      <trkpt lat="43.79767" lon="7.03367">
        <ele>1010.7252807617</ele>
        <time>2013-12-09T13:02:32Z</time>
      </trkpt>
      <trkpt lat="43.79773" lon="7.03356">
        <ele>1011.6464233398</ele>
        <time>2013-12-09T13:02:40Z</time>
      </trkpt>
      <trkpt lat="43.79777" lon="7.0335">
        <ele>1012.0653076172</ele>
        <time>2013-12-09T13:02:45Z</time>
      </trkpt>
      <trkpt lat="43.79777" lon="7.0335">
        <ele>1011.9965820312</ele>
        <time>2013-12-09T13:02:47Z</time>
      </trkpt>
      <trkpt lat="43.79776" lon="7.03347">
        <ele>1011.4129638672</ele>
        <time>2013-12-09T13:02:54Z</time>
      </trkpt>
      <trkpt lat="43.79778" lon="7.03349">
        <ele>1012.4707641602</ele>
        <time>2013-12-09T13:03:07Z</time>
      </trkpt>
      <trkpt lat="43.79782" lon="7.03351">
        <ele>1014.7229614258</ele>
        <time>2013-12-09T13:03:13Z</time>
      </trkpt>
      <trkpt lat="43.79784" lon="7.03351">
        <ele>1015.6224365234</ele>
        <time>2013-12-09T13:03:19Z</time>
      </trkpt>
      <trkpt lat="43.79786" lon="7.03349">
        <ele>1016.3159790039</ele>
        <time>2013-12-09T13:03:24Z</time>
      </trkpt>
      <trkpt lat="43.7979" lon="7.03346">
        <ele>1017.5931396484</ele>
        <time>2013-12-09T13:03:29Z</time>
      </trkpt>
      <trkpt lat="43.79791" lon="7.03346">
        <ele>1018.0943603516</ele>
        <time>2013-12-09T13:03:30Z</time>
      </trkpt>
      <trkpt lat="43.79796" lon="7.03344">
        <ele>1019.9345703125</ele>
        <time>2013-12-09T13:03:36Z</time>
      </trkpt>
      <trkpt lat="43.79797" lon="7.03344">
        <ele>1020.6418457031</ele>
        <time>2013-12-09T13:03:43Z</time>
      </trkpt>
      <trkpt lat="43.79802" lon="7.03341">
        <ele>1022.2691650391</ele>
        <time>2013-12-09T13:03:51Z</time>
      </trkpt>
      <trkpt lat="43.79807" lon="7.03342">
        <ele>1024.7609863281</ele>
        <time>2013-12-09T13:03:59Z</time>
      </trkpt>
      <trkpt lat="43.7981" lon="7.0334">
        <ele>1025.7292480469</ele>
        <time>2013-12-09T13:04:07Z</time>
      </trkpt>
      <trkpt lat="43.79814" lon="7.03338">
        <ele>1027.0338134766</ele>
        <time>2013-12-09T13:04:12Z</time>
      </trkpt>
      <trkpt lat="43.79819" lon="7.03337">
        <ele>1028.7366943359</ele>
        <time>2013-12-09T13:04:20Z</time>
      </trkpt>
      <trkpt lat="43.79823" lon="7.03337">
        <ele>1030.625</ele>
        <time>2013-12-09T13:04:31Z</time>
      </trkpt>
      <trkpt lat="43.79827" lon="7.03337">
        <ele>1032.1218261719</ele>
        <time>2013-12-09T13:04:38Z</time>
      </trkpt>
      <trkpt lat="43.79831" lon="7.03339">
        <ele>1034.0375976562</ele>
        <time>2013-12-09T13:04:46Z</time>
      </trkpt>
      <trkpt lat="43.79837" lon="7.03339">
        <ele>1035.7023925781</ele>
        <time>2013-12-09T13:04:55Z</time>
      </trkpt>
      <trkpt lat="43.7984" lon="7.03337">
        <ele>1036.37109375</ele>
        <time>2013-12-09T13:05:01Z</time>
      </trkpt>
      <trkpt lat="43.79843" lon="7.0333">
        <ele>1036.1275634766</ele>
        <time>2013-12-09T13:05:09Z</time>
      </trkpt>
      <trkpt lat="43.79847" lon="7.03324">
        <ele>1036.6955566406</ele>
        <time>2013-12-09T13:05:16Z</time>
      </trkpt>
      <trkpt lat="43.79852" lon="7.03314">
        <ele>1037.1922607422</ele>
        <time>2013-12-09T13:05:25Z</time>
      </trkpt>
      <trkpt lat="43.79854" lon="7.03312">
        <ele>1037.7666015625</ele>
        <time>2013-12-09T13:05:28Z</time>
      </trkpt>
      <trkpt lat="43.79858" lon="7.03311">
        <ele>1039.0119628906</ele>
        <time>2013-12-09T13:05:32Z</time>
      </trkpt>
      <trkpt lat="43.79862" lon="7.03309">
        <ele>1040.6171875</ele>
        <time>2013-12-09T13:05:37Z</time>
      </trkpt>
      <trkpt lat="43.79865" lon="7.03309">
        <ele>1041.9945068359</ele>
        <time>2013-12-09T13:05:41Z</time>
      </trkpt>
      <trkpt lat="43.79871" lon="7.03304">
        <ele>1044.2907714844</ele>
        <time>2013-12-09T13:05:50Z</time>
      </trkpt>
      <trkpt lat="43.79873" lon="7.033">
        <ele>1044.5059814453</ele>
        <time>2013-12-09T13:05:55Z</time>
      </trkpt>
      <trkpt lat="43.79874" lon="7.03299">
        <ele>1044.8699951172</ele>
        <time>2013-12-09T13:05:57Z</time>
      </trkpt>
      <trkpt lat="43.79878" lon="7.03294">
        <ele>1045.7600097656</ele>
        <time>2013-12-09T13:06:05Z</time>
      </trkpt>
      <trkpt lat="43.79881" lon="7.0329">
        <ele>1046.7591552734</ele>
        <time>2013-12-09T13:06:13Z</time>
      </trkpt>
      <trkpt lat="43.79887" lon="7.03288">
        <ele>1049.2944335938</ele>
        <time>2013-12-09T13:06:36Z</time>
      </trkpt>
      <trkpt lat="43.79893" lon="7.03284">
        <ele>1051.3869628906</ele>
        <time>2013-12-09T13:06:47Z</time>
      </trkpt>
      <trkpt lat="43.79896" lon="7.03282">
        <ele>1052.1468505859</ele>
        <time>2013-12-09T13:06:55Z</time>
      </trkpt>
      <trkpt lat="43.799" lon="7.0328">
        <ele>1053.5616455078</ele>
        <time>2013-12-09T13:07:04Z</time>
      </trkpt>
      <trkpt lat="43.79903" lon="7.03279">
        <ele>1054.6545410156</ele>
        <time>2013-12-09T13:07:11Z</time>
      </trkpt>
      <trkpt lat="43.79906" lon="7.03275">
        <ele>1055.669921875</ele>
        <time>2013-12-09T13:07:20Z</time>
      </trkpt>
      <trkpt lat="43.79909" lon="7.0327">
        <ele>1056.7283935547</ele>
        <time>2013-12-09T13:07:27Z</time>
      </trkpt>
      <trkpt lat="43.79914" lon="7.03267">
        <ele>1058.8312988281</ele>
        <time>2013-12-09T13:07:34Z</time>
      </trkpt>
      <trkpt lat="43.79921" lon="7.0326">
        <ele>1062.1297607422</ele>
        <time>2013-12-09T13:07:45Z</time>
      </trkpt>
      <trkpt lat="43.79926" lon="7.03255">
        <ele>1064.845703125</ele>
        <time>2013-12-09T13:07:53Z</time>
      </trkpt>
      <trkpt lat="43.79932" lon="7.0325">
        <ele>1067.5539550781</ele>
        <time>2013-12-09T13:08:02Z</time>
      </trkpt>
      <trkpt lat="43.79934" lon="7.03249">
        <ele>1068.6044921875</ele>
        <time>2013-12-09T13:08:08Z</time>
      </trkpt>
      <trkpt lat="43.79939" lon="7.03243">
        <ele>1070.4072265625</ele>
        <time>2013-12-09T13:08:16Z</time>
      </trkpt>
      <trkpt lat="43.79941" lon="7.03239">
        <ele>1070.8842773438</ele>
        <time>2013-12-09T13:08:19Z</time>
      </trkpt>
      <trkpt lat="43.79944" lon="7.03236">
        <ele>1071.9284667969</ele>
        <time>2013-12-09T13:08:23Z</time>
      </trkpt>
      <trkpt lat="43.79954" lon="7.03227">
        <ele>1074.6879882812</ele>
        <time>2013-12-09T13:08:36Z</time>
      </trkpt>
      <trkpt lat="43.79961" lon="7.03218">
        <ele>1076.8596191406</ele>
        <time>2013-12-09T13:08:47Z</time>
      </trkpt>
      <trkpt lat="43.79964" lon="7.03215">
        <ele>1077.7591552734</ele>
        <time>2013-12-09T13:08:51Z</time>
      </trkpt>
      <trkpt lat="43.79967" lon="7.03213">
        <ele>1078.9779052734</ele>
        <time>2013-12-09T13:08:55Z</time>
      </trkpt>
      <trkpt lat="43.79972" lon="7.0321">
        <ele>1080.8764648438</ele>
        <time>2013-12-09T13:09:03Z</time>
      </trkpt>
      <trkpt lat="43.79978" lon="7.03206">
        <ele>1083.3862304688</ele>
        <time>2013-12-09T13:09:13Z</time>
      </trkpt>
      <trkpt lat="43.79984" lon="7.03205">
        <ele>1085.6314697266</ele>
        <time>2013-12-09T13:09:23Z</time>
      </trkpt>
      <trkpt lat="43.79987" lon="7.03206">
        <ele>1087.3928222656</ele>
        <time>2013-12-09T13:09:30Z</time>
      </trkpt>
      <trkpt lat="43.79993" lon="7.03206">
        <ele>1089.6689453125</ele>
        <time>2013-12-09T13:09:39Z</time>
      </trkpt>
      <trkpt lat="43.79996" lon="7.03206">
        <ele>1091.306640625</ele>
        <time>2013-12-09T13:09:48Z</time>
      </trkpt>
      <trkpt lat="43.79999" lon="7.03204">
        <ele>1092.3262939453</ele>
        <time>2013-12-09T13:09:54Z</time>
      </trkpt>
      <trkpt lat="43.80001" lon="7.03205">
        <ele>1093.4215087891</ele>
        <time>2013-12-09T13:10:00Z</time>
      </trkpt>
      <trkpt lat="43.80002" lon="7.03203">
        <ele>1093.3803710938</ele>
        <time>2013-12-09T13:10:10Z</time>
      </trkpt>
      <trkpt lat="43.80001" lon="7.03203">
        <ele>1093.2189941406</ele>
        <time>2013-12-09T13:10:21Z</time>
      </trkpt>
      <trkpt lat="43.80005" lon="7.03197">
        <ele>1094.4720458984</ele>
        <time>2013-12-09T13:10:37Z</time>
      </trkpt>
      <trkpt lat="43.80011" lon="7.03187">
        <ele>1096.12109375</ele>
        <time>2013-12-09T13:10:45Z</time>
      </trkpt>
      <trkpt lat="43.80017" lon="7.03177">
        <ele>1097.5424804688</ele>
        <time>2013-12-09T13:10:53Z</time>
      </trkpt>
      <trkpt lat="43.80023" lon="7.03168">
        <ele>1098.9638671875</ele>
        <time>2013-12-09T13:11:01Z</time>
      </trkpt>
      <trkpt lat="43.80024" lon="7.03166">
        <ele>1099.1412353516</ele>
        <time>2013-12-09T13:11:02Z</time>
      </trkpt>
      <trkpt lat="43.80026" lon="7.03158">
        <ele>1099.4188232422</ele>
        <time>2013-12-09T13:11:10Z</time>
      </trkpt>
      <trkpt lat="43.80028" lon="7.0315">
        <ele>1099.2163085938</ele>
        <time>2013-12-09T13:12:29Z</time>
      </trkpt>
      <trkpt lat="43.80035" lon="7.03118">
        <ele>1099.7233886719</ele>
        <time>2013-12-09T13:12:40Z</time>
      </trkpt>
      <trkpt lat="43.80043" lon="7.03091">
        <ele>1100.4128417969</ele>
        <time>2013-12-09T13:12:51Z</time>
      </trkpt>
      <trkpt lat="43.80056" lon="7.03067">
        <ele>1103.6099853516</ele>
        <time>2013-12-09T13:13:02Z</time>
      </trkpt>
      <trkpt lat="43.8007" lon="7.03036">
        <ele>1105.9536132812</ele>
        <time>2013-12-09T13:13:15Z</time>
      </trkpt>
      <trkpt lat="43.80076" lon="7.03017">
        <ele>1105.4732666016</ele>
        <time>2013-12-09T13:13:23Z</time>
      </trkpt>
      <trkpt lat="43.80078" lon="7.03002">
        <ele>1103.47265625</ele>
        <time>2013-12-09T13:13:29Z</time>
      </trkpt>
      <trkpt lat="43.80081" lon="7.02977">
        <ele>1101.8367919922</ele>
        <time>2013-12-09T13:13:39Z</time>
      </trkpt>
      <trkpt lat="43.80086" lon="7.02943">
        <ele>1100.83203125</ele>
        <time>2013-12-09T13:13:53Z</time>
      </trkpt>
      <trkpt lat="43.80088" lon="7.02924">
        <ele>1099.1009521484</ele>
        <time>2013-12-09T13:14:02Z</time>
      </trkpt>
      <trkpt lat="43.8009" lon="7.02908">
        <ele>1097.5751953125</ele>
        <time>2013-12-09T13:14:10Z</time>
      </trkpt>
      <trkpt lat="43.80095" lon="7.029">
        <ele>1098.4133300781</ele>
        <time>2013-12-09T13:14:16Z</time>
      </trkpt>
      <trkpt lat="43.80096" lon="7.02899">
        <ele>1098.8245849609</ele>
        <time>2013-12-09T13:14:17Z</time>
      </trkpt>
      <trkpt lat="43.801" lon="7.029">
        <ele>1100.5319824219</ele>
        <time>2013-12-09T13:14:20Z</time>
      </trkpt>
      <trkpt lat="43.80101" lon="7.02902">
        <ele>1101.0706787109</ele>
        <time>2013-12-09T13:14:21Z</time>
      </trkpt>
      <trkpt lat="43.80102" lon="7.02905">
        <ele>1102.0461425781</ele>
        <time>2013-12-09T13:14:23Z</time>
      </trkpt>
      <trkpt lat="43.80103" lon="7.02908">
        <ele>1102.8547363281</ele>
        <time>2013-12-09T13:14:25Z</time>
      </trkpt>
      <trkpt lat="43.80106" lon="7.0292">
        <ele>1105.5689697266</ele>
        <time>2013-12-09T13:14:32Z</time>
      </trkpt>
      <trkpt lat="43.80112" lon="7.02939">
        <ele>1111.5106201172</ele>
        <time>2013-12-09T13:14:42Z</time>
      </trkpt>
      <trkpt lat="43.80121" lon="7.02958">
        <ele>1118.1606445312</ele>
        <time>2013-12-09T13:14:51Z</time>
      </trkpt>
      <trkpt lat="43.80127" lon="7.02978">
        <ele>1124.0850830078</ele>
        <time>2013-12-09T13:15:00Z</time>
      </trkpt>
      <trkpt lat="43.80127" lon="7.02997">
        <ele>1126.6124267578</ele>
        <time>2013-12-09T13:15:09Z</time>
      </trkpt>
      <trkpt lat="43.80129" lon="7.03012">
        <ele>1129.5026855469</ele>
        <time>2013-12-09T13:15:17Z</time>
      </trkpt>
      <trkpt lat="43.80134" lon="7.03012">
        <ele>1132.1361083984</ele>
        <time>2013-12-09T13:15:21Z</time>
      </trkpt>
      <trkpt lat="43.80135" lon="7.03011">
        <ele>1132.5668945312</ele>
        <time>2013-12-09T13:15:22Z</time>
      </trkpt>
      <trkpt lat="43.80136" lon="7.03008">
        <ele>1132.4156494141</ele>
        <time>2013-12-09T13:15:24Z</time>
      </trkpt>
      <trkpt lat="43.80138" lon="7.02999">
        <ele>1131.7017822266</ele>
        <time>2013-12-09T13:15:28Z</time>
      </trkpt>
      <trkpt lat="43.80143" lon="7.02985">
        <ele>1131.9782714844</ele>
        <time>2013-12-09T13:15:35Z</time>
      </trkpt>
      <trkpt lat="43.80145" lon="7.0297">
        <ele>1130.7998046875</ele>
        <time>2013-12-09T13:15:42Z</time>
      </trkpt>
      <trkpt lat="43.80144" lon="7.02957">
        <ele>1127.7270507812</ele>
        <time>2013-12-09T13:15:49Z</time>
      </trkpt>
      <trkpt lat="43.80143" lon="7.02954">
        <ele>1126.5632324219</ele>
        <time>2013-12-09T13:15:51Z</time>
      </trkpt>
      <trkpt lat="43.8014" lon="7.02945">
        <ele>1123.7204589844</ele>
        <time>2013-12-09T13:15:55Z</time>
      </trkpt>
      <trkpt lat="43.80139" lon="7.02924">
        <ele>1120.8345947266</ele>
        <time>2013-12-09T13:16:03Z</time>
      </trkpt>
      <trkpt lat="43.80142" lon="7.02895">
        <ele>1119.2333984375</ele>
        <time>2013-12-09T13:16:14Z</time>
      </trkpt>
      <trkpt lat="43.80146" lon="7.02876">
        <ele>1116.9415283203</ele>
        <time>2013-12-09T13:16:23Z</time>
      </trkpt>
      <trkpt lat="43.80148" lon="7.02858">
        <ele>1113.8326416016</ele>
        <time>2013-12-09T13:16:31Z</time>
      </trkpt>
      <trkpt lat="43.80154" lon="7.02845">
        <ele>1113.3544921875</ele>
        <time>2013-12-09T13:16:37Z</time>
      </trkpt>
      <trkpt lat="43.8016" lon="7.02833">
        <ele>1112.6776123047</ele>
        <time>2013-12-09T13:16:43Z</time>
      </trkpt>
      <trkpt lat="43.80164" lon="7.02815">
        <ele>1111.4278564453</ele>
        <time>2013-12-09T13:16:50Z</time>
      </trkpt>
      <trkpt lat="43.8017" lon="7.02796">
        <ele>1110.8021240234</ele>
        <time>2013-12-09T13:16:59Z</time>
      </trkpt>
      <trkpt lat="43.80177" lon="7.02782">
        <ele>1112.0297851562</ele>
        <time>2013-12-09T13:17:07Z</time>
      </trkpt>
      <trkpt lat="43.80183" lon="7.02774">
        <ele>1113.8933105469</ele>
        <time>2013-12-09T13:17:13Z</time>
      </trkpt>
      <trkpt lat="43.80193" lon="7.02759">
        <ele>1116.4190673828</ele>
        <time>2013-12-09T13:17:23Z</time>
      </trkpt>
      <trkpt lat="43.80201" lon="7.0275">
        <ele>1119.0423583984</ele>
        <time>2013-12-09T13:17:31Z</time>
      </trkpt>
      <trkpt lat="43.80209" lon="7.02742">
        <ele>1122.0495605469</ele>
        <time>2013-12-09T13:17:38Z</time>
      </trkpt>
      <trkpt lat="43.80218" lon="7.02727">
        <ele>1123.7497558594</ele>
        <time>2013-12-09T13:17:47Z</time>
      </trkpt>
      <trkpt lat="43.80226" lon="7.02709">
        <ele>1124.1906738281</ele>
        <time>2013-12-09T13:17:56Z</time>
      </trkpt>
      <trkpt lat="43.80235" lon="7.02684">
        <ele>1125.4127197266</ele>
        <time>2013-12-09T13:18:07Z</time>
      </trkpt>
      <trkpt lat="43.80238" lon="7.02669">
        <ele>1126.4611816406</ele>
        <time>2013-12-09T13:18:14Z</time>
      </trkpt>
      <trkpt lat="43.80243" lon="7.02651">
        <ele>1127.0791015625</ele>
        <time>2013-12-09T13:18:22Z</time>
      </trkpt>
      <trkpt lat="43.8025" lon="7.02649">
        <ele>1129.6326904297</ele>
        <time>2013-12-09T13:18:27Z</time>
      </trkpt>
      <trkpt lat="43.80252" lon="7.02652">
        <ele>1131.1883544922</ele>
        <time>2013-12-09T13:18:29Z</time>
      </trkpt>
      <trkpt lat="43.80252" lon="7.02657">
        <ele>1131.7789306641</ele>
        <time>2013-12-09T13:18:31Z</time>
      </trkpt>
      <trkpt lat="43.80251" lon="7.02677">
        <ele>1132.3350830078</ele>
        <time>2013-12-09T13:18:39Z</time>
      </trkpt>
      <trkpt lat="43.80251" lon="7.02688">
        <ele>1132.9016113281</ele>
        <time>2013-12-09T13:18:45Z</time>
      </trkpt>
      <trkpt lat="43.80249" lon="7.02708">
        <ele>1134.5753173828</ele>
        <time>2013-12-09T13:18:55Z</time>
      </trkpt>
      <trkpt lat="43.80247" lon="7.02728">
        <ele>1136.5405273438</ele>
        <time>2013-12-09T13:19:04Z</time>
      </trkpt>
      <trkpt lat="43.80246" lon="7.02743">
        <ele>1137.9216308594</ele>
        <time>2013-12-09T13:19:12Z</time>
      </trkpt>
      <trkpt lat="43.80243" lon="7.02758">
        <ele>1138.4501953125</ele>
        <time>2013-12-09T13:19:19Z</time>
      </trkpt>
      <trkpt lat="43.80239" lon="7.02774">
        <ele>1138.4862060547</ele>
        <time>2013-12-09T13:19:27Z</time>
      </trkpt>
      <trkpt lat="43.80236" lon="7.02787">
        <ele>1139.6096191406</ele>
        <time>2013-12-09T13:19:34Z</time>
      </trkpt>
      <trkpt lat="43.80235" lon="7.02798">
        <ele>1140.9451904297</ele>
        <time>2013-12-09T13:19:40Z</time>
      </trkpt>
      <trkpt lat="43.80239" lon="7.02802">
        <ele>1143.0091552734</ele>
        <time>2013-12-09T13:19:45Z</time>
      </trkpt>
      <trkpt lat="43.80248" lon="7.02796">
        <ele>1144.9874267578</ele>
        <time>2013-12-09T13:19:52Z</time>
      </trkpt>
      <trkpt lat="43.80257" lon="7.0279">
        <ele>1148.3924560547</ele>
        <time>2013-12-09T13:19:59Z</time>
      </trkpt>
      <trkpt lat="43.80265" lon="7.02787">
        <ele>1152.099609375</ele>
        <time>2013-12-09T13:20:06Z</time>
      </trkpt>
      <trkpt lat="43.80272" lon="7.02783">
        <ele>1155.0584716797</ele>
        <time>2013-12-09T13:20:12Z</time>
      </trkpt>
      <trkpt lat="43.80279" lon="7.02763">
        <ele>1157.4874267578</ele>
        <time>2013-12-09T13:20:22Z</time>
      </trkpt>
      <trkpt lat="43.80283" lon="7.02749">
        <ele>1158.3356933594</ele>
        <time>2013-12-09T13:20:29Z</time>
      </trkpt>
      <trkpt lat="43.80287" lon="7.02737">
        <ele>1159.1528320312</ele>
        <time>2013-12-09T13:20:35Z</time>
      </trkpt>
      <trkpt lat="43.80296" lon="7.02722">
        <ele>1161.9320068359</ele>
        <time>2013-12-09T13:20:44Z</time>
      </trkpt>
      <trkpt lat="43.80303" lon="7.02709">
        <ele>1164.1430664062</ele>
        <time>2013-12-09T13:20:52Z</time>
      </trkpt>
      <trkpt lat="43.80308" lon="7.0269">
        <ele>1164.9769287109</ele>
        <time>2013-12-09T13:21:01Z</time>
      </trkpt>
      <trkpt lat="43.8031" lon="7.02677">
        <ele>1165.2331542969</ele>
        <time>2013-12-09T13:21:08Z</time>
      </trkpt>
      <trkpt lat="43.80312" lon="7.02666">
        <ele>1165.5900878906</ele>
        <time>2013-12-09T13:21:14Z</time>
      </trkpt>
      <trkpt lat="43.80315" lon="7.02646">
        <ele>1164.8640136719</ele>
        <time>2013-12-09T13:21:24Z</time>
      </trkpt>
      <trkpt lat="43.80318" lon="7.02629">
        <ele>1164.4931640625</ele>
        <time>2013-12-09T13:21:32Z</time>
      </trkpt>
      <trkpt lat="43.80324" lon="7.02606">
        <ele>1165.4698486328</ele>
        <time>2013-12-09T13:21:44Z</time>
      </trkpt>
      <trkpt lat="43.80331" lon="7.02585">
        <ele>1167.9006347656</ele>
        <time>2013-12-09T13:21:54Z</time>
      </trkpt>
      <trkpt lat="43.80331" lon="7.02568">
        <ele>1167.6069335938</ele>
        <time>2013-12-09T13:22:01Z</time>
      </trkpt>
      <trkpt lat="43.80329" lon="7.02547">
        <ele>1166.7401123047</ele>
        <time>2013-12-09T13:22:08Z</time>
      </trkpt>
      <trkpt lat="43.80328" lon="7.02518">
        <ele>1166.4982910156</ele>
        <time>2013-12-09T13:22:16Z</time>
      </trkpt>
      <trkpt lat="43.80326" lon="7.02492">
        <ele>1165.6829833984</ele>
        <time>2013-12-09T13:22:23Z</time>
      </trkpt>
      <trkpt lat="43.80324" lon="7.02462">
        <ele>1165.1617431641</ele>
        <time>2013-12-09T13:22:31Z</time>
      </trkpt>
      <trkpt lat="43.80323" lon="7.02443">
        <ele>1165.0703125</ele>
        <time>2013-12-09T13:22:37Z</time>
      </trkpt>
      <trkpt lat="43.80318" lon="7.02423">
        <ele>1162.9555664062</ele>
        <time>2013-12-09T13:22:44Z</time>
      </trkpt>
      <trkpt lat="43.80309" lon="7.02399">
        <ele>1159.8127441406</ele>
        <time>2013-12-09T13:22:49Z</time>
      </trkpt>
      <trkpt lat="43.80307" lon="7.02373">
        <ele>1159.7258300781</ele>
        <time>2013-12-09T13:22:54Z</time>
      </trkpt>
      <trkpt lat="43.80308" lon="7.0235">
        <ele>1160.0278320312</ele>
        <time>2013-12-09T13:23:01Z</time>
      </trkpt>
      <trkpt lat="43.80309" lon="7.02327">
        <ele>1160.4201660156</ele>
        <time>2013-12-09T13:23:07Z</time>
      </trkpt>
      <trkpt lat="43.80315" lon="7.023">
        <ele>1164.0200195312</ele>
        <time>2013-12-09T13:23:15Z</time>
      </trkpt>
      <trkpt lat="43.80323" lon="7.02275">
        <ele>1167.2532958984</ele>
        <time>2013-12-09T13:23:23Z</time>
      </trkpt>
      <trkpt lat="43.80328" lon="7.02245">
        <ele>1170.1218261719</ele>
        <time>2013-12-09T13:23:32Z</time>
      </trkpt>
      <trkpt lat="43.80328" lon="7.02213">
        <ele>1171.4968261719</ele>
        <time>2013-12-09T13:23:41Z</time>
      </trkpt>
      <trkpt lat="43.80329" lon="7.02163">
        <ele>1173.3563232422</ele>
        <time>2013-12-09T13:23:53Z</time>
      </trkpt>
      <trkpt lat="43.80333" lon="7.02127">
        <ele>1175.7172851562</ele>
        <time>2013-12-09T13:24:02Z</time>
      </trkpt>
      <trkpt lat="43.8033" lon="7.02094">
        <ele>1177.8594970703</ele>
        <time>2013-12-09T13:24:11Z</time>
      </trkpt>
      <trkpt lat="43.80331" lon="7.02066">
        <ele>1182.26171875</ele>
        <time>2013-12-09T13:24:18Z</time>
      </trkpt>
      <trkpt lat="43.8033" lon="7.02044">
        <ele>1184.9078369141</ele>
        <time>2013-12-09T13:24:25Z</time>
      </trkpt>
      <trkpt lat="43.80329" lon="7.02025">
        <ele>1187.0161132812</ele>
        <time>2013-12-09T13:24:30Z</time>
      </trkpt>
      <trkpt lat="43.8033" lon="7.02">
        <ele>1191.9741210938</ele>
        <time>2013-12-09T13:24:37Z</time>
      </trkpt>
      <trkpt lat="43.80333" lon="7.01966">
        <ele>1197.5913085938</ele>
        <time>2013-12-09T13:24:46Z</time>
      </trkpt>
      <trkpt lat="43.80331" lon="7.01942">
        <ele>1200.5487060547</ele>
        <time>2013-12-09T13:24:51Z</time>
      </trkpt>
      <trkpt lat="43.8033" lon="7.01911">
        <ele>1210.5263671875</ele>
        <time>2013-12-09T13:24:58Z</time>
      </trkpt>
      <trkpt lat="43.80324" lon="7.01879">
        <ele>1215.0565185547</ele>
        <time>2013-12-09T13:25:07Z</time>
      </trkpt>
      <trkpt lat="43.80316" lon="7.01849">
        <ele>1214.0490722656</ele>
        <time>2013-12-09T13:25:15Z</time>
      </trkpt>
      <trkpt lat="43.8031" lon="7.01822">
        <ele>1211.2084960938</ele>
        <time>2013-12-09T13:25:21Z</time>
      </trkpt>
      <trkpt lat="43.80302" lon="7.01809">
        <ele>1207.1960449219</ele>
        <time>2013-12-09T13:25:26Z</time>
      </trkpt>
      <trkpt lat="43.80291" lon="7.01794">
        <ele>1202.1743164062</ele>
        <time>2013-12-09T13:25:33Z</time>
      </trkpt>
      <trkpt lat="43.80284" lon="7.01785">
        <ele>1199.2673339844</ele>
        <time>2013-12-09T13:25:38Z</time>
      </trkpt>
      <trkpt lat="43.80276" lon="7.01779">
        <ele>1197.1560058594</ele>
        <time>2013-12-09T13:25:45Z</time>
      </trkpt>
      <trkpt lat="43.80276" lon="7.0178">
        <ele>1197.2075195312</ele>
        <time>2013-12-09T13:25:56Z</time>
      </trkpt>
      <trkpt lat="43.80276" lon="7.0178">
        <ele>1197.2692871094</ele>
        <time>2013-12-09T13:26:02Z</time>
      </trkpt>
      <trkpt lat="43.80277" lon="7.0178">
        <ele>1197.2744140625</ele>
        <time>2013-12-09T13:27:25Z</time>
      </trkpt>
      <trkpt lat="43.80277" lon="7.01781">
        <ele>1197.3156738281</ele>
        <time>2013-12-09T13:33:53Z</time>
      </trkpt>
      <trkpt lat="43.80272" lon="7.01783">
        <ele>1197.5319824219</ele>
        <time>2013-12-09T13:33:58Z</time>
      </trkpt>
      <trkpt lat="43.80269" lon="7.01783">
        <ele>1197.5217285156</ele>
        <time>2013-12-09T13:33:59Z</time>
      </trkpt>
      <trkpt lat="43.80253" lon="7.01784">
        <ele>1197.6967773438</ele>
        <time>2013-12-09T13:34:06Z</time>
      </trkpt>
      <trkpt lat="43.80247" lon="7.01784">
        <ele>1197.6916503906</ele>
        <time>2013-12-09T13:34:10Z</time>
      </trkpt>
      <trkpt lat="43.80246" lon="7.01783">
        <ele>1197.5319824219</ele>
        <time>2013-12-09T13:34:11Z</time>
      </trkpt>
      <trkpt lat="43.80244" lon="7.01773">
        <ele>1196.7209472656</ele>
        <time>2013-12-09T13:34:16Z</time>
      </trkpt>
      <trkpt lat="43.80243" lon="7.01761">
        <ele>1195.984375</ele>
        <time>2013-12-09T13:34:21Z</time>
      </trkpt>
      <trkpt lat="43.80242" lon="7.01756">
        <ele>1195.6416015625</ele>
        <time>2013-12-09T13:34:23Z</time>
      </trkpt>
      <trkpt lat="43.80244" lon="7.0173">
        <ele>1194.5250244141</ele>
        <time>2013-12-09T13:34:29Z</time>
      </trkpt>
      <trkpt lat="43.8025" lon="7.01704">
        <ele>1192.6922607422</ele>
        <time>2013-12-09T13:34:33Z</time>
      </trkpt>
      <trkpt lat="43.8026" lon="7.01695">
        <ele>1190.9597167969</ele>
        <time>2013-12-09T13:34:36Z</time>
      </trkpt>
      <trkpt lat="43.8027" lon="7.01688">
        <ele>1189.2108154297</ele>
        <time>2013-12-09T13:34:39Z</time>
      </trkpt>
      <trkpt lat="43.80276" lon="7.01679">
        <ele>1187.5628662109</ele>
        <time>2013-12-09T13:34:41Z</time>
      </trkpt>
      <trkpt lat="43.80283" lon="7.0166">
        <ele>1186.1467285156</ele>
        <time>2013-12-09T13:34:44Z</time>
      </trkpt>
      <trkpt lat="43.80286" lon="7.01647">
        <ele>1185.5198974609</ele>
        <time>2013-12-09T13:34:46Z</time>
      </trkpt>
      <trkpt lat="43.80287" lon="7.01641">
        <ele>1185.1169433594</ele>
        <time>2013-12-09T13:34:48Z</time>
      </trkpt>
      <trkpt lat="43.80287" lon="7.01639">
        <ele>1184.9732666016</ele>
        <time>2013-12-09T13:34:49Z</time>
      </trkpt>
      <trkpt lat="43.80289" lon="7.01627">
        <ele>1183.8660888672</ele>
        <time>2013-12-09T13:34:55Z</time>
      </trkpt>
      <trkpt lat="43.80286" lon="7.01615">
        <ele>1182.2283935547</ele>
        <time>2013-12-09T13:34:59Z</time>
      </trkpt>
      <trkpt lat="43.80283" lon="7.01612">
        <ele>1181.6516113281</ele>
        <time>2013-12-09T13:35:00Z</time>
      </trkpt>
      <trkpt lat="43.80275" lon="7.01608">
        <ele>1180.2352294922</ele>
        <time>2013-12-09T13:35:02Z</time>
      </trkpt>
      <trkpt lat="43.80258" lon="7.01599">
        <ele>1176.7471923828</ele>
        <time>2013-12-09T13:35:06Z</time>
      </trkpt>
      <trkpt lat="43.80256" lon="7.01588">
        <ele>1174.6051025391</ele>
        <time>2013-12-09T13:35:10Z</time>
      </trkpt>
      <trkpt lat="43.80256" lon="7.01586">
        <ele>1174.2598876953</ele>
        <time>2013-12-09T13:35:11Z</time>
      </trkpt>
      <trkpt lat="43.80256" lon="7.01584">
        <ele>1174.021484375</ele>
        <time>2013-12-09T13:35:15Z</time>
      </trkpt>
      <trkpt lat="43.80257" lon="7.01584">
        <ele>1174.0544433594</ele>
        <time>2013-12-09T13:35:18Z</time>
      </trkpt>
      <trkpt lat="43.8026" lon="7.01582">
        <ele>1174.3817138672</ele>
        <time>2013-12-09T13:35:20Z</time>
      </trkpt>
      <trkpt lat="43.80265" lon="7.01581">
        <ele>1175.0329589844</ele>
        <time>2013-12-09T13:35:22Z</time>
      </trkpt>
      <trkpt lat="43.80274" lon="7.01578">
        <ele>1176.0759277344</ele>
        <time>2013-12-09T13:35:26Z</time>
      </trkpt>
      <trkpt lat="43.80284" lon="7.01574">
        <ele>1177.1580810547</ele>
        <time>2013-12-09T13:35:32Z</time>
      </trkpt>
      <trkpt lat="43.80287" lon="7.01571">
        <ele>1177.4465332031</ele>
        <time>2013-12-09T13:35:35Z</time>
      </trkpt>
      <trkpt lat="43.8029" lon="7.01568">
        <ele>1177.6662597656</ele>
        <time>2013-12-09T13:35:38Z</time>
      </trkpt>
      <trkpt lat="43.80291" lon="7.01566">
        <ele>1177.6043701172</ele>
        <time>2013-12-09T13:35:39Z</time>
      </trkpt>
      <trkpt lat="43.80293" lon="7.01556">
        <ele>1177.1649169922</ele>
        <time>2013-12-09T13:35:42Z</time>
      </trkpt>
      <trkpt lat="43.803" lon="7.01536">
        <ele>1176.0914306641</ele>
        <time>2013-12-09T13:35:45Z</time>
      </trkpt>
      <trkpt lat="43.8031" lon="7.01503">
        <ele>1175.1090087891</ele>
        <time>2013-12-09T13:35:49Z</time>
      </trkpt>
      <trkpt lat="43.80304" lon="7.01484">
        <ele>1171.9573974609</ele>
        <time>2013-12-09T13:35:52Z</time>
      </trkpt>
      <trkpt lat="43.80296" lon="7.01481">
        <ele>1170.3101806641</ele>
        <time>2013-12-09T13:35:54Z</time>
      </trkpt>
      <trkpt lat="43.80285" lon="7.01478">
        <ele>1168.0662841797</ele>
        <time>2013-12-09T13:35:57Z</time>
      </trkpt>
      <trkpt lat="43.80281" lon="7.01462">
        <ele>1165.4278564453</ele>
        <time>2013-12-09T13:36:00Z</time>
      </trkpt>
      <trkpt lat="43.80281" lon="7.01455">
        <ele>1164.6605224609</ele>
        <time>2013-12-09T13:36:01Z</time>
      </trkpt>
      <trkpt lat="43.80278" lon="7.01425">
        <ele>1161.6069335938</ele>
        <time>2013-12-09T13:36:05Z</time>
      </trkpt>
      <trkpt lat="43.80268" lon="7.01395">
        <ele>1154.3969726562</ele>
        <time>2013-12-09T13:36:09Z</time>
      </trkpt>
      <trkpt lat="43.80266" lon="7.01388">
        <ele>1152.7244873047</ele>
        <time>2013-12-09T13:36:10Z</time>
      </trkpt>
      <trkpt lat="43.80261" lon="7.01361">
        <ele>1145.2927246094</ele>
        <time>2013-12-09T13:36:13Z</time>
      </trkpt>
      <trkpt lat="43.80264" lon="7.01341">
        <ele>1143.9841308594</ele>
        <time>2013-12-09T13:36:16Z</time>
      </trkpt>
      <trkpt lat="43.80269" lon="7.01317">
        <ele>1141.4036865234</ele>
        <time>2013-12-09T13:36:20Z</time>
      </trkpt>
      <trkpt lat="43.8027" lon="7.0131">
        <ele>1140.291015625</ele>
        <time>2013-12-09T13:36:21Z</time>
      </trkpt>
      <trkpt lat="43.8027" lon="7.01305">
        <ele>1139.2904052734</ele>
        <time>2013-12-09T13:36:22Z</time>
      </trkpt>
      <trkpt lat="43.80271" lon="7.01297">
        <ele>1138.5911865234</ele>
        <time>2013-12-09T13:36:24Z</time>
      </trkpt>
      <trkpt lat="43.80272" lon="7.01295">
        <ele>1138.6499023438</ele>
        <time>2013-12-09T13:36:25Z</time>
      </trkpt>
      <trkpt lat="43.80273" lon="7.01293">
        <ele>1138.7922363281</ele>
        <time>2013-12-09T13:36:28Z</time>
      </trkpt>
      <trkpt lat="43.80275" lon="7.01287">
        <ele>1139.5745849609</ele>
        <time>2013-12-09T13:36:43Z</time>
      </trkpt>
      <trkpt lat="43.80277" lon="7.01285">
        <ele>1140.2542724609</ele>
        <time>2013-12-09T13:36:48Z</time>
      </trkpt>
      <trkpt lat="43.80286" lon="7.01272">
        <ele>1142.6589355469</ele>
        <time>2013-12-09T13:36:52Z</time>
      </trkpt>
      <trkpt lat="43.80295" lon="7.01265">
        <ele>1145.3299560547</ele>
        <time>2013-12-09T13:36:56Z</time>
      </trkpt>
      <trkpt lat="43.80305" lon="7.01252">
        <ele>1147.9924316406</ele>
        <time>2013-12-09T13:37:01Z</time>
      </trkpt>
      <trkpt lat="43.80306" lon="7.01244">
        <ele>1147.2216796875</ele>
        <time>2013-12-09T13:37:03Z</time>
      </trkpt>
      <trkpt lat="43.80304" lon="7.01238">
        <ele>1145.6964111328</ele>
        <time>2013-12-09T13:37:04Z</time>
      </trkpt>
      <trkpt lat="43.80293" lon="7.0121">
        <ele>1134.1683349609</ele>
        <time>2013-12-09T13:37:09Z</time>
      </trkpt>
      <trkpt lat="43.80281" lon="7.01184">
        <ele>1122.0935058594</ele>
        <time>2013-12-09T13:37:14Z</time>
      </trkpt>
      <trkpt lat="43.80278" lon="7.0118">
        <ele>1120.4455566406</ele>
        <time>2013-12-09T13:37:15Z</time>
      </trkpt>
      <trkpt lat="43.80272" lon="7.01169">
        <ele>1115.8134765625</ele>
        <time>2013-12-09T13:37:18Z</time>
      </trkpt>
      <trkpt lat="43.80266" lon="7.01157">
        <ele>1111.0899658203</ele>
        <time>2013-12-09T13:37:21Z</time>
      </trkpt>
      <trkpt lat="43.80265" lon="7.01152">
        <ele>1109.5406494141</ele>
        <time>2013-12-09T13:37:22Z</time>
      </trkpt>
      <trkpt lat="43.80264" lon="7.01137">
        <ele>1108.2022705078</ele>
        <time>2013-12-09T13:37:24Z</time>
      </trkpt>
      <trkpt lat="43.80265" lon="7.01132">
        <ele>1108.0361328125</ele>
        <time>2013-12-09T13:37:25Z</time>
      </trkpt>
      <trkpt lat="43.8026" lon="7.01108">
        <ele>1102.0101318359</ele>
        <time>2013-12-09T13:37:29Z</time>
      </trkpt>
      <trkpt lat="43.80258" lon="7.01093">
        <ele>1098.1492919922</ele>
        <time>2013-12-09T13:37:31Z</time>
      </trkpt>
      <trkpt lat="43.80259" lon="7.01088">
        <ele>1097.8830566406</ele>
        <time>2013-12-09T13:37:32Z</time>
      </trkpt>
      <trkpt lat="43.80258" lon="7.01084">
        <ele>1097.0600585938</ele>
        <time>2013-12-09T13:37:33Z</time>
      </trkpt>
      <trkpt lat="43.80256" lon="7.01081">
        <ele>1094.7902832031</ele>
        <time>2013-12-09T13:37:35Z</time>
      </trkpt>
      <trkpt lat="43.8025" lon="7.01071">
        <ele>1087.1867675781</ele>
        <time>2013-12-09T13:37:38Z</time>
      </trkpt>
      <trkpt lat="43.80247" lon="7.01067">
        <ele>1085.3015136719</ele>
        <time>2013-12-09T13:37:39Z</time>
      </trkpt>
      <trkpt lat="43.8024" lon="7.01048">
        <ele>1079.6701660156</ele>
        <time>2013-12-09T13:37:43Z</time>
      </trkpt>
      <trkpt lat="43.80235" lon="7.01038">
        <ele>1076.552734375</ele>
        <time>2013-12-09T13:37:46Z</time>
      </trkpt>
      <trkpt lat="43.80235" lon="7.01035">
        <ele>1075.9111328125</ele>
        <time>2013-12-09T13:37:47Z</time>
      </trkpt>
      <trkpt lat="43.80233" lon="7.01023">
        <ele>1073.9357910156</ele>
        <time>2013-12-09T13:37:50Z</time>
      </trkpt>
      <trkpt lat="43.80233" lon="7.01019">
        <ele>1073.1098632812</ele>
        <time>2013-12-09T13:37:51Z</time>
      </trkpt>
      <trkpt lat="43.80232" lon="7.01017">
        <ele>1072.5985107422</ele>
        <time>2013-12-09T13:37:52Z</time>
      </trkpt>
      <trkpt lat="43.8023" lon="7.01014">
        <ele>1070.9873046875</ele>
        <time>2013-12-09T13:37:55Z</time>
      </trkpt>
      <trkpt lat="43.80229" lon="7.01007">
        <ele>1069.4211425781</ele>
        <time>2013-12-09T13:37:58Z</time>
      </trkpt>
      <trkpt lat="43.80227" lon="7.01">
        <ele>1067.2752685547</ele>
        <time>2013-12-09T13:38:01Z</time>
      </trkpt>
      <trkpt lat="43.80224" lon="7.00993">
        <ele>1064.9669189453</ele>
        <time>2013-12-09T13:38:05Z</time>
      </trkpt>
      <trkpt lat="43.80225" lon="7.0099">
        <ele>1064.92578125</ele>
        <time>2013-12-09T13:38:06Z</time>
      </trkpt>
      <trkpt lat="43.80227" lon="7.00982">
        <ele>1064.7678222656</ele>
        <time>2013-12-09T13:38:09Z</time>
      </trkpt>
      <trkpt lat="43.80227" lon="7.00979">
        <ele>1064.1635742188</ele>
        <time>2013-12-09T13:38:10Z</time>
      </trkpt>
      <trkpt lat="43.80225" lon="7.00966">
        <ele>1061.4470214844</ele>
        <time>2013-12-09T13:38:14Z</time>
      </trkpt>
      <trkpt lat="43.80224" lon="7.00962">
        <ele>1060.8531494141</ele>
        <time>2013-12-09T13:38:15Z</time>
      </trkpt>
      <trkpt lat="43.80224" lon="7.00953">
        <ele>1059.7303466797</ele>
        <time>2013-12-09T13:38:17Z</time>
      </trkpt>
      <trkpt lat="43.80226" lon="7.00947">
        <ele>1060.0834960938</ele>
        <time>2013-12-09T13:38:19Z</time>
      </trkpt>
      <trkpt lat="43.80225" lon="7.00937">
        <ele>1058.0603027344</ele>
        <time>2013-12-09T13:38:22Z</time>
      </trkpt>
      <trkpt lat="43.8022" lon="7.00924">
        <ele>1054.3203125</ele>
        <time>2013-12-09T13:38:25Z</time>
      </trkpt>
      <trkpt lat="43.80219" lon="7.00919">
        <ele>1053.2486572266</ele>
        <time>2013-12-09T13:38:26Z</time>
      </trkpt>
      <trkpt lat="43.80209" lon="7.00895">
        <ele>1048.9873046875</ele>
        <time>2013-12-09T13:38:30Z</time>
      </trkpt>
      <trkpt lat="43.80206" lon="7.00882">
        <ele>1048.0864257812</ele>
        <time>2013-12-09T13:38:32Z</time>
      </trkpt>
      <trkpt lat="43.80204" lon="7.0087">
        <ele>1047.7707519531</ele>
        <time>2013-12-09T13:38:34Z</time>
      </trkpt>
      <trkpt lat="43.80201" lon="7.00861">
        <ele>1047.771484375</ele>
        <time>2013-12-09T13:38:37Z</time>
      </trkpt>
      <trkpt lat="43.80201" lon="7.0086">
        <ele>1047.7850341797</ele>
        <time>2013-12-09T13:38:43Z</time>
      </trkpt>
      <trkpt lat="43.80207" lon="7.00852">
        <ele>1047.1163330078</ele>
        <time>2013-12-09T13:39:24Z</time>
      </trkpt>
      <trkpt lat="43.80208" lon="7.0085">
        <ele>1046.9630126953</ele>
        <time>2013-12-09T13:39:25Z</time>
      </trkpt>
      <trkpt lat="43.80208" lon="7.00836">
        <ele>1046.1695556641</ele>
        <time>2013-12-09T13:39:28Z</time>
      </trkpt>
      <trkpt lat="43.80208" lon="7.00829">
        <ele>1045.9613037109</ele>
        <time>2013-12-09T13:39:29Z</time>
      </trkpt>
      <trkpt lat="43.8021" lon="7.00798">
        <ele>1045.0686035156</ele>
        <time>2013-12-09T13:39:33Z</time>
      </trkpt>
      <trkpt lat="43.80209" lon="7.00783">
        <ele>1045.7908935547</ele>
        <time>2013-12-09T13:39:35Z</time>
      </trkpt>
      <trkpt lat="43.80206" lon="7.00776">
        <ele>1047.2225341797</ele>
        <time>2013-12-09T13:39:36Z</time>
      </trkpt>
      <trkpt lat="43.80195" lon="7.00733">
        <ele>1054.4761962891</ele>
        <time>2013-12-09T13:39:41Z</time>
      </trkpt>
      <trkpt lat="43.80195" lon="7.00724">
        <ele>1054.8037109375</ele>
        <time>2013-12-09T13:39:42Z</time>
      </trkpt>
      <trkpt lat="43.80195" lon="7.00716">
        <ele>1054.9262695312</ele>
        <time>2013-12-09T13:39:43Z</time>
      </trkpt>
      <trkpt lat="43.80196" lon="7.00694">
        <ele>1055.3511962891</ele>
        <time>2013-12-09T13:39:46Z</time>
      </trkpt>
      <trkpt lat="43.802" lon="7.00683">
        <ele>1054.9877929688</ele>
        <time>2013-12-09T13:39:48Z</time>
      </trkpt>
      <trkpt lat="43.80201" lon="7.00678">
        <ele>1054.9421386719</ele>
        <time>2013-12-09T13:39:49Z</time>
      </trkpt>
      <trkpt lat="43.80202" lon="7.00669">
        <ele>1055.3039550781</ele>
        <time>2013-12-09T13:39:52Z</time>
      </trkpt>
      <trkpt lat="43.80202" lon="7.00661">
        <ele>1055.5942382812</ele>
        <time>2013-12-09T13:39:54Z</time>
      </trkpt>
      <trkpt lat="43.80204" lon="7.00635">
        <ele>1056.1944580078</ele>
        <time>2013-12-09T13:39:58Z</time>
      </trkpt>
      <trkpt lat="43.80206" lon="7.00616">
        <ele>1056.5509033203</ele>
        <time>2013-12-09T13:40:02Z</time>
      </trkpt>
      <trkpt lat="43.80209" lon="7.00596">
        <ele>1056.3267822266</ele>
        <time>2013-12-09T13:40:06Z</time>
      </trkpt>
      <trkpt lat="43.80211" lon="7.00585">
        <ele>1056.5502929688</ele>
        <time>2013-12-09T13:40:08Z</time>
      </trkpt>
      <trkpt lat="43.80211" lon="7.00564">
        <ele>1056.7239990234</ele>
        <time>2013-12-09T13:40:11Z</time>
      </trkpt>
      <trkpt lat="43.8021" lon="7.00539">
        <ele>1057.2802734375</ele>
        <time>2013-12-09T13:40:14Z</time>
      </trkpt>
      <trkpt lat="43.8021" lon="7.00521">
        <ele>1057.6586914062</ele>
        <time>2013-12-09T13:40:16Z</time>
      </trkpt>
      <trkpt lat="43.80213" lon="7.00512">
        <ele>1058.0202636719</ele>
        <time>2013-12-09T13:40:17Z</time>
      </trkpt>
      <trkpt lat="43.80217" lon="7.00487">
        <ele>1059.0443115234</ele>
        <time>2013-12-09T13:40:20Z</time>
      </trkpt>
      <trkpt lat="43.80231" lon="7.00462">
        <ele>1057.1744384766</ele>
        <time>2013-12-09T13:40:23Z</time>
      </trkpt>
      <trkpt lat="43.80247" lon="7.00433">
        <ele>1053.0856933594</ele>
        <time>2013-12-09T13:40:27Z</time>
      </trkpt>
      <trkpt lat="43.80253" lon="7.00419">
        <ele>1051.9733886719</ele>
        <time>2013-12-09T13:40:29Z</time>
      </trkpt>
      <trkpt lat="43.80256" lon="7.00413">
        <ele>1051.39453125</ele>
        <time>2013-12-09T13:40:30Z</time>
      </trkpt>
      <trkpt lat="43.80261" lon="7.00402">
        <ele>1050.0858154297</ele>
        <time>2013-12-09T13:40:32Z</time>
      </trkpt>
      <trkpt lat="43.80263" lon="7.00378">
        <ele>1049.2543945312</ele>
        <time>2013-12-09T13:40:36Z</time>
      </trkpt>
      <trkpt lat="43.80262" lon="7.00373">
        <ele>1049.0762939453</ele>
        <time>2013-12-09T13:40:37Z</time>
      </trkpt>
      <trkpt lat="43.80261" lon="7.00356">
        <ele>1048.2524414062</ele>
        <time>2013-12-09T13:40:41Z</time>
      </trkpt>
      <trkpt lat="43.8026" lon="7.00352">
        <ele>1047.9068603516</ele>
        <time>2013-12-09T13:40:42Z</time>
      </trkpt>
      <trkpt lat="43.80255" lon="7.00334">
        <ele>1047.3743896484</ele>
        <time>2013-12-09T13:40:48Z</time>
      </trkpt>
      <trkpt lat="43.80253" lon="7.0033">
        <ele>1047.8688964844</ele>
        <time>2013-12-09T13:40:52Z</time>
      </trkpt>
      <trkpt lat="43.80254" lon="7.0033">
        <ele>1047.6328125</ele>
        <time>2013-12-09T13:41:07Z</time>
      </trkpt>
      <trkpt lat="43.80252" lon="7.00325">
        <ele>1047.9814453125</ele>
        <time>2013-12-09T13:42:35Z</time>
      </trkpt>
      <trkpt lat="43.80254" lon="7.00302">
        <ele>1047.0140380859</ele>
        <time>2013-12-09T13:42:41Z</time>
      </trkpt>
      <trkpt lat="43.80257" lon="7.00293">
        <ele>1046.427734375</ele>
        <time>2013-12-09T13:42:46Z</time>
      </trkpt>
      <trkpt lat="43.80261" lon="7.00275">
        <ele>1046.2387695312</ele>
        <time>2013-12-09T13:42:54Z</time>
      </trkpt>
      <trkpt lat="43.80262" lon="7.00264">
        <ele>1046.2802734375</ele>
        <time>2013-12-09T13:43:00Z</time>
      </trkpt>
      <trkpt lat="43.80261" lon="7.00253">
        <ele>1046.3797607422</ele>
        <time>2013-12-09T13:43:34Z</time>
      </trkpt>
      <trkpt lat="43.80256" lon="7.00237">
        <ele>1045.7846679688</ele>
        <time>2013-12-09T13:43:38Z</time>
      </trkpt>
      <trkpt lat="43.80242" lon="7.00222">
        <ele>1046.2607421875</ele>
        <time>2013-12-09T13:43:42Z</time>
      </trkpt>
      <trkpt lat="43.80232" lon="7.00204">
        <ele>1048.5808105469</ele>
        <time>2013-12-09T13:43:45Z</time>
      </trkpt>
      <trkpt lat="43.80235" lon="7.00195">
        <ele>1047.3551025391</ele>
        <time>2013-12-09T13:43:47Z</time>
      </trkpt>
      <trkpt lat="43.8025" lon="7.00186">
        <ele>1042.7641601562</ele>
        <time>2013-12-09T13:43:52Z</time>
      </trkpt>
      <trkpt lat="43.80254" lon="7.00182">
        <ele>1044.0144042969</ele>
        <time>2013-12-09T13:43:54Z</time>
      </trkpt>
      <trkpt lat="43.80257" lon="7.00174">
        <ele>1045.3542480469</ele>
        <time>2013-12-09T13:43:57Z</time>
      </trkpt>
      <trkpt lat="43.8026" lon="7.00149">
        <ele>1045.8203125</ele>
        <time>2013-12-09T13:44:04Z</time>
      </trkpt>
      <trkpt lat="43.80259" lon="7.00126">
        <ele>1044.7009277344</ele>
        <time>2013-12-09T13:44:12Z</time>
      </trkpt>
      <trkpt lat="43.80255" lon="7.00109">
        <ele>1044.5328369141</ele>
        <time>2013-12-09T13:44:18Z</time>
      </trkpt>
      <trkpt lat="43.80249" lon="7.00085">
        <ele>1046.3284912109</ele>
        <time>2013-12-09T13:44:26Z</time>
      </trkpt>
      <trkpt lat="43.80244" lon="7.00064">
        <ele>1048.9287109375</ele>
        <time>2013-12-09T13:44:34Z</time>
      </trkpt>
      <trkpt lat="43.8024" lon="7.00048">
        <ele>1050.8245849609</ele>
        <time>2013-12-09T13:44:42Z</time>
      </trkpt>
      <trkpt lat="43.80244" lon="7.00036">
        <ele>1050.1911621094</ele>
        <time>2013-12-09T13:44:48Z</time>
      </trkpt>
      <trkpt lat="43.80252" lon="7.00023">
        <ele>1048.5070800781</ele>
        <time>2013-12-09T13:44:56Z</time>
      </trkpt>
      <trkpt lat="43.80252" lon="7.00021">
        <ele>1048.4418945312</ele>
        <time>2013-12-09T13:44:57Z</time>
      </trkpt>
      <trkpt lat="43.80254" lon="7.0001">
        <ele>1048.3388671875</ele>
        <time>2013-12-09T13:45:03Z</time>
      </trkpt>
      <trkpt lat="43.80259" lon="6.99999">
        <ele>1047.0686035156</ele>
        <time>2013-12-09T13:45:10Z</time>
      </trkpt>
      <trkpt lat="43.80264" lon="6.99985">
        <ele>1046.474609375</ele>
        <time>2013-12-09T13:45:18Z</time>
      </trkpt>
      <trkpt lat="43.8027" lon="6.99974">
        <ele>1045.4172363281</ele>
        <time>2013-12-09T13:45:24Z</time>
      </trkpt>
      <trkpt lat="43.80278" lon="6.99959">
        <ele>1043.9653320312</ele>
        <time>2013-12-09T13:45:30Z</time>
      </trkpt>
      <trkpt lat="43.8028" lon="6.99956">
        <ele>1044.1534423828</ele>
        <time>2013-12-09T13:45:32Z</time>
      </trkpt>
      <trkpt lat="43.80281" lon="6.99954">
        <ele>1044.2312011719</ele>
        <time>2013-12-09T13:45:35Z</time>
      </trkpt>
      <trkpt lat="43.80281" lon="6.99954">
        <ele>1044.1951904297</ele>
        <time>2013-12-09T13:45:41Z</time>
      </trkpt>
      <trkpt lat="43.80278" lon="6.99951">
        <ele>1044.4907226562</ele>
        <time>2013-12-09T13:45:45Z</time>
      </trkpt>
      <trkpt lat="43.80278" lon="6.9995">
        <ele>1044.6127929688</ele>
        <time>2013-12-09T13:45:50Z</time>
      </trkpt>
      <trkpt lat="43.80279" lon="6.99947">
        <ele>1044.6840820312</ele>
        <time>2013-12-09T13:45:52Z</time>
      </trkpt>
      <trkpt lat="43.8028" lon="6.99942">
        <ele>1044.9074707031</ele>
        <time>2013-12-09T13:45:54Z</time>
      </trkpt>
      <trkpt lat="43.80283" lon="6.99936">
        <ele>1044.8210449219</ele>
        <time>2013-12-09T13:45:56Z</time>
      </trkpt>
      <trkpt lat="43.80285" lon="6.99927">
        <ele>1044.8431396484</ele>
        <time>2013-12-09T13:45:58Z</time>
      </trkpt>
      <trkpt lat="43.80289" lon="6.99908">
        <ele>1045.0959472656</ele>
        <time>2013-12-09T13:46:03Z</time>
      </trkpt>
      <trkpt lat="43.80293" lon="6.99899">
        <ele>1044.8149414062</ele>
        <time>2013-12-09T13:46:07Z</time>
      </trkpt>
      <trkpt lat="43.80295" lon="6.99897">
        <ele>1044.3715820312</ele>
        <time>2013-12-09T13:46:09Z</time>
      </trkpt>
      <trkpt lat="43.80299" lon="6.99893">
        <ele>1043.5314941406</ele>
        <time>2013-12-09T13:46:15Z</time>
      </trkpt>
      <trkpt lat="43.803" lon="6.99898">
        <ele>1042.8128662109</ele>
        <time>2013-12-09T13:46:23Z</time>
      </trkpt>
      <trkpt lat="43.80301" lon="6.99899">
        <ele>1042.6328125</ele>
        <time>2013-12-09T13:46:24Z</time>
      </trkpt>
      <trkpt lat="43.80304" lon="6.99902">
        <ele>1041.5567626953</ele>
        <time>2013-12-09T13:46:29Z</time>
      </trkpt>
      <trkpt lat="43.80307" lon="6.99903">
        <ele>1041.1274414062</ele>
        <time>2013-12-09T13:46:34Z</time>
      </trkpt>
      <trkpt lat="43.8031" lon="6.99903">
        <ele>1041.4368896484</ele>
        <time>2013-12-09T13:46:39Z</time>
      </trkpt>
      <trkpt lat="43.80309" lon="6.99908">
        <ele>1041.1856689453</ele>
        <time>2013-12-09T13:46:44Z</time>
      </trkpt>
      <trkpt lat="43.80312" lon="6.99907">
        <ele>1041.6104736328</ele>
        <time>2013-12-09T13:46:48Z</time>
      </trkpt>
      <trkpt lat="43.80312" lon="6.99906">
        <ele>1041.6722412109</ele>
        <time>2013-12-09T13:46:55Z</time>
      </trkpt>
      <trkpt lat="43.80317" lon="6.99901">
        <ele>1042.1125488281</ele>
        <time>2013-12-09T13:47:06Z</time>
      </trkpt>
      <trkpt lat="43.80326" lon="6.99892">
        <ele>1041.7254638672</ele>
        <time>2013-12-09T13:47:14Z</time>
      </trkpt>
      <trkpt lat="43.80329" lon="6.9989">
        <ele>1041.3581542969</ele>
        <time>2013-12-09T13:47:17Z</time>
      </trkpt>
      <trkpt lat="43.80332" lon="6.99887">
        <ele>1041.1018066406</ele>
        <time>2013-12-09T13:47:19Z</time>
      </trkpt>
      <trkpt lat="43.80342" lon="6.99879">
        <ele>1043.6196289062</ele>
        <time>2013-12-09T13:47:22Z</time>
      </trkpt>
      <trkpt lat="43.80344" lon="6.99875">
        <ele>1043.8918457031</ele>
        <time>2013-12-09T13:47:23Z</time>
      </trkpt>
      <trkpt lat="43.80346" lon="6.99867">
        <ele>1043.7386474609</ele>
        <time>2013-12-09T13:47:25Z</time>
      </trkpt>
      <trkpt lat="43.80346" lon="6.99861">
        <ele>1043.2966308594</ele>
        <time>2013-12-09T13:47:28Z</time>
      </trkpt>
      <trkpt lat="43.80345" lon="6.99859">
        <ele>1043.1403808594</ele>
        <time>2013-12-09T13:47:29Z</time>
      </trkpt>
      <trkpt lat="43.80342" lon="6.99849">
        <ele>1042.6745605469</ele>
        <time>2013-12-09T13:47:35Z</time>
      </trkpt>
      <trkpt lat="43.80341" lon="6.99838">
        <ele>1042.5054931641</ele>
        <time>2013-12-09T13:47:39Z</time>
      </trkpt>
      <trkpt lat="43.80341" lon="6.99836">
        <ele>1042.4805908203</ele>
        <time>2013-12-09T13:47:42Z</time>
      </trkpt>
      <trkpt lat="43.80341" lon="6.99839">
        <ele>1042.5123291016</ele>
        <time>2013-12-09T13:47:47Z</time>
      </trkpt>
      <trkpt lat="43.80339" lon="6.99842">
        <ele>1042.58984375</ele>
        <time>2013-12-09T13:47:52Z</time>
      </trkpt>
      <trkpt lat="43.80338" lon="6.99842">
        <ele>1042.611328125</ele>
        <time>2013-12-09T13:47:53Z</time>
      </trkpt>
      <trkpt lat="43.80336" lon="6.99837">
        <ele>1042.7543945312</ele>
        <time>2013-12-09T13:47:57Z</time>
      </trkpt>
      <trkpt lat="43.80334" lon="6.99835">
        <ele>1042.8753662109</ele>
        <time>2013-12-09T13:48:00Z</time>
      </trkpt>
      <trkpt lat="43.80334" lon="6.99833">
        <ele>1042.9793701172</ele>
        <time>2013-12-09T13:48:01Z</time>
      </trkpt>
      <trkpt lat="43.80324" lon="6.99821">
        <ele>1044.6295166016</ele>
        <time>2013-12-09T13:48:08Z</time>
      </trkpt>
      <trkpt lat="43.80315" lon="6.99809">
        <ele>1046.4832763672</ele>
        <time>2013-12-09T13:48:16Z</time>
      </trkpt>
      <trkpt lat="43.80313" lon="6.99794">
        <ele>1047.5876464844</ele>
        <time>2013-12-09T13:48:23Z</time>
      </trkpt>
      <trkpt lat="43.80316" lon="6.99778">
        <ele>1048.1617431641</ele>
        <time>2013-12-09T13:48:31Z</time>
      </trkpt>
      <trkpt lat="43.80317" lon="6.99771">
        <ele>1048.3540039062</ele>
        <time>2013-12-09T13:48:36Z</time>
      </trkpt>
      <trkpt lat="43.80318" lon="6.99771">
        <ele>1048.2716064453</ele>
        <time>2013-12-09T13:48:37Z</time>
      </trkpt>
      <trkpt lat="43.8032" lon="6.99765">
        <ele>1048.2990722656</ele>
        <time>2013-12-09T13:48:41Z</time>
      </trkpt>
      <trkpt lat="43.80323" lon="6.99746">
        <ele>1049.0860595703</ele>
        <time>2013-12-09T13:48:49Z</time>
      </trkpt>
      <trkpt lat="43.80328" lon="6.99719">
        <ele>1050.349609375</ele>
        <time>2013-12-09T13:49:00Z</time>
      </trkpt>
      <trkpt lat="43.80331" lon="6.99698">
        <ele>1050.4594726562</ele>
        <time>2013-12-09T13:49:08Z</time>
      </trkpt>
      <trkpt lat="43.80331" lon="6.99688">
        <ele>1050.9033203125</ele>
        <time>2013-12-09T13:49:14Z</time>
      </trkpt>
      <trkpt lat="43.80331" lon="6.99687">
        <ele>1050.9920654297</ele>
        <time>2013-12-09T13:49:15Z</time>
      </trkpt>
      <trkpt lat="43.80331" lon="6.99686">
        <ele>1051.2005615234</ele>
        <time>2013-12-09T13:49:19Z</time>
      </trkpt>
      <trkpt lat="43.80331" lon="6.99687">
        <ele>1051.1754150391</ele>
        <time>2013-12-09T13:49:25Z</time>
      </trkpt>
      <trkpt lat="43.80331" lon="6.99683">
        <ele>1051.4560546875</ele>
        <time>2013-12-09T13:49:46Z</time>
      </trkpt>
      <trkpt lat="43.8033" lon="6.99679">
        <ele>1051.8411865234</ele>
        <time>2013-12-09T13:49:49Z</time>
      </trkpt>
      <trkpt lat="43.80331" lon="6.99678">
        <ele>1051.8159179688</ele>
        <time>2013-12-09T13:49:51Z</time>
      </trkpt>
      <trkpt lat="43.80326" lon="6.99677">
        <ele>1052.8963623047</ele>
        <time>2013-12-09T13:50:22Z</time>
      </trkpt>
      <trkpt lat="43.80321" lon="6.99678">
        <ele>1054.0744628906</ele>
        <time>2013-12-09T13:50:28Z</time>
      </trkpt>
      <trkpt lat="43.8032" lon="6.99678">
        <ele>1054.2807617188</ele>
        <time>2013-12-09T13:50:29Z</time>
      </trkpt>
      <trkpt lat="43.80315" lon="6.99678">
        <ele>1055.5587158203</ele>
        <time>2013-12-09T13:50:35Z</time>
      </trkpt>
      <trkpt lat="43.80313" lon="6.99678">
        <ele>1056.0556640625</ele>
        <time>2013-12-09T13:50:40Z</time>
      </trkpt>
      <trkpt lat="43.80312" lon="6.99679">
        <ele>1056.0941162109</ele>
        <time>2013-12-09T13:50:44Z</time>
      </trkpt>
      <trkpt lat="43.80306" lon="6.99677">
        <ele>1057.6696777344</ele>
        <time>2013-12-09T13:50:49Z</time>
      </trkpt>
      <trkpt lat="43.80298" lon="6.99673">
        <ele>1058.0412597656</ele>
        <time>2013-12-09T13:50:54Z</time>
      </trkpt>
      <trkpt lat="43.80296" lon="6.99668">
        <ele>1058.2150878906</ele>
        <time>2013-12-09T13:51:02Z</time>
      </trkpt>
      <trkpt lat="43.80295" lon="6.99667">
        <ele>1058.2541503906</ele>
        <time>2013-12-09T13:51:08Z</time>
      </trkpt>
      <trkpt lat="43.80294" lon="6.99666">
        <ele>1058.1745605469</ele>
        <time>2013-12-09T13:51:13Z</time>
      </trkpt>
      <trkpt lat="43.80289" lon="6.99668">
        <ele>1057.8146972656</ele>
        <time>2013-12-09T13:51:18Z</time>
      </trkpt>
      <trkpt lat="43.80288" lon="6.9967">
        <ele>1057.6516113281</ele>
        <time>2013-12-09T13:51:22Z</time>
      </trkpt>
      <trkpt lat="43.80288" lon="6.99672">
        <ele>1057.6313476562</ele>
        <time>2013-12-09T13:51:23Z</time>
      </trkpt>
      <trkpt lat="43.80286" lon="6.99674">
        <ele>1057.5411376953</ele>
        <time>2013-12-09T13:51:25Z</time>
      </trkpt>
      <trkpt lat="43.80283" lon="6.99675">
        <ele>1057.4632568359</ele>
        <time>2013-12-09T13:51:28Z</time>
      </trkpt>
      <trkpt lat="43.80278" lon="6.99671">
        <ele>1057.1721191406</ele>
        <time>2013-12-09T13:51:33Z</time>
      </trkpt>
      <trkpt lat="43.80268" lon="6.99671">
        <ele>1055.6926269531</ele>
        <time>2013-12-09T13:51:37Z</time>
      </trkpt>
      <trkpt lat="43.80265" lon="6.9967">
        <ele>1055.3287353516</ele>
        <time>2013-12-09T13:51:38Z</time>
      </trkpt>
      <trkpt lat="43.8026" lon="6.99662">
        <ele>1054.2468261719</ele>
        <time>2013-12-09T13:51:41Z</time>
      </trkpt>
      <trkpt lat="43.8025" lon="6.99657">
        <ele>1052.3276367188</ele>
        <time>2013-12-09T13:51:46Z</time>
      </trkpt>
      <trkpt lat="43.80247" lon="6.99653">
        <ele>1051.6602783203</ele>
        <time>2013-12-09T13:51:49Z</time>
      </trkpt>
      <trkpt lat="43.8024" lon="6.99648">
        <ele>1050.6165771484</ele>
        <time>2013-12-09T13:51:53Z</time>
      </trkpt>
      <trkpt lat="43.80236" lon="6.99642">
        <ele>1049.6827392578</ele>
        <time>2013-12-09T13:51:58Z</time>
      </trkpt>
      <trkpt lat="43.8023" lon="6.99641">
        <ele>1049.0441894531</ele>
        <time>2013-12-09T13:52:07Z</time>
      </trkpt>
      <trkpt lat="43.80215" lon="6.99638">
        <ele>1045.7985839844</ele>
        <time>2013-12-09T13:52:13Z</time>
      </trkpt>
      <trkpt lat="43.80208" lon="6.99634">
        <ele>1043.6871337891</ele>
        <time>2013-12-09T13:52:18Z</time>
      </trkpt>
      <trkpt lat="43.80211" lon="6.99633">
        <ele>1044.5196533203</ele>
        <time>2013-12-09T13:52:39Z</time>
      </trkpt>
      <trkpt lat="43.80214" lon="6.99635">
        <ele>1045.3591308594</ele>
        <time>2013-12-09T13:52:41Z</time>
      </trkpt>
      <trkpt lat="43.80223" lon="6.99637">
        <ele>1047.9832763672</ele>
        <time>2013-12-09T13:52:48Z</time>
      </trkpt>
      <trkpt lat="43.80229" lon="6.99638">
        <ele>1048.6629638672</ele>
        <time>2013-12-09T13:52:54Z</time>
      </trkpt>
      <trkpt lat="43.80229" lon="6.99638">
        <ele>1048.6716308594</ele>
        <time>2013-12-09T13:52:56Z</time>
      </trkpt>
      <trkpt lat="43.80229" lon="6.99638">
        <ele>1048.7093505859</ele>
        <time>2013-12-09T13:53:07Z</time>
      </trkpt>
      <trkpt lat="43.80228" lon="6.99637">
        <ele>1048.513671875</ele>
        <time>2013-12-09T14:03:31Z</time>
      </trkpt>
      <trkpt lat="43.80222" lon="6.99636">
        <ele>1047.8121337891</ele>
        <time>2013-12-09T14:03:48Z</time>
      </trkpt>
      <trkpt lat="43.8021" lon="6.99631">
        <ele>1044.1282958984</ele>
        <time>2013-12-09T14:03:55Z</time>
      </trkpt>
      <trkpt lat="43.80206" lon="6.99619">
        <ele>1042.4631347656</ele>
        <time>2013-12-09T14:03:59Z</time>
      </trkpt>
      <trkpt lat="43.80194" lon="6.99596">
        <ele>1038.3570556641</ele>
        <time>2013-12-09T14:04:03Z</time>
      </trkpt>
      <trkpt lat="43.80179" lon="6.99576">
        <ele>1032.7979736328</ele>
        <time>2013-12-09T14:04:08Z</time>
      </trkpt>
      <trkpt lat="43.8017" lon="6.99563">
        <ele>1029.5003662109</ele>
        <time>2013-12-09T14:04:12Z</time>
      </trkpt>
      <trkpt lat="43.80169" lon="6.99561">
        <ele>1028.7913818359</ele>
        <time>2013-12-09T14:04:13Z</time>
      </trkpt>
      <trkpt lat="43.8016" lon="6.99553">
        <ele>1027.1882324219</ele>
        <time>2013-12-09T14:04:16Z</time>
      </trkpt>
      <trkpt lat="43.8014" lon="6.99544">
        <ele>1024.7248535156</ele>
        <time>2013-12-09T14:04:22Z</time>
      </trkpt>
      <trkpt lat="43.80125" lon="6.99541">
        <ele>1019.7037963867</ele>
        <time>2013-12-09T14:04:26Z</time>
      </trkpt>
      <trkpt lat="43.80124" lon="6.99539">
        <ele>1019.3500366211</ele>
        <time>2013-12-09T14:04:27Z</time>
      </trkpt>
      <trkpt lat="43.80129" lon="6.99533">
        <ele>1020.6659545898</ele>
        <time>2013-12-09T14:04:30Z</time>
      </trkpt>
      <trkpt lat="43.80131" lon="6.99532">
        <ele>1021.389831543</ele>
        <time>2013-12-09T14:04:31Z</time>
      </trkpt>
      <trkpt lat="43.80132" lon="6.99529">
        <ele>1021.5511474609</ele>
        <time>2013-12-09T14:04:32Z</time>
      </trkpt>
      <trkpt lat="43.80129" lon="6.99527">
        <ele>1020.4666748047</ele>
        <time>2013-12-09T14:04:34Z</time>
      </trkpt>
      <trkpt lat="43.80121" lon="6.99522">
        <ele>1017.0686645508</ele>
        <time>2013-12-09T14:04:37Z</time>
      </trkpt>
      <trkpt lat="43.80104" lon="6.99514">
        <ele>1009.3897094727</ele>
        <time>2013-12-09T14:04:42Z</time>
      </trkpt>
      <trkpt lat="43.80088" lon="6.99512">
        <ele>1002.6716308594</ele>
        <time>2013-12-09T14:04:46Z</time>
      </trkpt>
      <trkpt lat="43.80075" lon="6.99515">
        <ele>996.23834228516</ele>
        <time>2013-12-09T14:04:49Z</time>
      </trkpt>
      <trkpt lat="43.80063" lon="6.99525">
        <ele>989.50921630859</ele>
        <time>2013-12-09T14:04:53Z</time>
      </trkpt>
      <trkpt lat="43.80051" lon="6.99534">
        <ele>983.41455078125</ele>
        <time>2013-12-09T14:04:56Z</time>
      </trkpt>
      <trkpt lat="43.80049" lon="6.99538">
        <ele>982.50360107422</ele>
        <time>2013-12-09T14:04:57Z</time>
      </trkpt>
      <trkpt lat="43.80041" lon="6.99554">
        <ele>980.38781738281</ele>
        <time>2013-12-09T14:05:01Z</time>
      </trkpt>
      <trkpt lat="43.80038" lon="6.99555">
        <ele>979.38317871094</ele>
        <time>2013-12-09T14:05:02Z</time>
      </trkpt>
      <trkpt lat="43.80035" lon="6.99551">
        <ele>977.40167236328</ele>
        <time>2013-12-09T14:05:04Z</time>
      </trkpt>
      <trkpt lat="43.80035" lon="6.99543">
        <ele>976.34844970703</ele>
        <time>2013-12-09T14:05:06Z</time>
      </trkpt>
      <trkpt lat="43.80037" lon="6.99536">
        <ele>976.36242675781</ele>
        <time>2013-12-09T14:05:08Z</time>
      </trkpt>
      <trkpt lat="43.80036" lon="6.99531">
        <ele>975.65899658203</ele>
        <time>2013-12-09T14:05:10Z</time>
      </trkpt>
      <trkpt lat="43.80035" lon="6.99531">
        <ele>975.10467529297</ele>
        <time>2013-12-09T14:05:11Z</time>
      </trkpt>
      <trkpt lat="43.8003" lon="6.9954">
        <ele>973.71008300781</ele>
        <time>2013-12-09T14:05:15Z</time>
      </trkpt>
      <trkpt lat="43.80027" lon="6.99548">
        <ele>973.67132568359</ele>
        <time>2013-12-09T14:05:19Z</time>
      </trkpt>
      <trkpt lat="43.80022" lon="6.99556">
        <ele>971.20721435547</ele>
        <time>2013-12-09T14:05:22Z</time>
      </trkpt>
      <trkpt lat="43.80021" lon="6.99554">
        <ele>970.12341308594</ele>
        <time>2013-12-09T14:05:23Z</time>
      </trkpt>
      <trkpt lat="43.80022" lon="6.99542">
        <ele>968.82055664062</ele>
        <time>2013-12-09T14:05:27Z</time>
      </trkpt>
      <trkpt lat="43.80021" lon="6.9954">
        <ele>967.94274902344</ele>
        <time>2013-12-09T14:05:28Z</time>
      </trkpt>
      <trkpt lat="43.8002" lon="6.99531">
        <ele>965.89959716797</ele>
        <time>2013-12-09T14:05:31Z</time>
      </trkpt>
      <trkpt lat="43.80019" lon="6.99512">
        <ele>962.12939453125</ele>
        <time>2013-12-09T14:05:35Z</time>
      </trkpt>
      <trkpt lat="43.80021" lon="6.99496">
        <ele>961.03045654297</ele>
        <time>2013-12-09T14:05:39Z</time>
      </trkpt>
      <trkpt lat="43.80023" lon="6.99477">
        <ele>958.9853515625</ele>
        <time>2013-12-09T14:05:43Z</time>
      </trkpt>
      <trkpt lat="43.80024" lon="6.99468">
        <ele>958.69189453125</ele>
        <time>2013-12-09T14:05:45Z</time>
      </trkpt>
      <trkpt lat="43.80025" lon="6.99461">
        <ele>958.87292480469</ele>
        <time>2013-12-09T14:05:47Z</time>
      </trkpt>
      <trkpt lat="43.80025" lon="6.99453">
        <ele>958.77557373047</ele>
        <time>2013-12-09T14:05:50Z</time>
      </trkpt>
      <trkpt lat="43.80025" lon="6.99449">
        <ele>958.63555908203</ele>
        <time>2013-12-09T14:05:51Z</time>
      </trkpt>
      <trkpt lat="43.80029" lon="6.99436">
        <ele>960.46148681641</ele>
        <time>2013-12-09T14:05:55Z</time>
      </trkpt>
      <trkpt lat="43.80031" lon="6.99428">
        <ele>961.01428222656</ele>
        <time>2013-12-09T14:05:58Z</time>
      </trkpt>
      <trkpt lat="43.8003" lon="6.99425">
        <ele>960.2314453125</ele>
        <time>2013-12-09T14:05:59Z</time>
      </trkpt>
      <trkpt lat="43.80025" lon="6.99413">
        <ele>955.54174804688</ele>
        <time>2013-12-09T14:06:03Z</time>
      </trkpt>
      <trkpt lat="43.80024" lon="6.99407">
        <ele>953.98223876953</ele>
        <time>2013-12-09T14:06:05Z</time>
      </trkpt>
      <trkpt lat="43.80025" lon="6.99396">
        <ele>953.31805419922</ele>
        <time>2013-12-09T14:06:07Z</time>
      </trkpt>
      <trkpt lat="43.80025" lon="6.99376">
        <ele>950.48388671875</ele>
        <time>2013-12-09T14:06:11Z</time>
      </trkpt>
      <trkpt lat="43.80022" lon="6.99351">
        <ele>944.80474853516</ele>
        <time>2013-12-09T14:06:16Z</time>
      </trkpt>
      <trkpt lat="43.80021" lon="6.99339">
        <ele>941.92846679688</ele>
        <time>2013-12-09T14:06:19Z</time>
      </trkpt>
      <trkpt lat="43.80022" lon="6.99336">
        <ele>941.6162109375</ele>
        <time>2013-12-09T14:06:20Z</time>
      </trkpt>
      <trkpt lat="43.80024" lon="6.9933">
        <ele>941.44848632812</ele>
        <time>2013-12-09T14:06:22Z</time>
      </trkpt>
      <trkpt lat="43.80028" lon="6.99322">
        <ele>942.06567382812</ele>
        <time>2013-12-09T14:06:24Z</time>
      </trkpt>
      <trkpt lat="43.80029" lon="6.99318">
        <ele>942.25152587891</ele>
        <time>2013-12-09T14:06:25Z</time>
      </trkpt>
      <trkpt lat="43.80025" lon="6.99314">
        <ele>940.04309082031</ele>
        <time>2013-12-09T14:06:27Z</time>
      </trkpt>
      <trkpt lat="43.80008" lon="6.99303">
        <ele>934.87091064453</ele>
        <time>2013-12-09T14:06:32Z</time>
      </trkpt>
      <trkpt lat="43.79998" lon="6.99298">
        <ele>931.69091796875</ele>
        <time>2013-12-09T14:06:35Z</time>
      </trkpt>
      <trkpt lat="43.79997" lon="6.99298">
        <ele>930.900390625</ele>
        <time>2013-12-09T14:06:36Z</time>
      </trkpt>
      <trkpt lat="43.79984" lon="6.99296">
        <ele>924.57800292969</ele>
        <time>2013-12-09T14:06:40Z</time>
      </trkpt>
      <trkpt lat="43.79978" lon="6.9929">
        <ele>921.15197753906</ele>
        <time>2013-12-09T14:06:42Z</time>
      </trkpt>
      <trkpt lat="43.79977" lon="6.99286">
        <ele>920.60528564453</ele>
        <time>2013-12-09T14:06:43Z</time>
      </trkpt>
      <trkpt lat="43.79974" lon="6.99287">
        <ele>918.98303222656</ele>
        <time>2013-12-09T14:06:46Z</time>
      </trkpt>
      <trkpt lat="43.79967" lon="6.99296">
        <ele>916.38531494141</ele>
        <time>2013-12-09T14:06:50Z</time>
      </trkpt>
      <trkpt lat="43.79964" lon="6.99294">
        <ele>914.77416992188</ele>
        <time>2013-12-09T14:06:53Z</time>
      </trkpt>
      <trkpt lat="43.79962" lon="6.99293">
        <ele>914.05029296875</ele>
        <time>2013-12-09T14:06:55Z</time>
      </trkpt>
      <trkpt lat="43.79962" lon="6.99293">
        <ele>913.87945556641</ele>
        <time>2013-12-09T14:06:57Z</time>
      </trkpt>
      <trkpt lat="43.79954" lon="6.99293">
        <ele>910.43951416016</ele>
        <time>2013-12-09T14:08:11Z</time>
      </trkpt>
      <trkpt lat="43.79948" lon="6.99291">
        <ele>907.40222167969</ele>
        <time>2013-12-09T14:08:13Z</time>
      </trkpt>
      <trkpt lat="43.79943" lon="6.9929">
        <ele>905.27990722656</ele>
        <time>2013-12-09T14:08:14Z</time>
      </trkpt>
      <trkpt lat="43.7993" lon="6.9928">
        <ele>899.83477783203</ele>
        <time>2013-12-09T14:08:17Z</time>
      </trkpt>
      <trkpt lat="43.79926" lon="6.99276">
        <ele>898.38269042969</ele>
        <time>2013-12-09T14:08:18Z</time>
      </trkpt>
      <trkpt lat="43.79921" lon="6.99268">
        <ele>896.25378417969</ele>
        <time>2013-12-09T14:08:20Z</time>
      </trkpt>
      <trkpt lat="43.79921" lon="6.99263">
        <ele>896.07727050781</ele>
        <time>2013-12-09T14:08:21Z</time>
      </trkpt>
      <trkpt lat="43.79918" lon="6.9925">
        <ele>894.40142822266</ele>
        <time>2013-12-09T14:08:25Z</time>
      </trkpt>
      <trkpt lat="43.79916" lon="6.99247">
        <ele>893.66955566406</ele>
        <time>2013-12-09T14:08:26Z</time>
      </trkpt>
      <trkpt lat="43.79907" lon="6.99235">
        <ele>890.58288574219</ele>
        <time>2013-12-09T14:08:29Z</time>
      </trkpt>
      <trkpt lat="43.79899" lon="6.99218">
        <ele>887.65484619141</ele>
        <time>2013-12-09T14:08:33Z</time>
      </trkpt>
      <trkpt lat="43.7989" lon="6.99201">
        <ele>884.53448486328</ele>
        <time>2013-12-09T14:08:37Z</time>
      </trkpt>
      <trkpt lat="43.79877" lon="6.99186">
        <ele>878.85870361328</ele>
        <time>2013-12-09T14:08:41Z</time>
      </trkpt>
      <trkpt lat="43.79872" lon="6.99176">
        <ele>876.68377685547</ele>
        <time>2013-12-09T14:08:43Z</time>
      </trkpt>
      <trkpt lat="43.79871" lon="6.99171">
        <ele>876.05206298828</ele>
        <time>2013-12-09T14:08:44Z</time>
      </trkpt>
      <trkpt lat="43.79872" lon="6.99161">
        <ele>876.16888427734</ele>
        <time>2013-12-09T14:08:47Z</time>
      </trkpt>
      <trkpt lat="43.7987" lon="6.99154">
        <ele>875.28826904297</ele>
        <time>2013-12-09T14:08:50Z</time>
      </trkpt>
      <trkpt lat="43.7986" lon="6.99141">
        <ele>870.87359619141</ele>
        <time>2013-12-09T14:08:54Z</time>
      </trkpt>
      <trkpt lat="43.7985" lon="6.99122">
        <ele>868.57482910156</ele>
        <time>2013-12-09T14:08:58Z</time>
      </trkpt>
      <trkpt lat="43.79839" lon="6.99097">
        <ele>866.35528564453</ele>
        <time>2013-12-09T14:09:03Z</time>
      </trkpt>
      <trkpt lat="43.79839" lon="6.99083">
        <ele>865.79400634766</ele>
        <time>2013-12-09T14:09:07Z</time>
      </trkpt>
      <trkpt lat="43.79839" lon="6.99072">
        <ele>865.47344970703</ele>
        <time>2013-12-09T14:09:10Z</time>
      </trkpt>
      <trkpt lat="43.79839" lon="6.99069">
        <ele>865.34307861328</ele>
        <time>2013-12-09T14:09:12Z</time>
      </trkpt>
      <trkpt lat="43.79845" lon="6.99061">
        <ele>866.16424560547</ele>
        <time>2013-12-09T14:09:44Z</time>
      </trkpt>
      <trkpt lat="43.79865" lon="6.99038">
        <ele>870.27105712891</ele>
        <time>2013-12-09T14:09:50Z</time>
      </trkpt>
      <trkpt lat="43.79865" lon="6.99028">
        <ele>870.40570068359</ele>
        <time>2013-12-09T14:09:52Z</time>
      </trkpt>
      <trkpt lat="43.79864" lon="6.99024">
        <ele>869.39398193359</ele>
        <time>2013-12-09T14:09:53Z</time>
      </trkpt>
      <trkpt lat="43.79862" lon="6.99009">
        <ele>867.97204589844</ele>
        <time>2013-12-09T14:09:56Z</time>
      </trkpt>
      <trkpt lat="43.79874" lon="6.98983">
        <ele>874.33984375</ele>
        <time>2013-12-09T14:10:00Z</time>
      </trkpt>
      <trkpt lat="43.79884" lon="6.98956">
        <ele>879.4765625</ele>
        <time>2013-12-09T14:10:04Z</time>
      </trkpt>
      <trkpt lat="43.79884" lon="6.98942">
        <ele>878.60101318359</ele>
        <time>2013-12-09T14:10:06Z</time>
      </trkpt>
      <trkpt lat="43.79884" lon="6.98934">
        <ele>878.51727294922</ele>
        <time>2013-12-09T14:10:07Z</time>
      </trkpt>
      <trkpt lat="43.7989" lon="6.98924">
        <ele>881.0986328125</ele>
        <time>2013-12-09T14:10:09Z</time>
      </trkpt>
      <trkpt lat="43.79895" lon="6.98917">
        <ele>882.23156738281</ele>
        <time>2013-12-09T14:10:11Z</time>
      </trkpt>
      <trkpt lat="43.79893" lon="6.98914">
        <ele>881.62652587891</ele>
        <time>2013-12-09T14:10:12Z</time>
      </trkpt>
      <trkpt lat="43.79889" lon="6.989">
        <ele>880.12933349609</ele>
        <time>2013-12-09T14:10:15Z</time>
      </trkpt>
      <trkpt lat="43.7989" lon="6.98894">
        <ele>880.23870849609</ele>
        <time>2013-12-09T14:10:16Z</time>
      </trkpt>
      <trkpt lat="43.79894" lon="6.98861">
        <ele>881.10754394531</ele>
        <time>2013-12-09T14:10:21Z</time>
      </trkpt>
      <trkpt lat="43.79898" lon="6.98836">
        <ele>879.46087646484</ele>
        <time>2013-12-09T14:10:25Z</time>
      </trkpt>
      <trkpt lat="43.79899" lon="6.98831">
        <ele>879.30108642578</ele>
        <time>2013-12-09T14:10:26Z</time>
      </trkpt>
      <trkpt lat="43.79899" lon="6.98826">
        <ele>878.81127929688</ele>
        <time>2013-12-09T14:10:27Z</time>
      </trkpt>
      <trkpt lat="43.799" lon="6.98815">
        <ele>878.18444824219</ele>
        <time>2013-12-09T14:10:29Z</time>
      </trkpt>
      <trkpt lat="43.79903" lon="6.98789">
        <ele>876.4345703125</ele>
        <time>2013-12-09T14:10:33Z</time>
      </trkpt>
      <trkpt lat="43.79905" lon="6.98784">
        <ele>876.40679931641</ele>
        <time>2013-12-09T14:10:34Z</time>
      </trkpt>
      <trkpt lat="43.79909" lon="6.98767">
        <ele>876.921875</ele>
        <time>2013-12-09T14:10:38Z</time>
      </trkpt>
      <trkpt lat="43.79908" lon="6.98763">
        <ele>876.3837890625</ele>
        <time>2013-12-09T14:10:39Z</time>
      </trkpt>
      <trkpt lat="43.79908" lon="6.98758">
        <ele>876.26623535156</ele>
        <time>2013-12-09T14:10:40Z</time>
      </trkpt>
      <trkpt lat="43.79908" lon="6.98744">
        <ele>875.27233886719</ele>
        <time>2013-12-09T14:10:42Z</time>
      </trkpt>
      <trkpt lat="43.79904" lon="6.98728">
        <ele>871.22106933594</ele>
        <time>2013-12-09T14:10:45Z</time>
      </trkpt>
      <trkpt lat="43.799" lon="6.98688">
        <ele>864.80718994141</ele>
        <time>2013-12-09T14:10:50Z</time>
      </trkpt>
      <trkpt lat="43.79898" lon="6.98663">
        <ele>862.82659912109</ele>
        <time>2013-12-09T14:10:53Z</time>
      </trkpt>
      <trkpt lat="43.79897" lon="6.98656">
        <ele>862.02331542969</ele>
        <time>2013-12-09T14:10:54Z</time>
      </trkpt>
      <trkpt lat="43.79893" lon="6.98646">
        <ele>860.40478515625</ele>
        <time>2013-12-09T14:10:56Z</time>
      </trkpt>
      <trkpt lat="43.7989" lon="6.98645">
        <ele>859.58917236328</ele>
        <time>2013-12-09T14:10:57Z</time>
      </trkpt>
      <trkpt lat="43.79878" lon="6.98647">
        <ele>854.74273681641</ele>
        <time>2013-12-09T14:11:00Z</time>
      </trkpt>
      <trkpt lat="43.79866" lon="6.98639">
        <ele>848.93579101562</ele>
        <time>2013-12-09T14:11:03Z</time>
      </trkpt>
      <trkpt lat="43.79861" lon="6.98634">
        <ele>846.8310546875</ele>
        <time>2013-12-09T14:11:04Z</time>
      </trkpt>
      <trkpt lat="43.7984" lon="6.98615">
        <ele>839.87524414062</ele>
        <time>2013-12-09T14:11:09Z</time>
      </trkpt>
      <trkpt lat="43.79833" lon="6.98605">
        <ele>837.52355957031</ele>
        <time>2013-12-09T14:11:11Z</time>
      </trkpt>
      <trkpt lat="43.7983" lon="6.98594">
        <ele>834.78149414062</ele>
        <time>2013-12-09T14:11:13Z</time>
      </trkpt>
      <trkpt lat="43.79824" lon="6.98576">
        <ele>829.68835449219</ele>
        <time>2013-12-09T14:11:16Z</time>
      </trkpt>
      <trkpt lat="43.79821" lon="6.98572">
        <ele>827.58288574219</ele>
        <time>2013-12-09T14:11:17Z</time>
      </trkpt>
      <trkpt lat="43.79821" lon="6.98558">
        <ele>826.83605957031</ele>
        <time>2013-12-09T14:11:20Z</time>
      </trkpt>
      <trkpt lat="43.79819" lon="6.98546">
        <ele>825.27233886719</ele>
        <time>2013-12-09T14:11:23Z</time>
      </trkpt>
      <trkpt lat="43.79817" lon="6.98539">
        <ele>823.85485839844</ele>
        <time>2013-12-09T14:11:24Z</time>
      </trkpt>
      <trkpt lat="43.79812" lon="6.98517">
        <ele>819.93792724609</ele>
        <time>2013-12-09T14:11:27Z</time>
      </trkpt>
      <trkpt lat="43.79807" lon="6.985">
        <ele>816.87951660156</ele>
        <time>2013-12-09T14:11:30Z</time>
      </trkpt>
      <trkpt lat="43.79807" lon="6.98499">
        <ele>816.69445800781</ele>
        <time>2013-12-09T14:11:31Z</time>
      </trkpt>
      <trkpt lat="43.79807" lon="6.98499">
        <ele>816.67401123047</ele>
        <time>2013-12-09T14:11:35Z</time>
      </trkpt>
      <trkpt lat="43.79807" lon="6.98499">
        <ele>816.76391601562</ele>
        <time>2013-12-09T14:11:41Z</time>
      </trkpt>
      <trkpt lat="43.79806" lon="6.98499">
        <ele>816.25653076172</ele>
        <time>2013-12-09T14:12:23Z</time>
      </trkpt>
      <trkpt lat="43.798" lon="6.98493">
        <ele>813.97198486328</ele>
        <time>2013-12-09T14:12:41Z</time>
      </trkpt>
      <trkpt lat="43.79789" lon="6.98477">
        <ele>808.49652099609</ele>
        <time>2013-12-09T14:12:47Z</time>
      </trkpt>
      <trkpt lat="43.79779" lon="6.98462">
        <ele>804.09606933594</ele>
        <time>2013-12-09T14:12:52Z</time>
      </trkpt>
      <trkpt lat="43.7977" lon="6.98451">
        <ele>801.92193603516</ele>
        <time>2013-12-09T14:12:56Z</time>
      </trkpt>
      <trkpt lat="43.79758" lon="6.98437">
        <ele>799.54528808594</ele>
        <time>2013-12-09T14:13:00Z</time>
      </trkpt>
      <trkpt lat="43.79745" lon="6.98427">
        <ele>794.86450195312</ele>
        <time>2013-12-09T14:13:05Z</time>
      </trkpt>
      <trkpt lat="43.79743" lon="6.98425">
        <ele>794.02789306641</ele>
        <time>2013-12-09T14:13:06Z</time>
      </trkpt>
      <trkpt lat="43.79741" lon="6.98418">
        <ele>793.65203857422</ele>
        <time>2013-12-09T14:13:08Z</time>
      </trkpt>
      <trkpt lat="43.7974" lon="6.98419">
        <ele>792.86804199219</ele>
        <time>2013-12-09T14:13:10Z</time>
      </trkpt>
      <trkpt lat="43.79739" lon="6.9842">
        <ele>792.17254638672</ele>
        <time>2013-12-09T14:13:13Z</time>
      </trkpt>
      <trkpt lat="43.79739" lon="6.9842">
        <ele>792.16363525391</ele>
        <time>2013-12-09T14:13:14Z</time>
      </trkpt>
      <trkpt lat="43.79737" lon="6.98424">
        <ele>791.08447265625</ele>
        <time>2013-12-09T14:13:24Z</time>
      </trkpt>
      <trkpt lat="43.79736" lon="6.98425">
        <ele>790.11364746094</ele>
        <time>2013-12-09T14:13:25Z</time>
      </trkpt>
      <trkpt lat="43.79731" lon="6.9842">
        <ele>787.96105957031</ele>
        <time>2013-12-09T14:13:29Z</time>
      </trkpt>
      <trkpt lat="43.79728" lon="6.98421">
        <ele>785.93927001953</ele>
        <time>2013-12-09T14:13:33Z</time>
      </trkpt>
      <trkpt lat="43.79724" lon="6.98422">
        <ele>783.71063232422</ele>
        <time>2013-12-09T14:13:36Z</time>
      </trkpt>
      <trkpt lat="43.79719" lon="6.98415">
        <ele>782.22283935547</ele>
        <time>2013-12-09T14:13:39Z</time>
      </trkpt>
      <trkpt lat="43.79709" lon="6.98405">
        <ele>780.45538330078</ele>
        <time>2013-12-09T14:13:44Z</time>
      </trkpt>
      <trkpt lat="43.79703" lon="6.98391">
        <ele>780.400390625</ele>
        <time>2013-12-09T14:13:48Z</time>
      </trkpt>
      <trkpt lat="43.79702" lon="6.98373">
        <ele>780.85461425781</ele>
        <time>2013-12-09T14:13:52Z</time>
      </trkpt>
      <trkpt lat="43.7971" lon="6.98354">
        <ele>783.17535400391</ele>
        <time>2013-12-09T14:13:56Z</time>
      </trkpt>
      <trkpt lat="43.79713" lon="6.9835">
        <ele>783.79791259766</ele>
        <time>2013-12-09T14:13:57Z</time>
      </trkpt>
      <trkpt lat="43.79716" lon="6.98336">
        <ele>785.42364501953</ele>
        <time>2013-12-09T14:14:01Z</time>
      </trkpt>
      <trkpt lat="43.79721" lon="6.98317">
        <ele>787.18170166016</ele>
        <time>2013-12-09T14:14:06Z</time>
      </trkpt>
      <trkpt lat="43.7972" lon="6.98314">
        <ele>787.07214355469</ele>
        <time>2013-12-09T14:14:07Z</time>
      </trkpt>
      <trkpt lat="43.79717" lon="6.98303">
        <ele>786.64111328125</ele>
        <time>2013-12-09T14:14:10Z</time>
      </trkpt>
      <trkpt lat="43.79714" lon="6.98286">
        <ele>786.19830322266</ele>
        <time>2013-12-09T14:14:14Z</time>
      </trkpt>
      <trkpt lat="43.79713" lon="6.98264">
        <ele>786.83630371094</ele>
        <time>2013-12-09T14:14:18Z</time>
      </trkpt>
      <trkpt lat="43.79715" lon="6.98238">
        <ele>788.30004882812</ele>
        <time>2013-12-09T14:14:23Z</time>
      </trkpt>
      <trkpt lat="43.79714" lon="6.98211">
        <ele>787.42504882812</ele>
        <time>2013-12-09T14:14:28Z</time>
      </trkpt>
      <trkpt lat="43.79709" lon="6.98194">
        <ele>783.71276855469</ele>
        <time>2013-12-09T14:14:31Z</time>
      </trkpt>
      <trkpt lat="43.79701" lon="6.98175">
        <ele>778.08227539062</ele>
        <time>2013-12-09T14:14:35Z</time>
      </trkpt>
      <trkpt lat="43.797" lon="6.9817">
        <ele>777.14331054688</ele>
        <time>2013-12-09T14:14:36Z</time>
      </trkpt>
      <trkpt lat="43.79698" lon="6.98159">
        <ele>775.12139892578</ele>
        <time>2013-12-09T14:14:38Z</time>
      </trkpt>
      <trkpt lat="43.79698" lon="6.98137">
        <ele>773.18530273438</ele>
        <time>2013-12-09T14:14:43Z</time>
      </trkpt>
      <trkpt lat="43.797" lon="6.98128">
        <ele>773.11151123047</ele>
        <time>2013-12-09T14:14:47Z</time>
      </trkpt>
      <trkpt lat="43.797" lon="6.98126">
        <ele>772.89074707031</ele>
        <time>2013-12-09T14:14:48Z</time>
      </trkpt>
      <trkpt lat="43.79704" lon="6.9812">
        <ele>773.388671875</ele>
        <time>2013-12-09T14:14:51Z</time>
      </trkpt>
      <trkpt lat="43.79708" lon="6.98112">
        <ele>774.52825927734</ele>
        <time>2013-12-09T14:14:55Z</time>
      </trkpt>
      <trkpt lat="43.79712" lon="6.98108">
        <ele>775.63098144531</ele>
        <time>2013-12-09T14:15:10Z</time>
      </trkpt>
      <trkpt lat="43.79712" lon="6.98109">
        <ele>775.75451660156</ele>
        <time>2013-12-09T14:15:18Z</time>
      </trkpt>
      <trkpt lat="43.79712" lon="6.9811">
        <ele>775.92962646484</ele>
        <time>2013-12-09T14:15:30Z</time>
      </trkpt>
      <trkpt lat="43.797" lon="6.98114">
        <ele>771.20227050781</ele>
        <time>2013-12-09T14:15:56Z</time>
      </trkpt>
      <trkpt lat="43.79678" lon="6.98123">
        <ele>764.81866455078</ele>
        <time>2013-12-09T14:16:00Z</time>
      </trkpt>
      <trkpt lat="43.79651" lon="6.9814">
        <ele>752.81213378906</ele>
        <time>2013-12-09T14:16:04Z</time>
      </trkpt>
      <trkpt lat="43.79616" lon="6.98155">
        <ele>742.23645019531</ele>
        <time>2013-12-09T14:16:09Z</time>
      </trkpt>
      <trkpt lat="43.79612" lon="6.98154">
        <ele>741.6064453125</ele>
        <time>2013-12-09T14:16:10Z</time>
      </trkpt>
      <trkpt lat="43.79602" lon="6.98153">
        <ele>736.41528320312</ele>
        <time>2013-12-09T14:16:12Z</time>
      </trkpt>
      <trkpt lat="43.79585" lon="6.98147">
        <ele>727.1318359375</ele>
        <time>2013-12-09T14:16:15Z</time>
      </trkpt>
      <trkpt lat="43.7958" lon="6.98145">
        <ele>725.46923828125</ele>
        <time>2013-12-09T14:16:16Z</time>
      </trkpt>
      <trkpt lat="43.7957" lon="6.98143">
        <ele>723.29046630859</ele>
        <time>2013-12-09T14:16:19Z</time>
      </trkpt>
      <trkpt lat="43.79569" lon="6.98143">
        <ele>722.94458007812</ele>
        <time>2013-12-09T14:16:20Z</time>
      </trkpt>
      <trkpt lat="43.79561" lon="6.98143">
        <ele>721.17034912109</ele>
        <time>2013-12-09T14:16:24Z</time>
      </trkpt>
      <trkpt lat="43.79557" lon="6.98139">
        <ele>720.40216064453</ele>
        <time>2013-12-09T14:16:28Z</time>
      </trkpt>
      <trkpt lat="43.79549" lon="6.98132">
        <ele>717.017578125</ele>
        <time>2013-12-09T14:16:33Z</time>
      </trkpt>
      <trkpt lat="43.79547" lon="6.98129">
        <ele>715.84356689453</ele>
        <time>2013-12-09T14:16:37Z</time>
      </trkpt>
      <trkpt lat="43.79547" lon="6.9813">
        <ele>715.66326904297</ele>
        <time>2013-12-09T14:16:40Z</time>
      </trkpt>
      <trkpt lat="43.79542" lon="6.98112">
        <ele>712.78277587891</ele>
        <time>2013-12-09T14:21:00Z</time>
      </trkpt>
      <trkpt lat="43.79542" lon="6.98111">
        <ele>712.73559570312</ele>
        <time>2013-12-09T14:21:01Z</time>
      </trkpt>
      <trkpt lat="43.79543" lon="6.98096">
        <ele>711.56390380859</ele>
        <time>2013-12-09T14:21:08Z</time>
      </trkpt>
      <trkpt lat="43.79543" lon="6.9809">
        <ele>711.47296142578</ele>
        <time>2013-12-09T14:21:12Z</time>
      </trkpt>
      <trkpt lat="43.79543" lon="6.98088">
        <ele>711.27532958984</ele>
        <time>2013-12-09T14:21:14Z</time>
      </trkpt>
      <trkpt lat="43.79546" lon="6.98073">
        <ele>711.37585449219</ele>
        <time>2013-12-09T14:21:18Z</time>
      </trkpt>
      <trkpt lat="43.79551" lon="6.98071">
        <ele>713.43713378906</ele>
        <time>2013-12-09T14:21:21Z</time>
      </trkpt>
      <trkpt lat="43.79552" lon="6.98071">
        <ele>713.82934570312</ele>
        <time>2013-12-09T14:21:22Z</time>
      </trkpt>
      <trkpt lat="43.79561" lon="6.98075">
        <ele>717.32330322266</ele>
        <time>2013-12-09T14:21:27Z</time>
      </trkpt>
      <trkpt lat="43.79575" lon="6.9809">
        <ele>721.74743652344</ele>
        <time>2013-12-09T14:21:32Z</time>
      </trkpt>
      <trkpt lat="43.79584" lon="6.98104">
        <ele>724.69152832031</ele>
        <time>2013-12-09T14:21:37Z</time>
      </trkpt>
      <trkpt lat="43.79587" lon="6.98102">
        <ele>726.53186035156</ele>
        <time>2013-12-09T14:21:38Z</time>
      </trkpt>
      <trkpt lat="43.79588" lon="6.98098">
        <ele>726.93908691406</ele>
        <time>2013-12-09T14:21:39Z</time>
      </trkpt>
      <trkpt lat="43.79584" lon="6.98085">
        <ele>723.62396240234</ele>
        <time>2013-12-09T14:21:42Z</time>
      </trkpt>
      <trkpt lat="43.79579" lon="6.98078">
        <ele>721.85003662109</ele>
        <time>2013-12-09T14:21:44Z</time>
      </trkpt>
      <trkpt lat="43.79567" lon="6.98061">
        <ele>717.63531494141</ele>
        <time>2013-12-09T14:21:48Z</time>
      </trkpt>
      <trkpt lat="43.79557" lon="6.98054">
        <ele>714.23529052734</ele>
        <time>2013-12-09T14:21:51Z</time>
      </trkpt>
      <trkpt lat="43.79552" lon="6.98052">
        <ele>712.11669921875</ele>
        <time>2013-12-09T14:21:53Z</time>
      </trkpt>
      <trkpt lat="43.79546" lon="6.98052">
        <ele>709.31256103516</ele>
        <time>2013-12-09T14:21:55Z</time>
      </trkpt>
      <trkpt lat="43.79538" lon="6.98051">
        <ele>705.21728515625</ele>
        <time>2013-12-09T14:22:00Z</time>
      </trkpt>
      <trkpt lat="43.79537" lon="6.98051">
        <ele>705.04968261719</ele>
        <time>2013-12-09T14:22:10Z</time>
      </trkpt>
      <trkpt lat="43.79541" lon="6.98053">
        <ele>706.75421142578</ele>
        <time>2013-12-09T14:22:15Z</time>
      </trkpt>
      <trkpt lat="43.79549" lon="6.98054">
        <ele>710.88214111328</ele>
        <time>2013-12-09T14:22:19Z</time>
      </trkpt>
      <trkpt lat="43.79561" lon="6.98059">
        <ele>715.98645019531</ele>
        <time>2013-12-09T14:22:25Z</time>
      </trkpt>
      <trkpt lat="43.79562" lon="6.98058">
        <ele>716.17138671875</ele>
        <time>2013-12-09T14:22:26Z</time>
      </trkpt>
      <trkpt lat="43.79561" lon="6.98054">
        <ele>715.32507324219</ele>
        <time>2013-12-09T14:22:28Z</time>
      </trkpt>
      <trkpt lat="43.79557" lon="6.98052">
        <ele>714.02770996094</ele>
        <time>2013-12-09T14:22:33Z</time>
      </trkpt>
      <trkpt lat="43.79553" lon="6.98047">
        <ele>711.78839111328</ele>
        <time>2013-12-09T14:22:40Z</time>
      </trkpt>
      <trkpt lat="43.79548" lon="6.98043">
        <ele>708.97137451172</ele>
        <time>2013-12-09T14:22:44Z</time>
      </trkpt>
      <trkpt lat="43.79541" lon="6.98038">
        <ele>705.82122802734</ele>
        <time>2013-12-09T14:22:49Z</time>
      </trkpt>
      <trkpt lat="43.79539" lon="6.98035">
        <ele>704.66491699219</ele>
        <time>2013-12-09T14:22:53Z</time>
      </trkpt>
      <trkpt lat="43.79539" lon="6.98033">
        <ele>704.32189941406</ele>
        <time>2013-12-09T14:22:59Z</time>
      </trkpt>
      <trkpt lat="43.79537" lon="6.98024">
        <ele>702.59301757812</ele>
        <time>2013-12-09T14:23:05Z</time>
      </trkpt>
      <trkpt lat="43.79535" lon="6.98012">
        <ele>699.70233154297</ele>
        <time>2013-12-09T14:23:09Z</time>
      </trkpt>
      <trkpt lat="43.79533" lon="6.97999">
        <ele>696.13391113281</ele>
        <time>2013-12-09T14:23:14Z</time>
      </trkpt>
      <trkpt lat="43.79534" lon="6.97991">
        <ele>695.45452880859</ele>
        <time>2013-12-09T14:23:18Z</time>
      </trkpt>
      <trkpt lat="43.79528" lon="6.97992">
        <ele>692.95434570312</ele>
        <time>2013-12-09T14:23:22Z</time>
      </trkpt>
      <trkpt lat="43.79521" lon="6.97989">
        <ele>689.47979736328</ele>
        <time>2013-12-09T14:23:26Z</time>
      </trkpt>
      <trkpt lat="43.79518" lon="6.97988">
        <ele>688.18402099609</ele>
        <time>2013-12-09T14:23:30Z</time>
      </trkpt>
      <trkpt lat="43.79517" lon="6.97985">
        <ele>687.54730224609</ele>
        <time>2013-12-09T14:23:36Z</time>
      </trkpt>
      <trkpt lat="43.79517" lon="6.97984">
        <ele>687.17797851562</ele>
        <time>2013-12-09T14:23:42Z</time>
      </trkpt>
      <trkpt lat="43.79514" lon="6.97971">
        <ele>685.03118896484</ele>
        <time>2013-12-09T14:24:15Z</time>
      </trkpt>
      <trkpt lat="43.79507" lon="6.97971">
        <ele>682.54663085938</ele>
        <time>2013-12-09T14:24:25Z</time>
      </trkpt>
      <trkpt lat="43.79503" lon="6.97967">
        <ele>680.72344970703</ele>
        <time>2013-12-09T14:24:27Z</time>
      </trkpt>
      <trkpt lat="43.79501" lon="6.97962">
        <ele>679.45257568359</ele>
        <time>2013-12-09T14:24:29Z</time>
      </trkpt>
      <trkpt lat="43.79498" lon="6.97955">
        <ele>678.48217773438</ele>
        <time>2013-12-09T14:24:33Z</time>
      </trkpt>
      <trkpt lat="43.795" lon="6.97953">
        <ele>678.70141601562</ele>
        <time>2013-12-09T14:24:40Z</time>
      </trkpt>
      <trkpt lat="43.79503" lon="6.97952">
        <ele>679.39312744141</ele>
        <time>2013-12-09T14:24:42Z</time>
      </trkpt>
      <trkpt lat="43.7951" lon="6.97952">
        <ele>680.99114990234</ele>
        <time>2013-12-09T14:24:45Z</time>
      </trkpt>
      <trkpt lat="43.79529" lon="6.97949">
        <ele>685.55120849609</ele>
        <time>2013-12-09T14:24:50Z</time>
      </trkpt>
      <trkpt lat="43.79556" lon="6.97941">
        <ele>699.05676269531</ele>
        <time>2013-12-09T14:24:55Z</time>
      </trkpt>
      <trkpt lat="43.7956" lon="6.97938">
        <ele>700.10412597656</ele>
        <time>2013-12-09T14:24:56Z</time>
      </trkpt>
      <trkpt lat="43.79572" lon="6.97931">
        <ele>702.41412353516</ele>
        <time>2013-12-09T14:24:58Z</time>
      </trkpt>
      <trkpt lat="43.79594" lon="6.97904">
        <ele>704.72320556641</ele>
        <time>2013-12-09T14:25:02Z</time>
      </trkpt>
      <trkpt lat="43.79601" lon="6.979">
        <ele>705.53076171875</ele>
        <time>2013-12-09T14:25:03Z</time>
      </trkpt>
      <trkpt lat="43.79617" lon="6.97898">
        <ele>709.66662597656</ele>
        <time>2013-12-09T14:25:05Z</time>
      </trkpt>
      <trkpt lat="43.79631" lon="6.97894">
        <ele>714.30145263672</ele>
        <time>2013-12-09T14:25:07Z</time>
      </trkpt>
      <trkpt lat="43.79638" lon="6.97886">
        <ele>714.90386962891</ele>
        <time>2013-12-09T14:25:08Z</time>
      </trkpt>
      <trkpt lat="43.79639" lon="6.97866">
        <ele>710.24926757812</ele>
        <time>2013-12-09T14:25:10Z</time>
      </trkpt>
      <trkpt lat="43.79633" lon="6.97845">
        <ele>703.16925048828</ele>
        <time>2013-12-09T14:25:12Z</time>
      </trkpt>
      <trkpt lat="43.7963" lon="6.97834">
        <ele>700.06365966797</ele>
        <time>2013-12-09T14:25:13Z</time>
      </trkpt>
      <trkpt lat="43.79628" lon="6.97822">
        <ele>698.16168212891</ele>
        <time>2013-12-09T14:25:14Z</time>
      </trkpt>
      <trkpt lat="43.79623" lon="6.97788">
        <ele>694.91418457031</ele>
        <time>2013-12-09T14:25:17Z</time>
      </trkpt>
      <trkpt lat="43.79609" lon="6.97775">
        <ele>690.708984375</ele>
        <time>2013-12-09T14:25:19Z</time>
      </trkpt>
      <trkpt lat="43.79594" lon="6.97763">
        <ele>687.51153564453</ele>
        <time>2013-12-09T14:25:21Z</time>
      </trkpt>
      <trkpt lat="43.79581" lon="6.97745">
        <ele>684.67938232422</ele>
        <time>2013-12-09T14:25:23Z</time>
      </trkpt>
      <trkpt lat="43.79571" lon="6.97711">
        <ele>683.70617675781</ele>
        <time>2013-12-09T14:25:26Z</time>
      </trkpt>
      <trkpt lat="43.79565" lon="6.97672">
        <ele>682.96801757812</ele>
        <time>2013-12-09T14:25:29Z</time>
      </trkpt>
      <trkpt lat="43.79563" lon="6.9766">
        <ele>682.81085205078</ele>
        <time>2013-12-09T14:25:30Z</time>
      </trkpt>
      <trkpt lat="43.79551" lon="6.97583">
        <ele>681.93145751953</ele>
        <time>2013-12-09T14:25:36Z</time>
      </trkpt>
      <trkpt lat="43.79552" lon="6.97514">
        <ele>683.02758789062</ele>
        <time>2013-12-09T14:25:41Z</time>
      </trkpt>
      <trkpt lat="43.79554" lon="6.97488">
        <ele>684.02581787109</ele>
        <time>2013-12-09T14:25:43Z</time>
      </trkpt>
      <trkpt lat="43.7956" lon="6.97461">
        <ele>686.10473632812</ele>
        <time>2013-12-09T14:25:45Z</time>
      </trkpt>
      <trkpt lat="43.79575" lon="6.97384">
        <ele>692.21795654297</ele>
        <time>2013-12-09T14:25:51Z</time>
      </trkpt>
      <trkpt lat="43.79575" lon="6.97303">
        <ele>692.09918212891</ele>
        <time>2013-12-09T14:25:57Z</time>
      </trkpt>
      <trkpt lat="43.79562" lon="6.97265">
        <ele>687.51361083984</ele>
        <time>2013-12-09T14:26:00Z</time>
      </trkpt>
      <trkpt lat="43.7956" lon="6.97224">
        <ele>686.05688476562</ele>
        <time>2013-12-09T14:26:03Z</time>
      </trkpt>
      <trkpt lat="43.79567" lon="6.97185">
        <ele>687.24658203125</ele>
        <time>2013-12-09T14:26:06Z</time>
      </trkpt>
      <trkpt lat="43.79571" lon="6.97171">
        <ele>688.02111816406</ele>
        <time>2013-12-09T14:26:07Z</time>
      </trkpt>
      <trkpt lat="43.79583" lon="6.97102">
        <ele>689.54663085938</ele>
        <time>2013-12-09T14:26:12Z</time>
      </trkpt>
      <trkpt lat="43.79584" lon="6.9709">
        <ele>690.59875488281</ele>
        <time>2013-12-09T14:26:13Z</time>
      </trkpt>
      <trkpt lat="43.79575" lon="6.97067">
        <ele>690.83074951172</ele>
        <time>2013-12-09T14:26:15Z</time>
      </trkpt>
      <trkpt lat="43.79558" lon="6.97054">
        <ele>688.70294189453</ele>
        <time>2013-12-09T14:26:17Z</time>
      </trkpt>
      <trkpt lat="43.79551" lon="6.97044">
        <ele>687.48724365234</ele>
        <time>2013-12-09T14:26:18Z</time>
      </trkpt>
      <trkpt lat="43.79543" lon="6.97019">
        <ele>686.39978027344</ele>
        <time>2013-12-09T14:26:20Z</time>
      </trkpt>
      <trkpt lat="43.79544" lon="6.96992">
        <ele>689.80438232422</ele>
        <time>2013-12-09T14:26:22Z</time>
      </trkpt>
      <trkpt lat="43.79552" lon="6.96966">
        <ele>695.43511962891</ele>
        <time>2013-12-09T14:26:24Z</time>
      </trkpt>
      <trkpt lat="43.79554" lon="6.96954">
        <ele>696.73559570312</ele>
        <time>2013-12-09T14:26:25Z</time>
      </trkpt>
      <trkpt lat="43.79545" lon="6.96933">
        <ele>696.12994384766</ele>
        <time>2013-12-09T14:26:27Z</time>
      </trkpt>
      <trkpt lat="43.79529" lon="6.96925">
        <ele>693.10272216797</ele>
        <time>2013-12-09T14:26:29Z</time>
      </trkpt>
      <trkpt lat="43.79504" lon="6.96916">
        <ele>686.22497558594</ele>
        <time>2013-12-09T14:26:32Z</time>
      </trkpt>
      <trkpt lat="43.79495" lon="6.96914">
        <ele>683.58453369141</ele>
        <time>2013-12-09T14:26:33Z</time>
      </trkpt>
      <trkpt lat="43.79452" lon="6.9691">
        <ele>664.42523193359</ele>
        <time>2013-12-09T14:26:38Z</time>
      </trkpt>
      <trkpt lat="43.79431" lon="6.96891">
        <ele>654.02587890625</ele>
        <time>2013-12-09T14:26:41Z</time>
      </trkpt>
      <trkpt lat="43.79428" lon="6.9687">
        <ele>655.8115234375</ele>
        <time>2013-12-09T14:26:43Z</time>
      </trkpt>
      <trkpt lat="43.79429" lon="6.96859">
        <ele>657.72723388672</ele>
        <time>2013-12-09T14:26:44Z</time>
      </trkpt>
      <trkpt lat="43.79428" lon="6.96849">
        <ele>658.70227050781</ele>
        <time>2013-12-09T14:26:45Z</time>
      </trkpt>
      <trkpt lat="43.79424" lon="6.96833">
        <ele>659.31109619141</ele>
        <time>2013-12-09T14:26:47Z</time>
      </trkpt>
      <trkpt lat="43.79415" lon="6.96831">
        <ele>655.32049560547</ele>
        <time>2013-12-09T14:26:49Z</time>
      </trkpt>
      <trkpt lat="43.79408" lon="6.96842">
        <ele>649.91174316406</ele>
        <time>2013-12-09T14:26:51Z</time>
      </trkpt>
      <trkpt lat="43.7941" lon="6.9686">
        <ele>648.2431640625</ele>
        <time>2013-12-09T14:26:54Z</time>
      </trkpt>
      <trkpt lat="43.7941" lon="6.96861">
        <ele>648.12646484375</ele>
        <time>2013-12-09T14:26:55Z</time>
      </trkpt>
      <trkpt lat="43.7941" lon="6.96861">
        <ele>648.11273193359</ele>
        <time>2013-12-09T14:26:57Z</time>
      </trkpt>
      <trkpt lat="43.79408" lon="6.96861">
        <ele>647.20635986328</ele>
        <time>2013-12-09T14:27:03Z</time>
      </trkpt>
      <trkpt lat="43.79408" lon="6.96861">
        <ele>646.90649414062</ele>
        <time>2013-12-09T14:28:08Z</time>
      </trkpt>
      <trkpt lat="43.7941" lon="6.96866">
        <ele>647.49743652344</ele>
        <time>2013-12-09T14:31:03Z</time>
      </trkpt>
      <trkpt lat="43.7941" lon="6.96868">
        <ele>646.87951660156</ele>
        <time>2013-12-09T14:31:05Z</time>
      </trkpt>
      <trkpt lat="43.79409" lon="6.96876">
        <ele>645.39501953125</ele>
        <time>2013-12-09T14:31:07Z</time>
      </trkpt>
      <trkpt lat="43.79416" lon="6.96902">
        <ele>646.78625488281</ele>
        <time>2013-12-09T14:31:11Z</time>
      </trkpt>
      <trkpt lat="43.79424" lon="6.96916">
        <ele>649.88446044922</ele>
        <time>2013-12-09T14:31:13Z</time>
      </trkpt>
      <trkpt lat="43.79436" lon="6.96925">
        <ele>654.32293701172</ele>
        <time>2013-12-09T14:31:15Z</time>
      </trkpt>
      <trkpt lat="43.79467" lon="6.96944">
        <ele>667.35412597656</ele>
        <time>2013-12-09T14:31:19Z</time>
      </trkpt>
      <trkpt lat="43.79477" lon="6.96965">
        <ele>670.14947509766</ele>
        <time>2013-12-09T14:31:21Z</time>
      </trkpt>
      <trkpt lat="43.79473" lon="6.96991">
        <ele>664.16772460938</ele>
        <time>2013-12-09T14:31:23Z</time>
      </trkpt>
      <trkpt lat="43.79461" lon="6.97013">
        <ele>653.10052490234</ele>
        <time>2013-12-09T14:31:25Z</time>
      </trkpt>
      <trkpt lat="43.79454" lon="6.97024">
        <ele>647.35217285156</ele>
        <time>2013-12-09T14:31:26Z</time>
      </trkpt>
      <trkpt lat="43.79449" lon="6.97038">
        <ele>641.11370849609</ele>
        <time>2013-12-09T14:31:27Z</time>
      </trkpt>
      <trkpt lat="43.79445" lon="6.9707">
        <ele>632.46667480469</ele>
        <time>2013-12-09T14:31:29Z</time>
      </trkpt>
      <trkpt lat="43.79445" lon="6.97104">
        <ele>632.79162597656</ele>
        <time>2013-12-09T14:31:31Z</time>
      </trkpt>
      <trkpt lat="43.79443" lon="6.97122">
        <ele>632.65338134766</ele>
        <time>2013-12-09T14:31:32Z</time>
      </trkpt>
      <trkpt lat="43.7943" lon="6.97149">
        <ele>628.65533447266</ele>
        <time>2013-12-09T14:31:34Z</time>
      </trkpt>
      <trkpt lat="43.79413" lon="6.97199">
        <ele>625.73583984375</ele>
        <time>2013-12-09T14:31:37Z</time>
      </trkpt>
      <trkpt lat="43.7941" lon="6.97216">
        <ele>626.02941894531</ele>
        <time>2013-12-09T14:31:38Z</time>
      </trkpt>
      <trkpt lat="43.79399" lon="6.97284">
        <ele>628.91802978516</ele>
        <time>2013-12-09T14:31:42Z</time>
      </trkpt>
      <trkpt lat="43.79393" lon="6.97336">
        <ele>631.42181396484</ele>
        <time>2013-12-09T14:31:45Z</time>
      </trkpt>
      <trkpt lat="43.79395" lon="6.97352">
        <ele>632.10845947266</ele>
        <time>2013-12-09T14:31:46Z</time>
      </trkpt>
      <trkpt lat="43.79403" lon="6.97422">
        <ele>636.25085449219</ele>
        <time>2013-12-09T14:31:50Z</time>
      </trkpt>
      <trkpt lat="43.79395" lon="6.97445">
        <ele>637.26837158203</ele>
        <time>2013-12-09T14:31:52Z</time>
      </trkpt>
      <trkpt lat="43.79373" lon="6.97464">
        <ele>636.25830078125</ele>
        <time>2013-12-09T14:31:55Z</time>
      </trkpt>
      <trkpt lat="43.7935" lon="6.97461">
        <ele>635.43621826172</ele>
        <time>2013-12-09T14:31:58Z</time>
      </trkpt>
      <trkpt lat="43.79328" lon="6.97454">
        <ele>635.74456787109</ele>
        <time>2013-12-09T14:32:01Z</time>
      </trkpt>
      <trkpt lat="43.79321" lon="6.97453">
        <ele>636.22863769531</ele>
        <time>2013-12-09T14:32:02Z</time>
      </trkpt>
      <trkpt lat="43.79308" lon="6.97449">
        <ele>636.74322509766</ele>
        <time>2013-12-09T14:32:05Z</time>
      </trkpt>
      <trkpt lat="43.79298" lon="6.97446">
        <ele>637.35681152344</ele>
        <time>2013-12-09T14:32:09Z</time>
      </trkpt>
      <trkpt lat="43.7929" lon="6.9744">
        <ele>637.77160644531</ele>
        <time>2013-12-09T14:32:15Z</time>
      </trkpt>
      <trkpt lat="43.7928" lon="6.97437">
        <ele>638.55010986328</ele>
        <time>2013-12-09T14:32:20Z</time>
      </trkpt>
      <trkpt lat="43.79271" lon="6.97436">
        <ele>640.67419433594</ele>
        <time>2013-12-09T14:32:26Z</time>
      </trkpt>
      <trkpt lat="43.79262" lon="6.97441">
        <ele>643.84558105469</ele>
        <time>2013-12-09T14:32:31Z</time>
      </trkpt>
      <trkpt lat="43.79252" lon="6.97447">
        <ele>648.26934814453</ele>
        <time>2013-12-09T14:32:37Z</time>
      </trkpt>
      <trkpt lat="43.79234" lon="6.97451">
        <ele>657.41772460938</ele>
        <time>2013-12-09T14:32:46Z</time>
      </trkpt>
      <trkpt lat="43.79224" lon="6.97446">
        <ele>659.85601806641</ele>
        <time>2013-12-09T14:32:53Z</time>
      </trkpt>
      <trkpt lat="43.79213" lon="6.97437">
        <ele>663.15557861328</ele>
        <time>2013-12-09T14:33:00Z</time>
      </trkpt>
      <trkpt lat="43.79202" lon="6.97427">
        <ele>665.50952148438</ele>
        <time>2013-12-09T14:33:07Z</time>
      </trkpt>
      <trkpt lat="43.79188" lon="6.97416">
        <ele>669.10510253906</ele>
        <time>2013-12-09T14:33:16Z</time>
      </trkpt>
      <trkpt lat="43.79176" lon="6.97407">
        <ele>671.58825683594</ele>
        <time>2013-12-09T14:33:23Z</time>
      </trkpt>
      <trkpt lat="43.79164" lon="6.97401">
        <ele>674.74078369141</ele>
        <time>2013-12-09T14:33:31Z</time>
      </trkpt>
      <trkpt lat="43.79155" lon="6.97404">
        <ele>679.92602539062</ele>
        <time>2013-12-09T14:33:37Z</time>
      </trkpt>
      <trkpt lat="43.79147" lon="6.97412">
        <ele>687.13256835938</ele>
        <time>2013-12-09T14:33:43Z</time>
      </trkpt>
      <trkpt lat="43.79137" lon="6.97424">
        <ele>694.52844238281</ele>
        <time>2013-12-09T14:33:51Z</time>
      </trkpt>
      <trkpt lat="43.79128" lon="6.97429">
        <ele>698.39892578125</ele>
        <time>2013-12-09T14:33:58Z</time>
      </trkpt>
      <trkpt lat="43.79113" lon="6.97432">
        <ele>702.15771484375</ele>
        <time>2013-12-09T14:34:07Z</time>
      </trkpt>
      <trkpt lat="43.79101" lon="6.97433">
        <ele>705.06866455078</ele>
        <time>2013-12-09T14:34:15Z</time>
      </trkpt>
      <trkpt lat="43.7909" lon="6.97433">
        <ele>707.03594970703</ele>
        <time>2013-12-09T14:34:22Z</time>
      </trkpt>
      <trkpt lat="43.79078" lon="6.97425">
        <ele>706.29290771484</ele>
        <time>2013-12-09T14:34:31Z</time>
      </trkpt>
      <trkpt lat="43.79066" lon="6.97417">
        <ele>702.0595703125</ele>
        <time>2013-12-09T14:34:39Z</time>
      </trkpt>
      <trkpt lat="43.79058" lon="6.97408">
        <ele>697.4052734375</ele>
        <time>2013-12-09T14:34:46Z</time>
      </trkpt>
      <trkpt lat="43.79049" lon="6.97394">
        <ele>691.31457519531</ele>
        <time>2013-12-09T14:34:54Z</time>
      </trkpt>
      <trkpt lat="43.79042" lon="6.9738">
        <ele>686.89227294922</ele>
        <time>2013-12-09T14:35:02Z</time>
      </trkpt>
      <trkpt lat="43.79039" lon="6.97367">
        <ele>683.85491943359</ele>
        <time>2013-12-09T14:35:08Z</time>
      </trkpt>
      <trkpt lat="43.79028" lon="6.97351">
        <ele>678.48870849609</ele>
        <time>2013-12-09T14:35:17Z</time>
      </trkpt>
      <trkpt lat="43.79015" lon="6.97338">
        <ele>670.99127197266</ele>
        <time>2013-12-09T14:35:26Z</time>
      </trkpt>
      <trkpt lat="43.79003" lon="6.97329">
        <ele>662.48815917969</ele>
        <time>2013-12-09T14:35:33Z</time>
      </trkpt>
      <trkpt lat="43.79" lon="6.97328">
        <ele>661.26361083984</ele>
        <time>2013-12-09T14:35:35Z</time>
      </trkpt>
      <trkpt lat="43.78999" lon="6.97332">
        <ele>663.7939453125</ele>
        <time>2013-12-09T14:35:37Z</time>
      </trkpt>
      <trkpt lat="43.79005" lon="6.97339">
        <ele>669.21051025391</ele>
        <time>2013-12-09T14:35:42Z</time>
      </trkpt>
      <trkpt lat="43.79015" lon="6.97348">
        <ele>675.07092285156</ele>
        <time>2013-12-09T14:35:49Z</time>
      </trkpt>
      <trkpt lat="43.79023" lon="6.97357">
        <ele>680.09783935547</ele>
        <time>2013-12-09T14:35:55Z</time>
      </trkpt>
      <trkpt lat="43.79029" lon="6.97369">
        <ele>683.71636962891</ele>
        <time>2013-12-09T14:36:01Z</time>
      </trkpt>
      <trkpt lat="43.7903" lon="6.97373">
        <ele>684.72723388672</ele>
        <time>2013-12-09T14:36:03Z</time>
      </trkpt>
      <trkpt lat="43.79031" lon="6.97377">
        <ele>685.67993164062</ele>
        <time>2013-12-09T14:36:05Z</time>
      </trkpt>
      <trkpt lat="43.79033" lon="6.97393">
        <ele>689.62945556641</ele>
        <time>2013-12-09T14:36:12Z</time>
      </trkpt>
      <trkpt lat="43.79034" lon="6.97395">
        <ele>690.44714355469</ele>
        <time>2013-12-09T14:36:13Z</time>
      </trkpt>
      <trkpt lat="43.79036" lon="6.97406">
        <ele>694.47509765625</ele>
        <time>2013-12-09T14:36:18Z</time>
      </trkpt>
      <trkpt lat="43.79038" lon="6.97412">
        <ele>696.62359619141</ele>
        <time>2013-12-09T14:36:21Z</time>
      </trkpt>
      <trkpt lat="43.7904" lon="6.97416">
        <ele>698.18054199219</ele>
        <time>2013-12-09T14:36:23Z</time>
      </trkpt>
      <trkpt lat="43.79042" lon="6.97422">
        <ele>701.11419677734</ele>
        <time>2013-12-09T14:36:26Z</time>
      </trkpt>
      <trkpt lat="43.79044" lon="6.97427">
        <ele>703.37664794922</ele>
        <time>2013-12-09T14:36:28Z</time>
      </trkpt>
      <trkpt lat="43.79049" lon="6.97439">
        <ele>709.71783447266</ele>
        <time>2013-12-09T14:36:34Z</time>
      </trkpt>
      <trkpt lat="43.79057" lon="6.97453">
        <ele>718.17071533203</ele>
        <time>2013-12-09T14:36:41Z</time>
      </trkpt>
      <trkpt lat="43.79063" lon="6.97464">
        <ele>722.93298339844</ele>
        <time>2013-12-09T14:36:46Z</time>
      </trkpt>
      <trkpt lat="43.79064" lon="6.97466">
        <ele>723.78936767578</ele>
        <time>2013-12-09T14:36:47Z</time>
      </trkpt>
      <trkpt lat="43.79074" lon="6.97481">
        <ele>728.24194335938</ele>
        <time>2013-12-09T14:36:54Z</time>
      </trkpt>
      <trkpt lat="43.79082" lon="6.97499">
        <ele>736.99884033203</ele>
        <time>2013-12-09T14:37:01Z</time>
      </trkpt>
      <trkpt lat="43.79089" lon="6.97521">
        <ele>743.10882568359</ele>
        <time>2013-12-09T14:37:09Z</time>
      </trkpt>
      <trkpt lat="43.79094" lon="6.97537">
        <ele>750.08636474609</ele>
        <time>2013-12-09T14:37:16Z</time>
      </trkpt>
      <trkpt lat="43.79104" lon="6.97551">
        <ele>755.20300292969</ele>
        <time>2013-12-09T14:37:23Z</time>
      </trkpt>
      <trkpt lat="43.79115" lon="6.97563">
        <ele>758.82580566406</ele>
        <time>2013-12-09T14:37:31Z</time>
      </trkpt>
      <trkpt lat="43.79127" lon="6.97575">
        <ele>759.20526123047</ele>
        <time>2013-12-09T14:37:39Z</time>
      </trkpt>
      <trkpt lat="43.79137" lon="6.97579">
        <ele>755.45037841797</ele>
        <time>2013-12-09T14:37:45Z</time>
      </trkpt>
      <trkpt lat="43.7915" lon="6.97585">
        <ele>747.05609130859</ele>
        <time>2013-12-09T14:37:53Z</time>
      </trkpt>
      <trkpt lat="43.79156" lon="6.9759">
        <ele>743.16284179688</ele>
        <time>2013-12-09T14:37:58Z</time>
      </trkpt>
      <trkpt lat="43.79163" lon="6.976">
        <ele>740.29095458984</ele>
        <time>2013-12-09T14:38:05Z</time>
      </trkpt>
      <trkpt lat="43.79166" lon="6.97609">
        <ele>740.48492431641</ele>
        <time>2013-12-09T14:38:10Z</time>
      </trkpt>
      <trkpt lat="43.79171" lon="6.97619">
        <ele>741.55285644531</ele>
        <time>2013-12-09T14:38:15Z</time>
      </trkpt>
      <trkpt lat="43.79172" lon="6.9762">
        <ele>741.27740478516</ele>
        <time>2013-12-09T14:38:16Z</time>
      </trkpt>
      <trkpt lat="43.79174" lon="6.9763">
        <ele>744.28497314453</ele>
        <time>2013-12-09T14:38:21Z</time>
      </trkpt>
      <trkpt lat="43.79174" lon="6.97632">
        <ele>744.29138183594</ele>
        <time>2013-12-09T14:38:22Z</time>
      </trkpt>
      <trkpt lat="43.79174" lon="6.97639">
        <ele>748.34326171875</ele>
        <time>2013-12-09T14:38:25Z</time>
      </trkpt>
      <trkpt lat="43.79175" lon="6.97641">
        <ele>748.65789794922</ele>
        <time>2013-12-09T14:38:26Z</time>
      </trkpt>
      <trkpt lat="43.79176" lon="6.97646">
        <ele>749.59936523438</ele>
        <time>2013-12-09T14:38:28Z</time>
      </trkpt>
      <trkpt lat="43.79177" lon="6.9765">
        <ele>750.96423339844</ele>
        <time>2013-12-09T14:38:30Z</time>
      </trkpt>
      <trkpt lat="43.79176" lon="6.97658">
        <ele>756.48358154297</ele>
        <time>2013-12-09T14:38:33Z</time>
      </trkpt>
      <trkpt lat="43.79173" lon="6.97662">
        <ele>761.57196044922</ele>
        <time>2013-12-09T14:38:35Z</time>
      </trkpt>
      <trkpt lat="43.79169" lon="6.9767">
        <ele>770.89807128906</ele>
        <time>2013-12-09T14:38:39Z</time>
      </trkpt>
      <trkpt lat="43.79163" lon="6.97684">
        <ele>783.09967041016</ele>
        <time>2013-12-09T14:38:46Z</time>
      </trkpt>
      <trkpt lat="43.79164" lon="6.97696">
        <ele>787.36401367188</ele>
        <time>2013-12-09T14:38:51Z</time>
      </trkpt>
      <trkpt lat="43.79165" lon="6.97698">
        <ele>788.09051513672</ele>
        <time>2013-12-09T14:38:52Z</time>
      </trkpt>
      <trkpt lat="43.79171" lon="6.97708">
        <ele>785.53527832031</ele>
        <time>2013-12-09T14:38:58Z</time>
      </trkpt>
      <trkpt lat="43.7918" lon="6.97718">
        <ele>776.91522216797</ele>
        <time>2013-12-09T14:39:05Z</time>
      </trkpt>
      <trkpt lat="43.79187" lon="6.97723">
        <ele>768.22119140625</ele>
        <time>2013-12-09T14:39:11Z</time>
      </trkpt>
      <trkpt lat="43.79198" lon="6.9773">
        <ele>754.74609375</ele>
        <time>2013-12-09T14:39:19Z</time>
      </trkpt>
      <trkpt lat="43.79212" lon="6.97739">
        <ele>743.03198242188</ele>
        <time>2013-12-09T14:39:28Z</time>
      </trkpt>
      <trkpt lat="43.7922" lon="6.9775">
        <ele>738.42510986328</ele>
        <time>2013-12-09T14:39:35Z</time>
      </trkpt>
      <trkpt lat="43.79221" lon="6.97752">
        <ele>738.34271240234</ele>
        <time>2013-12-09T14:39:36Z</time>
      </trkpt>
      <trkpt lat="43.7922" lon="6.97752">
        <ele>738.86456298828</ele>
        <time>2013-12-09T14:39:42Z</time>
      </trkpt>
      <trkpt lat="43.79222" lon="6.9776">
        <ele>738.66546630859</ele>
        <time>2013-12-09T14:40:56Z</time>
      </trkpt>
      <trkpt lat="43.79223" lon="6.97765">
        <ele>739.07995605469</ele>
        <time>2013-12-09T14:40:58Z</time>
      </trkpt>
      <trkpt lat="43.79225" lon="6.97783">
        <ele>742.66326904297</ele>
        <time>2013-12-09T14:41:05Z</time>
      </trkpt>
      <trkpt lat="43.79227" lon="6.97797">
        <ele>745.69812011719</ele>
        <time>2013-12-09T14:41:11Z</time>
      </trkpt>
      <trkpt lat="43.79226" lon="6.97813">
        <ele>751.95764160156</ele>
        <time>2013-12-09T14:41:17Z</time>
      </trkpt>
      <trkpt lat="43.79224" lon="6.97825">
        <ele>758.09259033203</ele>
        <time>2013-12-09T14:41:22Z</time>
      </trkpt>
      <trkpt lat="43.79224" lon="6.97828">
        <ele>760.15209960938</ele>
        <time>2013-12-09T14:41:23Z</time>
      </trkpt>
      <trkpt lat="43.79221" lon="6.9784">
        <ele>767.84075927734</ele>
        <time>2013-12-09T14:41:28Z</time>
      </trkpt>
      <trkpt lat="43.79218" lon="6.9786">
        <ele>779.70281982422</ele>
        <time>2013-12-09T14:41:36Z</time>
      </trkpt>
      <trkpt lat="43.79216" lon="6.97879">
        <ele>782.70941162109</ele>
        <time>2013-12-09T14:41:44Z</time>
      </trkpt>
      <trkpt lat="43.79221" lon="6.979">
        <ele>778.65979003906</ele>
        <time>2013-12-09T14:41:53Z</time>
      </trkpt>
      <trkpt lat="43.79224" lon="6.97922">
        <ele>769.31884765625</ele>
        <time>2013-12-09T14:42:03Z</time>
      </trkpt>
      <trkpt lat="43.79226" lon="6.97937">
        <ele>761.08355712891</ele>
        <time>2013-12-09T14:42:11Z</time>
      </trkpt>
      <trkpt lat="43.79227" lon="6.97956">
        <ele>752.64721679688</ele>
        <time>2013-12-09T14:42:20Z</time>
      </trkpt>
      <trkpt lat="43.79226" lon="6.97974">
        <ele>749.00921630859</ele>
        <time>2013-12-09T14:42:28Z</time>
      </trkpt>
      <trkpt lat="43.79219" lon="6.9799">
        <ele>753.91131591797</ele>
        <time>2013-12-09T14:42:36Z</time>
      </trkpt>
      <trkpt lat="43.79211" lon="6.9801">
        <ele>755.36767578125</ele>
        <time>2013-12-09T14:42:44Z</time>
      </trkpt>
      <trkpt lat="43.79206" lon="6.98023">
        <ele>754.66418457031</ele>
        <time>2013-12-09T14:42:50Z</time>
      </trkpt>
      <trkpt lat="43.79198" lon="6.98038">
        <ele>753.60717773438</ele>
        <time>2013-12-09T14:42:57Z</time>
      </trkpt>
      <trkpt lat="43.79193" lon="6.98053">
        <ele>751.03161621094</ele>
        <time>2013-12-09T14:43:03Z</time>
      </trkpt>
      <trkpt lat="43.79193" lon="6.98067">
        <ele>745.43536376953</ele>
        <time>2013-12-09T14:43:09Z</time>
      </trkpt>
      <trkpt lat="43.79195" lon="6.98072">
        <ele>742.30224609375</ele>
        <time>2013-12-09T14:43:11Z</time>
      </trkpt>
      <trkpt lat="43.79198" lon="6.98078">
        <ele>738.82171630859</ele>
        <time>2013-12-09T14:43:14Z</time>
      </trkpt>
      <trkpt lat="43.79202" lon="6.98094">
        <ele>731.78033447266</ele>
        <time>2013-12-09T14:43:22Z</time>
      </trkpt>
      <trkpt lat="43.79201" lon="6.98097">
        <ele>731.57891845703</ele>
        <time>2013-12-09T14:43:23Z</time>
      </trkpt>
      <trkpt lat="43.79195" lon="6.98101">
        <ele>732.97772216797</ele>
        <time>2013-12-09T14:43:26Z</time>
      </trkpt>
      <trkpt lat="43.79188" lon="6.98094">
        <ele>744.87072753906</ele>
        <time>2013-12-09T14:43:31Z</time>
      </trkpt>
      <trkpt lat="43.79186" lon="6.98089">
        <ele>749.45635986328</ele>
        <time>2013-12-09T14:43:33Z</time>
      </trkpt>
      <trkpt lat="43.79184" lon="6.98081">
        <ele>755.70721435547</ele>
        <time>2013-12-09T14:43:37Z</time>
      </trkpt>
      <trkpt lat="43.79182" lon="6.98065">
        <ele>761.47583007812</ele>
        <time>2013-12-09T14:43:44Z</time>
      </trkpt>
      <trkpt lat="43.79182" lon="6.9805">
        <ele>765.99096679688</ele>
        <time>2013-12-09T14:43:51Z</time>
      </trkpt>
      <trkpt lat="43.79182" lon="6.98036">
        <ele>770.37182617188</ele>
        <time>2013-12-09T14:43:58Z</time>
      </trkpt>
      <trkpt lat="43.7919" lon="6.98019">
        <ele>770.02465820312</ele>
        <time>2013-12-09T14:44:06Z</time>
      </trkpt>
      <trkpt lat="43.79197" lon="6.98002">
        <ele>772.55279541016</ele>
        <time>2013-12-09T14:44:13Z</time>
      </trkpt>
      <trkpt lat="43.79202" lon="6.97983">
        <ele>772.53314208984</ele>
        <time>2013-12-09T14:44:21Z</time>
      </trkpt>
      <trkpt lat="43.79201" lon="6.97978">
        <ele>774.52099609375</ele>
        <time>2013-12-09T14:44:23Z</time>
      </trkpt>
      <trkpt lat="43.79198" lon="6.97978">
        <ele>777.15771484375</ele>
        <time>2013-12-09T14:44:25Z</time>
      </trkpt>
      <trkpt lat="43.79195" lon="6.97986">
        <ele>778.39367675781</ele>
        <time>2013-12-09T14:44:29Z</time>
      </trkpt>
      <trkpt lat="43.79194" lon="6.97989">
        <ele>778.81127929688</ele>
        <time>2013-12-09T14:44:30Z</time>
      </trkpt>
      <trkpt lat="43.79186" lon="6.98003">
        <ele>780.609375</ele>
        <time>2013-12-09T14:44:37Z</time>
      </trkpt>
      <trkpt lat="43.79177" lon="6.98021">
        <ele>781.61657714844</ele>
        <time>2013-12-09T14:44:46Z</time>
      </trkpt>
      <trkpt lat="43.79172" lon="6.98032">
        <ele>782.58666992188</ele>
        <time>2013-12-09T14:44:51Z</time>
      </trkpt>
      <trkpt lat="43.79168" lon="6.98045">
        <ele>783.46343994141</ele>
        <time>2013-12-09T14:44:58Z</time>
      </trkpt>
      <trkpt lat="43.79166" lon="6.98053">
        <ele>784.13800048828</ele>
        <time>2013-12-09T14:45:02Z</time>
      </trkpt>
      <trkpt lat="43.79163" lon="6.98065">
        <ele>784.33734130859</ele>
        <time>2013-12-09T14:45:08Z</time>
      </trkpt>
      <trkpt lat="43.79157" lon="6.98084">
        <ele>784.86627197266</ele>
        <time>2013-12-09T14:45:16Z</time>
      </trkpt>
      <trkpt lat="43.79148" lon="6.98105">
        <ele>782.81994628906</ele>
        <time>2013-12-09T14:45:25Z</time>
      </trkpt>
      <trkpt lat="43.79139" lon="6.98123">
        <ele>784.18878173828</ele>
        <time>2013-12-09T14:45:33Z</time>
      </trkpt>
      <trkpt lat="43.79135" lon="6.98132">
        <ele>783.71966552734</ele>
        <time>2013-12-09T14:45:37Z</time>
      </trkpt>
      <trkpt lat="43.79132" lon="6.98135">
        <ele>783.84326171875</ele>
        <time>2013-12-09T14:45:39Z</time>
      </trkpt>
      <trkpt lat="43.79125" lon="6.9815">
        <ele>783.97106933594</ele>
        <time>2013-12-09T14:45:45Z</time>
      </trkpt>
      <trkpt lat="43.79118" lon="6.98166">
        <ele>783.82366943359</ele>
        <time>2013-12-09T14:45:52Z</time>
      </trkpt>
      <trkpt lat="43.79114" lon="6.98182">
        <ele>781.13720703125</ele>
        <time>2013-12-09T14:45:59Z</time>
      </trkpt>
      <trkpt lat="43.79113" lon="6.98196">
        <ele>778.69885253906</ele>
        <time>2013-12-09T14:46:04Z</time>
      </trkpt>
      <trkpt lat="43.79109" lon="6.98217">
        <ele>774.59552001953</ele>
        <time>2013-12-09T14:46:12Z</time>
      </trkpt>
      <trkpt lat="43.79105" lon="6.98239">
        <ele>768.86944580078</ele>
        <time>2013-12-09T14:46:20Z</time>
      </trkpt>
      <trkpt lat="43.79101" lon="6.98251">
        <ele>766.23968505859</ele>
        <time>2013-12-09T14:46:25Z</time>
      </trkpt>
      <trkpt lat="43.79097" lon="6.98264">
        <ele>767.41729736328</ele>
        <time>2013-12-09T14:46:31Z</time>
      </trkpt>
      <trkpt lat="43.79096" lon="6.98266">
        <ele>767.59069824219</ele>
        <time>2013-12-09T14:46:32Z</time>
      </trkpt>
      <trkpt lat="43.7909" lon="6.98278">
        <ele>770.04553222656</ele>
        <time>2013-12-09T14:46:38Z</time>
      </trkpt>
      <trkpt lat="43.79082" lon="6.98288">
        <ele>773.11206054688</ele>
        <time>2013-12-09T14:46:44Z</time>
      </trkpt>
      <trkpt lat="43.79082" lon="6.9829">
        <ele>773.14636230469</ele>
        <time>2013-12-09T14:46:45Z</time>
      </trkpt>
      <trkpt lat="43.79078" lon="6.98297">
        <ele>773.83990478516</ele>
        <time>2013-12-09T14:46:48Z</time>
      </trkpt>
      <trkpt lat="43.79071" lon="6.98305">
        <ele>775.14453125</ele>
        <time>2013-12-09T14:46:53Z</time>
      </trkpt>
      <trkpt lat="43.79066" lon="6.98312">
        <ele>776.353515625</ele>
        <time>2013-12-09T14:46:58Z</time>
      </trkpt>
      <trkpt lat="43.7906" lon="6.98322">
        <ele>777.69262695312</ele>
        <time>2013-12-09T14:47:03Z</time>
      </trkpt>
      <trkpt lat="43.79058" lon="6.98323">
        <ele>778.07763671875</ele>
        <time>2013-12-09T14:47:04Z</time>
      </trkpt>
      <trkpt lat="43.79049" lon="6.98335">
        <ele>779.29113769531</ele>
        <time>2013-12-09T14:47:11Z</time>
      </trkpt>
      <trkpt lat="43.79037" lon="6.9835">
        <ele>779.39599609375</ele>
        <time>2013-12-09T14:47:20Z</time>
      </trkpt>
      <trkpt lat="43.79025" lon="6.98363">
        <ele>781.50744628906</ele>
        <time>2013-12-09T14:47:29Z</time>
      </trkpt>
      <trkpt lat="43.79014" lon="6.9837">
        <ele>786.05847167969</ele>
        <time>2013-12-09T14:47:36Z</time>
      </trkpt>
      <trkpt lat="43.79005" lon="6.98375">
        <ele>790.20782470703</ele>
        <time>2013-12-09T14:47:43Z</time>
      </trkpt>
      <trkpt lat="43.78997" lon="6.98384">
        <ele>792.23809814453</ele>
        <time>2013-12-09T14:47:50Z</time>
      </trkpt>
      <trkpt lat="43.78997" lon="6.98385">
        <ele>792.22357177734</ele>
        <time>2013-12-09T14:47:51Z</time>
      </trkpt>
      <trkpt lat="43.78997" lon="6.98387">
        <ele>791.89996337891</ele>
        <time>2013-12-09T14:47:54Z</time>
      </trkpt>
      <trkpt lat="43.78997" lon="6.98387">
        <ele>791.94342041016</ele>
        <time>2013-12-09T14:50:24Z</time>
      </trkpt>
      <trkpt lat="43.79001" lon="6.98372">
        <ele>792.38177490234</ele>
        <time>2013-12-09T14:50:30Z</time>
      </trkpt>
      <trkpt lat="43.79004" lon="6.98357">
        <ele>792.49139404297</ele>
        <time>2013-12-09T14:50:36Z</time>
      </trkpt>
      <trkpt lat="43.79007" lon="6.98343">
        <ele>793.78912353516</ele>
        <time>2013-12-09T14:50:43Z</time>
      </trkpt>
      <trkpt lat="43.79004" lon="6.9833">
        <ele>797.93707275391</ele>
        <time>2013-12-09T14:50:50Z</time>
      </trkpt>
      <trkpt lat="43.79003" lon="6.98317">
        <ele>800.97991943359</ele>
        <time>2013-12-09T14:50:57Z</time>
      </trkpt>
      <trkpt lat="43.79005" lon="6.98306">
        <ele>802.50988769531</ele>
        <time>2013-12-09T14:51:04Z</time>
      </trkpt>
      <trkpt lat="43.79005" lon="6.98302">
        <ele>803.35650634766</ele>
        <time>2013-12-09T14:51:07Z</time>
      </trkpt>
      <trkpt lat="43.79003" lon="6.983">
        <ele>804.69714355469</ele>
        <time>2013-12-09T14:51:09Z</time>
      </trkpt>
      <trkpt lat="43.79" lon="6.98301">
        <ele>805.96240234375</ele>
        <time>2013-12-09T14:51:13Z</time>
      </trkpt>
      <trkpt lat="43.78998" lon="6.98303">
        <ele>806.36871337891</ele>
        <time>2013-12-09T14:51:15Z</time>
      </trkpt>
      <trkpt lat="43.78992" lon="6.98306">
        <ele>808.50341796875</ele>
        <time>2013-12-09T14:51:21Z</time>
      </trkpt>
      <trkpt lat="43.78984" lon="6.98304">
        <ele>812.521484375</ele>
        <time>2013-12-09T14:51:29Z</time>
      </trkpt>
      <trkpt lat="43.78978" lon="6.98304">
        <ele>815.62280273438</ele>
        <time>2013-12-09T14:51:36Z</time>
      </trkpt>
      <trkpt lat="43.78974" lon="6.98304">
        <ele>817.24084472656</ele>
        <time>2013-12-09T14:51:39Z</time>
      </trkpt>
      <trkpt lat="43.78973" lon="6.98299">
        <ele>818.29150390625</ele>
        <time>2013-12-09T14:51:42Z</time>
      </trkpt>
      <trkpt lat="43.78975" lon="6.98291">
        <ele>818.08831787109</ele>
        <time>2013-12-09T14:51:48Z</time>
      </trkpt>
      <trkpt lat="43.78977" lon="6.98288">
        <ele>817.40710449219</ele>
        <time>2013-12-09T14:51:51Z</time>
      </trkpt>
      <trkpt lat="43.78979" lon="6.98283">
        <ele>817.1953125</ele>
        <time>2013-12-09T14:51:55Z</time>
      </trkpt>
      <trkpt lat="43.78979" lon="6.98281">
        <ele>817.34375</ele>
        <time>2013-12-09T14:51:56Z</time>
      </trkpt>
      <trkpt lat="43.78981" lon="6.98275">
        <ele>817.76782226562</ele>
        <time>2013-12-09T14:52:00Z</time>
      </trkpt>
      <trkpt lat="43.78981" lon="6.98272">
        <ele>818.36865234375</ele>
        <time>2013-12-09T14:52:02Z</time>
      </trkpt>
      <trkpt lat="43.78983" lon="6.98267">
        <ele>819.47979736328</ele>
        <time>2013-12-09T14:52:06Z</time>
      </trkpt>
      <trkpt lat="43.78983" lon="6.98263">
        <ele>820.73681640625</ele>
        <time>2013-12-09T14:52:09Z</time>
      </trkpt>
      <trkpt lat="43.78984" lon="6.98259">
        <ele>821.55383300781</ele>
        <time>2013-12-09T14:52:12Z</time>
      </trkpt>
      <trkpt lat="43.78986" lon="6.98255">
        <ele>822.18096923828</ele>
        <time>2013-12-09T14:52:15Z</time>
      </trkpt>
      <trkpt lat="43.78987" lon="6.98251">
        <ele>822.74884033203</ele>
        <time>2013-12-09T14:52:18Z</time>
      </trkpt>
      <trkpt lat="43.78988" lon="6.98248">
        <ele>823.50103759766</ele>
        <time>2013-12-09T14:52:20Z</time>
      </trkpt>
      <trkpt lat="43.7899" lon="6.98245">
        <ele>823.89172363281</ele>
        <time>2013-12-09T14:52:22Z</time>
      </trkpt>
      <trkpt lat="43.78992" lon="6.98243">
        <ele>823.63256835938</ele>
        <time>2013-12-09T14:52:24Z</time>
      </trkpt>
      <trkpt lat="43.78992" lon="6.98237">
        <ele>825.55822753906</ele>
        <time>2013-12-09T14:52:30Z</time>
      </trkpt>
      <trkpt lat="43.78988" lon="6.98232">
        <ele>828.88598632812</ele>
        <time>2013-12-09T14:52:37Z</time>
      </trkpt>
      <trkpt lat="43.78986" lon="6.98234">
        <ele>828.98187255859</ele>
        <time>2013-12-09T14:52:40Z</time>
      </trkpt>
      <trkpt lat="43.78984" lon="6.98237">
        <ele>828.77191162109</ele>
        <time>2013-12-09T14:52:44Z</time>
      </trkpt>
      <trkpt lat="43.78978" lon="6.9824">
        <ele>830.00640869141</ele>
        <time>2013-12-09T14:52:50Z</time>
      </trkpt>
      <trkpt lat="43.78973" lon="6.9824">
        <ele>831.99450683594</ele>
        <time>2013-12-09T14:52:55Z</time>
      </trkpt>
      <trkpt lat="43.78971" lon="6.98241">
        <ele>832.50732421875</ele>
        <time>2013-12-09T14:52:56Z</time>
      </trkpt>
      <trkpt lat="43.78968" lon="6.98241">
        <ele>834.53216552734</ele>
        <time>2013-12-09T14:52:59Z</time>
      </trkpt>
      <trkpt lat="43.78964" lon="6.9824">
        <ele>837.57287597656</ele>
        <time>2013-12-09T14:53:04Z</time>
      </trkpt>
      <trkpt lat="43.78955" lon="6.98242">
        <ele>841.54736328125</ele>
        <time>2013-12-09T14:53:12Z</time>
      </trkpt>
      <trkpt lat="43.78945" lon="6.98248">
        <ele>841.478515625</ele>
        <time>2013-12-09T14:53:20Z</time>
      </trkpt>
      <trkpt lat="43.78943" lon="6.98247">
        <ele>844.93176269531</ele>
        <time>2013-12-09T14:53:22Z</time>
      </trkpt>
      <trkpt lat="43.78944" lon="6.98243">
        <ele>847.9775390625</ele>
        <time>2013-12-09T14:53:24Z</time>
      </trkpt>
      <trkpt lat="43.78947" lon="6.98239">
        <ele>850.32885742188</ele>
        <time>2013-12-09T14:53:27Z</time>
      </trkpt>
      <trkpt lat="43.7895" lon="6.98235">
        <ele>852.00115966797</ele>
        <time>2013-12-09T14:53:31Z</time>
      </trkpt>
      <trkpt lat="43.78956" lon="6.98228">
        <ele>852.47705078125</ele>
        <time>2013-12-09T14:53:37Z</time>
      </trkpt>
      <trkpt lat="43.78962" lon="6.98218">
        <ele>852.64044189453</ele>
        <time>2013-12-09T14:53:45Z</time>
      </trkpt>
      <trkpt lat="43.78966" lon="6.9821">
        <ele>852.03997802734</ele>
        <time>2013-12-09T14:53:51Z</time>
      </trkpt>
      <trkpt lat="43.7897" lon="6.98201">
        <ele>852.16241455078</ele>
        <time>2013-12-09T14:53:58Z</time>
      </trkpt>
      <trkpt lat="43.78976" lon="6.98193">
        <ele>853.25610351562</ele>
        <time>2013-12-09T14:54:06Z</time>
      </trkpt>
      <trkpt lat="43.78983" lon="6.98186">
        <ele>855.81616210938</ele>
        <time>2013-12-09T14:54:13Z</time>
      </trkpt>
      <trkpt lat="43.7899" lon="6.9818">
        <ele>858.72113037109</ele>
        <time>2013-12-09T14:54:20Z</time>
      </trkpt>
      <trkpt lat="43.78994" lon="6.98173">
        <ele>864.46618652344</ele>
        <time>2013-12-09T14:54:26Z</time>
      </trkpt>
      <trkpt lat="43.78994" lon="6.98171">
        <ele>867.48077392578</ele>
        <time>2013-12-09T14:54:32Z</time>
      </trkpt>
      <trkpt lat="43.78989" lon="6.98167">
        <ele>873.99017333984</ele>
        <time>2013-12-09T14:54:58Z</time>
      </trkpt>
      <trkpt lat="43.7898" lon="6.98176">
        <ele>869.40472412109</ele>
        <time>2013-12-09T14:55:05Z</time>
      </trkpt>
      <trkpt lat="43.78968" lon="6.98183">
        <ele>868.95880126953</ele>
        <time>2013-12-09T14:55:14Z</time>
      </trkpt>
      <trkpt lat="43.78959" lon="6.98189">
        <ele>872.93402099609</ele>
        <time>2013-12-09T14:55:22Z</time>
      </trkpt>
      <trkpt lat="43.78948" lon="6.98197">
        <ele>879.11486816406</ele>
        <time>2013-12-09T14:55:29Z</time>
      </trkpt>
      <trkpt lat="43.78939" lon="6.98203">
        <ele>880.86468505859</ele>
        <time>2013-12-09T14:55:35Z</time>
      </trkpt>
      <trkpt lat="43.7893" lon="6.98211">
        <ele>880.81982421875</ele>
        <time>2013-12-09T14:55:41Z</time>
      </trkpt>
      <trkpt lat="43.7892" lon="6.98216">
        <ele>882.89617919922</ele>
        <time>2013-12-09T14:55:48Z</time>
      </trkpt>
      <trkpt lat="43.78911" lon="6.98223">
        <ele>883.50335693359</ele>
        <time>2013-12-09T14:55:55Z</time>
      </trkpt>
      <trkpt lat="43.78901" lon="6.98228">
        <ele>881.44281005859</ele>
        <time>2013-12-09T14:56:02Z</time>
      </trkpt>
      <trkpt lat="43.78891" lon="6.98233">
        <ele>880.36724853516</ele>
        <time>2013-12-09T14:56:09Z</time>
      </trkpt>
      <trkpt lat="43.78883" lon="6.98239">
        <ele>878.02935791016</ele>
        <time>2013-12-09T14:56:16Z</time>
      </trkpt>
      <trkpt lat="43.78872" lon="6.98248">
        <ele>874.73156738281</ele>
        <time>2013-12-09T14:56:24Z</time>
      </trkpt>
      <trkpt lat="43.7886" lon="6.9826">
        <ele>869.84387207031</ele>
        <time>2013-12-09T14:56:33Z</time>
      </trkpt>
      <trkpt lat="43.78848" lon="6.9827">
        <ele>865.73760986328</ele>
        <time>2013-12-09T14:56:42Z</time>
      </trkpt>
      <trkpt lat="43.78839" lon="6.98278">
        <ele>863.28460693359</ele>
        <time>2013-12-09T14:56:49Z</time>
      </trkpt>
      <trkpt lat="43.78831" lon="6.98281">
        <ele>863.13360595703</ele>
        <time>2013-12-09T14:56:57Z</time>
      </trkpt>
      <trkpt lat="43.78825" lon="6.98288">
        <ele>861.25085449219</ele>
        <time>2013-12-09T14:58:36Z</time>
      </trkpt>
      <trkpt lat="43.78818" lon="6.98289">
        <ele>860.90179443359</ele>
        <time>2013-12-09T14:59:33Z</time>
      </trkpt>
      <trkpt lat="43.78805" lon="6.98291">
        <ele>860.71350097656</ele>
        <time>2013-12-09T14:59:40Z</time>
      </trkpt>
      <trkpt lat="43.78793" lon="6.98299">
        <ele>859.33959960938</ele>
        <time>2013-12-09T14:59:46Z</time>
      </trkpt>
      <trkpt lat="43.78776" lon="6.98307">
        <ele>858.72650146484</ele>
        <time>2013-12-09T14:59:53Z</time>
      </trkpt>
      <trkpt lat="43.7876" lon="6.98312">
        <ele>857.18029785156</ele>
        <time>2013-12-09T15:00:00Z</time>
      </trkpt>
      <trkpt lat="43.78742" lon="6.98327">
        <ele>854.88092041016</ele>
        <time>2013-12-09T15:00:08Z</time>
      </trkpt>
      <trkpt lat="43.78728" lon="6.98339">
        <ele>853.30236816406</ele>
        <time>2013-12-09T15:00:14Z</time>
      </trkpt>
      <trkpt lat="43.78726" lon="6.98355">
        <ele>851.53143310547</ele>
        <time>2013-12-09T15:00:19Z</time>
      </trkpt>
      <trkpt lat="43.78727" lon="6.98383">
        <ele>849.15496826172</ele>
        <time>2013-12-09T15:00:28Z</time>
      </trkpt>
      <trkpt lat="43.78725" lon="6.984">
        <ele>849.21075439453</ele>
        <time>2013-12-09T15:00:36Z</time>
      </trkpt>
      <trkpt lat="43.78725" lon="6.98402">
        <ele>849.23822021484</ele>
        <time>2013-12-09T15:00:38Z</time>
      </trkpt>
      <trkpt lat="43.78726" lon="6.98406">
        <ele>849.34808349609</ele>
        <time>2013-12-09T15:00:41Z</time>
      </trkpt>
      <trkpt lat="43.78725" lon="6.98414">
        <ele>849.74114990234</ele>
        <time>2013-12-09T15:00:46Z</time>
      </trkpt>
      <trkpt lat="43.78724" lon="6.98417">
        <ele>849.87847900391</ele>
        <time>2013-12-09T15:00:47Z</time>
      </trkpt>
      <trkpt lat="43.78718" lon="6.98423">
        <ele>851.41284179688</ele>
        <time>2013-12-09T15:00:52Z</time>
      </trkpt>
      <trkpt lat="43.78714" lon="6.98428">
        <ele>852.45892333984</ele>
        <time>2013-12-09T15:00:56Z</time>
      </trkpt>
      <trkpt lat="43.7871" lon="6.98442">
        <ele>854.60437011719</ele>
        <time>2013-12-09T15:01:05Z</time>
      </trkpt>
      <trkpt lat="43.78709" lon="6.98448">
        <ele>855.25476074219</ele>
        <time>2013-12-09T15:01:12Z</time>
      </trkpt>
      <trkpt lat="43.78703" lon="6.98452">
        <ele>855.97644042969</ele>
        <time>2013-12-09T15:01:19Z</time>
      </trkpt>
      <trkpt lat="43.78697" lon="6.98457">
        <ele>856.78283691406</ele>
        <time>2013-12-09T15:01:26Z</time>
      </trkpt>
      <trkpt lat="43.78693" lon="6.98462">
        <ele>857.35876464844</ele>
        <time>2013-12-09T15:01:32Z</time>
      </trkpt>
      <trkpt lat="43.78689" lon="6.9847">
        <ele>858.03924560547</ele>
        <time>2013-12-09T15:01:39Z</time>
      </trkpt>
      <trkpt lat="43.78687" lon="6.98479">
        <ele>859.2109375</ele>
        <time>2013-12-09T15:01:45Z</time>
      </trkpt>
      <trkpt lat="43.78687" lon="6.98485">
        <ele>860.15844726562</ele>
        <time>2013-12-09T15:01:50Z</time>
      </trkpt>
      <trkpt lat="43.78685" lon="6.98486">
        <ele>860.3232421875</ele>
        <time>2013-12-09T15:01:52Z</time>
      </trkpt>
      <trkpt lat="43.7868" lon="6.98484">
        <ele>860.16534423828</ele>
        <time>2013-12-09T15:01:57Z</time>
      </trkpt>
      <trkpt lat="43.7868" lon="6.98483">
        <ele>860.04858398438</ele>
        <time>2013-12-09T15:01:58Z</time>
      </trkpt>
      <trkpt lat="43.78677" lon="6.98481">
        <ele>859.95251464844</ele>
        <time>2013-12-09T15:02:05Z</time>
      </trkpt>
      <trkpt lat="43.78671" lon="6.98479">
        <ele>859.77392578125</ele>
        <time>2013-12-09T15:02:11Z</time>
      </trkpt>
      <trkpt lat="43.78664" lon="6.98483">
        <ele>860.591796875</ele>
        <time>2013-12-09T15:02:17Z</time>
      </trkpt>
      <trkpt lat="43.78664" lon="6.98485">
        <ele>860.88708496094</ele>
        <time>2013-12-09T15:02:22Z</time>
      </trkpt>
      <trkpt lat="43.78662" lon="6.98492">
        <ele>861.88952636719</ele>
        <time>2013-12-09T15:02:27Z</time>
      </trkpt>
      <trkpt lat="43.78658" lon="6.98501">
        <ele>863.17407226562</ele>
        <time>2013-12-09T15:02:35Z</time>
      </trkpt>
      <trkpt lat="43.78656" lon="6.98509">
        <ele>864.58166503906</ele>
        <time>2013-12-09T15:02:42Z</time>
      </trkpt>
      <trkpt lat="43.78656" lon="6.9851">
        <ele>864.73620605469</ele>
        <time>2013-12-09T15:02:43Z</time>
      </trkpt>
      <trkpt lat="43.78648" lon="6.98513">
        <ele>865.36273193359</ele>
        <time>2013-12-09T15:02:51Z</time>
      </trkpt>
      <trkpt lat="43.78642" lon="6.98516">
        <ele>865.81762695312</ele>
        <time>2013-12-09T15:02:58Z</time>
      </trkpt>
      <trkpt lat="43.78641" lon="6.98517">
        <ele>866.14379882812</ele>
        <time>2013-12-09T15:03:00Z</time>
      </trkpt>
      <trkpt lat="43.78637" lon="6.98521">
        <ele>866.93408203125</ele>
        <time>2013-12-09T15:03:06Z</time>
      </trkpt>
      <trkpt lat="43.78634" lon="6.98521">
        <ele>867.19427490234</ele>
        <time>2013-12-09T15:03:12Z</time>
      </trkpt>
      <trkpt lat="43.78632" lon="6.98523">
        <ele>867.57678222656</ele>
        <time>2013-12-09T15:03:17Z</time>
      </trkpt>
      <trkpt lat="43.78627" lon="6.98526">
        <ele>868.60650634766</ele>
        <time>2013-12-09T15:03:22Z</time>
      </trkpt>
      <trkpt lat="43.78626" lon="6.98528">
        <ele>868.91979980469</ele>
        <time>2013-12-09T15:03:23Z</time>
      </trkpt>
      <trkpt lat="43.7863" lon="6.98534">
        <ele>869.22955322266</ele>
        <time>2013-12-09T15:03:28Z</time>
      </trkpt>
      <trkpt lat="43.78638" lon="6.98538">
        <ele>869.21148681641</ele>
        <time>2013-12-09T15:03:34Z</time>
      </trkpt>
      <trkpt lat="43.78638" lon="6.9854">
        <ele>869.34735107422</ele>
        <time>2013-12-09T15:03:35Z</time>
      </trkpt>
      <trkpt lat="43.7864" lon="6.98545">
        <ele>869.80627441406</ele>
        <time>2013-12-09T15:03:38Z</time>
      </trkpt>
      <trkpt lat="43.78641" lon="6.98547">
        <ele>870.03283691406</ele>
        <time>2013-12-09T15:03:39Z</time>
      </trkpt>
      <trkpt lat="43.7864" lon="6.98549">
        <ele>870.25427246094</ele>
        <time>2013-12-09T15:03:40Z</time>
      </trkpt>
      <trkpt lat="43.78641" lon="6.98555">
        <ele>870.94952392578</ele>
        <time>2013-12-09T15:03:43Z</time>
      </trkpt>
      <trkpt lat="43.78638" lon="6.98567">
        <ele>873.02758789062</ele>
        <time>2013-12-09T15:03:48Z</time>
      </trkpt>
      <trkpt lat="43.78636" lon="6.98568">
        <ele>873.21173095703</ele>
        <time>2013-12-09T15:03:49Z</time>
      </trkpt>
      <trkpt lat="43.78636" lon="6.98568">
        <ele>873.35479736328</ele>
        <time>2013-12-09T15:03:51Z</time>
      </trkpt>
      <trkpt lat="43.78634" lon="6.9857">
        <ele>873.72369384766</ele>
        <time>2013-12-09T15:03:57Z</time>
      </trkpt>
      <trkpt lat="43.78634" lon="6.98575">
        <ele>874.63641357422</ele>
        <time>2013-12-09T15:04:04Z</time>
      </trkpt>
      <trkpt lat="43.78636" lon="6.98578">
        <ele>875.08825683594</ele>
        <time>2013-12-09T15:04:11Z</time>
      </trkpt>
      <trkpt lat="43.78637" lon="6.98583">
        <ele>875.87823486328</ele>
        <time>2013-12-09T15:04:17Z</time>
      </trkpt>
      <trkpt lat="43.7864" lon="6.98585">
        <ele>876.30541992188</ele>
        <time>2013-12-09T15:04:20Z</time>
      </trkpt>
      <trkpt lat="43.78641" lon="6.98587">
        <ele>876.75860595703</ele>
        <time>2013-12-09T15:04:22Z</time>
      </trkpt>
      <trkpt lat="43.78643" lon="6.98592">
        <ele>877.92248535156</ele>
        <time>2013-12-09T15:04:28Z</time>
      </trkpt>
      <trkpt lat="43.78642" lon="6.98593">
        <ele>878.16967773438</ele>
        <time>2013-12-09T15:04:30Z</time>
      </trkpt>
      <trkpt lat="43.7864" lon="6.98594">
        <ele>878.38598632812</ele>
        <time>2013-12-09T15:04:33Z</time>
      </trkpt>
      <trkpt lat="43.78633" lon="6.98592">
        <ele>877.70422363281</ele>
        <time>2013-12-09T15:04:41Z</time>
      </trkpt>
      <trkpt lat="43.78627" lon="6.98594">
        <ele>877.98413085938</ele>
        <time>2013-12-09T15:04:48Z</time>
      </trkpt>
      <trkpt lat="43.78623" lon="6.98599">
        <ele>878.68231201172</ele>
        <time>2013-12-09T15:04:54Z</time>
      </trkpt>
      <trkpt lat="43.78617" lon="6.98603">
        <ele>879.22705078125</ele>
        <time>2013-12-09T15:05:01Z</time>
      </trkpt>
      <trkpt lat="43.78611" lon="6.98606">
        <ele>879.32403564453</ele>
        <time>2013-12-09T15:05:09Z</time>
      </trkpt>
      <trkpt lat="43.78604" lon="6.98608">
        <ele>879.59039306641</ele>
        <time>2013-12-09T15:05:17Z</time>
      </trkpt>
      <trkpt lat="43.78597" lon="6.98611">
        <ele>879.99468994141</ele>
        <time>2013-12-09T15:05:26Z</time>
      </trkpt>
      <trkpt lat="43.78591" lon="6.98614">
        <ele>880.4814453125</ele>
        <time>2013-12-09T15:05:34Z</time>
      </trkpt>
      <trkpt lat="43.78587" lon="6.98616">
        <ele>880.75610351562</ele>
        <time>2013-12-09T15:05:41Z</time>
      </trkpt>
      <trkpt lat="43.78577" lon="6.98616">
        <ele>881.34765625</ele>
        <time>2013-12-09T15:07:52Z</time>
      </trkpt>
      <trkpt lat="43.78575" lon="6.98617">
        <ele>881.72576904297</ele>
        <time>2013-12-09T15:10:01Z</time>
      </trkpt>
      <trkpt lat="43.78567" lon="6.98618">
        <ele>882.57238769531</ele>
        <time>2013-12-09T15:10:07Z</time>
      </trkpt>
      <trkpt lat="43.78564" lon="6.98619">
        <ele>883.00952148438</ele>
        <time>2013-12-09T15:10:13Z</time>
      </trkpt>
      <trkpt lat="43.78559" lon="6.98618">
        <ele>883.33599853516</ele>
        <time>2013-12-09T15:10:28Z</time>
      </trkpt>
      <trkpt lat="43.78551" lon="6.98621">
        <ele>884.728515625</ele>
        <time>2013-12-09T15:10:35Z</time>
      </trkpt>
      <trkpt lat="43.7855" lon="6.98623">
        <ele>885.14050292969</ele>
        <time>2013-12-09T15:10:37Z</time>
      </trkpt>
      <trkpt lat="43.78545" lon="6.98627">
        <ele>886.17565917969</ele>
        <time>2013-12-09T15:10:40Z</time>
      </trkpt>
      <trkpt lat="43.78541" lon="6.9863">
        <ele>887.16442871094</ele>
        <time>2013-12-09T15:10:43Z</time>
      </trkpt>
      <trkpt lat="43.78536" lon="6.98634">
        <ele>888.23046875</ele>
        <time>2013-12-09T15:10:47Z</time>
      </trkpt>
      <trkpt lat="43.7853" lon="6.98641">
        <ele>889.93768310547</ele>
        <time>2013-12-09T15:10:53Z</time>
      </trkpt>
      <trkpt lat="43.78524" lon="6.98646">
        <ele>891.02209472656</ele>
        <time>2013-12-09T15:10:58Z</time>
      </trkpt>
      <trkpt lat="43.7852" lon="6.98647">
        <ele>891.50280761719</ele>
        <time>2013-12-09T15:11:03Z</time>
      </trkpt>
      <trkpt lat="43.78513" lon="6.98651">
        <ele>892.3095703125</ele>
        <time>2013-12-09T15:11:11Z</time>
      </trkpt>
      <trkpt lat="43.7851" lon="6.98654">
        <ele>892.9052734375</ele>
        <time>2013-12-09T15:11:18Z</time>
      </trkpt>
      <trkpt lat="43.78506" lon="6.98659">
        <ele>893.69146728516</ele>
        <time>2013-12-09T15:11:25Z</time>
      </trkpt>
      <trkpt lat="43.78503" lon="6.98663">
        <ele>894.33349609375</ele>
        <time>2013-12-09T15:11:31Z</time>
      </trkpt>
      <trkpt lat="43.78502" lon="6.98664">
        <ele>894.54461669922</ele>
        <time>2013-12-09T15:11:39Z</time>
      </trkpt>
      <trkpt lat="43.78499" lon="6.98665">
        <ele>894.97692871094</ele>
        <time>2013-12-09T15:12:05Z</time>
      </trkpt>
      <trkpt lat="43.78493" lon="6.98667">
        <ele>896.28509521484</ele>
        <time>2013-12-09T15:12:11Z</time>
      </trkpt>
      <trkpt lat="43.7849" lon="6.98668">
        <ele>896.79992675781</ele>
        <time>2013-12-09T15:12:13Z</time>
      </trkpt>
      <trkpt lat="43.78487" lon="6.98669">
        <ele>897.53228759766</ele>
        <time>2013-12-09T15:12:16Z</time>
      </trkpt>
      <trkpt lat="43.78473" lon="6.98672">
        <ele>900.4296875</ele>
        <time>2013-12-09T15:12:24Z</time>
      </trkpt>
      <trkpt lat="43.78466" lon="6.98679">
        <ele>902.5966796875</ele>
        <time>2013-12-09T15:12:30Z</time>
      </trkpt>
      <trkpt lat="43.78459" lon="6.98691">
        <ele>905.40875244141</ele>
        <time>2013-12-09T15:12:37Z</time>
      </trkpt>
      <trkpt lat="43.78458" lon="6.98692">
        <ele>905.66931152344</ele>
        <time>2013-12-09T15:12:38Z</time>
      </trkpt>
      <trkpt lat="43.78458" lon="6.98701">
        <ele>907.40954589844</ele>
        <time>2013-12-09T15:12:42Z</time>
      </trkpt>
      <trkpt lat="43.78459" lon="6.98702">
        <ele>907.24835205078</ele>
        <time>2013-12-09T15:12:43Z</time>
      </trkpt>
      <trkpt lat="43.78458" lon="6.98702">
        <ele>907.57611083984</ele>
        <time>2013-12-09T15:12:45Z</time>
      </trkpt>
      <trkpt lat="43.78458" lon="6.98709">
        <ele>908.91711425781</ele>
        <time>2013-12-09T15:12:53Z</time>
      </trkpt>
      <trkpt lat="43.78458" lon="6.98715">
        <ele>910.06030273438</ele>
        <time>2013-12-09T15:12:59Z</time>
      </trkpt>
      <trkpt lat="43.78459" lon="6.98721">
        <ele>911.18121337891</ele>
        <time>2013-12-09T15:13:05Z</time>
      </trkpt>
      <trkpt lat="43.78455" lon="6.98725">
        <ele>912.72216796875</ele>
        <time>2013-12-09T15:13:12Z</time>
      </trkpt>
      <trkpt lat="43.78449" lon="6.98724">
        <ele>913.57464599609</ele>
        <time>2013-12-09T15:13:20Z</time>
      </trkpt>
      <trkpt lat="43.78442" lon="6.98723">
        <ele>914.51116943359</ele>
        <time>2013-12-09T15:13:29Z</time>
      </trkpt>
      <trkpt lat="43.78441" lon="6.98729">
        <ele>916.01416015625</ele>
        <time>2013-12-09T15:13:35Z</time>
      </trkpt>
      <trkpt lat="43.78442" lon="6.98738">
        <ele>917.65997314453</ele>
        <time>2013-12-09T15:13:43Z</time>
      </trkpt>
      <trkpt lat="43.78442" lon="6.98739">
        <ele>917.85040283203</ele>
        <time>2013-12-09T15:13:44Z</time>
      </trkpt>
      <trkpt lat="43.78442" lon="6.98746">
        <ele>919.44116210938</ele>
        <time>2013-12-09T15:13:51Z</time>
      </trkpt>
      <trkpt lat="43.7844" lon="6.98755">
        <ele>920.71081542969</ele>
        <time>2013-12-09T15:13:59Z</time>
      </trkpt>
      <trkpt lat="43.78439" lon="6.98763">
        <ele>921.43090820312</ele>
        <time>2013-12-09T15:14:06Z</time>
      </trkpt>
      <trkpt lat="43.78439" lon="6.98769">
        <ele>921.87310791016</ele>
        <time>2013-12-09T15:14:11Z</time>
      </trkpt>
      <trkpt lat="43.78439" lon="6.98771">
        <ele>922.09490966797</ele>
        <time>2013-12-09T15:14:13Z</time>
      </trkpt>
      <trkpt lat="43.78437" lon="6.98775">
        <ele>922.56433105469</ele>
        <time>2013-12-09T15:14:17Z</time>
      </trkpt>
      <trkpt lat="43.78436" lon="6.98779">
        <ele>923.11499023438</ele>
        <time>2013-12-09T15:14:21Z</time>
      </trkpt>
      <trkpt lat="43.78436" lon="6.9879">
        <ele>925.04840087891</ele>
        <time>2013-12-09T15:14:30Z</time>
      </trkpt>
      <trkpt lat="43.78434" lon="6.98793">
        <ele>925.63409423828</ele>
        <time>2013-12-09T15:14:33Z</time>
      </trkpt>
      <trkpt lat="43.7843" lon="6.98792">
        <ele>925.89978027344</ele>
        <time>2013-12-09T15:14:37Z</time>
      </trkpt>
      <trkpt lat="43.78428" lon="6.98791">
        <ele>925.85095214844</ele>
        <time>2013-12-09T15:14:39Z</time>
      </trkpt>
      <trkpt lat="43.78423" lon="6.9879">
        <ele>926.10711669922</ele>
        <time>2013-12-09T15:14:44Z</time>
      </trkpt>
      <trkpt lat="43.78422" lon="6.9879">
        <ele>926.30670166016</ele>
        <time>2013-12-09T15:14:45Z</time>
      </trkpt>
      <trkpt lat="43.78421" lon="6.98795">
        <ele>927.14752197266</ele>
        <time>2013-12-09T15:14:50Z</time>
      </trkpt>
      <trkpt lat="43.78421" lon="6.98804">
        <ele>928.44653320312</ele>
        <time>2013-12-09T15:14:57Z</time>
      </trkpt>
      <trkpt lat="43.78421" lon="6.98805">
        <ele>928.63885498047</ele>
        <time>2013-12-09T15:14:58Z</time>
      </trkpt>
      <trkpt lat="43.78419" lon="6.98812">
        <ele>929.732421875</ele>
        <time>2013-12-09T15:15:04Z</time>
      </trkpt>
      <trkpt lat="43.78416" lon="6.98819">
        <ele>930.99084472656</ele>
        <time>2013-12-09T15:15:12Z</time>
      </trkpt>
      <trkpt lat="43.78415" lon="6.98826">
        <ele>931.91711425781</ele>
        <time>2013-12-09T15:15:19Z</time>
      </trkpt>
      <trkpt lat="43.78411" lon="6.98832">
        <ele>932.76373291016</ele>
        <time>2013-12-09T15:15:26Z</time>
      </trkpt>
      <trkpt lat="43.78404" lon="6.98839">
        <ele>933.642578125</ele>
        <time>2013-12-09T15:15:35Z</time>
      </trkpt>
      <trkpt lat="43.78402" lon="6.98841">
        <ele>933.78674316406</ele>
        <time>2013-12-09T15:15:38Z</time>
      </trkpt>
      <trkpt lat="43.78399" lon="6.98841">
        <ele>933.78674316406</ele>
        <time>2013-12-09T15:15:42Z</time>
      </trkpt>
      <trkpt lat="43.78394" lon="6.98846">
        <ele>934.37896728516</ele>
        <time>2013-12-09T15:15:49Z</time>
      </trkpt>
      <trkpt lat="43.78389" lon="6.98852">
        <ele>935.00726318359</ele>
        <time>2013-12-09T15:15:55Z</time>
      </trkpt>
      <trkpt lat="43.78383" lon="6.98859">
        <ele>935.40502929688</ele>
        <time>2013-12-09T15:16:02Z</time>
      </trkpt>
      <trkpt lat="43.78375" lon="6.98874">
        <ele>936.64739990234</ele>
        <time>2013-12-09T15:16:09Z</time>
      </trkpt>
      <trkpt lat="43.7837" lon="6.98886">
        <ele>937.60614013672</ele>
        <time>2013-12-09T15:16:16Z</time>
      </trkpt>
      <trkpt lat="43.78365" lon="6.98893">
        <ele>937.86041259766</ele>
        <time>2013-12-09T15:16:21Z</time>
      </trkpt>
      <trkpt lat="43.78365" lon="6.98893">
        <ele>937.86560058594</ele>
        <time>2013-12-09T15:16:23Z</time>
      </trkpt>
      <trkpt lat="43.78362" lon="6.98897">
        <ele>937.94799804688</ele>
        <time>2013-12-09T15:16:33Z</time>
      </trkpt>
      <trkpt lat="43.78362" lon="6.98897">
        <ele>938.00463867188</ele>
        <time>2013-12-09T15:16:38Z</time>
      </trkpt>
      <trkpt lat="43.78365" lon="6.989">
        <ele>938.60717773438</ele>
        <time>2013-12-09T15:17:05Z</time>
      </trkpt>
      <trkpt lat="43.78366" lon="6.989">
        <ele>938.77709960938</ele>
        <time>2013-12-09T15:18:31Z</time>
      </trkpt>
      <trkpt lat="43.78366" lon="6.98901">
        <ele>938.75653076172</ele>
        <time>2013-12-09T15:18:43Z</time>
      </trkpt>
      <trkpt lat="43.78365" lon="6.98901">
        <ele>938.70501708984</ele>
        <time>2013-12-09T15:18:52Z</time>
      </trkpt>
      <trkpt lat="43.78365" lon="6.98901">
        <ele>938.74108886719</ele>
        <time>2013-12-09T15:19:00Z</time>
      </trkpt>
      <trkpt lat="43.78362" lon="6.98909">
        <ele>939.29724121094</ele>
        <time>2013-12-09T15:19:13Z</time>
      </trkpt>
      <trkpt lat="43.78358" lon="6.98925">
        <ele>940.38977050781</ele>
        <time>2013-12-09T15:19:20Z</time>
      </trkpt>
      <trkpt lat="43.78351" lon="6.98944">
        <ele>941.25500488281</ele>
        <time>2013-12-09T15:19:28Z</time>
      </trkpt>
      <trkpt lat="43.78348" lon="6.98948">
        <ele>941.47747802734</ele>
        <time>2013-12-09T15:19:31Z</time>
      </trkpt>
      <trkpt lat="43.78347" lon="6.98952">
        <ele>941.83795166016</ele>
        <time>2013-12-09T15:19:33Z</time>
      </trkpt>
      <trkpt lat="43.78341" lon="6.98966">
        <ele>942.88336181641</ele>
        <time>2013-12-09T15:19:40Z</time>
      </trkpt>
      <trkpt lat="43.78337" lon="6.98982">
        <ele>944.33044433594</ele>
        <time>2013-12-09T15:19:48Z</time>
      </trkpt>
      <trkpt lat="43.78336" lon="6.98984">
        <ele>944.48840332031</ele>
        <time>2013-12-09T15:19:50Z</time>
      </trkpt>
      <trkpt lat="43.78335" lon="6.98987">
        <ele>944.73046875</ele>
        <time>2013-12-09T15:19:53Z</time>
      </trkpt>
      <trkpt lat="43.78335" lon="6.98987">
        <ele>944.76647949219</ele>
        <time>2013-12-09T15:19:55Z</time>
      </trkpt>
      <trkpt lat="43.78332" lon="6.98996">
        <ele>945.31372070312</ele>
        <time>2013-12-09T15:27:42Z</time>
      </trkpt>
      <trkpt lat="43.78332" lon="6.98996">
        <ele>945.32232666016</ele>
        <time>2013-12-09T15:27:46Z</time>
      </trkpt>
      <trkpt lat="43.78329" lon="6.99006">
        <ele>945.57720947266</ele>
        <time>2013-12-09T15:27:52Z</time>
      </trkpt>
      <trkpt lat="43.78329" lon="6.99007">
        <ele>945.70422363281</ele>
        <time>2013-12-09T15:27:53Z</time>
      </trkpt>
      <trkpt lat="43.78326" lon="6.99017">
        <ele>945.96514892578</ele>
        <time>2013-12-09T15:27:57Z</time>
      </trkpt>
      <trkpt lat="43.78324" lon="6.99033">
        <ele>946.70086669922</ele>
        <time>2013-12-09T15:28:04Z</time>
      </trkpt>
      <trkpt lat="43.78325" lon="6.99045">
        <ele>947.935546875</ele>
        <time>2013-12-09T15:28:10Z</time>
      </trkpt>
      <trkpt lat="43.78325" lon="6.99047">
        <ele>948.12921142578</ele>
        <time>2013-12-09T15:28:11Z</time>
      </trkpt>
      <trkpt lat="43.78326" lon="6.99056">
        <ele>948.90240478516</ele>
        <time>2013-12-09T15:28:15Z</time>
      </trkpt>
      <trkpt lat="43.78326" lon="6.9906">
        <ele>949.24914550781</ele>
        <time>2013-12-09T15:28:17Z</time>
      </trkpt>
      <trkpt lat="43.78325" lon="6.99072">
        <ele>950.03192138672</ele>
        <time>2013-12-09T15:28:23Z</time>
      </trkpt>
      <trkpt lat="43.78325" lon="6.99084">
        <ele>950.95184326172</ele>
        <time>2013-12-09T15:28:29Z</time>
      </trkpt>
      <trkpt lat="43.78324" lon="6.99099">
        <ele>952.36462402344</ele>
        <time>2013-12-09T15:28:36Z</time>
      </trkpt>
      <trkpt lat="43.78322" lon="6.99114">
        <ele>953.62463378906</ele>
        <time>2013-12-09T15:28:42Z</time>
      </trkpt>
      <trkpt lat="43.78314" lon="6.99128">
        <ele>954.01947021484</ele>
        <time>2013-12-09T15:28:47Z</time>
      </trkpt>
      <trkpt lat="43.783" lon="6.99144">
        <ele>953.08410644531</ele>
        <time>2013-12-09T15:28:54Z</time>
      </trkpt>
      <trkpt lat="43.78284" lon="6.99154">
        <ele>950.45428466797</ele>
        <time>2013-12-09T15:29:00Z</time>
      </trkpt>
      <trkpt lat="43.7827" lon="6.99167">
        <ele>948.93206787109</ele>
        <time>2013-12-09T15:29:06Z</time>
      </trkpt>
      <trkpt lat="43.78262" lon="6.99185">
        <ele>949.6083984375</ele>
        <time>2013-12-09T15:29:12Z</time>
      </trkpt>
      <trkpt lat="43.78255" lon="6.992">
        <ele>950.28643798828</ele>
        <time>2013-12-09T15:29:18Z</time>
      </trkpt>
      <trkpt lat="43.78248" lon="6.99216">
        <ele>951.00402832031</ele>
        <time>2013-12-09T15:29:25Z</time>
      </trkpt>
      <trkpt lat="43.78242" lon="6.99233">
        <ele>951.71606445312</ele>
        <time>2013-12-09T15:29:32Z</time>
      </trkpt>
      <trkpt lat="43.78238" lon="6.9925">
        <ele>952.29626464844</ele>
        <time>2013-12-09T15:29:38Z</time>
      </trkpt>
      <trkpt lat="43.78234" lon="6.99271">
        <ele>953.94018554688</ele>
        <time>2013-12-09T15:29:45Z</time>
      </trkpt>
      <trkpt lat="43.78228" lon="6.99289">
        <ele>955.0869140625</ele>
        <time>2013-12-09T15:29:51Z</time>
      </trkpt>
      <trkpt lat="43.78219" lon="6.99315">
        <ele>956.05102539062</ele>
        <time>2013-12-09T15:29:59Z</time>
      </trkpt>
      <trkpt lat="43.78216" lon="6.99342">
        <ele>957.73626708984</ele>
        <time>2013-12-09T15:30:05Z</time>
      </trkpt>
      <trkpt lat="43.78219" lon="6.99374">
        <ele>963.93804931641</ele>
        <time>2013-12-09T15:30:11Z</time>
      </trkpt>
      <trkpt lat="43.78216" lon="6.99405">
        <ele>968.50775146484</ele>
        <time>2013-12-09T15:30:16Z</time>
      </trkpt>
      <trkpt lat="43.78206" lon="6.99447">
        <ele>974.59533691406</ele>
        <time>2013-12-09T15:30:23Z</time>
      </trkpt>
      <trkpt lat="43.78202" lon="6.99457">
        <ele>975.02178955078</ele>
        <time>2013-12-09T15:30:25Z</time>
      </trkpt>
      <trkpt lat="43.78193" lon="6.9947">
        <ele>974.04779052734</ele>
        <time>2013-12-09T15:30:28Z</time>
      </trkpt>
      <trkpt lat="43.78189" lon="6.99473">
        <ele>973.77392578125</ele>
        <time>2013-12-09T15:30:29Z</time>
      </trkpt>
      <trkpt lat="43.78181" lon="6.99478">
        <ele>973.44769287109</ele>
        <time>2013-12-09T15:30:31Z</time>
      </trkpt>
      <trkpt lat="43.78174" lon="6.99484">
        <ele>973.54901123047</ele>
        <time>2013-12-09T15:30:33Z</time>
      </trkpt>
      <trkpt lat="43.78167" lon="6.99488">
        <ele>973.23999023438</ele>
        <time>2013-12-09T15:30:35Z</time>
      </trkpt>
      <trkpt lat="43.78163" lon="6.9949">
        <ele>972.40380859375</ele>
        <time>2013-12-09T15:30:36Z</time>
      </trkpt>
      <trkpt lat="43.78156" lon="6.99495">
        <ele>971.04705810547</ele>
        <time>2013-12-09T15:30:38Z</time>
      </trkpt>
      <trkpt lat="43.78136" lon="6.99508">
        <ele>968.18597412109</ele>
        <time>2013-12-09T15:30:44Z</time>
      </trkpt>
      <trkpt lat="43.78125" lon="6.99521">
        <ele>969.42193603516</ele>
        <time>2013-12-09T15:30:49Z</time>
      </trkpt>
      <trkpt lat="43.78115" lon="6.99536">
        <ele>971.46441650391</ele>
        <time>2013-12-09T15:30:55Z</time>
      </trkpt>
      <trkpt lat="43.78106" lon="6.99551">
        <ele>972.69885253906</ele>
        <time>2013-12-09T15:31:01Z</time>
      </trkpt>
      <trkpt lat="43.78105" lon="6.99553">
        <ele>972.73754882812</ele>
        <time>2013-12-09T15:31:02Z</time>
      </trkpt>
      <trkpt lat="43.78097" lon="6.99561">
        <ele>971.96624755859</ele>
        <time>2013-12-09T15:31:07Z</time>
      </trkpt>
      <trkpt lat="43.78086" lon="6.99572">
        <ele>972.15502929688</ele>
        <time>2013-12-09T15:31:13Z</time>
      </trkpt>
      <trkpt lat="43.7808" lon="6.99583">
        <ele>974.16052246094</ele>
        <time>2013-12-09T15:31:19Z</time>
      </trkpt>
      <trkpt lat="43.78071" lon="6.99597">
        <ele>974.70965576172</ele>
        <time>2013-12-09T15:31:26Z</time>
      </trkpt>
      <trkpt lat="43.78058" lon="6.99609">
        <ele>973.30395507812</ele>
        <time>2013-12-09T15:31:34Z</time>
      </trkpt>
      <trkpt lat="43.78043" lon="6.99623">
        <ele>972.63885498047</ele>
        <time>2013-12-09T15:31:42Z</time>
      </trkpt>
      <trkpt lat="43.78028" lon="6.99633">
        <ele>971.57611083984</ele>
        <time>2013-12-09T15:31:49Z</time>
      </trkpt>
      <trkpt lat="43.78013" lon="6.99643">
        <ele>969.18139648438</ele>
        <time>2013-12-09T15:31:55Z</time>
      </trkpt>
      <trkpt lat="43.77999" lon="6.99651">
        <ele>967.39593505859</ele>
        <time>2013-12-09T15:32:00Z</time>
      </trkpt>
      <trkpt lat="43.77986" lon="6.99657">
        <ele>968.04479980469</ele>
        <time>2013-12-09T15:32:05Z</time>
      </trkpt>
      <trkpt lat="43.77974" lon="6.99654">
        <ele>965.55224609375</ele>
        <time>2013-12-09T15:32:10Z</time>
      </trkpt>
      <trkpt lat="43.77955" lon="6.9965">
        <ele>960.29547119141</ele>
        <time>2013-12-09T15:32:17Z</time>
      </trkpt>
      <trkpt lat="43.77953" lon="6.99653">
        <ele>960.44024658203</ele>
        <time>2013-12-09T15:32:19Z</time>
      </trkpt>
      <trkpt lat="43.77952" lon="6.99661">
        <ele>962.40252685547</ele>
        <time>2013-12-09T15:32:22Z</time>
      </trkpt>
      <trkpt lat="43.77952" lon="6.99664">
        <ele>963.41961669922</ele>
        <time>2013-12-09T15:32:23Z</time>
      </trkpt>
      <trkpt lat="43.77946" lon="6.99676">
        <ele>965.59783935547</ele>
        <time>2013-12-09T15:32:27Z</time>
      </trkpt>
      <trkpt lat="43.77945" lon="6.99677">
        <ele>965.31939697266</ele>
        <time>2013-12-09T15:32:28Z</time>
      </trkpt>
      <trkpt lat="43.7794" lon="6.99682">
        <ele>965.95458984375</ele>
        <time>2013-12-09T15:32:31Z</time>
      </trkpt>
      <trkpt lat="43.77938" lon="6.99684">
        <ele>966.17498779297</ele>
        <time>2013-12-09T15:32:32Z</time>
      </trkpt>
      <trkpt lat="43.77924" lon="6.99694">
        <ele>966.64422607422</ele>
        <time>2013-12-09T15:32:39Z</time>
      </trkpt>
      <trkpt lat="43.77905" lon="6.99709">
        <ele>964.62976074219</ele>
        <time>2013-12-09T15:32:47Z</time>
      </trkpt>
      <trkpt lat="43.77888" lon="6.99725">
        <ele>963.78039550781</ele>
        <time>2013-12-09T15:32:54Z</time>
      </trkpt>
      <trkpt lat="43.77873" lon="6.99744">
        <ele>967.73114013672</ele>
        <time>2013-12-09T15:33:01Z</time>
      </trkpt>
      <trkpt lat="43.77855" lon="6.99765">
        <ele>972.81744384766</ele>
        <time>2013-12-09T15:33:09Z</time>
      </trkpt>
      <trkpt lat="43.77842" lon="6.99782">
        <ele>976.25225830078</ele>
        <time>2013-12-09T15:33:15Z</time>
      </trkpt>
      <trkpt lat="43.77829" lon="6.99791">
        <ele>975.57434082031</ele>
        <time>2013-12-09T15:33:21Z</time>
      </trkpt>
      <trkpt lat="43.77822" lon="6.99797">
        <ele>976.03039550781</ele>
        <time>2013-12-09T15:33:25Z</time>
      </trkpt>
      <trkpt lat="43.77812" lon="6.99804">
        <ele>976.52697753906</ele>
        <time>2013-12-09T15:33:30Z</time>
      </trkpt>
      <trkpt lat="43.77804" lon="6.99817">
        <ele>980.43090820312</ele>
        <time>2013-12-09T15:33:34Z</time>
      </trkpt>
      <trkpt lat="43.77794" lon="6.99832">
        <ele>984.09704589844</ele>
        <time>2013-12-09T15:33:39Z</time>
      </trkpt>
      <trkpt lat="43.77781" lon="6.99852">
        <ele>989.11395263672</ele>
        <time>2013-12-09T15:33:45Z</time>
      </trkpt>
      <trkpt lat="43.77771" lon="6.99872">
        <ele>993.38604736328</ele>
        <time>2013-12-09T15:33:51Z</time>
      </trkpt>
      <trkpt lat="43.77755" lon="6.99899">
        <ele>996.81561279297</ele>
        <time>2013-12-09T15:33:59Z</time>
      </trkpt>
      <trkpt lat="43.77746" lon="6.99923">
        <ele>1000.2161254883</ele>
        <time>2013-12-09T15:34:06Z</time>
      </trkpt>
      <trkpt lat="43.77735" lon="6.99945">
        <ele>999.82940673828</ele>
        <time>2013-12-09T15:34:11Z</time>
      </trkpt>
      <trkpt lat="43.77722" lon="6.99968">
        <ele>1001.2217407227</ele>
        <time>2013-12-09T15:34:17Z</time>
      </trkpt>
      <trkpt lat="43.77709" lon="6.99984">
        <ele>1000.9937744141</ele>
        <time>2013-12-09T15:34:22Z</time>
      </trkpt>
      <trkpt lat="43.77698" lon="6.99995">
        <ele>1000.7202758789</ele>
        <time>2013-12-09T15:34:28Z</time>
      </trkpt>
      <trkpt lat="43.7769" lon="7.00008">
        <ele>1001.024230957</ele>
        <time>2013-12-09T15:34:34Z</time>
      </trkpt>
      <trkpt lat="43.7768" lon="7.00022">
        <ele>1001.1987304688</ele>
        <time>2013-12-09T15:34:40Z</time>
      </trkpt>
      <trkpt lat="43.7767" lon="7.00048">
        <ele>1003.2987060547</ele>
        <time>2013-12-09T15:34:49Z</time>
      </trkpt>
      <trkpt lat="43.77657" lon="7.00072">
        <ele>1005.7364501953</ele>
        <time>2013-12-09T15:34:58Z</time>
      </trkpt>
      <trkpt lat="43.77654" lon="7.0009">
        <ele>1007.5650634766</ele>
        <time>2013-12-09T15:35:04Z</time>
      </trkpt>
      <trkpt lat="43.7765" lon="7.00106">
        <ele>1008.4714355469</ele>
        <time>2013-12-09T15:35:10Z</time>
      </trkpt>
      <trkpt lat="43.77647" lon="7.0012">
        <ele>1009.8681640625</ele>
        <time>2013-12-09T15:35:16Z</time>
      </trkpt>
      <trkpt lat="43.77644" lon="7.00128">
        <ele>1010.8363647461</ele>
        <time>2013-12-09T15:35:20Z</time>
      </trkpt>
      <trkpt lat="43.77641" lon="7.00133">
        <ele>1011.3444824219</ele>
        <time>2013-12-09T15:35:23Z</time>
      </trkpt>
      <trkpt lat="43.77631" lon="7.00149">
        <ele>1012.1538085938</ele>
        <time>2013-12-09T15:35:31Z</time>
      </trkpt>
      <trkpt lat="43.7763" lon="7.00152">
        <ele>1012.2155761719</ele>
        <time>2013-12-09T15:35:33Z</time>
      </trkpt>
      <trkpt lat="43.77629" lon="7.00153">
        <ele>1012.3323364258</ele>
        <time>2013-12-09T15:35:36Z</time>
      </trkpt>
      <trkpt lat="43.77626" lon="7.00162">
        <ele>1013.1219482422</ele>
        <time>2013-12-09T15:35:51Z</time>
      </trkpt>
      <trkpt lat="43.77621" lon="7.00175">
        <ele>1013.3082275391</ele>
        <time>2013-12-09T15:35:57Z</time>
      </trkpt>
      <trkpt lat="43.77615" lon="7.00188">
        <ele>1013.1331787109</ele>
        <time>2013-12-09T15:36:04Z</time>
      </trkpt>
      <trkpt lat="43.77615" lon="7.00189">
        <ele>1013.3322753906</ele>
        <time>2013-12-09T15:36:05Z</time>
      </trkpt>
      <trkpt lat="43.77618" lon="7.00191">
        <ele>1013.9708251953</ele>
        <time>2013-12-09T15:36:08Z</time>
      </trkpt>
      <trkpt lat="43.77622" lon="7.00189">
        <ele>1014.5579223633</ele>
        <time>2013-12-09T15:36:11Z</time>
      </trkpt>
      <trkpt lat="43.77627" lon="7.00188">
        <ele>1015.3406982422</ele>
        <time>2013-12-09T15:36:15Z</time>
      </trkpt>
      <trkpt lat="43.7763" lon="7.00192">
        <ele>1016.2608032227</ele>
        <time>2013-12-09T15:36:19Z</time>
      </trkpt>
      <trkpt lat="43.77631" lon="7.00193">
        <ele>1016.3741455078</ele>
        <time>2013-12-09T15:36:20Z</time>
      </trkpt>
      <trkpt lat="43.77631" lon="7.00196">
        <ele>1016.6408691406</ele>
        <time>2013-12-09T15:36:24Z</time>
      </trkpt>
      <trkpt lat="43.7763" lon="7.00203">
        <ele>1017.2535400391</ele>
        <time>2013-12-09T15:36:29Z</time>
      </trkpt>
      <trkpt lat="43.77631" lon="7.00205">
        <ele>1017.5810546875</ele>
        <time>2013-12-09T15:36:31Z</time>
      </trkpt>
      <trkpt lat="43.77633" lon="7.00208">
        <ele>1018.1462402344</ele>
        <time>2013-12-09T15:36:34Z</time>
      </trkpt>
      <trkpt lat="43.77636" lon="7.00213">
        <ele>1018.9182739258</ele>
        <time>2013-12-09T15:36:39Z</time>
      </trkpt>
      <trkpt lat="43.77636" lon="7.00217">
        <ele>1019.2883300781</ele>
        <time>2013-12-09T15:36:42Z</time>
      </trkpt>
      <trkpt lat="43.77635" lon="7.00223">
        <ele>1019.6055297852</ele>
        <time>2013-12-09T15:36:47Z</time>
      </trkpt>
      <trkpt lat="43.77634" lon="7.00225">
        <ele>1019.5911254883</ele>
        <time>2013-12-09T15:36:49Z</time>
      </trkpt>
      <trkpt lat="43.77633" lon="7.00229">
        <ele>1019.657043457</ele>
        <time>2013-12-09T15:36:52Z</time>
      </trkpt>
      <trkpt lat="43.77633" lon="7.00231">
        <ele>1019.7471923828</ele>
        <time>2013-12-09T15:36:54Z</time>
      </trkpt>
      <trkpt lat="43.77633" lon="7.00236">
        <ele>1020.0999145508</ele>
        <time>2013-12-09T15:36:58Z</time>
      </trkpt>
      <trkpt lat="43.77633" lon="7.00237">
        <ele>1020.1339111328</ele>
        <time>2013-12-09T15:36:59Z</time>
      </trkpt>
      <trkpt lat="43.77634" lon="7.00242">
        <ele>1020.4178466797</ele>
        <time>2013-12-09T15:37:04Z</time>
      </trkpt>
      <trkpt lat="43.77636" lon="7.0025">
        <ele>1020.8823852539</ele>
        <time>2013-12-09T15:37:09Z</time>
      </trkpt>
      <trkpt lat="43.77641" lon="7.0026">
        <ele>1021.4233398438</ele>
        <time>2013-12-09T15:37:15Z</time>
      </trkpt>
      <trkpt lat="43.77639" lon="7.00275">
        <ele>1021.9039916992</ele>
        <time>2013-12-09T15:37:20Z</time>
      </trkpt>
      <trkpt lat="43.77638" lon="7.00277">
        <ele>1021.9344482422</ele>
        <time>2013-12-09T15:37:21Z</time>
      </trkpt>
      <trkpt lat="43.77634" lon="7.00295">
        <ele>1022.2893676758</ele>
        <time>2013-12-09T15:37:28Z</time>
      </trkpt>
      <trkpt lat="43.77637" lon="7.00305">
        <ele>1022.8180541992</ele>
        <time>2013-12-09T15:37:34Z</time>
      </trkpt>
      <trkpt lat="43.77637" lon="7.00306">
        <ele>1022.8442993164</ele>
        <time>2013-12-09T15:37:44Z</time>
      </trkpt>
      <trkpt lat="43.77637" lon="7.0031">
        <ele>1022.8563842773</ele>
        <time>2013-12-09T15:38:19Z</time>
      </trkpt>
      <trkpt lat="43.77637" lon="7.00311">
        <ele>1022.8839111328</ele>
        <time>2013-12-09T15:38:29Z</time>
      </trkpt>
      <trkpt lat="43.77639" lon="7.0032">
        <ele>1023.0180053711</ele>
        <time>2013-12-09T15:38:52Z</time>
      </trkpt>
      <trkpt lat="43.77641" lon="7.0034">
        <ele>1023.317565918</ele>
        <time>2013-12-09T15:38:57Z</time>
      </trkpt>
      <trkpt lat="43.77645" lon="7.00385">
        <ele>1025.0822753906</ele>
        <time>2013-12-09T15:39:06Z</time>
      </trkpt>
      <trkpt lat="43.77645" lon="7.00428">
        <ele>1026.6357421875</ele>
        <time>2013-12-09T15:39:14Z</time>
      </trkpt>
      <trkpt lat="43.77632" lon="7.00462">
        <ele>1027.1584472656</ele>
        <time>2013-12-09T15:39:21Z</time>
      </trkpt>
      <trkpt lat="43.77617" lon="7.00507">
        <ele>1027.6905517578</ele>
        <time>2013-12-09T15:39:30Z</time>
      </trkpt>
      <trkpt lat="43.77614" lon="7.00541">
        <ele>1028.1958007812</ele>
        <time>2013-12-09T15:39:37Z</time>
      </trkpt>
      <trkpt lat="43.77608" lon="7.00576">
        <ele>1027.8918457031</ele>
        <time>2013-12-09T15:39:45Z</time>
      </trkpt>
      <trkpt lat="43.77599" lon="7.00627">
        <ele>1026.5270996094</ele>
        <time>2013-12-09T15:39:56Z</time>
      </trkpt>
      <trkpt lat="43.77586" lon="7.00672">
        <ele>1025.2182617188</ele>
        <time>2013-12-09T15:40:06Z</time>
      </trkpt>
      <trkpt lat="43.77575" lon="7.00715">
        <ele>1024.3942871094</ele>
        <time>2013-12-09T15:40:15Z</time>
      </trkpt>
      <trkpt lat="43.77558" lon="7.00759">
        <ele>1024.0928955078</ele>
        <time>2013-12-09T15:40:24Z</time>
      </trkpt>
      <trkpt lat="43.77549" lon="7.00782">
        <ele>1023.4991455078</ele>
        <time>2013-12-09T15:40:28Z</time>
      </trkpt>
      <trkpt lat="43.77544" lon="7.00789">
        <ele>1023.1420898438</ele>
        <time>2013-12-09T15:40:29Z</time>
      </trkpt>
      <trkpt lat="43.77536" lon="7.00803">
        <ele>1022.5927734375</ele>
        <time>2013-12-09T15:40:31Z</time>
      </trkpt>
      <trkpt lat="43.77526" lon="7.00818">
        <ele>1021.8786621094</ele>
        <time>2013-12-09T15:40:33Z</time>
      </trkpt>
      <trkpt lat="43.77496" lon="7.00855">
        <ele>1019.1000976562</ele>
        <time>2013-12-09T15:40:39Z</time>
      </trkpt>
      <trkpt lat="43.7748" lon="7.00878">
        <ele>1011.7093505859</ele>
        <time>2013-12-09T15:40:43Z</time>
      </trkpt>
      <trkpt lat="43.77477" lon="7.00886">
        <ele>1010.444519043</ele>
        <time>2013-12-09T15:40:44Z</time>
      </trkpt>
      <trkpt lat="43.77472" lon="7.00898">
        <ele>1007.6524047852</ele>
        <time>2013-12-09T15:40:46Z</time>
      </trkpt>
      <trkpt lat="43.77463" lon="7.00915">
        <ele>1006.7301025391</ele>
        <time>2013-12-09T15:40:49Z</time>
      </trkpt>
      <trkpt lat="43.77454" lon="7.00932">
        <ele>1005.5999145508</ele>
        <time>2013-12-09T15:40:52Z</time>
      </trkpt>
      <trkpt lat="43.77444" lon="7.00936">
        <ele>1005.2944335938</ele>
        <time>2013-12-09T15:40:54Z</time>
      </trkpt>
      <trkpt lat="43.77437" lon="7.00943">
        <ele>1005.0573730469</ele>
        <time>2013-12-09T15:40:56Z</time>
      </trkpt>
      <trkpt lat="43.77434" lon="7.00948">
        <ele>1004.8582763672</ele>
        <time>2013-12-09T15:40:58Z</time>
      </trkpt>
      <trkpt lat="43.77434" lon="7.00949">
        <ele>1004.8308105469</ele>
        <time>2013-12-09T15:41:02Z</time>
      </trkpt>
      <trkpt lat="43.77434" lon="7.0095">
        <ele>1004.787902832</ele>
        <time>2013-12-09T15:41:22Z</time>
      </trkpt>
      <trkpt lat="43.77434" lon="7.00951">
        <ele>1004.7535400391</ele>
        <time>2013-12-09T15:41:48Z</time>
      </trkpt>
      <trkpt lat="43.77435" lon="7.00952">
        <ele>1004.7432861328</ele>
        <time>2013-12-09T15:41:59Z</time>
      </trkpt>
      <trkpt lat="43.77431" lon="7.00952">
        <ele>1004.7380981445</ele>
        <time>2013-12-09T15:42:27Z</time>
      </trkpt>
      <trkpt lat="43.77422" lon="7.00954">
        <ele>1004.6591186523</ele>
        <time>2013-12-09T15:42:31Z</time>
      </trkpt>
      <trkpt lat="43.77409" lon="7.00958">
        <ele>1008.5802612305</ele>
        <time>2013-12-09T15:42:35Z</time>
      </trkpt>
      <trkpt lat="43.77408" lon="7.0096">
        <ele>1009.167175293</ele>
        <time>2013-12-09T15:42:36Z</time>
      </trkpt>
      <trkpt lat="43.77406" lon="7.00964">
        <ele>1010.1403198242</ele>
        <time>2013-12-09T15:42:40Z</time>
      </trkpt>
      <trkpt lat="43.77413" lon="7.00983">
        <ele>1005.499206543</ele>
        <time>2013-12-09T15:42:45Z</time>
      </trkpt>
      <trkpt lat="43.77415" lon="7.00988">
        <ele>1004.2478027344</ele>
        <time>2013-12-09T15:42:46Z</time>
      </trkpt>
      <trkpt lat="43.77422" lon="7.01009">
        <ele>1002.6661376953</ele>
        <time>2013-12-09T15:42:49Z</time>
      </trkpt>
      <trkpt lat="43.77431" lon="7.01052">
        <ele>1001.1383666992</ele>
        <time>2013-12-09T15:42:55Z</time>
      </trkpt>
      <trkpt lat="43.77424" lon="7.0107">
        <ele>1000.4860839844</ele>
        <time>2013-12-09T15:42:58Z</time>
      </trkpt>
      <trkpt lat="43.77415" lon="7.01102">
        <ele>1000</ele>
        <time>2013-12-09T15:43:02Z</time>
      </trkpt>
      <trkpt lat="43.77403" lon="7.01137">
        <ele>1000</ele>
        <time>2013-12-09T15:43:06Z</time>
      </trkpt>
      <trkpt lat="43.77395" lon="7.01162">
        <ele>1000</ele>
        <time>2013-12-09T15:43:09Z</time>
      </trkpt>
      <trkpt lat="43.77395" lon="7.01166">
        <ele>1000</ele>
        <time>2013-12-09T15:43:10Z</time>
      </trkpt>
      <trkpt lat="43.77393" lon="7.01174">
        <ele>1000</ele>
        <time>2013-12-09T15:43:13Z</time>
      </trkpt>
      <trkpt lat="43.7739" lon="7.01178">
        <ele>1000</ele>
        <time>2013-12-09T15:43:14Z</time>
      </trkpt>
      <trkpt lat="43.77389" lon="7.01185">
        <ele>1000</ele>
        <time>2013-12-09T15:43:15Z</time>
      </trkpt>
      <trkpt lat="43.77387" lon="7.01191">
        <ele>1000</ele>
        <time>2013-12-09T15:43:16Z</time>
      </trkpt>
      <trkpt lat="43.77383" lon="7.01232">
        <ele>1000</ele>
        <time>2013-12-09T15:43:21Z</time>
      </trkpt>
      <trkpt lat="43.77382" lon="7.01247">
        <ele>1000</ele>
        <time>2013-12-09T15:43:23Z</time>
      </trkpt>
      <trkpt lat="43.77377" lon="7.01273">
        <ele>1000</ele>
        <time>2013-12-09T15:43:27Z</time>
      </trkpt>
      <trkpt lat="43.77375" lon="7.01284">
        <ele>1000</ele>
        <time>2013-12-09T15:43:29Z</time>
      </trkpt>
      <trkpt lat="43.77374" lon="7.01294">
        <ele>1000</ele>
        <time>2013-12-09T15:43:31Z</time>
      </trkpt>
      <trkpt lat="43.77373" lon="7.01299">
        <ele>1000</ele>
        <time>2013-12-09T15:43:32Z</time>
      </trkpt>
      <trkpt lat="43.77372" lon="7.01303">
        <ele>1000</ele>
        <time>2013-12-09T15:43:33Z</time>
      </trkpt>
      <trkpt lat="43.77367" lon="7.01321">
        <ele>1000</ele>
        <time>2013-12-09T15:43:37Z</time>
      </trkpt>
      <trkpt lat="43.77361" lon="7.01343">
        <ele>1000.007019043</ele>
        <time>2013-12-09T15:43:43Z</time>
      </trkpt>
      <trkpt lat="43.77355" lon="7.01355">
        <ele>1000.1652832031</ele>
        <time>2013-12-09T15:43:48Z</time>
      </trkpt>
      <trkpt lat="43.77355" lon="7.01355">
        <ele>1000.1786499023</ele>
        <time>2013-12-09T15:43:49Z</time>
      </trkpt>
      <trkpt lat="43.77348" lon="7.01361">
        <ele>1000.4754638672</ele>
        <time>2013-12-09T15:43:55Z</time>
      </trkpt>
      <trkpt lat="43.77349" lon="7.01362">
        <ele>1000.4704589844</ele>
        <time>2013-12-09T15:44:00Z</time>
      </trkpt>
      <trkpt lat="43.77341" lon="7.01365">
        <ele>1001.0235595703</ele>
        <time>2013-12-09T15:45:13Z</time>
      </trkpt>
      <trkpt lat="43.77337" lon="7.01374">
        <ele>1002.0849609375</ele>
        <time>2013-12-09T15:45:20Z</time>
      </trkpt>
      <trkpt lat="43.77337" lon="7.01377">
        <ele>1002.3653564453</ele>
        <time>2013-12-09T15:45:22Z</time>
      </trkpt>
      <trkpt lat="43.77337" lon="7.01383">
        <ele>1002.9133300781</ele>
        <time>2013-12-09T15:45:26Z</time>
      </trkpt>
      <trkpt lat="43.77338" lon="7.01384">
        <ele>1002.9608154297</ele>
        <time>2013-12-09T15:45:27Z</time>
      </trkpt>
      <trkpt lat="43.77339" lon="7.01389">
        <ele>1003.1932373047</ele>
        <time>2013-12-09T15:45:33Z</time>
      </trkpt>
      <trkpt lat="43.77343" lon="7.01402">
        <ele>1003.9799804688</ele>
        <time>2013-12-09T15:45:42Z</time>
      </trkpt>
      <trkpt lat="43.77345" lon="7.01406">
        <ele>1004.0770263672</ele>
        <time>2013-12-09T15:45:45Z</time>
      </trkpt>
      <trkpt lat="43.77346" lon="7.01408">
        <ele>1004.0574951172</ele>
        <time>2013-12-09T15:45:47Z</time>
      </trkpt>
      <trkpt lat="43.7735" lon="7.01418">
        <ele>1003.891784668</ele>
        <time>2013-12-09T15:45:54Z</time>
      </trkpt>
      <trkpt lat="43.7735" lon="7.0142">
        <ele>1004.1782836914</ele>
        <time>2013-12-09T15:45:55Z</time>
      </trkpt>
      <trkpt lat="43.77347" lon="7.01423">
        <ele>1005.1959228516</ele>
        <time>2013-12-09T15:45:59Z</time>
      </trkpt>
      <trkpt lat="43.77347" lon="7.01423">
        <ele>1005.3112182617</ele>
        <time>2013-12-09T15:46:00Z</time>
      </trkpt>
      <trkpt lat="43.77341" lon="7.01426">
        <ele>1006.8098144531</ele>
        <time>2013-12-09T15:46:06Z</time>
      </trkpt>
      <trkpt lat="43.77338" lon="7.01426">
        <ele>1007.6290893555</ele>
        <time>2013-12-09T15:46:10Z</time>
      </trkpt>
      <trkpt lat="43.77335" lon="7.01427">
        <ele>1008.2904663086</ele>
        <time>2013-12-09T15:46:13Z</time>
      </trkpt>
      <trkpt lat="43.77331" lon="7.01433">
        <ele>1009.7033081055</ele>
        <time>2013-12-09T15:46:20Z</time>
      </trkpt>
      <trkpt lat="43.7733" lon="7.01441">
        <ele>1010.5123901367</ele>
        <time>2013-12-09T15:46:26Z</time>
      </trkpt>
      <trkpt lat="43.77329" lon="7.01447">
        <ele>1011.1887207031</ele>
        <time>2013-12-09T15:46:31Z</time>
      </trkpt>
      <trkpt lat="43.7733" lon="7.01448">
        <ele>1011.2849121094</ele>
        <time>2013-12-09T15:46:33Z</time>
      </trkpt>
      <trkpt lat="43.7733" lon="7.0145">
        <ele>1011.4359130859</ele>
        <time>2013-12-09T15:46:34Z</time>
      </trkpt>
      <trkpt lat="43.77332" lon="7.01455">
        <ele>1011.779296875</ele>
        <time>2013-12-09T15:46:38Z</time>
      </trkpt>
      <trkpt lat="43.77333" lon="7.01459">
        <ele>1012.2530517578</ele>
        <time>2013-12-09T15:46:41Z</time>
      </trkpt>
      <trkpt lat="43.77335" lon="7.01471">
        <ele>1013.6326904297</ele>
        <time>2013-12-09T15:46:50Z</time>
      </trkpt>
      <trkpt lat="43.77337" lon="7.01479">
        <ele>1014.3043212891</ele>
        <time>2013-12-09T15:46:57Z</time>
      </trkpt>
      <trkpt lat="43.77335" lon="7.01488">
        <ele>1015.53515625</ele>
        <time>2013-12-09T15:47:06Z</time>
      </trkpt>
      <trkpt lat="43.7733" lon="7.01495">
        <ele>1016.8980712891</ele>
        <time>2013-12-09T15:47:15Z</time>
      </trkpt>
      <trkpt lat="43.77326" lon="7.01502">
        <ele>1017.9260253906</ele>
        <time>2013-12-09T15:47:22Z</time>
      </trkpt>
      <trkpt lat="43.77325" lon="7.01507">
        <ele>1018.3786621094</ele>
        <time>2013-12-09T15:47:26Z</time>
      </trkpt>
      <trkpt lat="43.77324" lon="7.0151">
        <ele>1018.7474975586</ele>
        <time>2013-12-09T15:47:29Z</time>
      </trkpt>
      <trkpt lat="43.77324" lon="7.01511">
        <ele>1018.8041381836</ele>
        <time>2013-12-09T15:47:30Z</time>
      </trkpt>
      <trkpt lat="43.77321" lon="7.01515">
        <ele>1019.268371582</ele>
        <time>2013-12-09T15:47:35Z</time>
      </trkpt>
      <trkpt lat="43.7732" lon="7.01521">
        <ele>1019.5960693359</ele>
        <time>2013-12-09T15:47:42Z</time>
      </trkpt>
      <trkpt lat="43.7732" lon="7.01521">
        <ele>1019.625</ele>
        <time>2013-12-09T15:47:47Z</time>
      </trkpt>
      <trkpt lat="43.77311" lon="7.01524">
        <ele>1019.9103393555</ele>
        <time>2013-12-09T15:48:03Z</time>
      </trkpt>
      <trkpt lat="43.77301" lon="7.01525">
        <ele>1020</ele>
        <time>2013-12-09T15:48:10Z</time>
      </trkpt>
      <trkpt lat="43.77291" lon="7.01529">
        <ele>1020.0380859375</ele>
        <time>2013-12-09T15:48:18Z</time>
      </trkpt>
      <trkpt lat="43.77283" lon="7.01533">
        <ele>1020.1908569336</ele>
        <time>2013-12-09T15:48:25Z</time>
      </trkpt>
      <trkpt lat="43.77281" lon="7.01536">
        <ele>1020.3041381836</ele>
        <time>2013-12-09T15:48:28Z</time>
      </trkpt>
      <trkpt lat="43.7728" lon="7.01541">
        <ele>1020.4638061523</ele>
        <time>2013-12-09T15:48:31Z</time>
      </trkpt>
      <trkpt lat="43.7728" lon="7.01541">
        <ele>1020.4792480469</ele>
        <time>2013-12-09T15:48:36Z</time>
      </trkpt>
      <trkpt lat="43.77285" lon="7.01549">
        <ele>1020.7590332031</ele>
        <time>2013-12-09T15:48:45Z</time>
      </trkpt>
      <trkpt lat="43.77287" lon="7.0156">
        <ele>1021</ele>
        <time>2013-12-09T15:48:51Z</time>
      </trkpt>
      <trkpt lat="43.77285" lon="7.01572">
        <ele>1021</ele>
        <time>2013-12-09T15:48:57Z</time>
      </trkpt>
      <trkpt lat="43.77282" lon="7.0158">
        <ele>1021</ele>
        <time>2013-12-09T15:49:03Z</time>
      </trkpt>
      <trkpt lat="43.77282" lon="7.0158">
        <ele>1021</ele>
        <time>2013-12-09T15:49:12Z</time>
      </trkpt>
      <trkpt lat="43.77278" lon="7.01589">
        <ele>1021</ele>
        <time>2013-12-09T15:49:59Z</time>
      </trkpt>
      <trkpt lat="43.77268" lon="7.01605">
        <ele>1021</ele>
        <time>2013-12-09T15:50:06Z</time>
      </trkpt>
      <trkpt lat="43.77258" lon="7.01629">
        <ele>1021.6446533203</ele>
        <time>2013-12-09T15:50:13Z</time>
      </trkpt>
      <trkpt lat="43.77246" lon="7.01662">
        <ele>1022</ele>
        <time>2013-12-09T15:50:20Z</time>
      </trkpt>
      <trkpt lat="43.7723" lon="7.01683">
        <ele>1022.5758666992</ele>
        <time>2013-12-09T15:50:25Z</time>
      </trkpt>
      <trkpt lat="43.77211" lon="7.01699">
        <ele>1022.9376831055</ele>
        <time>2013-12-09T15:50:29Z</time>
      </trkpt>
      <trkpt lat="43.77206" lon="7.01705">
        <ele>1022.7830810547</ele>
        <time>2013-12-09T15:50:30Z</time>
      </trkpt>
      <trkpt lat="43.77201" lon="7.01711">
        <ele>1022.5651855469</ele>
        <time>2013-12-09T15:50:32Z</time>
      </trkpt>
      <trkpt lat="43.77195" lon="7.01725">
        <ele>1021.7975463867</ele>
        <time>2013-12-09T15:50:36Z</time>
      </trkpt>
      <trkpt lat="43.77193" lon="7.01745">
        <ele>1020.3645019531</ele>
        <time>2013-12-09T15:50:40Z</time>
      </trkpt>
      <trkpt lat="43.77183" lon="7.01759">
        <ele>1019.5444946289</ele>
        <time>2013-12-09T15:50:43Z</time>
      </trkpt>
      <trkpt lat="43.77182" lon="7.0178">
        <ele>1018.4173583984</ele>
        <time>2013-12-09T15:50:46Z</time>
      </trkpt>
      <trkpt lat="43.77182" lon="7.01789">
        <ele>1017.7203979492</ele>
        <time>2013-12-09T15:50:47Z</time>
      </trkpt>
      <trkpt lat="43.77182" lon="7.01824">
        <ele>1015.891784668</ele>
        <time>2013-12-09T15:50:51Z</time>
      </trkpt>
      <trkpt lat="43.77181" lon="7.01854">
        <ele>1013.7222900391</ele>
        <time>2013-12-09T15:50:54Z</time>
      </trkpt>
      <trkpt lat="43.77177" lon="7.01862">
        <ele>1012.6833496094</ele>
        <time>2013-12-09T15:50:55Z</time>
      </trkpt>
      <trkpt lat="43.77164" lon="7.01881">
        <ele>1010.1396484375</ele>
        <time>2013-12-09T15:50:58Z</time>
      </trkpt>
      <trkpt lat="43.77144" lon="7.01919">
        <ele>1004.7534179688</ele>
        <time>2013-12-09T15:51:04Z</time>
      </trkpt>
      <trkpt lat="43.77138" lon="7.01938">
        <ele>1001.6046142578</ele>
        <time>2013-12-09T15:51:07Z</time>
      </trkpt>
      <trkpt lat="43.77137" lon="7.01953">
        <ele>1000.5922851562</ele>
        <time>2013-12-09T15:51:09Z</time>
      </trkpt>
      <trkpt lat="43.77137" lon="7.01975">
        <ele>1000.0866699219</ele>
        <time>2013-12-09T15:51:12Z</time>
      </trkpt>
      <trkpt lat="43.77137" lon="7.0199">
        <ele>1001.0913696289</ele>
        <time>2013-12-09T15:51:14Z</time>
      </trkpt>
      <trkpt lat="43.77129" lon="7.02002">
        <ele>1001.1522827148</ele>
        <time>2013-12-09T15:51:17Z</time>
      </trkpt>
      <trkpt lat="43.77126" lon="7.02005">
        <ele>1001.0219726562</ele>
        <time>2013-12-09T15:51:18Z</time>
      </trkpt>
      <trkpt lat="43.77115" lon="7.02011">
        <ele>1000.2731323242</ele>
        <time>2013-12-09T15:51:21Z</time>
      </trkpt>
      <trkpt lat="43.77106" lon="7.02019">
        <ele>1000.1479492188</ele>
        <time>2013-12-09T15:51:24Z</time>
      </trkpt>
      <trkpt lat="43.77094" lon="7.0203">
        <ele>1000.4827880859</ele>
        <time>2013-12-09T15:51:28Z</time>
      </trkpt>
      <trkpt lat="43.7708" lon="7.02052">
        <ele>1000.6575927734</ele>
        <time>2013-12-09T15:51:35Z</time>
      </trkpt>
      <trkpt lat="43.77077" lon="7.0207">
        <ele>1001.8795166016</ele>
        <time>2013-12-09T15:51:41Z</time>
      </trkpt>
      <trkpt lat="43.77075" lon="7.02097">
        <ele>1003.7768554688</ele>
        <time>2013-12-09T15:51:48Z</time>
      </trkpt>
      <trkpt lat="43.77079" lon="7.02127">
        <ele>1006.4906616211</ele>
        <time>2013-12-09T15:51:54Z</time>
      </trkpt>
      <trkpt lat="43.77081" lon="7.02159">
        <ele>1009.4961547852</ele>
        <time>2013-12-09T15:51:59Z</time>
      </trkpt>
      <trkpt lat="43.77076" lon="7.02168">
        <ele>1009.1212768555</ele>
        <time>2013-12-09T15:52:01Z</time>
      </trkpt>
      <trkpt lat="43.77073" lon="7.02171">
        <ele>1008.5354614258</ele>
        <time>2013-12-09T15:52:02Z</time>
      </trkpt>
      <trkpt lat="43.77064" lon="7.02178">
        <ele>1006.5892944336</ele>
        <time>2013-12-09T15:52:05Z</time>
      </trkpt>
      <trkpt lat="43.77059" lon="7.02181">
        <ele>1005.3900146484</ele>
        <time>2013-12-09T15:52:07Z</time>
      </trkpt>
      <trkpt lat="43.77043" lon="7.0219">
        <ele>1003.8838500977</ele>
        <time>2013-12-09T15:52:15Z</time>
      </trkpt>
      <trkpt lat="43.77031" lon="7.02201">
        <ele>1003.4462890625</ele>
        <time>2013-12-09T15:52:20Z</time>
      </trkpt>
      <trkpt lat="43.77026" lon="7.02213">
        <ele>1003.2617797852</ele>
        <time>2013-12-09T15:52:23Z</time>
      </trkpt>
      <trkpt lat="43.77025" lon="7.02219">
        <ele>1003.0317382812</ele>
        <time>2013-12-09T15:52:24Z</time>
      </trkpt>
      <trkpt lat="43.77015" lon="7.02255">
        <ele>1001.1361083984</ele>
        <time>2013-12-09T15:52:30Z</time>
      </trkpt>
      <trkpt lat="43.77005" lon="7.02283">
        <ele>998.83251953125</ele>
        <time>2013-12-09T15:52:36Z</time>
      </trkpt>
      <trkpt lat="43.76992" lon="7.02304">
        <ele>997</ele>
        <time>2013-12-09T15:52:42Z</time>
      </trkpt>
      <trkpt lat="43.76982" lon="7.02324">
        <ele>997.6591796875</ele>
        <time>2013-12-09T15:52:47Z</time>
      </trkpt>
      <trkpt lat="43.76973" lon="7.02336">
        <ele>998.07971191406</ele>
        <time>2013-12-09T15:52:52Z</time>
      </trkpt>
      <trkpt lat="43.76969" lon="7.02348">
        <ele>998.60888671875</ele>
        <time>2013-12-09T15:52:57Z</time>
      </trkpt>
      <trkpt lat="43.76962" lon="7.02378">
        <ele>999.96203613281</ele>
        <time>2013-12-09T15:53:08Z</time>
      </trkpt>
      <trkpt lat="43.76958" lon="7.02399">
        <ele>1001.5734863281</ele>
        <time>2013-12-09T15:53:16Z</time>
      </trkpt>
      <trkpt lat="43.76952" lon="7.02416">
        <ele>1003.6934814453</ele>
        <time>2013-12-09T15:53:23Z</time>
      </trkpt>
      <trkpt lat="43.76943" lon="7.02428">
        <ele>1004.8851318359</ele>
        <time>2013-12-09T15:53:30Z</time>
      </trkpt>
      <trkpt lat="43.76937" lon="7.02442">
        <ele>1006.0901489258</ele>
        <time>2013-12-09T15:53:37Z</time>
      </trkpt>
      <trkpt lat="43.76931" lon="7.02452">
        <ele>1007.2163085938</ele>
        <time>2013-12-09T15:53:43Z</time>
      </trkpt>
      <trkpt lat="43.76922" lon="7.02468">
        <ele>1008.6666870117</ele>
        <time>2013-12-09T15:53:51Z</time>
      </trkpt>
      <trkpt lat="43.76921" lon="7.02478">
        <ele>1009.4317016602</ele>
        <time>2013-12-09T15:53:56Z</time>
      </trkpt>
      <trkpt lat="43.76918" lon="7.02491">
        <ele>1010.3518066406</ele>
        <time>2013-12-09T15:54:02Z</time>
      </trkpt>
      <trkpt lat="43.76918" lon="7.02494">
        <ele>1010.5372314453</ele>
        <time>2013-12-09T15:54:03Z</time>
      </trkpt>
      <trkpt lat="43.76921" lon="7.02512">
        <ele>1011.841796875</ele>
        <time>2013-12-09T15:54:11Z</time>
      </trkpt>
      <trkpt lat="43.76923" lon="7.02525">
        <ele>1012.8340454102</ele>
        <time>2013-12-09T15:54:17Z</time>
      </trkpt>
      <trkpt lat="43.76922" lon="7.02537">
        <ele>1013.7503051758</ele>
        <time>2013-12-09T15:54:22Z</time>
      </trkpt>
      <trkpt lat="43.7692" lon="7.02558">
        <ele>1015.3038330078</ele>
        <time>2013-12-09T15:54:30Z</time>
      </trkpt>
      <trkpt lat="43.76918" lon="7.02577">
        <ele>1016.6708374023</ele>
        <time>2013-12-09T15:54:39Z</time>
      </trkpt>
      <trkpt lat="43.76916" lon="7.02592">
        <ele>1017.5866699219</ele>
        <time>2013-12-09T15:54:46Z</time>
      </trkpt>
      <trkpt lat="43.76913" lon="7.02609">
        <ele>1018.7614746094</ele>
        <time>2013-12-09T15:54:55Z</time>
      </trkpt>
      <trkpt lat="43.76908" lon="7.02622">
        <ele>1019.4714355469</ele>
        <time>2013-12-09T15:55:02Z</time>
      </trkpt>
      <trkpt lat="43.769" lon="7.02634">
        <ele>1020.0859985352</ele>
        <time>2013-12-09T15:55:09Z</time>
      </trkpt>
      <trkpt lat="43.76891" lon="7.02653">
        <ele>1020.5657958984</ele>
        <time>2013-12-09T15:55:18Z</time>
      </trkpt>
      <trkpt lat="43.76883" lon="7.02674">
        <ele>1020.9653320312</ele>
        <time>2013-12-09T15:55:27Z</time>
      </trkpt>
      <trkpt lat="43.76874" lon="7.02689">
        <ele>1020.8439331055</ele>
        <time>2013-12-09T15:55:34Z</time>
      </trkpt>
      <trkpt lat="43.7687" lon="7.02693">
        <ele>1020.6457519531</ele>
        <time>2013-12-09T15:55:39Z</time>
      </trkpt>
      <trkpt lat="43.76863" lon="7.02696">
        <ele>1020.1884155273</ele>
        <time>2013-12-09T15:56:45Z</time>
      </trkpt>
      <trkpt lat="43.76861" lon="7.02696">
        <ele>1020.0579223633</ele>
        <time>2013-12-09T15:56:46Z</time>
      </trkpt>
      <trkpt lat="43.76857" lon="7.0269">
        <ele>1019.3279418945</ele>
        <time>2013-12-09T15:56:49Z</time>
      </trkpt>
      <trkpt lat="43.76851" lon="7.02693">
        <ele>1018.5032958984</ele>
        <time>2013-12-09T15:56:53Z</time>
      </trkpt>
      <trkpt lat="43.76848" lon="7.02693">
        <ele>1018.125</ele>
        <time>2013-12-09T15:56:56Z</time>
      </trkpt>
      <trkpt lat="43.76849" lon="7.02693">
        <ele>1018.1796875</ele>
        <time>2013-12-09T15:56:58Z</time>
      </trkpt>
      <trkpt lat="43.76844" lon="7.02693">
        <ele>1017.5659790039</ele>
        <time>2013-12-09T15:57:51Z</time>
      </trkpt>
      <trkpt lat="43.76838" lon="7.0269">
        <ele>1016.4824829102</ele>
        <time>2013-12-09T15:57:54Z</time>
      </trkpt>
      <trkpt lat="43.76817" lon="7.02679">
        <ele>1015.779296875</ele>
        <time>2013-12-09T15:58:00Z</time>
      </trkpt>
      <trkpt lat="43.76796" lon="7.02664">
        <ele>1016</ele>
        <time>2013-12-09T15:58:06Z</time>
      </trkpt>
      <trkpt lat="43.76777" lon="7.0265">
        <ele>1016.0734863281</ele>
        <time>2013-12-09T15:58:13Z</time>
      </trkpt>
      <trkpt lat="43.76752" lon="7.02633">
        <ele>1019.5086669922</ele>
        <time>2013-12-09T15:58:21Z</time>
      </trkpt>
      <trkpt lat="43.76726" lon="7.02614">
        <ele>1021.6294555664</ele>
        <time>2013-12-09T15:58:29Z</time>
      </trkpt>
      <trkpt lat="43.76697" lon="7.02593">
        <ele>1023.5837402344</ele>
        <time>2013-12-09T15:58:37Z</time>
      </trkpt>
      <trkpt lat="43.76665" lon="7.0257">
        <ele>1023.3479003906</ele>
        <time>2013-12-09T15:58:46Z</time>
      </trkpt>
      <trkpt lat="43.76632" lon="7.02545">
        <ele>1020.8444213867</ele>
        <time>2013-12-09T15:58:54Z</time>
      </trkpt>
      <trkpt lat="43.76595" lon="7.02517">
        <ele>1019.9561157227</ele>
        <time>2013-12-09T15:59:02Z</time>
      </trkpt>
      <trkpt lat="43.76564" lon="7.02493">
        <ele>1019.6210327148</ele>
        <time>2013-12-09T15:59:09Z</time>
      </trkpt>
      <trkpt lat="43.76548" lon="7.02479">
        <ele>1019.6783447266</ele>
        <time>2013-12-09T15:59:13Z</time>
      </trkpt>
      <trkpt lat="43.7654" lon="7.02477">
        <ele>1019.7141113281</ele>
        <time>2013-12-09T15:59:15Z</time>
      </trkpt>
      <trkpt lat="43.76534" lon="7.02476">
        <ele>1019.7421264648</ele>
        <time>2013-12-09T15:59:17Z</time>
      </trkpt>
      <trkpt lat="43.76523" lon="7.02477">
        <ele>1019.3787841797</ele>
        <time>2013-12-09T15:59:20Z</time>
      </trkpt>
      <trkpt lat="43.76517" lon="7.02476">
        <ele>1018.9882202148</ele>
        <time>2013-12-09T15:59:22Z</time>
      </trkpt>
      <trkpt lat="43.765" lon="7.02477">
        <ele>1017.7713012695</ele>
        <time>2013-12-09T15:59:28Z</time>
      </trkpt>
      <trkpt lat="43.76474" lon="7.02476">
        <ele>1014.9765625</ele>
        <time>2013-12-09T15:59:36Z</time>
      </trkpt>
      <trkpt lat="43.76453" lon="7.02466">
        <ele>1013.0928955078</ele>
        <time>2013-12-09T15:59:41Z</time>
      </trkpt>
      <trkpt lat="43.76429" lon="7.02458">
        <ele>1010.8750610352</ele>
        <time>2013-12-09T15:59:46Z</time>
      </trkpt>
      <trkpt lat="43.76425" lon="7.02455">
        <ele>1010.5214233398</ele>
        <time>2013-12-09T15:59:47Z</time>
      </trkpt>
      <trkpt lat="43.76397" lon="7.02433">
        <ele>1008.5798339844</ele>
        <time>2013-12-09T15:59:53Z</time>
      </trkpt>
      <trkpt lat="43.76365" lon="7.02409">
        <ele>1005.4448852539</ele>
        <time>2013-12-09T15:59:58Z</time>
      </trkpt>
      <trkpt lat="43.7635" lon="7.024">
        <ele>1003.2465820312</ele>
        <time>2013-12-09T16:00:00Z</time>
      </trkpt>
      <trkpt lat="43.76331" lon="7.02384">
        <ele>1000.8557128906</ele>
        <time>2013-12-09T16:00:03Z</time>
      </trkpt>
      <trkpt lat="43.76315" lon="7.02368">
        <ele>999.64721679688</ele>
        <time>2013-12-09T16:00:06Z</time>
      </trkpt>
      <trkpt lat="43.76305" lon="7.02355">
        <ele>998.57946777344</ele>
        <time>2013-12-09T16:00:08Z</time>
      </trkpt>
      <trkpt lat="43.76297" lon="7.02333">
        <ele>996.06896972656</ele>
        <time>2013-12-09T16:00:11Z</time>
      </trkpt>
      <trkpt lat="43.76294" lon="7.02325">
        <ele>995.4921875</ele>
        <time>2013-12-09T16:00:12Z</time>
      </trkpt>
      <trkpt lat="43.76277" lon="7.02278">
        <ele>991.82025146484</ele>
        <time>2013-12-09T16:00:19Z</time>
      </trkpt>
      <trkpt lat="43.76256" lon="7.0223">
        <ele>983.83825683594</ele>
        <time>2013-12-09T16:00:26Z</time>
      </trkpt>
      <trkpt lat="43.76244" lon="7.02198">
        <ele>979.99963378906</ele>
        <time>2013-12-09T16:00:31Z</time>
      </trkpt>
      <trkpt lat="43.76242" lon="7.02191">
        <ele>979.69689941406</ele>
        <time>2013-12-09T16:00:32Z</time>
      </trkpt>
      <trkpt lat="43.76238" lon="7.02182">
        <ele>979.38543701172</ele>
        <time>2013-12-09T16:00:33Z</time>
      </trkpt>
      <trkpt lat="43.76237" lon="7.02181">
        <ele>979.29663085938</ele>
        <time>2013-12-09T16:00:35Z</time>
      </trkpt>
      <trkpt lat="43.76223" lon="7.02186">
        <ele>978.72821044922</ele>
        <time>2013-12-09T16:00:38Z</time>
      </trkpt>
      <trkpt lat="43.76202" lon="7.02195">
        <ele>976.08190917969</ele>
        <time>2013-12-09T16:00:43Z</time>
      </trkpt>
      <trkpt lat="43.76198" lon="7.02193">
        <ele>975.53430175781</ele>
        <time>2013-12-09T16:00:44Z</time>
      </trkpt>
      <trkpt lat="43.76191" lon="7.02186">
        <ele>974.44494628906</ele>
        <time>2013-12-09T16:00:46Z</time>
      </trkpt>
      <trkpt lat="43.76176" lon="7.02175">
        <ele>972.59625244141</ele>
        <time>2013-12-09T16:00:49Z</time>
      </trkpt>
      <trkpt lat="43.76161" lon="7.02164">
        <ele>971.46392822266</ele>
        <time>2013-12-09T16:00:52Z</time>
      </trkpt>
      <trkpt lat="43.76144" lon="7.02154">
        <ele>970.4443359375</ele>
        <time>2013-12-09T16:00:55Z</time>
      </trkpt>
      <trkpt lat="43.76133" lon="7.02143">
        <ele>970.06823730469</ele>
        <time>2013-12-09T16:00:57Z</time>
      </trkpt>
      <trkpt lat="43.76125" lon="7.02137">
        <ele>969.611328125</ele>
        <time>2013-12-09T16:00:59Z</time>
      </trkpt>
      <trkpt lat="43.76105" lon="7.02119">
        <ele>968.05609130859</ele>
        <time>2013-12-09T16:01:02Z</time>
      </trkpt>
      <trkpt lat="43.76064" lon="7.02082">
        <ele>965.98101806641</ele>
        <time>2013-12-09T16:01:09Z</time>
      </trkpt>
      <trkpt lat="43.76023" lon="7.02044">
        <ele>965.07037353516</ele>
        <time>2013-12-09T16:01:16Z</time>
      </trkpt>
      <trkpt lat="43.75986" lon="7.02017">
        <ele>963.61779785156</ele>
        <time>2013-12-09T16:01:22Z</time>
      </trkpt>
      <trkpt lat="43.75961" lon="7.01998">
        <ele>962.22595214844</ele>
        <time>2013-12-09T16:01:27Z</time>
      </trkpt>
      <trkpt lat="43.75953" lon="7.01993">
        <ele>961.8173828125</ele>
        <time>2013-12-09T16:01:29Z</time>
      </trkpt>
      <trkpt lat="43.75941" lon="7.01986">
        <ele>961.29724121094</ele>
        <time>2013-12-09T16:01:32Z</time>
      </trkpt>
      <trkpt lat="43.75938" lon="7.01983">
        <ele>961.10498046875</ele>
        <time>2013-12-09T16:01:33Z</time>
      </trkpt>
      <trkpt lat="43.75923" lon="7.01976">
        <ele>960.30163574219</ele>
        <time>2013-12-09T16:01:37Z</time>
      </trkpt>
      <trkpt lat="43.75911" lon="7.0197">
        <ele>959.24670410156</ele>
        <time>2013-12-09T16:01:40Z</time>
      </trkpt>
      <trkpt lat="43.75903" lon="7.01967">
        <ele>958.06719970703</ele>
        <time>2013-12-09T16:01:42Z</time>
      </trkpt>
      <trkpt lat="43.75885" lon="7.01959">
        <ele>955.95770263672</ele>
        <time>2013-12-09T16:01:46Z</time>
      </trkpt>
      <trkpt lat="43.75856" lon="7.01945">
        <ele>952.81665039062</ele>
        <time>2013-12-09T16:01:52Z</time>
      </trkpt>
      <trkpt lat="43.7583" lon="7.01926">
        <ele>952.41955566406</ele>
        <time>2013-12-09T16:01:56Z</time>
      </trkpt>
      <trkpt lat="43.75803" lon="7.01911">
        <ele>951.03601074219</ele>
        <time>2013-12-09T16:02:01Z</time>
      </trkpt>
      <trkpt lat="43.75792" lon="7.01906">
        <ele>950.38537597656</ele>
        <time>2013-12-09T16:02:07Z</time>
      </trkpt>
      <trkpt lat="43.75795" lon="7.01905">
        <ele>950.62054443359</ele>
        <time>2013-12-09T16:02:13Z</time>
      </trkpt>
      <trkpt lat="43.75797" lon="7.01905">
        <ele>950.76135253906</ele>
        <time>2013-12-09T16:02:16Z</time>
      </trkpt>
      <trkpt lat="43.75797" lon="7.01904">
        <ele>950.787109375</ele>
        <time>2013-12-09T16:02:18Z</time>
      </trkpt>
      <trkpt lat="43.75797" lon="7.01904">
        <ele>950.79736328125</ele>
        <time>2013-12-09T16:02:20Z</time>
      </trkpt>
      <trkpt lat="43.75795" lon="7.01906">
        <ele>950.57934570312</ele>
        <time>2013-12-09T16:06:58Z</time>
      </trkpt>
      <trkpt lat="43.75794" lon="7.01908">
        <ele>950.51245117188</ele>
        <time>2013-12-09T16:08:45Z</time>
      </trkpt>
      <trkpt lat="43.7579" lon="7.01906">
        <ele>950.29614257812</ele>
        <time>2013-12-09T16:08:47Z</time>
      </trkpt>
      <trkpt lat="43.75785" lon="7.01904">
        <ele>950.01629638672</ele>
        <time>2013-12-09T16:08:49Z</time>
      </trkpt>
      <trkpt lat="43.75772" lon="7.01898">
        <ele>949.3203125</ele>
        <time>2013-12-09T16:08:53Z</time>
      </trkpt>
      <trkpt lat="43.7574" lon="7.01886">
        <ele>947.39678955078</ele>
        <time>2013-12-09T16:09:00Z</time>
      </trkpt>
      <trkpt lat="43.75697" lon="7.01869">
        <ele>945.77471923828</ele>
        <time>2013-12-09T16:09:08Z</time>
      </trkpt>
      <trkpt lat="43.75671" lon="7.01861">
        <ele>944.31109619141</ele>
        <time>2013-12-09T16:09:14Z</time>
      </trkpt>
      <trkpt lat="43.75643" lon="7.01852">
        <ele>944.04357910156</ele>
        <time>2013-12-09T16:09:20Z</time>
      </trkpt>
      <trkpt lat="43.75603" lon="7.01841">
        <ele>942.69799804688</ele>
        <time>2013-12-09T16:09:27Z</time>
      </trkpt>
      <trkpt lat="43.75573" lon="7.01837">
        <ele>942</ele>
        <time>2013-12-09T16:09:33Z</time>
      </trkpt>
      <trkpt lat="43.7554" lon="7.01831">
        <ele>942</ele>
        <time>2013-12-09T16:09:41Z</time>
      </trkpt>
      <trkpt lat="43.75508" lon="7.01824">
        <ele>942</ele>
        <time>2013-12-09T16:09:49Z</time>
      </trkpt>
      <trkpt lat="43.7548" lon="7.01816">
        <ele>942</ele>
        <time>2013-12-09T16:09:56Z</time>
      </trkpt>
      <trkpt lat="43.75452" lon="7.01811">
        <ele>941.41662597656</ele>
        <time>2013-12-09T16:10:03Z</time>
      </trkpt>
      <trkpt lat="43.75449" lon="7.01808">
        <ele>941.25610351562</ele>
        <time>2013-12-09T16:10:04Z</time>
      </trkpt>
      <trkpt lat="43.75437" lon="7.01801">
        <ele>939.53759765625</ele>
        <time>2013-12-09T16:10:07Z</time>
      </trkpt>
      <trkpt lat="43.75428" lon="7.01798">
        <ele>938.25793457031</ele>
        <time>2013-12-09T16:10:09Z</time>
      </trkpt>
      <trkpt lat="43.75407" lon="7.01797">
        <ele>935.74713134766</ele>
        <time>2013-12-09T16:10:13Z</time>
      </trkpt>
      <trkpt lat="43.75398" lon="7.01799">
        <ele>934.91424560547</ele>
        <time>2013-12-09T16:10:15Z</time>
      </trkpt>
      <trkpt lat="43.75378" lon="7.01803">
        <ele>936.41412353516</ele>
        <time>2013-12-09T16:10:19Z</time>
      </trkpt>
      <trkpt lat="43.7537" lon="7.01806">
        <ele>938.81372070312</ele>
        <time>2013-12-09T16:10:21Z</time>
      </trkpt>
      <trkpt lat="43.75364" lon="7.01806">
        <ele>939.61267089844</ele>
        <time>2013-12-09T16:10:22Z</time>
      </trkpt>
      <trkpt lat="43.75354" lon="7.01802">
        <ele>938.46044921875</ele>
        <time>2013-12-09T16:10:24Z</time>
      </trkpt>
      <trkpt lat="43.75324" lon="7.01775">
        <ele>924.99523925781</ele>
        <time>2013-12-09T16:10:31Z</time>
      </trkpt>
      <trkpt lat="43.7529" lon="7.01749">
        <ele>915.74084472656</ele>
        <time>2013-12-09T16:10:37Z</time>
      </trkpt>
      <trkpt lat="43.75251" lon="7.01713">
        <ele>907.86315917969</ele>
        <time>2013-12-09T16:10:44Z</time>
      </trkpt>
      <trkpt lat="43.75212" lon="7.0168">
        <ele>898.64288330078</ele>
        <time>2013-12-09T16:10:52Z</time>
      </trkpt>
      <trkpt lat="43.75203" lon="7.01671">
        <ele>895.48431396484</ele>
        <time>2013-12-09T16:10:54Z</time>
      </trkpt>
      <trkpt lat="43.75192" lon="7.01657">
        <ele>892.21160888672</ele>
        <time>2013-12-09T16:10:57Z</time>
      </trkpt>
      <trkpt lat="43.75175" lon="7.01641">
        <ele>890.55334472656</ele>
        <time>2013-12-09T16:11:01Z</time>
      </trkpt>
      <trkpt lat="43.75163" lon="7.01633">
        <ele>889.36895751953</ele>
        <time>2013-12-09T16:11:04Z</time>
      </trkpt>
      <trkpt lat="43.75133" lon="7.01618">
        <ele>887.58673095703</ele>
        <time>2013-12-09T16:11:11Z</time>
      </trkpt>
      <trkpt lat="43.75129" lon="7.01616">
        <ele>887.11791992188</ele>
        <time>2013-12-09T16:11:12Z</time>
      </trkpt>
      <trkpt lat="43.75119" lon="7.01613">
        <ele>886.44354248047</ele>
        <time>2013-12-09T16:11:15Z</time>
      </trkpt>
      <trkpt lat="43.7511" lon="7.0161">
        <ele>885.29418945312</ele>
        <time>2013-12-09T16:11:18Z</time>
      </trkpt>
      <trkpt lat="43.75101" lon="7.01612">
        <ele>885.84692382812</ele>
        <time>2013-12-09T16:11:21Z</time>
      </trkpt>
      <trkpt lat="43.751" lon="7.01615">
        <ele>886.82727050781</ele>
        <time>2013-12-09T16:11:22Z</time>
      </trkpt>
      <trkpt lat="43.75095" lon="7.01619">
        <ele>888.09783935547</ele>
        <time>2013-12-09T16:11:25Z</time>
      </trkpt>
      <trkpt lat="43.75092" lon="7.01625">
        <ele>890.05999755859</ele>
        <time>2013-12-09T16:11:27Z</time>
      </trkpt>
      <trkpt lat="43.75082" lon="7.01631">
        <ele>891.71166992188</ele>
        <time>2013-12-09T16:11:31Z</time>
      </trkpt>
      <trkpt lat="43.75066" lon="7.01628">
        <ele>892.36059570312</ele>
        <time>2013-12-09T16:11:36Z</time>
      </trkpt>
      <trkpt lat="43.75041" lon="7.01624">
        <ele>893.43835449219</ele>
        <time>2013-12-09T16:11:41Z</time>
      </trkpt>
      <trkpt lat="43.75015" lon="7.01619">
        <ele>893.81750488281</ele>
        <time>2013-12-09T16:11:46Z</time>
      </trkpt>
      <trkpt lat="43.75009" lon="7.01618">
        <ele>893.8603515625</ele>
        <time>2013-12-09T16:11:48Z</time>
      </trkpt>
      <trkpt lat="43.75003" lon="7.01616">
        <ele>893.79821777344</ele>
        <time>2013-12-09T16:11:50Z</time>
      </trkpt>
      <trkpt lat="43.74989" lon="7.01613">
        <ele>892.91192626953</ele>
        <time>2013-12-09T16:11:54Z</time>
      </trkpt>
      <trkpt lat="43.74969" lon="7.01609">
        <ele>891.87286376953</ele>
        <time>2013-12-09T16:12:01Z</time>
      </trkpt>
      <trkpt lat="43.74952" lon="7.016">
        <ele>892.10711669922</ele>
        <time>2013-12-09T16:12:06Z</time>
      </trkpt>
      <trkpt lat="43.74927" lon="7.01589">
        <ele>889.54125976562</ele>
        <time>2013-12-09T16:12:12Z</time>
      </trkpt>
      <trkpt lat="43.74918" lon="7.01585">
        <ele>888.66943359375</ele>
        <time>2013-12-09T16:12:14Z</time>
      </trkpt>
      <trkpt lat="43.74903" lon="7.01581">
        <ele>889.15740966797</ele>
        <time>2013-12-09T16:12:17Z</time>
      </trkpt>
      <trkpt lat="43.7488" lon="7.0157">
        <ele>889.48699951172</ele>
        <time>2013-12-09T16:12:22Z</time>
      </trkpt>
      <trkpt lat="43.74867" lon="7.01561">
        <ele>888.78662109375</ele>
        <time>2013-12-09T16:12:25Z</time>
      </trkpt>
      <trkpt lat="43.74855" lon="7.01548">
        <ele>884.82110595703</ele>
        <time>2013-12-09T16:12:28Z</time>
      </trkpt>
      <trkpt lat="43.74836" lon="7.01516">
        <ele>874.39044189453</ele>
        <time>2013-12-09T16:12:33Z</time>
      </trkpt>
      <trkpt lat="43.74822" lon="7.01494">
        <ele>869.064453125</ele>
        <time>2013-12-09T16:12:37Z</time>
      </trkpt>
      <trkpt lat="43.74816" lon="7.01484">
        <ele>865.95910644531</ele>
        <time>2013-12-09T16:12:39Z</time>
      </trkpt>
      <trkpt lat="43.74802" lon="7.01463">
        <ele>859.01147460938</ele>
        <time>2013-12-09T16:12:45Z</time>
      </trkpt>
      <trkpt lat="43.74788" lon="7.01453">
        <ele>855.34802246094</ele>
        <time>2013-12-09T16:12:50Z</time>
      </trkpt>
      <trkpt lat="43.74772" lon="7.01434">
        <ele>848.26086425781</ele>
        <time>2013-12-09T16:12:55Z</time>
      </trkpt>
      <trkpt lat="43.74759" lon="7.01417">
        <ele>841.37573242188</ele>
        <time>2013-12-09T16:12:59Z</time>
      </trkpt>
      <trkpt lat="43.74749" lon="7.01405">
        <ele>834.86975097656</ele>
        <time>2013-12-09T16:13:02Z</time>
      </trkpt>
      <trkpt lat="43.74746" lon="7.01402">
        <ele>833.40966796875</ele>
        <time>2013-12-09T16:13:03Z</time>
      </trkpt>
      <trkpt lat="43.74735" lon="7.014">
        <ele>831.70184326172</ele>
        <time>2013-12-09T16:13:06Z</time>
      </trkpt>
      <trkpt lat="43.74725" lon="7.01408">
        <ele>835.275390625</ele>
        <time>2013-12-09T16:13:11Z</time>
      </trkpt>
      <trkpt lat="43.7472" lon="7.01415">
        <ele>838.34484863281</ele>
        <time>2013-12-09T16:13:16Z</time>
      </trkpt>
      <trkpt lat="43.7472" lon="7.01416">
        <ele>838.77679443359</ele>
        <time>2013-12-09T16:13:29Z</time>
      </trkpt>
      <trkpt lat="43.7472" lon="7.01423">
        <ele>840.67767333984</ele>
        <time>2013-12-09T16:21:55Z</time>
      </trkpt>
      <trkpt lat="43.7472" lon="7.01423">
        <ele>840.83624267578</ele>
        <time>2013-12-09T16:21:58Z</time>
      </trkpt>
      <trkpt lat="43.74715" lon="7.0143">
        <ele>841.19519042969</ele>
        <time>2013-12-09T16:22:01Z</time>
      </trkpt>
      <trkpt lat="43.74706" lon="7.01447">
        <ele>844.55480957031</ele>
        <time>2013-12-09T16:22:05Z</time>
      </trkpt>
      <trkpt lat="43.74688" lon="7.01479">
        <ele>852.80908203125</ele>
        <time>2013-12-09T16:22:11Z</time>
      </trkpt>
      <trkpt lat="43.74685" lon="7.01484">
        <ele>853.69073486328</ele>
        <time>2013-12-09T16:22:12Z</time>
      </trkpt>
      <trkpt lat="43.74669" lon="7.01503">
        <ele>857.19708251953</ele>
        <time>2013-12-09T16:22:16Z</time>
      </trkpt>
      <trkpt lat="43.74665" lon="7.01508">
        <ele>857.08587646484</ele>
        <time>2013-12-09T16:22:17Z</time>
      </trkpt>
      <trkpt lat="43.74647" lon="7.01521">
        <ele>853.92657470703</ele>
        <time>2013-12-09T16:22:21Z</time>
      </trkpt>
      <trkpt lat="43.74637" lon="7.01526">
        <ele>851.71997070312</ele>
        <time>2013-12-09T16:22:23Z</time>
      </trkpt>
      <trkpt lat="43.74628" lon="7.01529">
        <ele>848.78851318359</ele>
        <time>2013-12-09T16:22:25Z</time>
      </trkpt>
      <trkpt lat="43.74614" lon="7.01532">
        <ele>843.95275878906</ele>
        <time>2013-12-09T16:22:28Z</time>
      </trkpt>
      <trkpt lat="43.74609" lon="7.01531">
        <ele>842.12255859375</ele>
        <time>2013-12-09T16:22:29Z</time>
      </trkpt>
      <trkpt lat="43.74583" lon="7.01536">
        <ele>837.26354980469</ele>
        <time>2013-12-09T16:22:34Z</time>
      </trkpt>
      <trkpt lat="43.74569" lon="7.01542">
        <ele>835.49884033203</ele>
        <time>2013-12-09T16:22:37Z</time>
      </trkpt>
      <trkpt lat="43.7456" lon="7.01546">
        <ele>834.46203613281</ele>
        <time>2013-12-09T16:22:39Z</time>
      </trkpt>
      <trkpt lat="43.74551" lon="7.01546">
        <ele>831.47778320312</ele>
        <time>2013-12-09T16:22:41Z</time>
      </trkpt>
      <trkpt lat="43.74543" lon="7.01548">
        <ele>828.48712158203</ele>
        <time>2013-12-09T16:22:43Z</time>
      </trkpt>
      <trkpt lat="43.74535" lon="7.01553">
        <ele>826.93231201172</ele>
        <time>2013-12-09T16:22:45Z</time>
      </trkpt>
      <trkpt lat="43.74532" lon="7.01557">
        <ele>827.5029296875</ele>
        <time>2013-12-09T16:22:46Z</time>
      </trkpt>
      <trkpt lat="43.74523" lon="7.01571">
        <ele>829.24816894531</ele>
        <time>2013-12-09T16:22:49Z</time>
      </trkpt>
      <trkpt lat="43.7452" lon="7.01575">
        <ele>829.75573730469</ele>
        <time>2013-12-09T16:22:50Z</time>
      </trkpt>
      <trkpt lat="43.74509" lon="7.01587">
        <ele>830.79675292969</ele>
        <time>2013-12-09T16:22:53Z</time>
      </trkpt>
      <trkpt lat="43.74497" lon="7.01598">
        <ele>832.04809570312</ele>
        <time>2013-12-09T16:22:56Z</time>
      </trkpt>
      <trkpt lat="43.74488" lon="7.01606">
        <ele>831.98022460938</ele>
        <time>2013-12-09T16:22:58Z</time>
      </trkpt>
      <trkpt lat="43.74479" lon="7.01613">
        <ele>831.98291015625</ele>
        <time>2013-12-09T16:23:00Z</time>
      </trkpt>
      <trkpt lat="43.74474" lon="7.01618">
        <ele>833.4091796875</ele>
        <time>2013-12-09T16:23:01Z</time>
      </trkpt>
      <trkpt lat="43.74453" lon="7.0164">
        <ele>843.8310546875</ele>
        <time>2013-12-09T16:23:06Z</time>
      </trkpt>
      <trkpt lat="43.74442" lon="7.01652">
        <ele>847.95812988281</ele>
        <time>2013-12-09T16:23:09Z</time>
      </trkpt>
      <trkpt lat="43.74434" lon="7.01661">
        <ele>850.43725585938</ele>
        <time>2013-12-09T16:23:11Z</time>
      </trkpt>
      <trkpt lat="43.74411" lon="7.01681">
        <ele>851.95288085938</ele>
        <time>2013-12-09T16:23:16Z</time>
      </trkpt>
      <trkpt lat="43.74405" lon="7.01685">
        <ele>851.06524658203</ele>
        <time>2013-12-09T16:23:17Z</time>
      </trkpt>
      <trkpt lat="43.74378" lon="7.01708">
        <ele>854.0595703125</ele>
        <time>2013-12-09T16:23:23Z</time>
      </trkpt>
      <trkpt lat="43.7435" lon="7.01734">
        <ele>861.48492431641</ele>
        <time>2013-12-09T16:23:29Z</time>
      </trkpt>
      <trkpt lat="43.74337" lon="7.01746">
        <ele>862.06964111328</ele>
        <time>2013-12-09T16:23:32Z</time>
      </trkpt>
      <trkpt lat="43.74332" lon="7.01747">
        <ele>861.66235351562</ele>
        <time>2013-12-09T16:23:33Z</time>
      </trkpt>
      <trkpt lat="43.74298" lon="7.01765">
        <ele>861.37091064453</ele>
        <time>2013-12-09T16:23:40Z</time>
      </trkpt>
      <trkpt lat="43.74264" lon="7.01773">
        <ele>857.92944335938</ele>
        <time>2013-12-09T16:23:46Z</time>
      </trkpt>
      <trkpt lat="43.74232" lon="7.01781">
        <ele>856.95050048828</ele>
        <time>2013-12-09T16:23:52Z</time>
      </trkpt>
      <trkpt lat="43.74192" lon="7.01793">
        <ele>861.5732421875</ele>
        <time>2013-12-09T16:23:58Z</time>
      </trkpt>
      <trkpt lat="43.74169" lon="7.01799">
        <ele>863.94213867188</ele>
        <time>2013-12-09T16:24:02Z</time>
      </trkpt>
      <trkpt lat="43.7415" lon="7.01806">
        <ele>868.02410888672</ele>
        <time>2013-12-09T16:24:06Z</time>
      </trkpt>
      <trkpt lat="43.74141" lon="7.0181">
        <ele>869.35620117188</ele>
        <time>2013-12-09T16:24:08Z</time>
      </trkpt>
      <trkpt lat="43.74125" lon="7.01815">
        <ele>871.95581054688</ele>
        <time>2013-12-09T16:24:11Z</time>
      </trkpt>
      <trkpt lat="43.74114" lon="7.01815">
        <ele>873.26196289062</ele>
        <time>2013-12-09T16:24:13Z</time>
      </trkpt>
      <trkpt lat="43.74104" lon="7.01816">
        <ele>873.65222167969</ele>
        <time>2013-12-09T16:24:15Z</time>
      </trkpt>
      <trkpt lat="43.74089" lon="7.01811">
        <ele>871.84973144531</ele>
        <time>2013-12-09T16:24:18Z</time>
      </trkpt>
      <trkpt lat="43.74057" lon="7.01799">
        <ele>865.52844238281</ele>
        <time>2013-12-09T16:24:24Z</time>
      </trkpt>
      <trkpt lat="43.74052" lon="7.01798">
        <ele>864.25811767578</ele>
        <time>2013-12-09T16:24:25Z</time>
      </trkpt>
      <trkpt lat="43.74041" lon="7.01794">
        <ele>861.5458984375</ele>
        <time>2013-12-09T16:24:27Z</time>
      </trkpt>
      <trkpt lat="43.7403" lon="7.01788">
        <ele>857.35729980469</ele>
        <time>2013-12-09T16:24:29Z</time>
      </trkpt>
      <trkpt lat="43.74018" lon="7.01785">
        <ele>855.27844238281</ele>
        <time>2013-12-09T16:24:31Z</time>
      </trkpt>
      <trkpt lat="43.74004" lon="7.01783">
        <ele>853.71911621094</ele>
        <time>2013-12-09T16:24:33Z</time>
      </trkpt>
      <trkpt lat="43.73968" lon="7.01769">
        <ele>841.21374511719</ele>
        <time>2013-12-09T16:24:39Z</time>
      </trkpt>
      <trkpt lat="43.73962" lon="7.01767">
        <ele>840.01263427734</ele>
        <time>2013-12-09T16:24:40Z</time>
      </trkpt>
      <trkpt lat="43.73937" lon="7.01765">
        <ele>840.08648681641</ele>
        <time>2013-12-09T16:24:44Z</time>
      </trkpt>
      <trkpt lat="43.7392" lon="7.01768">
        <ele>839.77264404297</ele>
        <time>2013-12-09T16:24:47Z</time>
      </trkpt>
      <trkpt lat="43.73912" lon="7.0177">
        <ele>841.48742675781</ele>
        <time>2013-12-09T16:24:49Z</time>
      </trkpt>
      <trkpt lat="43.73909" lon="7.01772">
        <ele>843.06427001953</ele>
        <time>2013-12-09T16:24:50Z</time>
      </trkpt>
      <trkpt lat="43.73896" lon="7.01773">
        <ele>845.86968994141</ele>
        <time>2013-12-09T16:24:53Z</time>
      </trkpt>
      <trkpt lat="43.73888" lon="7.01775">
        <ele>847.99658203125</ele>
        <time>2013-12-09T16:24:55Z</time>
      </trkpt>
      <trkpt lat="43.73883" lon="7.01776">
        <ele>848.43469238281</ele>
        <time>2013-12-09T16:24:56Z</time>
      </trkpt>
      <trkpt lat="43.73879" lon="7.01778">
        <ele>848.53680419922</ele>
        <time>2013-12-09T16:24:57Z</time>
      </trkpt>
      <trkpt lat="43.73858" lon="7.01776">
        <ele>845.166015625</ele>
        <time>2013-12-09T16:25:01Z</time>
      </trkpt>
      <trkpt lat="43.73847" lon="7.01777">
        <ele>845.5986328125</ele>
        <time>2013-12-09T16:25:03Z</time>
      </trkpt>
      <trkpt lat="43.73832" lon="7.01778">
        <ele>846.02655029297</ele>
        <time>2013-12-09T16:25:06Z</time>
      </trkpt>
      <trkpt lat="43.73827" lon="7.01777">
        <ele>845.46081542969</ele>
        <time>2013-12-09T16:25:07Z</time>
      </trkpt>
      <trkpt lat="43.7382" lon="7.01776">
        <ele>844.70556640625</ele>
        <time>2013-12-09T16:25:09Z</time>
      </trkpt>
      <trkpt lat="43.73817" lon="7.01777">
        <ele>844.96057128906</ele>
        <time>2013-12-09T16:25:10Z</time>
      </trkpt>
      <trkpt lat="43.73812" lon="7.01784">
        <ele>848.53887939453</ele>
        <time>2013-12-09T16:25:14Z</time>
      </trkpt>
      <trkpt lat="43.7381" lon="7.01786">
        <ele>849.68719482422</ele>
        <time>2013-12-09T16:25:19Z</time>
      </trkpt>
      <trkpt lat="43.738" lon="7.01785">
        <ele>848.17999267578</ele>
        <time>2013-12-09T16:25:22Z</time>
      </trkpt>
      <trkpt lat="43.73774" lon="7.01786">
        <ele>844.36791992188</ele>
        <time>2013-12-09T16:25:28Z</time>
      </trkpt>
      <trkpt lat="43.73753" lon="7.01788">
        <ele>842.59320068359</ele>
        <time>2013-12-09T16:25:32Z</time>
      </trkpt>
      <trkpt lat="43.73748" lon="7.01787">
        <ele>841.90460205078</ele>
        <time>2013-12-09T16:25:33Z</time>
      </trkpt>
      <trkpt lat="43.73722" lon="7.01785">
        <ele>838.84222412109</ele>
        <time>2013-12-09T16:25:38Z</time>
      </trkpt>
      <trkpt lat="43.73717" lon="7.01787">
        <ele>838.89416503906</ele>
        <time>2013-12-09T16:25:39Z</time>
      </trkpt>
      <trkpt lat="43.73701" lon="7.01794">
        <ele>839.08819580078</ele>
        <time>2013-12-09T16:25:42Z</time>
      </trkpt>
      <trkpt lat="43.7369" lon="7.01797">
        <ele>838.533203125</ele>
        <time>2013-12-09T16:25:44Z</time>
      </trkpt>
      <trkpt lat="43.73664" lon="7.01799">
        <ele>836.26690673828</ele>
        <time>2013-12-09T16:25:49Z</time>
      </trkpt>
      <trkpt lat="43.73653" lon="7.01799">
        <ele>834.79016113281</ele>
        <time>2013-12-09T16:25:51Z</time>
      </trkpt>
      <trkpt lat="43.73648" lon="7.01798">
        <ele>833.85955810547</ele>
        <time>2013-12-09T16:25:52Z</time>
      </trkpt>
      <trkpt lat="43.73637" lon="7.01795">
        <ele>832.08142089844</ele>
        <time>2013-12-09T16:25:54Z</time>
      </trkpt>
      <trkpt lat="43.73631" lon="7.01791">
        <ele>831.03601074219</ele>
        <time>2013-12-09T16:25:56Z</time>
      </trkpt>
      <trkpt lat="43.73624" lon="7.01784">
        <ele>829.49279785156</ele>
        <time>2013-12-09T16:26:00Z</time>
      </trkpt>
      <trkpt lat="43.73614" lon="7.0178">
        <ele>828.41473388672</ele>
        <time>2013-12-09T16:26:05Z</time>
      </trkpt>
      <trkpt lat="43.73604" lon="7.01772">
        <ele>827.21789550781</ele>
        <time>2013-12-09T16:26:09Z</time>
      </trkpt>
      <trkpt lat="43.73595" lon="7.01768">
        <ele>826.79040527344</ele>
        <time>2013-12-09T16:26:12Z</time>
      </trkpt>
      <trkpt lat="43.73592" lon="7.01769">
        <ele>827.02905273438</ele>
        <time>2013-12-09T16:26:13Z</time>
      </trkpt>
      <trkpt lat="43.73586" lon="7.01777">
        <ele>828.77825927734</ele>
        <time>2013-12-09T16:26:16Z</time>
      </trkpt>
      <trkpt lat="43.73584" lon="7.01781">
        <ele>829.38610839844</ele>
        <time>2013-12-09T16:26:17Z</time>
      </trkpt>
      <trkpt lat="43.73578" lon="7.01789">
        <ele>831.49450683594</ele>
        <time>2013-12-09T16:26:22Z</time>
      </trkpt>
      <trkpt lat="43.73574" lon="7.01791">
        <ele>832.38415527344</ele>
        <time>2013-12-09T16:26:26Z</time>
      </trkpt>
      <trkpt lat="43.73572" lon="7.01791">
        <ele>832.69714355469</ele>
        <time>2013-12-09T16:26:28Z</time>
      </trkpt>
      <trkpt lat="43.73566" lon="7.01787">
        <ele>833.04553222656</ele>
        <time>2013-12-09T16:26:33Z</time>
      </trkpt>
      <trkpt lat="43.73554" lon="7.01779">
        <ele>833.44036865234</ele>
        <time>2013-12-09T16:26:39Z</time>
      </trkpt>
      <trkpt lat="43.73544" lon="7.0177">
        <ele>832.90728759766</ele>
        <time>2013-12-09T16:26:45Z</time>
      </trkpt>
      <trkpt lat="43.73542" lon="7.01756">
        <ele>830.95239257812</ele>
        <time>2013-12-09T16:26:50Z</time>
      </trkpt>
      <trkpt lat="43.73539" lon="7.0174">
        <ele>829.22009277344</ele>
        <time>2013-12-09T16:26:56Z</time>
      </trkpt>
      <trkpt lat="43.73538" lon="7.01728">
        <ele>828.07678222656</ele>
        <time>2013-12-09T16:27:02Z</time>
      </trkpt>
      <trkpt lat="43.73537" lon="7.01717">
        <ele>826.76831054688</ele>
        <time>2013-12-09T16:27:07Z</time>
      </trkpt>
      <trkpt lat="43.73527" lon="7.01705">
        <ele>825.96447753906</ele>
        <time>2013-12-09T16:27:14Z</time>
      </trkpt>
      <trkpt lat="43.73513" lon="7.01686">
        <ele>824.34930419922</ele>
        <time>2013-12-09T16:27:20Z</time>
      </trkpt>
      <trkpt lat="43.73494" lon="7.01663">
        <ele>822.77191162109</ele>
        <time>2013-12-09T16:27:26Z</time>
      </trkpt>
      <trkpt lat="43.73476" lon="7.01648">
        <ele>821.80712890625</ele>
        <time>2013-12-09T16:27:31Z</time>
      </trkpt>
      <trkpt lat="43.73453" lon="7.0163">
        <ele>821.59436035156</ele>
        <time>2013-12-09T16:27:37Z</time>
      </trkpt>
      <trkpt lat="43.73431" lon="7.0161">
        <ele>820.18109130859</ele>
        <time>2013-12-09T16:27:44Z</time>
      </trkpt>
      <trkpt lat="43.73412" lon="7.01593">
        <ele>816.71020507812</ele>
        <time>2013-12-09T16:27:51Z</time>
      </trkpt>
      <trkpt lat="43.734" lon="7.01582">
        <ele>816.80493164062</ele>
        <time>2013-12-09T16:27:57Z</time>
      </trkpt>
      <trkpt lat="43.73384" lon="7.01569">
        <ele>818.92547607422</ele>
        <time>2013-12-09T16:28:03Z</time>
      </trkpt>
      <trkpt lat="43.73362" lon="7.01553">
        <ele>821.52526855469</ele>
        <time>2013-12-09T16:28:09Z</time>
      </trkpt>
      <trkpt lat="43.73348" lon="7.01534">
        <ele>824.27856445312</ele>
        <time>2013-12-09T16:28:14Z</time>
      </trkpt>
      <trkpt lat="43.73331" lon="7.01509">
        <ele>827.205078125</ele>
        <time>2013-12-09T16:28:22Z</time>
      </trkpt>
      <trkpt lat="43.73315" lon="7.01489">
        <ele>829.68676757812</ele>
        <time>2013-12-09T16:28:30Z</time>
      </trkpt>
      <trkpt lat="43.73297" lon="7.0147">
        <ele>832.69781494141</ele>
        <time>2013-12-09T16:28:39Z</time>
      </trkpt>
      <trkpt lat="43.73278" lon="7.01451">
        <ele>836.23663330078</ele>
        <time>2013-12-09T16:28:47Z</time>
      </trkpt>
      <trkpt lat="43.73254" lon="7.01431">
        <ele>839.07281494141</ele>
        <time>2013-12-09T16:28:54Z</time>
      </trkpt>
      <trkpt lat="43.73238" lon="7.0142">
        <ele>841.61505126953</ele>
        <time>2013-12-09T16:28:59Z</time>
      </trkpt>
      <trkpt lat="43.73232" lon="7.01413">
        <ele>842.71984863281</ele>
        <time>2013-12-09T16:29:04Z</time>
      </trkpt>
      <trkpt lat="43.73231" lon="7.01411">
        <ele>842.60870361328</ele>
        <time>2013-12-09T16:29:15Z</time>
      </trkpt>
      <trkpt lat="43.73229" lon="7.01407">
        <ele>842.67608642578</ele>
        <time>2013-12-09T16:29:31Z</time>
      </trkpt>
      <trkpt lat="43.73227" lon="7.01403">
        <ele>842.68762207031</ele>
        <time>2013-12-09T16:29:47Z</time>
      </trkpt>
      <trkpt lat="43.73225" lon="7.014">
        <ele>842.78161621094</ele>
        <time>2013-12-09T16:29:49Z</time>
      </trkpt>
      <trkpt lat="43.73217" lon="7.01387">
        <ele>842.86755371094</ele>
        <time>2013-12-09T16:29:55Z</time>
      </trkpt>
      <trkpt lat="43.73208" lon="7.0137">
        <ele>843.38732910156</ele>
        <time>2013-12-09T16:30:02Z</time>
      </trkpt>
      <trkpt lat="43.73199" lon="7.01358">
        <ele>843.92315673828</ele>
        <time>2013-12-09T16:30:09Z</time>
      </trkpt>
      <trkpt lat="43.73194" lon="7.01349">
        <ele>844.24108886719</ele>
        <time>2013-12-09T16:30:15Z</time>
      </trkpt>
      <trkpt lat="43.73188" lon="7.01342">
        <ele>844.49853515625</ele>
        <time>2013-12-09T16:30:20Z</time>
      </trkpt>
      <trkpt lat="43.73188" lon="7.0134">
        <ele>844.46765136719</ele>
        <time>2013-12-09T16:30:21Z</time>
      </trkpt>
      <trkpt lat="43.7318" lon="7.01331">
        <ele>844.78515625</ele>
        <time>2013-12-09T16:30:28Z</time>
      </trkpt>
      <trkpt lat="43.7317" lon="7.0132">
        <ele>845.01007080078</ele>
        <time>2013-12-09T16:30:37Z</time>
      </trkpt>
      <trkpt lat="43.73161" lon="7.01312">
        <ele>845.47180175781</ele>
        <time>2013-12-09T16:30:45Z</time>
      </trkpt>
      <trkpt lat="43.7315" lon="7.01306">
        <ele>846.41943359375</ele>
        <time>2013-12-09T16:30:54Z</time>
      </trkpt>
      <trkpt lat="43.73143" lon="7.01306">
        <ele>847.42755126953</ele>
        <time>2013-12-09T16:31:00Z</time>
      </trkpt>
      <trkpt lat="43.73137" lon="7.01307">
        <ele>848.37316894531</ele>
        <time>2013-12-09T16:31:04Z</time>
      </trkpt>
      <trkpt lat="43.73134" lon="7.01307">
        <ele>848.96710205078</ele>
        <time>2013-12-09T16:31:06Z</time>
      </trkpt>
      <trkpt lat="43.73123" lon="7.0131">
        <ele>851.18841552734</ele>
        <time>2013-12-09T16:31:13Z</time>
      </trkpt>
      <trkpt lat="43.7311" lon="7.01312">
        <ele>853.52075195312</ele>
        <time>2013-12-09T16:31:20Z</time>
      </trkpt>
      <trkpt lat="43.73103" lon="7.01308">
        <ele>853.70623779297</ele>
        <time>2013-12-09T16:31:24Z</time>
      </trkpt>
      <trkpt lat="43.73102" lon="7.01307">
        <ele>853.7314453125</ele>
        <time>2013-12-09T16:31:25Z</time>
      </trkpt>
      <trkpt lat="43.73098" lon="7.01297">
        <ele>853.48999023438</ele>
        <time>2013-12-09T16:31:30Z</time>
      </trkpt>
      <trkpt lat="43.73091" lon="7.01277">
        <ele>853.14825439453</ele>
        <time>2013-12-09T16:31:38Z</time>
      </trkpt>
      <trkpt lat="43.73087" lon="7.01265">
        <ele>853.15338134766</ele>
        <time>2013-12-09T16:31:43Z</time>
      </trkpt>
      <trkpt lat="43.73081" lon="7.01251">
        <ele>853.31237792969</ele>
        <time>2013-12-09T16:31:49Z</time>
      </trkpt>
      <trkpt lat="43.73073" lon="7.01233">
        <ele>855.11676025391</ele>
        <time>2013-12-09T16:31:56Z</time>
      </trkpt>
      <trkpt lat="43.73063" lon="7.0122">
        <ele>856.57312011719</ele>
        <time>2013-12-09T16:32:02Z</time>
      </trkpt>
      <trkpt lat="43.73049" lon="7.01212">
        <ele>858.02209472656</ele>
        <time>2013-12-09T16:32:08Z</time>
      </trkpt>
      <trkpt lat="43.73037" lon="7.01203">
        <ele>859.20727539062</ele>
        <time>2013-12-09T16:32:13Z</time>
      </trkpt>
      <trkpt lat="43.73026" lon="7.01198">
        <ele>860.45483398438</ele>
        <time>2013-12-09T16:32:16Z</time>
      </trkpt>
      <trkpt lat="43.73014" lon="7.01182">
        <ele>865.22711181641</ele>
        <time>2013-12-09T16:32:20Z</time>
      </trkpt>
      <trkpt lat="43.73006" lon="7.01165">
        <ele>869.59582519531</ele>
        <time>2013-12-09T16:32:24Z</time>
      </trkpt>
      <trkpt lat="43.73008" lon="7.01153">
        <ele>870.39978027344</ele>
        <time>2013-12-09T16:32:27Z</time>
      </trkpt>
      <trkpt lat="43.73018" lon="7.0114">
        <ele>867.61376953125</ele>
        <time>2013-12-09T16:32:34Z</time>
      </trkpt>
      <trkpt lat="43.73021" lon="7.01136">
        <ele>866.48107910156</ele>
        <time>2013-12-09T16:32:37Z</time>
      </trkpt>
      <trkpt lat="43.73023" lon="7.01133">
        <ele>866.24914550781</ele>
        <time>2013-12-09T16:32:39Z</time>
      </trkpt>
      <trkpt lat="43.73026" lon="7.0113">
        <ele>865.92962646484</ele>
        <time>2013-12-09T16:32:41Z</time>
      </trkpt>
      <trkpt lat="43.73029" lon="7.01126">
        <ele>865.74017333984</ele>
        <time>2013-12-09T16:32:44Z</time>
      </trkpt>
      <trkpt lat="43.73029" lon="7.01124">
        <ele>865.92877197266</ele>
        <time>2013-12-09T16:32:45Z</time>
      </trkpt>
      <trkpt lat="43.73033" lon="7.01115">
        <ele>867.06610107422</ele>
        <time>2013-12-09T16:32:50Z</time>
      </trkpt>
      <trkpt lat="43.73033" lon="7.01113">
        <ele>867.41040039062</ele>
        <time>2013-12-09T16:32:51Z</time>
      </trkpt>
      <trkpt lat="43.73032" lon="7.01107">
        <ele>869.48406982422</ele>
        <time>2013-12-09T16:32:54Z</time>
      </trkpt>
      <trkpt lat="43.73029" lon="7.01098">
        <ele>873.04364013672</ele>
        <time>2013-12-09T16:32:58Z</time>
      </trkpt>
      <trkpt lat="43.73027" lon="7.01094">
        <ele>874.75250244141</ele>
        <time>2013-12-09T16:33:00Z</time>
      </trkpt>
      <trkpt lat="43.73021" lon="7.01079">
        <ele>878.82446289062</ele>
        <time>2013-12-09T16:33:07Z</time>
      </trkpt>
      <trkpt lat="43.73015" lon="7.01058">
        <ele>879.4599609375</ele>
        <time>2013-12-09T16:33:15Z</time>
      </trkpt>
      <trkpt lat="43.73008" lon="7.01034">
        <ele>878.99145507812</ele>
        <time>2013-12-09T16:33:25Z</time>
      </trkpt>
      <trkpt lat="43.73003" lon="7.01014">
        <ele>878.44104003906</ele>
        <time>2013-12-09T16:33:34Z</time>
      </trkpt>
      <trkpt lat="43.72996" lon="7.00992">
        <ele>876.54418945312</ele>
        <time>2013-12-09T16:33:44Z</time>
      </trkpt>
      <trkpt lat="43.72995" lon="7.00985">
        <ele>875.11810302734</ele>
        <time>2013-12-09T16:33:47Z</time>
      </trkpt>
      <trkpt lat="43.72994" lon="7.00979">
        <ele>873.83422851562</ele>
        <time>2013-12-09T16:33:50Z</time>
      </trkpt>
      <trkpt lat="43.72993" lon="7.00978">
        <ele>873.46124267578</ele>
        <time>2013-12-09T16:33:51Z</time>
      </trkpt>
      <trkpt lat="43.72989" lon="7.00962">
        <ele>871.04583740234</ele>
        <time>2013-12-09T16:33:59Z</time>
      </trkpt>
      <trkpt lat="43.72984" lon="7.00953">
        <ele>869.75994873047</ele>
        <time>2013-12-09T16:34:05Z</time>
      </trkpt>
      <trkpt lat="43.72974" lon="7.00953">
        <ele>869.63287353516</ele>
        <time>2013-12-09T16:34:12Z</time>
      </trkpt>
      <trkpt lat="43.72974" lon="7.00953">
        <ele>869.51025390625</ele>
        <time>2013-12-09T16:34:17Z</time>
      </trkpt>
      <trkpt lat="43.72972" lon="7.00949">
        <ele>868.81140136719</ele>
        <time>2013-12-09T16:34:25Z</time>
      </trkpt>
      <trkpt lat="43.72968" lon="7.00956">
        <ele>870.42840576172</ele>
        <time>2013-12-09T16:34:30Z</time>
      </trkpt>
      <trkpt lat="43.72961" lon="7.00968">
        <ele>873.01538085938</ele>
        <time>2013-12-09T16:34:37Z</time>
      </trkpt>
      <trkpt lat="43.72954" lon="7.00983">
        <ele>876.65411376953</ele>
        <time>2013-12-09T16:34:45Z</time>
      </trkpt>
      <trkpt lat="43.72948" lon="7.00993">
        <ele>879.27471923828</ele>
        <time>2013-12-09T16:34:51Z</time>
      </trkpt>
      <trkpt lat="43.72938" lon="7.01008">
        <ele>882.04602050781</ele>
        <time>2013-12-09T16:35:01Z</time>
      </trkpt>
      <trkpt lat="43.72929" lon="7.01024">
        <ele>884.58624267578</ele>
        <time>2013-12-09T16:35:10Z</time>
      </trkpt>
      <trkpt lat="43.72923" lon="7.01038">
        <ele>886.56195068359</ele>
        <time>2013-12-09T16:35:17Z</time>
      </trkpt>
      <trkpt lat="43.72916" lon="7.01056">
        <ele>889.11889648438</ele>
        <time>2013-12-09T16:35:25Z</time>
      </trkpt>
      <trkpt lat="43.72909" lon="7.01079">
        <ele>894.82360839844</ele>
        <time>2013-12-09T16:35:35Z</time>
      </trkpt>
      <trkpt lat="43.72905" lon="7.01095">
        <ele>896.85064697266</ele>
        <time>2013-12-09T16:35:42Z</time>
      </trkpt>
      <trkpt lat="43.72897" lon="7.01116">
        <ele>898.49816894531</ele>
        <time>2013-12-09T16:35:51Z</time>
      </trkpt>
      <trkpt lat="43.72888" lon="7.01133">
        <ele>900.10906982422</ele>
        <time>2013-12-09T16:35:59Z</time>
      </trkpt>
      <trkpt lat="43.72876" lon="7.01147">
        <ele>901.48327636719</ele>
        <time>2013-12-09T16:36:07Z</time>
      </trkpt>
      <trkpt lat="43.72867" lon="7.01158">
        <ele>902.91619873047</ele>
        <time>2013-12-09T16:36:14Z</time>
      </trkpt>
      <trkpt lat="43.72855" lon="7.01171">
        <ele>905.712890625</ele>
        <time>2013-12-09T16:36:23Z</time>
      </trkpt>
      <trkpt lat="43.72847" lon="7.01185">
        <ele>908.21319580078</ele>
        <time>2013-12-09T16:36:30Z</time>
      </trkpt>
      <trkpt lat="43.72842" lon="7.01199">
        <ele>910.61291503906</ele>
        <time>2013-12-09T16:36:37Z</time>
      </trkpt>
      <trkpt lat="43.72838" lon="7.01218">
        <ele>914.09759521484</ele>
        <time>2013-12-09T16:36:45Z</time>
      </trkpt>
      <trkpt lat="43.7284" lon="7.01232">
        <ele>914.11541748047</ele>
        <time>2013-12-09T16:36:51Z</time>
      </trkpt>
      <trkpt lat="43.72847" lon="7.01245">
        <ele>910.42364501953</ele>
        <time>2013-12-09T16:36:58Z</time>
      </trkpt>
      <trkpt lat="43.72851" lon="7.01258">
        <ele>907.68768310547</ele>
        <time>2013-12-09T16:37:04Z</time>
      </trkpt>
      <trkpt lat="43.72854" lon="7.01279">
        <ele>907.326171875</ele>
        <time>2013-12-09T16:37:13Z</time>
      </trkpt>
      <trkpt lat="43.72855" lon="7.01297">
        <ele>909.20001220703</ele>
        <time>2013-12-09T16:37:21Z</time>
      </trkpt>
      <trkpt lat="43.72853" lon="7.01315">
        <ele>913.08837890625</ele>
        <time>2013-12-09T16:37:29Z</time>
      </trkpt>
      <trkpt lat="43.72848" lon="7.01328">
        <ele>916.62738037109</ele>
        <time>2013-12-09T16:37:36Z</time>
      </trkpt>
      <trkpt lat="43.72844" lon="7.01344">
        <ele>919.57525634766</ele>
        <time>2013-12-09T16:37:45Z</time>
      </trkpt>
      <trkpt lat="43.72842" lon="7.01353">
        <ele>920.71746826172</ele>
        <time>2013-12-09T16:37:50Z</time>
      </trkpt>
      <trkpt lat="43.72842" lon="7.01357">
        <ele>921.13696289062</ele>
        <time>2013-12-09T16:37:52Z</time>
      </trkpt>
      <trkpt lat="43.72843" lon="7.01366">
        <ele>921.74523925781</ele>
        <time>2013-12-09T16:37:57Z</time>
      </trkpt>
      <trkpt lat="43.72844" lon="7.01368">
        <ele>921.857421875</ele>
        <time>2013-12-09T16:37:58Z</time>
      </trkpt>
      <trkpt lat="43.72844" lon="7.0138">
        <ele>923.32586669922</ele>
        <time>2013-12-09T16:38:04Z</time>
      </trkpt>
      <trkpt lat="43.72842" lon="7.01381">
        <ele>923.78765869141</ele>
        <time>2013-12-09T16:38:05Z</time>
      </trkpt>
      <trkpt lat="43.72836" lon="7.01379">
        <ele>925.17883300781</ele>
        <time>2013-12-09T16:38:10Z</time>
      </trkpt>
      <trkpt lat="43.72832" lon="7.01372">
        <ele>925.88293457031</ele>
        <time>2013-12-09T16:38:15Z</time>
      </trkpt>
      <trkpt lat="43.7283" lon="7.01367">
        <ele>926.13244628906</ele>
        <time>2013-12-09T16:38:18Z</time>
      </trkpt>
      <trkpt lat="43.72826" lon="7.0136">
        <ele>927.06127929688</ele>
        <time>2013-12-09T16:38:23Z</time>
      </trkpt>
      <trkpt lat="43.72823" lon="7.01359">
        <ele>928.14624023438</ele>
        <time>2013-12-09T16:38:25Z</time>
      </trkpt>
      <trkpt lat="43.7282" lon="7.01358">
        <ele>929.74267578125</ele>
        <time>2013-12-09T16:38:28Z</time>
      </trkpt>
      <trkpt lat="43.72815" lon="7.01356">
        <ele>931.73736572266</ele>
        <time>2013-12-09T16:38:32Z</time>
      </trkpt>
      <trkpt lat="43.72805" lon="7.01351">
        <ele>935.48474121094</ele>
        <time>2013-12-09T16:38:40Z</time>
      </trkpt>
      <trkpt lat="43.72793" lon="7.01343">
        <ele>937.40051269531</ele>
        <time>2013-12-09T16:38:49Z</time>
      </trkpt>
      <trkpt lat="43.72784" lon="7.01336">
        <ele>938.80810546875</ele>
        <time>2013-12-09T16:38:57Z</time>
      </trkpt>
      <trkpt lat="43.72777" lon="7.01329">
        <ele>939.35546875</ele>
        <time>2013-12-09T16:39:04Z</time>
      </trkpt>
      <trkpt lat="43.7277" lon="7.01316">
        <ele>937.73498535156</ele>
        <time>2013-12-09T16:39:13Z</time>
      </trkpt>
      <trkpt lat="43.72765" lon="7.01305">
        <ele>936.32263183594</ele>
        <time>2013-12-09T16:39:20Z</time>
      </trkpt>
      <trkpt lat="43.7276" lon="7.01294">
        <ele>933.82678222656</ele>
        <time>2013-12-09T16:39:27Z</time>
      </trkpt>
      <trkpt lat="43.72754" lon="7.0128">
        <ele>930.61297607422</ele>
        <time>2013-12-09T16:39:35Z</time>
      </trkpt>
      <trkpt lat="43.72748" lon="7.01271">
        <ele>928.13549804688</ele>
        <time>2013-12-09T16:39:42Z</time>
      </trkpt>
      <trkpt lat="43.72741" lon="7.01259">
        <ele>923.50445556641</ele>
        <time>2013-12-09T16:39:49Z</time>
      </trkpt>
      <trkpt lat="43.72729" lon="7.01249">
        <ele>918.08245849609</ele>
        <time>2013-12-09T16:39:57Z</time>
      </trkpt>
      <trkpt lat="43.72721" lon="7.0124">
        <ele>913.71893310547</ele>
        <time>2013-12-09T16:40:04Z</time>
      </trkpt>
      <trkpt lat="43.72712" lon="7.01227">
        <ele>909.1357421875</ele>
        <time>2013-12-09T16:40:13Z</time>
      </trkpt>
      <trkpt lat="43.727" lon="7.01212">
        <ele>903.50329589844</ele>
        <time>2013-12-09T16:40:23Z</time>
      </trkpt>
      <trkpt lat="43.72684" lon="7.01203">
        <ele>898.4951171875</ele>
        <time>2013-12-09T16:40:33Z</time>
      </trkpt>
      <trkpt lat="43.72671" lon="7.01202">
        <ele>896.33569335938</ele>
        <time>2013-12-09T16:40:41Z</time>
      </trkpt>
      <trkpt lat="43.7266" lon="7.01199">
        <ele>893.63787841797</ele>
        <time>2013-12-09T16:40:47Z</time>
      </trkpt>
      <trkpt lat="43.72652" lon="7.01198">
        <ele>891.99627685547</ele>
        <time>2013-12-09T16:40:52Z</time>
      </trkpt>
      <trkpt lat="43.72652" lon="7.01198">
        <ele>891.96356201172</ele>
        <time>2013-12-09T16:40:53Z</time>
      </trkpt>
      <trkpt lat="43.72644" lon="7.01207">
        <ele>892.37658691406</ele>
        <time>2013-12-09T16:43:05Z</time>
      </trkpt>
      <trkpt lat="43.72629" lon="7.0122">
        <ele>892.10833740234</ele>
        <time>2013-12-09T16:43:10Z</time>
      </trkpt>
      <trkpt lat="43.7261" lon="7.01233">
        <ele>891.84875488281</ele>
        <time>2013-12-09T16:43:14Z</time>
      </trkpt>
      <trkpt lat="43.7258" lon="7.01245">
        <ele>891.68078613281</ele>
        <time>2013-12-09T16:43:19Z</time>
      </trkpt>
      <trkpt lat="43.7257" lon="7.0125">
        <ele>891.603515625</ele>
        <time>2013-12-09T16:43:21Z</time>
      </trkpt>
      <trkpt lat="43.72561" lon="7.01259">
        <ele>891.80822753906</ele>
        <time>2013-12-09T16:43:23Z</time>
      </trkpt>
      <trkpt lat="43.72538" lon="7.01285">
        <ele>894.25366210938</ele>
        <time>2013-12-09T16:43:28Z</time>
      </trkpt>
      <trkpt lat="43.7253" lon="7.01295">
        <ele>895.87072753906</ele>
        <time>2013-12-09T16:43:30Z</time>
      </trkpt>
      <trkpt lat="43.72514" lon="7.01307">
        <ele>897.41882324219</ele>
        <time>2013-12-09T16:43:33Z</time>
      </trkpt>
      <trkpt lat="43.72498" lon="7.01318">
        <ele>898.765625</ele>
        <time>2013-12-09T16:43:36Z</time>
      </trkpt>
      <trkpt lat="43.72486" lon="7.01327">
        <ele>900.53717041016</ele>
        <time>2013-12-09T16:43:38Z</time>
      </trkpt>
      <trkpt lat="43.72447" lon="7.01351">
        <ele>901.5390625</ele>
        <time>2013-12-09T16:43:45Z</time>
      </trkpt>
      <trkpt lat="43.72419" lon="7.01373">
        <ele>904.92987060547</ele>
        <time>2013-12-09T16:43:51Z</time>
      </trkpt>
      <trkpt lat="43.72414" lon="7.01376">
        <ele>905.6201171875</ele>
        <time>2013-12-09T16:43:52Z</time>
      </trkpt>
      <trkpt lat="43.72379" lon="7.01392">
        <ele>908.59143066406</ele>
        <time>2013-12-09T16:43:59Z</time>
      </trkpt>
      <trkpt lat="43.72345" lon="7.01404">
        <ele>909.04809570312</ele>
        <time>2013-12-09T16:44:05Z</time>
      </trkpt>
      <trkpt lat="43.72338" lon="7.01405">
        <ele>908.57434082031</ele>
        <time>2013-12-09T16:44:06Z</time>
      </trkpt>
      <trkpt lat="43.72308" lon="7.01407">
        <ele>908.62908935547</ele>
        <time>2013-12-09T16:44:10Z</time>
      </trkpt>
      <trkpt lat="43.72284" lon="7.01412">
        <ele>907.15277099609</ele>
        <time>2013-12-09T16:44:13Z</time>
      </trkpt>
      <trkpt lat="43.72271" lon="7.01418">
        <ele>905.88140869141</ele>
        <time>2013-12-09T16:44:15Z</time>
      </trkpt>
      <trkpt lat="43.72249" lon="7.01434">
        <ele>903.22906494141</ele>
        <time>2013-12-09T16:44:19Z</time>
      </trkpt>
      <trkpt lat="43.72235" lon="7.01459">
        <ele>903.93298339844</ele>
        <time>2013-12-09T16:44:23Z</time>
      </trkpt>
      <trkpt lat="43.72228" lon="7.0147">
        <ele>904.26947021484</ele>
        <time>2013-12-09T16:44:25Z</time>
      </trkpt>
      <trkpt lat="43.72224" lon="7.01473">
        <ele>904.11865234375</ele>
        <time>2013-12-09T16:44:26Z</time>
      </trkpt>
      <trkpt lat="43.72217" lon="7.01466">
        <ele>902.80419921875</ele>
        <time>2013-12-09T16:44:28Z</time>
      </trkpt>
      <trkpt lat="43.72215" lon="7.01443">
        <ele>900.86773681641</ele>
        <time>2013-12-09T16:44:31Z</time>
      </trkpt>
      <trkpt lat="43.72209" lon="7.01396">
        <ele>896.87274169922</ele>
        <time>2013-12-09T16:44:36Z</time>
      </trkpt>
      <trkpt lat="43.72211" lon="7.01353">
        <ele>891.6142578125</ele>
        <time>2013-12-09T16:44:40Z</time>
      </trkpt>
      <trkpt lat="43.72214" lon="7.01314">
        <ele>886.51507568359</ele>
        <time>2013-12-09T16:44:44Z</time>
      </trkpt>
      <trkpt lat="43.72215" lon="7.01305">
        <ele>885.15826416016</ele>
        <time>2013-12-09T16:44:45Z</time>
      </trkpt>
      <trkpt lat="43.7222" lon="7.01263">
        <ele>879.31842041016</ele>
        <time>2013-12-09T16:44:49Z</time>
      </trkpt>
      <trkpt lat="43.72222" lon="7.01236">
        <ele>876.47052001953</ele>
        <time>2013-12-09T16:44:52Z</time>
      </trkpt>
      <trkpt lat="43.72221" lon="7.01229">
        <ele>875.66027832031</ele>
        <time>2013-12-09T16:44:53Z</time>
      </trkpt>
      <trkpt lat="43.72211" lon="7.01216">
        <ele>873.80718994141</ele>
        <time>2013-12-09T16:44:56Z</time>
      </trkpt>
      <trkpt lat="43.72207" lon="7.01214">
        <ele>873.47198486328</ele>
        <time>2013-12-09T16:44:57Z</time>
      </trkpt>
      <trkpt lat="43.72202" lon="7.01215">
        <ele>873.36077880859</ele>
        <time>2013-12-09T16:44:58Z</time>
      </trkpt>
      <trkpt lat="43.72182" lon="7.01213">
        <ele>872.71789550781</ele>
        <time>2013-12-09T16:45:02Z</time>
      </trkpt>
      <trkpt lat="43.72178" lon="7.01214">
        <ele>872.63995361328</ele>
        <time>2013-12-09T16:45:03Z</time>
      </trkpt>
      <trkpt lat="43.72165" lon="7.01219">
        <ele>872.68347167969</ele>
        <time>2013-12-09T16:45:06Z</time>
      </trkpt>
      <trkpt lat="43.7216" lon="7.0122">
        <ele>872.6044921875</ele>
        <time>2013-12-09T16:45:07Z</time>
      </trkpt>
      <trkpt lat="43.72135" lon="7.01223">
        <ele>871.37774658203</ele>
        <time>2013-12-09T16:45:12Z</time>
      </trkpt>
      <trkpt lat="43.7213" lon="7.01221">
        <ele>870.38195800781</ele>
        <time>2013-12-09T16:45:13Z</time>
      </trkpt>
      <trkpt lat="43.72116" lon="7.01213">
        <ele>867.55126953125</ele>
        <time>2013-12-09T16:45:16Z</time>
      </trkpt>
      <trkpt lat="43.72107" lon="7.01204">
        <ele>866.00421142578</ele>
        <time>2013-12-09T16:45:18Z</time>
      </trkpt>
      <trkpt lat="43.72083" lon="7.01172">
        <ele>863.14105224609</ele>
        <time>2013-12-09T16:45:23Z</time>
      </trkpt>
      <trkpt lat="43.72066" lon="7.0115">
        <ele>861.77978515625</ele>
        <time>2013-12-09T16:45:27Z</time>
      </trkpt>
      <trkpt lat="43.72063" lon="7.01147">
        <ele>861.56176757812</ele>
        <time>2013-12-09T16:45:28Z</time>
      </trkpt>
      <trkpt lat="43.72058" lon="7.01133">
        <ele>860.89056396484</ele>
        <time>2013-12-09T16:45:31Z</time>
      </trkpt>
      <trkpt lat="43.72057" lon="7.01127">
        <ele>860.61419677734</ele>
        <time>2013-12-09T16:45:32Z</time>
      </trkpt>
      <trkpt lat="43.72052" lon="7.0111">
        <ele>860.41180419922</ele>
        <time>2013-12-09T16:45:35Z</time>
      </trkpt>
      <trkpt lat="43.7205" lon="7.01106">
        <ele>860.47943115234</ele>
        <time>2013-12-09T16:45:36Z</time>
      </trkpt>
      <trkpt lat="43.72036" lon="7.01094">
        <ele>859.41717529297</ele>
        <time>2013-12-09T16:45:40Z</time>
      </trkpt>
      <trkpt lat="43.72025" lon="7.01089">
        <ele>857.35437011719</ele>
        <time>2013-12-09T16:45:44Z</time>
      </trkpt>
      <trkpt lat="43.72021" lon="7.01097">
        <ele>859.14416503906</ele>
        <time>2013-12-09T16:45:47Z</time>
      </trkpt>
      <trkpt lat="43.72017" lon="7.01111">
        <ele>863.07354736328</ele>
        <time>2013-12-09T16:45:50Z</time>
      </trkpt>
      <trkpt lat="43.72013" lon="7.01122">
        <ele>864.97595214844</ele>
        <time>2013-12-09T16:45:52Z</time>
      </trkpt>
      <trkpt lat="43.72008" lon="7.01141">
        <ele>868.57446289062</ele>
        <time>2013-12-09T16:45:56Z</time>
      </trkpt>
      <trkpt lat="43.72002" lon="7.0117">
        <ele>877.25805664062</ele>
        <time>2013-12-09T16:46:02Z</time>
      </trkpt>
      <trkpt lat="43.71996" lon="7.01203">
        <ele>880</ele>
        <time>2013-12-09T16:46:08Z</time>
      </trkpt>
      <trkpt lat="43.71992" lon="7.01216">
        <ele>880</ele>
        <time>2013-12-09T16:46:10Z</time>
      </trkpt>
      <trkpt lat="43.71985" lon="7.01236">
        <ele>880</ele>
        <time>2013-12-09T16:46:13Z</time>
      </trkpt>
      <trkpt lat="43.71976" lon="7.01256">
        <ele>880</ele>
        <time>2013-12-09T16:46:16Z</time>
      </trkpt>
      <trkpt lat="43.71971" lon="7.01271">
        <ele>880</ele>
        <time>2013-12-09T16:46:18Z</time>
      </trkpt>
      <trkpt lat="43.71971" lon="7.01294">
        <ele>879.42309570312</ele>
        <time>2013-12-09T16:46:21Z</time>
      </trkpt>
      <trkpt lat="43.71976" lon="7.01309">
        <ele>878.79559326172</ele>
        <time>2013-12-09T16:46:23Z</time>
      </trkpt>
      <trkpt lat="43.71981" lon="7.01324">
        <ele>877.90093994141</ele>
        <time>2013-12-09T16:46:25Z</time>
      </trkpt>
      <trkpt lat="43.71983" lon="7.01332">
        <ele>877.44256591797</ele>
        <time>2013-12-09T16:46:26Z</time>
      </trkpt>
      <trkpt lat="43.7199" lon="7.01383">
        <ele>875.05285644531</ele>
        <time>2013-12-09T16:46:32Z</time>
      </trkpt>
      <trkpt lat="43.71992" lon="7.01401">
        <ele>874.28363037109</ele>
        <time>2013-12-09T16:46:34Z</time>
      </trkpt>
      <trkpt lat="43.7199" lon="7.01429">
        <ele>873.068359375</ele>
        <time>2013-12-09T16:46:37Z</time>
      </trkpt>
      <trkpt lat="43.71986" lon="7.01447">
        <ele>871.89868164062</ele>
        <time>2013-12-09T16:46:39Z</time>
      </trkpt>
      <trkpt lat="43.71976" lon="7.0148">
        <ele>869.63531494141</ele>
        <time>2013-12-09T16:46:43Z</time>
      </trkpt>
      <trkpt lat="43.7196" lon="7.0152">
        <ele>866.50555419922</ele>
        <time>2013-12-09T16:46:49Z</time>
      </trkpt>
      <trkpt lat="43.71945" lon="7.01522">
        <ele>865.46630859375</ele>
        <time>2013-12-09T16:46:52Z</time>
      </trkpt>
      <trkpt lat="43.7194" lon="7.01521">
        <ele>867.90466308594</ele>
        <time>2013-12-09T16:46:53Z</time>
      </trkpt>
      <trkpt lat="43.71935" lon="7.01521">
        <ele>870.49871826172</ele>
        <time>2013-12-09T16:46:54Z</time>
      </trkpt>
      <trkpt lat="43.71926" lon="7.01525">
        <ele>874.75506591797</ele>
        <time>2013-12-09T16:46:56Z</time>
      </trkpt>
      <trkpt lat="43.71922" lon="7.0154">
        <ele>874.69207763672</ele>
        <time>2013-12-09T16:46:59Z</time>
      </trkpt>
      <trkpt lat="43.71924" lon="7.01551">
        <ele>871.47216796875</ele>
        <time>2013-12-09T16:47:02Z</time>
      </trkpt>
      <trkpt lat="43.71925" lon="7.01555">
        <ele>870.35681152344</ele>
        <time>2013-12-09T16:47:03Z</time>
      </trkpt>
      <trkpt lat="43.71928" lon="7.01574">
        <ele>866.70666503906</ele>
        <time>2013-12-09T16:47:06Z</time>
      </trkpt>
      <trkpt lat="43.71933" lon="7.01599">
        <ele>861.95178222656</ele>
        <time>2013-12-09T16:47:10Z</time>
      </trkpt>
      <trkpt lat="43.71933" lon="7.01606">
        <ele>860.83319091797</ele>
        <time>2013-12-09T16:47:11Z</time>
      </trkpt>
      <trkpt lat="43.71933" lon="7.01641">
        <ele>857.89910888672</ele>
        <time>2013-12-09T16:47:16Z</time>
      </trkpt>
      <trkpt lat="43.71932" lon="7.01669">
        <ele>856.32238769531</ele>
        <time>2013-12-09T16:47:21Z</time>
      </trkpt>
      <trkpt lat="43.7193" lon="7.01674">
        <ele>855.70953369141</ele>
        <time>2013-12-09T16:47:22Z</time>
      </trkpt>
      <trkpt lat="43.71922" lon="7.01677">
        <ele>855.06921386719</ele>
        <time>2013-12-09T16:47:25Z</time>
      </trkpt>
      <trkpt lat="43.7191" lon="7.01679">
        <ele>853.91802978516</ele>
        <time>2013-12-09T16:47:30Z</time>
      </trkpt>
      <trkpt lat="43.71907" lon="7.01689">
        <ele>852.53784179688</ele>
        <time>2013-12-09T16:47:34Z</time>
      </trkpt>
      <trkpt lat="43.71912" lon="7.01713">
        <ele>850.47790527344</ele>
        <time>2013-12-09T16:47:39Z</time>
      </trkpt>
      <trkpt lat="43.71913" lon="7.01718">
        <ele>850.06079101562</ele>
        <time>2013-12-09T16:47:40Z</time>
      </trkpt>
      <trkpt lat="43.71922" lon="7.0174">
        <ele>849.26623535156</ele>
        <time>2013-12-09T16:47:44Z</time>
      </trkpt>
      <trkpt lat="43.71926" lon="7.01752">
        <ele>848.83093261719</ele>
        <time>2013-12-09T16:47:46Z</time>
      </trkpt>
      <trkpt lat="43.71925" lon="7.01767">
        <ele>847.11083984375</ele>
        <time>2013-12-09T16:47:48Z</time>
      </trkpt>
      <trkpt lat="43.7192" lon="7.0178">
        <ele>845.14739990234</ele>
        <time>2013-12-09T16:47:50Z</time>
      </trkpt>
      <trkpt lat="43.7191" lon="7.01806">
        <ele>841.32202148438</ele>
        <time>2013-12-09T16:47:54Z</time>
      </trkpt>
      <trkpt lat="43.71905" lon="7.01816">
        <ele>839.97961425781</ele>
        <time>2013-12-09T16:47:56Z</time>
      </trkpt>
      <trkpt lat="43.71898" lon="7.01823">
        <ele>838.69903564453</ele>
        <time>2013-12-09T16:47:58Z</time>
      </trkpt>
      <trkpt lat="43.71889" lon="7.01822">
        <ele>837.78503417969</ele>
        <time>2013-12-09T16:48:01Z</time>
      </trkpt>
      <trkpt lat="43.71881" lon="7.01824">
        <ele>835.53875732422</ele>
        <time>2013-12-09T16:48:05Z</time>
      </trkpt>
      <trkpt lat="43.71873" lon="7.01835">
        <ele>832.78540039062</ele>
        <time>2013-12-09T16:48:09Z</time>
      </trkpt>
      <trkpt lat="43.71869" lon="7.01838">
        <ele>831.64373779297</ele>
        <time>2013-12-09T16:48:10Z</time>
      </trkpt>
      <trkpt lat="43.71854" lon="7.0186">
        <ele>827.1103515625</ele>
        <time>2013-12-09T16:48:14Z</time>
      </trkpt>
      <trkpt lat="43.71842" lon="7.01896">
        <ele>825.75695800781</ele>
        <time>2013-12-09T16:48:19Z</time>
      </trkpt>
      <trkpt lat="43.71834" lon="7.01935">
        <ele>827.40148925781</ele>
        <time>2013-12-09T16:48:25Z</time>
      </trkpt>
      <trkpt lat="43.71825" lon="7.01971">
        <ele>827.2578125</ele>
        <time>2013-12-09T16:48:32Z</time>
      </trkpt>
      <trkpt lat="43.71817" lon="7.01998">
        <ele>827.23376464844</ele>
        <time>2013-12-09T16:48:39Z</time>
      </trkpt>
      <trkpt lat="43.71815" lon="7.02012">
        <ele>827.92150878906</ele>
        <time>2013-12-09T16:48:44Z</time>
      </trkpt>
      <trkpt lat="43.71811" lon="7.02036">
        <ele>828.154296875</ele>
        <time>2013-12-09T16:48:52Z</time>
      </trkpt>
      <trkpt lat="43.71807" lon="7.02057">
        <ele>828.43920898438</ele>
        <time>2013-12-09T16:49:00Z</time>
      </trkpt>
      <trkpt lat="43.71804" lon="7.02075">
        <ele>829.18023681641</ele>
        <time>2013-12-09T16:49:07Z</time>
      </trkpt>
      <trkpt lat="43.71803" lon="7.02098">
        <ele>831.099609375</ele>
        <time>2013-12-09T16:49:15Z</time>
      </trkpt>
      <trkpt lat="43.71802" lon="7.02122">
        <ele>833.06475830078</ele>
        <time>2013-12-09T16:49:21Z</time>
      </trkpt>
      <trkpt lat="43.71803" lon="7.02155">
        <ele>835.57788085938</ele>
        <time>2013-12-09T16:49:28Z</time>
      </trkpt>
      <trkpt lat="43.71805" lon="7.02192">
        <ele>839.70068359375</ele>
        <time>2013-12-09T16:49:36Z</time>
      </trkpt>
      <trkpt lat="43.71805" lon="7.02226">
        <ele>839.92126464844</ele>
        <time>2013-12-09T16:49:44Z</time>
      </trkpt>
      <trkpt lat="43.71806" lon="7.02255">
        <ele>840.07952880859</ele>
        <time>2013-12-09T16:49:50Z</time>
      </trkpt>
      <trkpt lat="43.71806" lon="7.02293">
        <ele>839.43896484375</ele>
        <time>2013-12-09T16:49:58Z</time>
      </trkpt>
      <trkpt lat="43.71806" lon="7.02335">
        <ele>836.998046875</ele>
        <time>2013-12-09T16:50:07Z</time>
      </trkpt>
      <trkpt lat="43.7181" lon="7.02377">
        <ele>835.66162109375</ele>
        <time>2013-12-09T16:50:16Z</time>
      </trkpt>
      <trkpt lat="43.71813" lon="7.02416">
        <ele>835.58575439453</ele>
        <time>2013-12-09T16:50:24Z</time>
      </trkpt>
      <trkpt lat="43.71813" lon="7.02454">
        <ele>836.63604736328</ele>
        <time>2013-12-09T16:50:32Z</time>
      </trkpt>
      <trkpt lat="43.71808" lon="7.02494">
        <ele>837.25671386719</ele>
        <time>2013-12-09T16:50:40Z</time>
      </trkpt>
      <trkpt lat="43.71798" lon="7.02534">
        <ele>837.16986083984</ele>
        <time>2013-12-09T16:50:47Z</time>
      </trkpt>
      <trkpt lat="43.7179" lon="7.02572">
        <ele>838.42541503906</ele>
        <time>2013-12-09T16:50:55Z</time>
      </trkpt>
      <trkpt lat="43.71778" lon="7.02596">
        <ele>838.49334716797</ele>
        <time>2013-12-09T16:51:01Z</time>
      </trkpt>
      <trkpt lat="43.71761" lon="7.02613">
        <ele>839.16448974609</ele>
        <time>2013-12-09T16:51:07Z</time>
      </trkpt>
      <trkpt lat="43.71733" lon="7.02628">
        <ele>839.04913330078</ele>
        <time>2013-12-09T16:51:15Z</time>
      </trkpt>
      <trkpt lat="43.71707" lon="7.02635">
        <ele>836.638671875</ele>
        <time>2013-12-09T16:51:22Z</time>
      </trkpt>
      <trkpt lat="43.71689" lon="7.02646">
        <ele>835.15686035156</ele>
        <time>2013-12-09T16:51:28Z</time>
      </trkpt>
      <trkpt lat="43.71677" lon="7.02662">
        <ele>834.77850341797</ele>
        <time>2013-12-09T16:51:35Z</time>
      </trkpt>
      <trkpt lat="43.71672" lon="7.02687">
        <ele>836.22406005859</ele>
        <time>2013-12-09T16:51:42Z</time>
      </trkpt>
      <trkpt lat="43.71673" lon="7.02723">
        <ele>835.56512451172</ele>
        <time>2013-12-09T16:51:51Z</time>
      </trkpt>
      <trkpt lat="43.71683" lon="7.02744">
        <ele>836.75079345703</ele>
        <time>2013-12-09T16:51:57Z</time>
      </trkpt>
      <trkpt lat="43.71704" lon="7.02772">
        <ele>839.17895507812</ele>
        <time>2013-12-09T16:52:07Z</time>
      </trkpt>
      <trkpt lat="43.71721" lon="7.02793">
        <ele>839.61358642578</ele>
        <time>2013-12-09T16:52:15Z</time>
      </trkpt>
      <trkpt lat="43.71738" lon="7.02816">
        <ele>839.21295166016</ele>
        <time>2013-12-09T16:52:22Z</time>
      </trkpt>
      <trkpt lat="43.71754" lon="7.02838">
        <ele>839.4716796875</ele>
        <time>2013-12-09T16:52:29Z</time>
      </trkpt>
      <trkpt lat="43.71771" lon="7.02864">
        <ele>837.86022949219</ele>
        <time>2013-12-09T16:52:36Z</time>
      </trkpt>
      <trkpt lat="43.71791" lon="7.02894">
        <ele>836.33142089844</ele>
        <time>2013-12-09T16:52:44Z</time>
      </trkpt>
      <trkpt lat="43.71809" lon="7.0292">
        <ele>837.97076416016</ele>
        <time>2013-12-09T16:52:51Z</time>
      </trkpt>
      <trkpt lat="43.7183" lon="7.02949">
        <ele>837.16949462891</ele>
        <time>2013-12-09T16:52:58Z</time>
      </trkpt>
      <trkpt lat="43.71851" lon="7.02975">
        <ele>835.56469726562</ele>
        <time>2013-12-09T16:53:03Z</time>
      </trkpt>
      <trkpt lat="43.71872" lon="7.03004">
        <ele>835.20654296875</ele>
        <time>2013-12-09T16:53:08Z</time>
      </trkpt>
      <trkpt lat="43.71888" lon="7.03037">
        <ele>833.06353759766</ele>
        <time>2013-12-09T16:53:13Z</time>
      </trkpt>
      <trkpt lat="43.71908" lon="7.0308">
        <ele>831.97979736328</ele>
        <time>2013-12-09T16:53:19Z</time>
      </trkpt>
      <trkpt lat="43.71917" lon="7.03122">
        <ele>833.91552734375</ele>
        <time>2013-12-09T16:53:24Z</time>
      </trkpt>
      <trkpt lat="43.7192" lon="7.03157">
        <ele>832.27478027344</ele>
        <time>2013-12-09T16:53:29Z</time>
      </trkpt>
      <trkpt lat="43.71919" lon="7.03168">
        <ele>831.65881347656</ele>
        <time>2013-12-09T16:53:31Z</time>
      </trkpt>
      <trkpt lat="43.71918" lon="7.03193">
        <ele>828.63220214844</ele>
        <time>2013-12-09T16:53:35Z</time>
      </trkpt>
      <trkpt lat="43.71918" lon="7.032">
        <ele>828.25445556641</ele>
        <time>2013-12-09T16:53:36Z</time>
      </trkpt>
      <trkpt lat="43.7192" lon="7.03212">
        <ele>828.52349853516</ele>
        <time>2013-12-09T16:53:38Z</time>
      </trkpt>
      <trkpt lat="43.71923" lon="7.03223">
        <ele>829.07720947266</ele>
        <time>2013-12-09T16:53:40Z</time>
      </trkpt>
      <trkpt lat="43.71926" lon="7.03233">
        <ele>828.92230224609</ele>
        <time>2013-12-09T16:53:42Z</time>
      </trkpt>
      <trkpt lat="43.71933" lon="7.03244">
        <ele>830.15472412109</ele>
        <time>2013-12-09T16:53:45Z</time>
      </trkpt>
      <trkpt lat="43.71936" lon="7.03247">
        <ele>830.62725830078</ele>
        <time>2013-12-09T16:53:46Z</time>
      </trkpt>
      <trkpt lat="43.71954" lon="7.03267">
        <ele>834.02288818359</ele>
        <time>2013-12-09T16:53:53Z</time>
      </trkpt>
      <trkpt lat="43.71971" lon="7.03292">
        <ele>837.529296875</ele>
        <time>2013-12-09T16:54:00Z</time>
      </trkpt>
      <trkpt lat="43.71988" lon="7.03325">
        <ele>835.81030273438</ele>
        <time>2013-12-09T16:54:07Z</time>
      </trkpt>
      <trkpt lat="43.72005" lon="7.03366">
        <ele>829.32885742188</ele>
        <time>2013-12-09T16:54:13Z</time>
      </trkpt>
      <trkpt lat="43.72019" lon="7.03388">
        <ele>829.26440429688</ele>
        <time>2013-12-09T16:54:17Z</time>
      </trkpt>
      <trkpt lat="43.72021" lon="7.03394">
        <ele>828.73468017578</ele>
        <time>2013-12-09T16:54:18Z</time>
      </trkpt>
      <trkpt lat="43.72034" lon="7.03425">
        <ele>825.0166015625</ele>
        <time>2013-12-09T16:54:23Z</time>
      </trkpt>
      <trkpt lat="43.72036" lon="7.03435">
        <ele>823.33026123047</ele>
        <time>2013-12-09T16:54:25Z</time>
      </trkpt>
      <trkpt lat="43.72037" lon="7.03448">
        <ele>821.03692626953</ele>
        <time>2013-12-09T16:54:27Z</time>
      </trkpt>
      <trkpt lat="43.72037" lon="7.03463">
        <ele>819.05249023438</ele>
        <time>2013-12-09T16:54:29Z</time>
      </trkpt>
      <trkpt lat="43.72038" lon="7.03484">
        <ele>815.81677246094</ele>
        <time>2013-12-09T16:54:32Z</time>
      </trkpt>
      <trkpt lat="43.72041" lon="7.03495">
        <ele>814.92291259766</ele>
        <time>2013-12-09T16:54:34Z</time>
      </trkpt>
      <trkpt lat="43.72055" lon="7.03518">
        <ele>816.56427001953</ele>
        <time>2013-12-09T16:54:39Z</time>
      </trkpt>
      <trkpt lat="43.72058" lon="7.03521">
        <ele>816.87377929688</ele>
        <time>2013-12-09T16:54:40Z</time>
      </trkpt>
      <trkpt lat="43.72064" lon="7.03527">
        <ele>817.31060791016</ele>
        <time>2013-12-09T16:54:43Z</time>
      </trkpt>
      <trkpt lat="43.72065" lon="7.03528">
        <ele>817.18267822266</ele>
        <time>2013-12-09T16:54:47Z</time>
      </trkpt>
      <trkpt lat="43.72065" lon="7.03531">
        <ele>816.68829345703</ele>
        <time>2013-12-09T16:54:52Z</time>
      </trkpt>
      <trkpt lat="43.72062" lon="7.03531">
        <ele>815.72357177734</ele>
        <time>2013-12-09T16:54:57Z</time>
      </trkpt>
      <trkpt lat="43.72061" lon="7.03531">
        <ele>815.76135253906</ele>
        <time>2013-12-09T16:55:12Z</time>
      </trkpt>
      <trkpt lat="43.72056" lon="7.03528">
        <ele>815.01629638672</ele>
        <time>2013-12-09T16:55:21Z</time>
      </trkpt>
      <trkpt lat="43.72056" lon="7.03528">
        <ele>815.08837890625</ele>
        <time>2013-12-09T16:55:27Z</time>
      </trkpt>
      <trkpt lat="43.72049" lon="7.03524">
        <ele>812.84826660156</ele>
        <time>2013-12-09T16:55:38Z</time>
      </trkpt>
      <trkpt lat="43.72029" lon="7.03512">
        <ele>805.92395019531</ele>
        <time>2013-12-09T16:55:45Z</time>
      </trkpt>
      <trkpt lat="43.72016" lon="7.03499">
        <ele>803.52325439453</ele>
        <time>2013-12-09T16:55:50Z</time>
      </trkpt>
      <trkpt lat="43.72012" lon="7.03485">
        <ele>804.73522949219</ele>
        <time>2013-12-09T16:55:53Z</time>
      </trkpt>
      <trkpt lat="43.72012" lon="7.03482">
        <ele>805.58666992188</ele>
        <time>2013-12-09T16:55:54Z</time>
      </trkpt>
      <trkpt lat="43.72014" lon="7.03464">
        <ele>809.79071044922</ele>
        <time>2013-12-09T16:55:58Z</time>
      </trkpt>
      <trkpt lat="43.72009" lon="7.03447">
        <ele>810.8291015625</ele>
        <time>2013-12-09T16:56:02Z</time>
      </trkpt>
      <trkpt lat="43.72007" lon="7.03442">
        <ele>811.26885986328</ele>
        <time>2013-12-09T16:56:03Z</time>
      </trkpt>
      <trkpt lat="43.72002" lon="7.03429">
        <ele>812.42932128906</ele>
        <time>2013-12-09T16:56:06Z</time>
      </trkpt>
      <trkpt lat="43.71986" lon="7.03408">
        <ele>813.74871826172</ele>
        <time>2013-12-09T16:56:11Z</time>
      </trkpt>
      <trkpt lat="43.71972" lon="7.03398">
        <ele>813.80511474609</ele>
        <time>2013-12-09T16:56:15Z</time>
      </trkpt>
      <trkpt lat="43.71964" lon="7.03392">
        <ele>813.2275390625</ele>
        <time>2013-12-09T16:56:17Z</time>
      </trkpt>
      <trkpt lat="43.71951" lon="7.03384">
        <ele>811.13922119141</ele>
        <time>2013-12-09T16:56:20Z</time>
      </trkpt>
      <trkpt lat="43.71947" lon="7.03381">
        <ele>810.22552490234</ele>
        <time>2013-12-09T16:56:21Z</time>
      </trkpt>
      <trkpt lat="43.71934" lon="7.03375">
        <ele>808.32537841797</ele>
        <time>2013-12-09T16:56:24Z</time>
      </trkpt>
      <trkpt lat="43.71925" lon="7.03375">
        <ele>806.62152099609</ele>
        <time>2013-12-09T16:56:26Z</time>
      </trkpt>
      <trkpt lat="43.71916" lon="7.03378">
        <ele>804.46893310547</ele>
        <time>2013-12-09T16:56:28Z</time>
      </trkpt>
      <trkpt lat="43.71908" lon="7.03381">
        <ele>802.42974853516</ele>
        <time>2013-12-09T16:56:30Z</time>
      </trkpt>
      <trkpt lat="43.71904" lon="7.03382">
        <ele>801.46276855469</ele>
        <time>2013-12-09T16:56:31Z</time>
      </trkpt>
      <trkpt lat="43.719" lon="7.03384">
        <ele>800.49987792969</ele>
        <time>2013-12-09T16:56:32Z</time>
      </trkpt>
      <trkpt lat="43.71886" lon="7.03391">
        <ele>796.26092529297</ele>
        <time>2013-12-09T16:56:36Z</time>
      </trkpt>
      <trkpt lat="43.7187" lon="7.03394">
        <ele>788.52520751953</ele>
        <time>2013-12-09T16:56:41Z</time>
      </trkpt>
      <trkpt lat="43.71866" lon="7.03392">
        <ele>787.58825683594</ele>
        <time>2013-12-09T16:56:42Z</time>
      </trkpt>
      <trkpt lat="43.71861" lon="7.03383">
        <ele>786.64660644531</ele>
        <time>2013-12-09T16:56:44Z</time>
      </trkpt>
      <trkpt lat="43.71856" lon="7.03373">
        <ele>786.74151611328</ele>
        <time>2013-12-09T16:56:46Z</time>
      </trkpt>
      <trkpt lat="43.71848" lon="7.03356">
        <ele>786.36071777344</ele>
        <time>2013-12-09T16:56:49Z</time>
      </trkpt>
      <trkpt lat="43.7184" lon="7.03341">
        <ele>785.61651611328</ele>
        <time>2013-12-09T16:56:52Z</time>
      </trkpt>
      <trkpt lat="43.7183" lon="7.03328">
        <ele>783.60540771484</ele>
        <time>2013-12-09T16:56:55Z</time>
      </trkpt>
      <trkpt lat="43.71821" lon="7.03311">
        <ele>783.05444335938</ele>
        <time>2013-12-09T16:56:59Z</time>
      </trkpt>
      <trkpt lat="43.7182" lon="7.03306">
        <ele>783.42687988281</ele>
        <time>2013-12-09T16:57:00Z</time>
      </trkpt>
      <trkpt lat="43.71817" lon="7.0329">
        <ele>783.23645019531</ele>
        <time>2013-12-09T16:57:03Z</time>
      </trkpt>
      <trkpt lat="43.71816" lon="7.03285">
        <ele>783.16149902344</ele>
        <time>2013-12-09T16:57:04Z</time>
      </trkpt>
      <trkpt lat="43.71812" lon="7.03264">
        <ele>783.55773925781</ele>
        <time>2013-12-09T16:57:08Z</time>
      </trkpt>
      <trkpt lat="43.71807" lon="7.03246">
        <ele>784.00964355469</ele>
        <time>2013-12-09T16:57:12Z</time>
      </trkpt>
      <trkpt lat="43.71803" lon="7.03231">
        <ele>783.82568359375</ele>
        <time>2013-12-09T16:57:16Z</time>
      </trkpt>
      <trkpt lat="43.71795" lon="7.03202">
        <ele>782.01696777344</ele>
        <time>2013-12-09T16:57:22Z</time>
      </trkpt>
      <trkpt lat="43.71788" lon="7.03187">
        <ele>780.33050537109</ele>
        <time>2013-12-09T16:57:27Z</time>
      </trkpt>
      <trkpt lat="43.71785" lon="7.03188">
        <ele>778.55938720703</ele>
        <time>2013-12-09T16:57:31Z</time>
      </trkpt>
      <trkpt lat="43.71785" lon="7.03187">
        <ele>778.59033203125</ele>
        <time>2013-12-09T16:57:42Z</time>
      </trkpt>
      <trkpt lat="43.71784" lon="7.03188">
        <ele>778.14154052734</ele>
        <time>2013-12-09T16:58:06Z</time>
      </trkpt>
      <trkpt lat="43.71782" lon="7.0319">
        <ele>776.76922607422</ele>
        <time>2013-12-09T16:58:19Z</time>
      </trkpt>
      <trkpt lat="43.7178" lon="7.03192">
        <ele>775.603515625</ele>
        <time>2013-12-09T16:58:24Z</time>
      </trkpt>
      <trkpt lat="43.71776" lon="7.03194">
        <ele>773.48413085938</ele>
        <time>2013-12-09T16:58:30Z</time>
      </trkpt>
      <trkpt lat="43.71773" lon="7.03196">
        <ele>772.42828369141</ele>
        <time>2013-12-09T16:58:35Z</time>
      </trkpt>
      <trkpt lat="43.71769" lon="7.03198">
        <ele>770.80200195312</ele>
        <time>2013-12-09T16:58:43Z</time>
      </trkpt>
      <trkpt lat="43.71762" lon="7.03196">
        <ele>769.31359863281</ele>
        <time>2013-12-09T16:58:50Z</time>
      </trkpt>
      <trkpt lat="43.71755" lon="7.03193">
        <ele>767.89703369141</ele>
        <time>2013-12-09T16:58:54Z</time>
      </trkpt>
      <trkpt lat="43.71753" lon="7.03192">
        <ele>767.74725341797</ele>
        <time>2013-12-09T16:58:57Z</time>
      </trkpt>
      <trkpt lat="43.71752" lon="7.0319">
        <ele>767.89703369141</ele>
        <time>2013-12-09T16:58:58Z</time>
      </trkpt>
      <trkpt lat="43.71743" lon="7.03178">
        <ele>767.73510742188</ele>
        <time>2013-12-09T16:59:03Z</time>
      </trkpt>
      <trkpt lat="43.71733" lon="7.03167">
        <ele>768.06683349609</ele>
        <time>2013-12-09T16:59:08Z</time>
      </trkpt>
      <trkpt lat="43.71719" lon="7.03164">
        <ele>763.06268310547</ele>
        <time>2013-12-09T16:59:13Z</time>
      </trkpt>
      <trkpt lat="43.71706" lon="7.03158">
        <ele>758.15386962891</ele>
        <time>2013-12-09T16:59:18Z</time>
      </trkpt>
      <trkpt lat="43.71692" lon="7.03148">
        <ele>755.6630859375</ele>
        <time>2013-12-09T16:59:23Z</time>
      </trkpt>
      <trkpt lat="43.71676" lon="7.03124">
        <ele>758.19055175781</ele>
        <time>2013-12-09T16:59:29Z</time>
      </trkpt>
      <trkpt lat="43.71666" lon="7.03104">
        <ele>762.02233886719</ele>
        <time>2013-12-09T16:59:34Z</time>
      </trkpt>
      <trkpt lat="43.71661" lon="7.03092">
        <ele>763.60980224609</ele>
        <time>2013-12-09T16:59:38Z</time>
      </trkpt>
      <trkpt lat="43.71653" lon="7.03084">
        <ele>763.8916015625</ele>
        <time>2013-12-09T16:59:41Z</time>
      </trkpt>
      <trkpt lat="43.71647" lon="7.03076">
        <ele>763.83184814453</ele>
        <time>2013-12-09T16:59:43Z</time>
      </trkpt>
      <trkpt lat="43.71631" lon="7.03056">
        <ele>765.30493164062</ele>
        <time>2013-12-09T16:59:49Z</time>
      </trkpt>
      <trkpt lat="43.71618" lon="7.03055">
        <ele>764.54302978516</ele>
        <time>2013-12-09T16:59:54Z</time>
      </trkpt>
      <trkpt lat="43.71604" lon="7.03056">
        <ele>762.77734375</ele>
        <time>2013-12-09T16:59:59Z</time>
      </trkpt>
      <trkpt lat="43.71589" lon="7.03057">
        <ele>760.24468994141</ele>
        <time>2013-12-09T17:00:03Z</time>
      </trkpt>
      <trkpt lat="43.7157" lon="7.03051">
        <ele>759.66839599609</ele>
        <time>2013-12-09T17:00:08Z</time>
      </trkpt>
      <trkpt lat="43.71551" lon="7.03041">
        <ele>761.65045166016</ele>
        <time>2013-12-09T17:00:13Z</time>
      </trkpt>
      <trkpt lat="43.71531" lon="7.0303">
        <ele>765.11511230469</ele>
        <time>2013-12-09T17:00:20Z</time>
      </trkpt>
      <trkpt lat="43.71519" lon="7.03036">
        <ele>760.44409179688</ele>
        <time>2013-12-09T17:00:25Z</time>
      </trkpt>
      <trkpt lat="43.715" lon="7.03042">
        <ele>752.26983642578</ele>
        <time>2013-12-09T17:00:31Z</time>
      </trkpt>
      <trkpt lat="43.71483" lon="7.03042">
        <ele>748.19952392578</ele>
        <time>2013-12-09T17:00:36Z</time>
      </trkpt>
      <trkpt lat="43.71469" lon="7.03042">
        <ele>745.57470703125</ele>
        <time>2013-12-09T17:00:41Z</time>
      </trkpt>
      <trkpt lat="43.7146" lon="7.03049">
        <ele>741.32165527344</ele>
        <time>2013-12-09T17:00:45Z</time>
      </trkpt>
      <trkpt lat="43.71444" lon="7.03061">
        <ele>735.42193603516</ele>
        <time>2013-12-09T17:00:51Z</time>
      </trkpt>
      <trkpt lat="43.71436" lon="7.03065">
        <ele>733.58349609375</ele>
        <time>2013-12-09T17:00:55Z</time>
      </trkpt>
      <trkpt lat="43.71435" lon="7.03067">
        <ele>733.04443359375</ele>
        <time>2013-12-09T17:00:57Z</time>
      </trkpt>
      <trkpt lat="43.71434" lon="7.03067">
        <ele>732.96203613281</ele>
        <time>2013-12-09T17:00:59Z</time>
      </trkpt>
      <trkpt lat="43.71429" lon="7.03069">
        <ele>732.00073242188</ele>
        <time>2013-12-09T17:02:02Z</time>
      </trkpt>
      <trkpt lat="43.71428" lon="7.03067">
        <ele>732.34405517578</ele>
        <time>2013-12-09T17:02:25Z</time>
      </trkpt>
      <trkpt lat="43.71431" lon="7.03073">
        <ele>731.24371337891</ele>
        <time>2013-12-09T17:02:40Z</time>
      </trkpt>
      <trkpt lat="43.7144" lon="7.03072">
        <ele>732.50372314453</ele>
        <time>2013-12-09T17:02:44Z</time>
      </trkpt>
      <trkpt lat="43.71453" lon="7.0307">
        <ele>734.04266357422</ele>
        <time>2013-12-09T17:02:48Z</time>
      </trkpt>
      <trkpt lat="43.71468" lon="7.03076">
        <ele>733.72637939453</ele>
        <time>2013-12-09T17:02:53Z</time>
      </trkpt>
      <trkpt lat="43.71477" lon="7.0308">
        <ele>733.70550537109</ele>
        <time>2013-12-09T17:02:57Z</time>
      </trkpt>
      <trkpt lat="43.71489" lon="7.03084">
        <ele>734.23449707031</ele>
        <time>2013-12-09T17:03:02Z</time>
      </trkpt>
      <trkpt lat="43.71497" lon="7.03088">
        <ele>733.541015625</ele>
        <time>2013-12-09T17:03:05Z</time>
      </trkpt>
      <trkpt lat="43.71501" lon="7.03088">
        <ele>734.09033203125</ele>
        <time>2013-12-09T17:03:08Z</time>
      </trkpt>
      <trkpt lat="43.71504" lon="7.03088">
        <ele>734.73571777344</ele>
        <time>2013-12-09T17:03:10Z</time>
      </trkpt>
      <trkpt lat="43.7151" lon="7.03089">
        <ele>734.83874511719</ele>
        <time>2013-12-09T17:03:12Z</time>
      </trkpt>
      <trkpt lat="43.71513" lon="7.03091">
        <ele>734.77697753906</ele>
        <time>2013-12-09T17:03:13Z</time>
      </trkpt>
      <trkpt lat="43.7153" lon="7.03099">
        <ele>733.65631103516</ele>
        <time>2013-12-09T17:03:18Z</time>
      </trkpt>
      <trkpt lat="43.71531" lon="7.03103">
        <ele>732.58630371094</ele>
        <time>2013-12-09T17:03:19Z</time>
      </trkpt>
      <trkpt lat="43.71536" lon="7.03109">
        <ele>730.92059326172</ele>
        <time>2013-12-09T17:03:21Z</time>
      </trkpt>
      <trkpt lat="43.71542" lon="7.03114">
        <ele>730.16162109375</ele>
        <time>2013-12-09T17:03:23Z</time>
      </trkpt>
      <trkpt lat="43.7155" lon="7.03118">
        <ele>729.94293212891</ele>
        <time>2013-12-09T17:03:26Z</time>
      </trkpt>
      <trkpt lat="43.71561" lon="7.03128">
        <ele>726.96807861328</ele>
        <time>2013-12-09T17:03:30Z</time>
      </trkpt>
      <trkpt lat="43.71581" lon="7.03131">
        <ele>729.47552490234</ele>
        <time>2013-12-09T17:03:35Z</time>
      </trkpt>
      <trkpt lat="43.71594" lon="7.03136">
        <ele>731.20062255859</ele>
        <time>2013-12-09T17:03:39Z</time>
      </trkpt>
      <trkpt lat="43.71596" lon="7.03138">
        <ele>730.91247558594</ele>
        <time>2013-12-09T17:03:40Z</time>
      </trkpt>
      <trkpt lat="43.71595" lon="7.03143">
        <ele>729.40246582031</ele>
        <time>2013-12-09T17:03:42Z</time>
      </trkpt>
      <trkpt lat="43.71595" lon="7.03161">
        <ele>725.08856201172</ele>
        <time>2013-12-09T17:03:46Z</time>
      </trkpt>
      <trkpt lat="43.71592" lon="7.03185">
        <ele>716.41754150391</ele>
        <time>2013-12-09T17:03:51Z</time>
      </trkpt>
      <trkpt lat="43.7159" lon="7.03214">
        <ele>707.78259277344</ele>
        <time>2013-12-09T17:03:58Z</time>
      </trkpt>
      <trkpt lat="43.7159" lon="7.03234">
        <ele>701.84930419922</ele>
        <time>2013-12-09T17:04:02Z</time>
      </trkpt>
      <trkpt lat="43.71591" lon="7.03248">
        <ele>697.0126953125</ele>
        <time>2013-12-09T17:04:06Z</time>
      </trkpt>
      <trkpt lat="43.71592" lon="7.03268">
        <ele>690.552734375</ele>
        <time>2013-12-09T17:04:10Z</time>
      </trkpt>
      <trkpt lat="43.71592" lon="7.03296">
        <ele>683.38159179688</ele>
        <time>2013-12-09T17:04:15Z</time>
      </trkpt>
      <trkpt lat="43.71595" lon="7.03317">
        <ele>676.62213134766</ele>
        <time>2013-12-09T17:04:20Z</time>
      </trkpt>
      <trkpt lat="43.71595" lon="7.03327">
        <ele>671.69635009766</ele>
        <time>2013-12-09T17:04:24Z</time>
      </trkpt>
      <trkpt lat="43.71597" lon="7.0333">
        <ele>670.72985839844</ele>
        <time>2013-12-09T17:04:29Z</time>
      </trkpt>
      <trkpt lat="43.71595" lon="7.03333">
        <ele>669.08990478516</ele>
        <time>2013-12-09T17:04:32Z</time>
      </trkpt>
      <trkpt lat="43.71594" lon="7.03333">
        <ele>668.96221923828</ele>
        <time>2013-12-09T17:04:33Z</time>
      </trkpt>
      <trkpt lat="43.71588" lon="7.03329">
        <ele>670.19091796875</ele>
        <time>2013-12-09T17:04:38Z</time>
      </trkpt>
      <trkpt lat="43.71584" lon="7.03323">
        <ele>672.46533203125</ele>
        <time>2013-12-09T17:04:40Z</time>
      </trkpt>
      <trkpt lat="43.7158" lon="7.03316">
        <ele>675.28930664062</ele>
        <time>2013-12-09T17:04:42Z</time>
      </trkpt>
      <trkpt lat="43.71568" lon="7.03294">
        <ele>680.83294677734</ele>
        <time>2013-12-09T17:04:47Z</time>
      </trkpt>
      <trkpt lat="43.7156" lon="7.03277">
        <ele>683.6494140625</ele>
        <time>2013-12-09T17:04:51Z</time>
      </trkpt>
      <trkpt lat="43.71547" lon="7.03258">
        <ele>686.60980224609</ele>
        <time>2013-12-09T17:04:56Z</time>
      </trkpt>
      <trkpt lat="43.71542" lon="7.03251">
        <ele>687.65179443359</ele>
        <time>2013-12-09T17:04:58Z</time>
      </trkpt>
      <trkpt lat="43.7154" lon="7.03249">
        <ele>688.11883544922</ele>
        <time>2013-12-09T17:05:00Z</time>
      </trkpt>
      <trkpt lat="43.71539" lon="7.03254">
        <ele>686.56744384766</ele>
        <time>2013-12-09T17:05:03Z</time>
      </trkpt>
      <trkpt lat="43.71539" lon="7.03257">
        <ele>685.58282470703</ele>
        <time>2013-12-09T17:05:04Z</time>
      </trkpt>
      <trkpt lat="43.71537" lon="7.03273">
        <ele>680.80737304688</ele>
        <time>2013-12-09T17:05:10Z</time>
      </trkpt>
      <trkpt lat="43.71537" lon="7.03278">
        <ele>679.57720947266</ele>
        <time>2013-12-09T17:05:13Z</time>
      </trkpt>
      <trkpt lat="43.71537" lon="7.03282">
        <ele>678.8046875</ele>
        <time>2013-12-09T17:05:15Z</time>
      </trkpt>
      <trkpt lat="43.71538" lon="7.03286">
        <ele>678.09747314453</ele>
        <time>2013-12-09T17:05:17Z</time>
      </trkpt>
      <trkpt lat="43.71539" lon="7.03294">
        <ele>676.61431884766</ele>
        <time>2013-12-09T17:05:20Z</time>
      </trkpt>
      <trkpt lat="43.71536" lon="7.03296">
        <ele>675.59466552734</ele>
        <time>2013-12-09T17:05:23Z</time>
      </trkpt>
      <trkpt lat="43.71534" lon="7.03294">
        <ele>675.78344726562</ele>
        <time>2013-12-09T17:05:24Z</time>
      </trkpt>
      <trkpt lat="43.71525" lon="7.0328">
        <ele>676.70928955078</ele>
        <time>2013-12-09T17:05:28Z</time>
      </trkpt>
      <trkpt lat="43.71513" lon="7.03264">
        <ele>678.19329833984</ele>
        <time>2013-12-09T17:05:33Z</time>
      </trkpt>
      <trkpt lat="43.71513" lon="7.03264">
        <ele>678.26525878906</ele>
        <time>2013-12-09T17:05:37Z</time>
      </trkpt>
      <trkpt lat="43.7151" lon="7.03263">
        <ele>677.69024658203</ele>
        <time>2013-12-09T17:05:42Z</time>
      </trkpt>
      <trkpt lat="43.71509" lon="7.03263">
        <ele>677.46667480469</ele>
        <time>2013-12-09T17:05:43Z</time>
      </trkpt>
      <trkpt lat="43.71506" lon="7.03267">
        <ele>675.43719482422</ele>
        <time>2013-12-09T17:05:47Z</time>
      </trkpt>
      <trkpt lat="43.71506" lon="7.03278">
        <ele>671.82757568359</ele>
        <time>2013-12-09T17:05:52Z</time>
      </trkpt>
      <trkpt lat="43.71504" lon="7.03292">
        <ele>668.19488525391</ele>
        <time>2013-12-09T17:05:57Z</time>
      </trkpt>
      <trkpt lat="43.71502" lon="7.03297">
        <ele>666.34094238281</ele>
        <time>2013-12-09T17:06:02Z</time>
      </trkpt>
      <trkpt lat="43.71497" lon="7.03291">
        <ele>666.42614746094</ele>
        <time>2013-12-09T17:06:07Z</time>
      </trkpt>
      <trkpt lat="43.71498" lon="7.03294">
        <ele>666.05517578125</ele>
        <time>2013-12-09T17:06:09Z</time>
      </trkpt>
      <trkpt lat="43.71498" lon="7.03294">
        <ele>666.17163085938</ele>
        <time>2013-12-09T17:06:10Z</time>
      </trkpt>
      <trkpt lat="43.71498" lon="7.03294">
        <ele>665.87426757812</ele>
        <time>2013-12-09T17:06:21Z</time>
      </trkpt>
      <trkpt lat="43.71497" lon="7.03298">
        <ele>664.90454101562</ele>
        <time>2013-12-09T17:06:44Z</time>
      </trkpt>
      <trkpt lat="43.71496" lon="7.03308">
        <ele>661.54937744141</ele>
        <time>2013-12-09T17:06:48Z</time>
      </trkpt>
      <trkpt lat="43.71498" lon="7.03312">
        <ele>659.05889892578</ele>
        <time>2013-12-09T17:06:50Z</time>
      </trkpt>
      <trkpt lat="43.715" lon="7.03319">
        <ele>656.05493164062</ele>
        <time>2013-12-09T17:06:52Z</time>
      </trkpt>
      <trkpt lat="43.715" lon="7.03325">
        <ele>652.20385742188</ele>
        <time>2013-12-09T17:06:54Z</time>
      </trkpt>
      <trkpt lat="43.71501" lon="7.03333">
        <ele>647.68054199219</ele>
        <time>2013-12-09T17:06:56Z</time>
      </trkpt>
      <trkpt lat="43.71502" lon="7.03351">
        <ele>638.34393310547</ele>
        <time>2013-12-09T17:07:01Z</time>
      </trkpt>
      <trkpt lat="43.71503" lon="7.03365">
        <ele>632.71301269531</ele>
        <time>2013-12-09T17:07:06Z</time>
      </trkpt>
      <trkpt lat="43.71502" lon="7.03381">
        <ele>627.21807861328</ele>
        <time>2013-12-09T17:07:10Z</time>
      </trkpt>
      <trkpt lat="43.71501" lon="7.03397">
        <ele>622.21728515625</ele>
        <time>2013-12-09T17:07:15Z</time>
      </trkpt>
      <trkpt lat="43.71501" lon="7.03401">
        <ele>621.30523681641</ele>
        <time>2013-12-09T17:07:16Z</time>
      </trkpt>
      <trkpt lat="43.71496" lon="7.03411">
        <ele>616.80065917969</ele>
        <time>2013-12-09T17:07:20Z</time>
      </trkpt>
      <trkpt lat="43.71494" lon="7.03418">
        <ele>613.93182373047</ele>
        <time>2013-12-09T17:07:22Z</time>
      </trkpt>
      <trkpt lat="43.71492" lon="7.03428">
        <ele>610.50164794922</ele>
        <time>2013-12-09T17:07:25Z</time>
      </trkpt>
      <trkpt lat="43.71486" lon="7.03444">
        <ele>603.69787597656</ele>
        <time>2013-12-09T17:07:31Z</time>
      </trkpt>
      <trkpt lat="43.71482" lon="7.0346">
        <ele>600.31439208984</ele>
        <time>2013-12-09T17:07:36Z</time>
      </trkpt>
      <trkpt lat="43.71474" lon="7.03479">
        <ele>593.45599365234</ele>
        <time>2013-12-09T17:07:42Z</time>
      </trkpt>
      <trkpt lat="43.71471" lon="7.03495">
        <ele>589.40380859375</ele>
        <time>2013-12-09T17:07:47Z</time>
      </trkpt>
      <trkpt lat="43.71469" lon="7.03505">
        <ele>586.93518066406</ele>
        <time>2013-12-09T17:07:50Z</time>
      </trkpt>
      <trkpt lat="43.71468" lon="7.03509">
        <ele>586.15087890625</ele>
        <time>2013-12-09T17:07:55Z</time>
      </trkpt>
      <trkpt lat="43.71466" lon="7.03525">
        <ele>582.83044433594</ele>
        <time>2013-12-09T17:08:28Z</time>
      </trkpt>
      <trkpt lat="43.71463" lon="7.03547">
        <ele>579.14678955078</ele>
        <time>2013-12-09T17:08:34Z</time>
      </trkpt>
      <trkpt lat="43.71457" lon="7.03572">
        <ele>574.02056884766</ele>
        <time>2013-12-09T17:08:39Z</time>
      </trkpt>
      <trkpt lat="43.71444" lon="7.03596">
        <ele>566.68322753906</ele>
        <time>2013-12-09T17:08:44Z</time>
      </trkpt>
      <trkpt lat="43.71434" lon="7.03615">
        <ele>560.41088867188</ele>
        <time>2013-12-09T17:08:48Z</time>
      </trkpt>
      <trkpt lat="43.71432" lon="7.03619">
        <ele>559.42895507812</ele>
        <time>2013-12-09T17:08:49Z</time>
      </trkpt>
      <trkpt lat="43.71432" lon="7.03621">
        <ele>558.86596679688</ele>
        <time>2013-12-09T17:08:50Z</time>
      </trkpt>
      <trkpt lat="43.7143" lon="7.03624">
        <ele>558.10375976562</ele>
        <time>2013-12-09T17:08:51Z</time>
      </trkpt>
      <trkpt lat="43.71428" lon="7.03628">
        <ele>556.77856445312</ele>
        <time>2013-12-09T17:08:53Z</time>
      </trkpt>
      <trkpt lat="43.71427" lon="7.03633">
        <ele>555.71423339844</ele>
        <time>2013-12-09T17:08:55Z</time>
      </trkpt>
      <trkpt lat="43.71423" lon="7.03639">
        <ele>553.91021728516</ele>
        <time>2013-12-09T17:08:57Z</time>
      </trkpt>
      <trkpt lat="43.71419" lon="7.03649">
        <ele>550.04614257812</ele>
        <time>2013-12-09T17:09:00Z</time>
      </trkpt>
      <trkpt lat="43.71416" lon="7.03657">
        <ele>547.47283935547</ele>
        <time>2013-12-09T17:09:02Z</time>
      </trkpt>
      <trkpt lat="43.71412" lon="7.03663">
        <ele>545.6943359375</ele>
        <time>2013-12-09T17:09:04Z</time>
      </trkpt>
      <trkpt lat="43.71408" lon="7.03671">
        <ele>543.91101074219</ele>
        <time>2013-12-09T17:09:07Z</time>
      </trkpt>
      <trkpt lat="43.71406" lon="7.03675">
        <ele>543.24444580078</ele>
        <time>2013-12-09T17:09:08Z</time>
      </trkpt>
      <trkpt lat="43.71393" lon="7.03694">
        <ele>540.13635253906</ele>
        <time>2013-12-09T17:09:13Z</time>
      </trkpt>
      <trkpt lat="43.71383" lon="7.03702">
        <ele>538.27087402344</ele>
        <time>2013-12-09T17:09:17Z</time>
      </trkpt>
      <trkpt lat="43.71372" lon="7.03719">
        <ele>534.75866699219</ele>
        <time>2013-12-09T17:09:22Z</time>
      </trkpt>
      <trkpt lat="43.71357" lon="7.03737">
        <ele>531.08508300781</ele>
        <time>2013-12-09T17:09:27Z</time>
      </trkpt>
      <trkpt lat="43.71341" lon="7.03757">
        <ele>527.75244140625</ele>
        <time>2013-12-09T17:09:33Z</time>
      </trkpt>
      <trkpt lat="43.71333" lon="7.03769">
        <ele>526.24182128906</ele>
        <time>2013-12-09T17:09:38Z</time>
      </trkpt>
      <trkpt lat="43.71332" lon="7.03771">
        <ele>526.05639648438</ele>
        <time>2013-12-09T17:09:39Z</time>
      </trkpt>
      <trkpt lat="43.71333" lon="7.03772">
        <ele>525.84350585938</ele>
        <time>2013-12-09T17:09:41Z</time>
      </trkpt>
      <trkpt lat="43.71334" lon="7.03772">
        <ele>525.77490234375</ele>
        <time>2013-12-09T17:09:49Z</time>
      </trkpt>
      <trkpt lat="43.7134" lon="7.0377">
        <ele>525.86413574219</ele>
        <time>2013-12-09T17:09:54Z</time>
      </trkpt>
      <trkpt lat="43.71348" lon="7.03769">
        <ele>525.77490234375</ele>
        <time>2013-12-09T17:09:58Z</time>
      </trkpt>
      <trkpt lat="43.71365" lon="7.03769">
        <ele>525.33032226562</ele>
        <time>2013-12-09T17:10:03Z</time>
      </trkpt>
      <trkpt lat="43.71375" lon="7.03766">
        <ele>525.65991210938</ele>
        <time>2013-12-09T17:10:07Z</time>
      </trkpt>
      <trkpt lat="43.71377" lon="7.03768">
        <ele>525.35778808594</ele>
        <time>2013-12-09T17:10:09Z</time>
      </trkpt>
      <trkpt lat="43.71376" lon="7.0377">
        <ele>525.13806152344</ele>
        <time>2013-12-09T17:10:10Z</time>
      </trkpt>
      <trkpt lat="43.71371" lon="7.03776">
        <ele>524.22485351562</ele>
        <time>2013-12-09T17:10:14Z</time>
      </trkpt>
      <trkpt lat="43.71364" lon="7.0379">
        <ele>520.29235839844</ele>
        <time>2013-12-09T17:10:18Z</time>
      </trkpt>
      <trkpt lat="43.71362" lon="7.03793">
        <ele>519.09307861328</ele>
        <time>2013-12-09T17:10:20Z</time>
      </trkpt>
      <trkpt lat="43.71362" lon="7.03794">
        <ele>518.72424316406</ele>
        <time>2013-12-09T17:10:22Z</time>
      </trkpt>
      <trkpt lat="43.71368" lon="7.03793">
        <ele>519.59027099609</ele>
        <time>2013-12-09T17:10:31Z</time>
      </trkpt>
      <trkpt lat="43.71376" lon="7.03791">
        <ele>520.56640625</ele>
        <time>2013-12-09T17:10:34Z</time>
      </trkpt>
      <trkpt lat="43.71393" lon="7.03787">
        <ele>522.29956054688</ele>
        <time>2013-12-09T17:10:38Z</time>
      </trkpt>
      <trkpt lat="43.71402" lon="7.03784">
        <ele>523.69006347656</ele>
        <time>2013-12-09T17:10:41Z</time>
      </trkpt>
      <trkpt lat="43.71408" lon="7.03785">
        <ele>523.94409179688</ele>
        <time>2013-12-09T17:10:43Z</time>
      </trkpt>
      <trkpt lat="43.7142" lon="7.03792">
        <ele>523.82440185547</ele>
        <time>2013-12-09T17:10:47Z</time>
      </trkpt>
      <trkpt lat="43.7142" lon="7.03795">
        <ele>523.171875</ele>
        <time>2013-12-09T17:10:48Z</time>
      </trkpt>
      <trkpt lat="43.71418" lon="7.03799">
        <ele>521.68432617188</ele>
        <time>2013-12-09T17:10:50Z</time>
      </trkpt>
      <trkpt lat="43.71409" lon="7.0381">
        <ele>518.93530273438</ele>
        <time>2013-12-09T17:10:55Z</time>
      </trkpt>
      <trkpt lat="43.71397" lon="7.0383">
        <ele>513.68212890625</ele>
        <time>2013-12-09T17:11:01Z</time>
      </trkpt>
      <trkpt lat="43.71389" lon="7.0385">
        <ele>508.5783996582</ele>
        <time>2013-12-09T17:11:06Z</time>
      </trkpt>
      <trkpt lat="43.71387" lon="7.03858">
        <ele>507.00131225586</ele>
        <time>2013-12-09T17:11:09Z</time>
      </trkpt>
      <trkpt lat="43.71384" lon="7.03859">
        <ele>506.17822265625</ele>
        <time>2013-12-09T17:11:11Z</time>
      </trkpt>
      <trkpt lat="43.71382" lon="7.03861">
        <ele>505.31188964844</ele>
        <time>2013-12-09T17:11:13Z</time>
      </trkpt>
      <trkpt lat="43.7138" lon="7.03867">
        <ele>504.26760864258</ele>
        <time>2013-12-09T17:11:15Z</time>
      </trkpt>
      <trkpt lat="43.71376" lon="7.03889">
        <ele>501.61431884766</ele>
        <time>2013-12-09T17:11:20Z</time>
      </trkpt>
      <trkpt lat="43.71372" lon="7.03902">
        <ele>501.97766113281</ele>
        <time>2013-12-09T17:11:24Z</time>
      </trkpt>
      <trkpt lat="43.71371" lon="7.03904">
        <ele>501.85772705078</ele>
        <time>2013-12-09T17:11:25Z</time>
      </trkpt>
      <trkpt lat="43.71363" lon="7.03912">
        <ele>500.44931030273</ele>
        <time>2013-12-09T17:11:28Z</time>
      </trkpt>
      <trkpt lat="43.71355" lon="7.0393">
        <ele>498.48458862305</ele>
        <time>2013-12-09T17:11:32Z</time>
      </trkpt>
      <trkpt lat="43.71349" lon="7.03955">
        <ele>497.51330566406</ele>
        <time>2013-12-09T17:11:37Z</time>
      </trkpt>
      <trkpt lat="43.71345" lon="7.03979">
        <ele>498.52423095703</ele>
        <time>2013-12-09T17:11:42Z</time>
      </trkpt>
      <trkpt lat="43.71339" lon="7.04004">
        <ele>498.77923583984</ele>
        <time>2013-12-09T17:11:47Z</time>
      </trkpt>
      <trkpt lat="43.71325" lon="7.04029">
        <ele>495.3469543457</ele>
        <time>2013-12-09T17:11:53Z</time>
      </trkpt>
      <trkpt lat="43.71314" lon="7.0406">
        <ele>494.84375</ele>
        <time>2013-12-09T17:11:59Z</time>
      </trkpt>
      <trkpt lat="43.71311" lon="7.04081">
        <ele>495.44454956055</ele>
        <time>2013-12-09T17:12:03Z</time>
      </trkpt>
      <trkpt lat="43.7131" lon="7.04089">
        <ele>496.01443481445</ele>
        <time>2013-12-09T17:12:05Z</time>
      </trkpt>
      <trkpt lat="43.71309" lon="7.04095">
        <ele>496.41934204102</ele>
        <time>2013-12-09T17:12:07Z</time>
      </trkpt>
      <trkpt lat="43.71307" lon="7.04102">
        <ele>496.30780029297</ele>
        <time>2013-12-09T17:12:09Z</time>
      </trkpt>
      <trkpt lat="43.71304" lon="7.0411">
        <ele>495.86148071289</ele>
        <time>2013-12-09T17:12:11Z</time>
      </trkpt>
      <trkpt lat="43.71302" lon="7.0412">
        <ele>495.93896484375</ele>
        <time>2013-12-09T17:12:14Z</time>
      </trkpt>
      <trkpt lat="43.71299" lon="7.04136">
        <ele>495.98025512695</ele>
        <time>2013-12-09T17:12:19Z</time>
      </trkpt>
      <trkpt lat="43.71298" lon="7.0415">
        <ele>496.24002075195</ele>
        <time>2013-12-09T17:12:23Z</time>
      </trkpt>
      <trkpt lat="43.71294" lon="7.04163">
        <ele>494.4875793457</ele>
        <time>2013-12-09T17:12:26Z</time>
      </trkpt>
      <trkpt lat="43.71293" lon="7.04167">
        <ele>494.24606323242</ele>
        <time>2013-12-09T17:12:27Z</time>
      </trkpt>
      <trkpt lat="43.71289" lon="7.04182">
        <ele>492.7819519043</ele>
        <time>2013-12-09T17:12:31Z</time>
      </trkpt>
      <trkpt lat="43.71288" lon="7.04186">
        <ele>492.62780761719</ele>
        <time>2013-12-09T17:12:32Z</time>
      </trkpt>
      <trkpt lat="43.71284" lon="7.04198">
        <ele>491.58114624023</ele>
        <time>2013-12-09T17:12:35Z</time>
      </trkpt>
      <trkpt lat="43.71281" lon="7.04202">
        <ele>490.92901611328</ele>
        <time>2013-12-09T17:12:36Z</time>
      </trkpt>
      <trkpt lat="43.71274" lon="7.04223">
        <ele>489.8782043457</ele>
        <time>2013-12-09T17:12:41Z</time>
      </trkpt>
      <trkpt lat="43.71267" lon="7.04251">
        <ele>488.46722412109</ele>
        <time>2013-12-09T17:12:47Z</time>
      </trkpt>
      <trkpt lat="43.71264" lon="7.04277">
        <ele>489.53149414062</ele>
        <time>2013-12-09T17:12:52Z</time>
      </trkpt>
      <trkpt lat="43.71264" lon="7.04302">
        <ele>490.36663818359</ele>
        <time>2013-12-09T17:12:58Z</time>
      </trkpt>
      <trkpt lat="43.71265" lon="7.04313">
        <ele>490.86968994141</ele>
        <time>2013-12-09T17:13:03Z</time>
      </trkpt>
      <trkpt lat="43.71263" lon="7.04329">
        <ele>490.25170898438</ele>
        <time>2013-12-09T17:13:08Z</time>
      </trkpt>
      <trkpt lat="43.71262" lon="7.04348">
        <ele>489.75732421875</ele>
        <time>2013-12-09T17:13:13Z</time>
      </trkpt>
      <trkpt lat="43.71262" lon="7.04354">
        <ele>489.75732421875</ele>
        <time>2013-12-09T17:13:15Z</time>
      </trkpt>
      <trkpt lat="43.71263" lon="7.04357">
        <ele>490.12811279297</ele>
        <time>2013-12-09T17:13:17Z</time>
      </trkpt>
      <trkpt lat="43.71263" lon="7.04358">
        <ele>490.25170898438</ele>
        <time>2013-12-09T17:13:25Z</time>
      </trkpt>
      <trkpt lat="43.71262" lon="7.04365">
        <ele>490.16223144531</ele>
        <time>2013-12-09T17:15:20Z</time>
      </trkpt>
      <trkpt lat="43.71264" lon="7.04372">
        <ele>490.90209960938</ele>
        <time>2013-12-09T17:15:39Z</time>
      </trkpt>
      <trkpt lat="43.71263" lon="7.04391">
        <ele>491.21252441406</ele>
        <time>2013-12-09T17:15:45Z</time>
      </trkpt>
      <trkpt lat="43.71263" lon="7.04413">
        <ele>490.84759521484</ele>
        <time>2013-12-09T17:15:51Z</time>
      </trkpt>
      <trkpt lat="43.71268" lon="7.04433">
        <ele>491.1164855957</ele>
        <time>2013-12-09T17:15:56Z</time>
      </trkpt>
      <trkpt lat="43.71275" lon="7.04448">
        <ele>491.84149169922</ele>
        <time>2013-12-09T17:15:59Z</time>
      </trkpt>
      <trkpt lat="43.71278" lon="7.0445">
        <ele>492.62600708008</ele>
        <time>2013-12-09T17:16:00Z</time>
      </trkpt>
      <trkpt lat="43.71287" lon="7.04459">
        <ele>494.54214477539</ele>
        <time>2013-12-09T17:16:03Z</time>
      </trkpt>
      <trkpt lat="43.71291" lon="7.04465">
        <ele>495.41387939453</ele>
        <time>2013-12-09T17:16:05Z</time>
      </trkpt>
      <trkpt lat="43.71297" lon="7.04489">
        <ele>496.02713012695</ele>
        <time>2013-12-09T17:16:09Z</time>
      </trkpt>
      <trkpt lat="43.71307" lon="7.0453">
        <ele>494.0842590332</ele>
        <time>2013-12-09T17:16:13Z</time>
      </trkpt>
      <trkpt lat="43.71317" lon="7.04563">
        <ele>493.74060058594</ele>
        <time>2013-12-09T17:16:16Z</time>
      </trkpt>
      <trkpt lat="43.7132" lon="7.04571">
        <ele>493.197265625</ele>
        <time>2013-12-09T17:16:17Z</time>
      </trkpt>
      <trkpt lat="43.71333" lon="7.04614">
        <ele>489.54006958008</ele>
        <time>2013-12-09T17:16:22Z</time>
      </trkpt>
      <trkpt lat="43.71335" lon="7.04649">
        <ele>485.95812988281</ele>
        <time>2013-12-09T17:16:26Z</time>
      </trkpt>
      <trkpt lat="43.71334" lon="7.04659">
        <ele>483.91363525391</ele>
        <time>2013-12-09T17:16:27Z</time>
      </trkpt>
      <trkpt lat="43.71332" lon="7.04684">
        <ele>479.25918579102</ele>
        <time>2013-12-09T17:16:30Z</time>
      </trkpt>
      <trkpt lat="43.71341" lon="7.0471">
        <ele>479.89831542969</ele>
        <time>2013-12-09T17:16:33Z</time>
      </trkpt>
      <trkpt lat="43.71345" lon="7.04717">
        <ele>480.58102416992</ele>
        <time>2013-12-09T17:16:34Z</time>
      </trkpt>
      <trkpt lat="43.71346" lon="7.04723">
        <ele>480.37149047852</ele>
        <time>2013-12-09T17:16:35Z</time>
      </trkpt>
      <trkpt lat="43.71345" lon="7.04731">
        <ele>479.21026611328</ele>
        <time>2013-12-09T17:16:36Z</time>
      </trkpt>
      <trkpt lat="43.71338" lon="7.04757">
        <ele>473.57272338867</ele>
        <time>2013-12-09T17:16:39Z</time>
      </trkpt>
      <trkpt lat="43.71339" lon="7.04787">
        <ele>470.83276367188</ele>
        <time>2013-12-09T17:16:42Z</time>
      </trkpt>
      <trkpt lat="43.71342" lon="7.04797">
        <ele>471.01470947266</ele>
        <time>2013-12-09T17:16:43Z</time>
      </trkpt>
      <trkpt lat="43.71343" lon="7.04807">
        <ele>470.53887939453</ele>
        <time>2013-12-09T17:16:44Z</time>
      </trkpt>
      <trkpt lat="43.71344" lon="7.04818">
        <ele>469.68399047852</ele>
        <time>2013-12-09T17:16:45Z</time>
      </trkpt>
      <trkpt lat="43.71347" lon="7.04831">
        <ele>469.17761230469</ele>
        <time>2013-12-09T17:16:46Z</time>
      </trkpt>
      <trkpt lat="43.71358" lon="7.04854">
        <ele>469.17837524414</ele>
        <time>2013-12-09T17:16:48Z</time>
      </trkpt>
      <trkpt lat="43.71387" lon="7.04899">
        <ele>470.66744995117</ele>
        <time>2013-12-09T17:16:52Z</time>
      </trkpt>
      <trkpt lat="43.71407" lon="7.04919">
        <ele>472.08715820312</ele>
        <time>2013-12-09T17:16:54Z</time>
      </trkpt>
      <trkpt lat="43.71416" lon="7.04927">
        <ele>473.19262695312</ele>
        <time>2013-12-09T17:16:55Z</time>
      </trkpt>
      <trkpt lat="43.71433" lon="7.04946">
        <ele>474.8603515625</ele>
        <time>2013-12-09T17:16:57Z</time>
      </trkpt>
      <trkpt lat="43.7144" lon="7.04957">
        <ele>474.77108764648</ele>
        <time>2013-12-09T17:16:58Z</time>
      </trkpt>
      <trkpt lat="43.71461" lon="7.05005">
        <ele>472.88522338867</ele>
        <time>2013-12-09T17:17:02Z</time>
      </trkpt>
      <trkpt lat="43.71468" lon="7.05024">
        <ele>471.84576416016</ele>
        <time>2013-12-09T17:17:04Z</time>
      </trkpt>
      <trkpt lat="43.71468" lon="7.05036">
        <ele>470.64562988281</ele>
        <time>2013-12-09T17:17:05Z</time>
      </trkpt>
      <trkpt lat="43.71462" lon="7.05066">
        <ele>466.52722167969</ele>
        <time>2013-12-09T17:17:08Z</time>
      </trkpt>
      <trkpt lat="43.71468" lon="7.05082">
        <ele>464.86874389648</ele>
        <time>2013-12-09T17:17:10Z</time>
      </trkpt>
      <trkpt lat="43.71486" lon="7.05106">
        <ele>464.90908813477</ele>
        <time>2013-12-09T17:17:13Z</time>
      </trkpt>
      <trkpt lat="43.71493" lon="7.05114">
        <ele>464.87396240234</ele>
        <time>2013-12-09T17:17:14Z</time>
      </trkpt>
      <trkpt lat="43.71517" lon="7.05144">
        <ele>462.3991394043</ele>
        <time>2013-12-09T17:17:18Z</time>
      </trkpt>
      <trkpt lat="43.71518" lon="7.05164">
        <ele>459.18649291992</ele>
        <time>2013-12-09T17:17:20Z</time>
      </trkpt>
      <trkpt lat="43.71521" lon="7.052">
        <ele>454.90103149414</ele>
        <time>2013-12-09T17:17:23Z</time>
      </trkpt>
      <trkpt lat="43.71535" lon="7.05232">
        <ele>450.56491088867</ele>
        <time>2013-12-09T17:17:26Z</time>
      </trkpt>
      <trkpt lat="43.71551" lon="7.05249">
        <ele>447.31781005859</ele>
        <time>2013-12-09T17:17:28Z</time>
      </trkpt>
      <trkpt lat="43.71558" lon="7.05258">
        <ele>446.14233398438</ele>
        <time>2013-12-09T17:17:29Z</time>
      </trkpt>
      <trkpt lat="43.7157" lon="7.05277">
        <ele>443.5393371582</ele>
        <time>2013-12-09T17:17:31Z</time>
      </trkpt>
      <trkpt lat="43.71574" lon="7.05285">
        <ele>441.77185058594</ele>
        <time>2013-12-09T17:17:32Z</time>
      </trkpt>
      <trkpt lat="43.7159" lon="7.05304">
        <ele>437.35601806641</ele>
        <time>2013-12-09T17:17:35Z</time>
      </trkpt>
      <trkpt lat="43.71594" lon="7.05308">
        <ele>436.71966552734</ele>
        <time>2013-12-09T17:17:36Z</time>
      </trkpt>
      <trkpt lat="43.71597" lon="7.05312">
        <ele>436.29223632812</ele>
        <time>2013-12-09T17:17:38Z</time>
      </trkpt>
      <trkpt lat="43.71597" lon="7.05313">
        <ele>436.24588012695</ele>
        <time>2013-12-09T17:17:42Z</time>
      </trkpt>
      <trkpt lat="43.71599" lon="7.05313">
        <ele>436.20983886719</ele>
        <time>2013-12-09T17:17:45Z</time>
      </trkpt>
      <trkpt lat="43.71599" lon="7.05311">
        <ele>436.38491821289</ele>
        <time>2013-12-09T17:17:46Z</time>
      </trkpt>
      <trkpt lat="43.71597" lon="7.05311">
        <ele>436.44158935547</ele>
        <time>2013-12-09T17:17:49Z</time>
      </trkpt>
      <trkpt lat="43.71596" lon="7.05312">
        <ele>436.32312011719</ele>
        <time>2013-12-09T17:17:50Z</time>
      </trkpt>
      <trkpt lat="43.71597" lon="7.05313">
        <ele>436.21496582031</ele>
        <time>2013-12-09T17:17:51Z</time>
      </trkpt>
      <trkpt lat="43.71601" lon="7.05318">
        <ele>435.70513916016</ele>
        <time>2013-12-09T17:17:54Z</time>
      </trkpt>
      <trkpt lat="43.71601" lon="7.05326">
        <ele>434.75244140625</ele>
        <time>2013-12-09T17:17:58Z</time>
      </trkpt>
      <trkpt lat="43.71604" lon="7.05329">
        <ele>434.48977661133</ele>
        <time>2013-12-09T17:18:02Z</time>
      </trkpt>
      <trkpt lat="43.71607" lon="7.0533">
        <ele>434.36618041992</ele>
        <time>2013-12-09T17:18:04Z</time>
      </trkpt>
      <trkpt lat="43.71608" lon="7.05333">
        <ele>434.04690551758</ele>
        <time>2013-12-09T17:18:06Z</time>
      </trkpt>
      <trkpt lat="43.71608" lon="7.05336">
        <ele>433.54663085938</ele>
        <time>2013-12-09T17:18:07Z</time>
      </trkpt>
      <trkpt lat="43.71602" lon="7.05343">
        <ele>432.3053894043</ele>
        <time>2013-12-09T17:18:10Z</time>
      </trkpt>
      <trkpt lat="43.71601" lon="7.05348">
        <ele>431.48455810547</ele>
        <time>2013-12-09T17:18:13Z</time>
      </trkpt>
      <trkpt lat="43.71602" lon="7.05349">
        <ele>431.30899047852</ele>
        <time>2013-12-09T17:18:14Z</time>
      </trkpt>
      <trkpt lat="43.71603" lon="7.05351">
        <ele>431.05932617188</ele>
        <time>2013-12-09T17:18:15Z</time>
      </trkpt>
      <trkpt lat="43.71604" lon="7.05356">
        <ele>430.22055053711</ele>
        <time>2013-12-09T17:18:18Z</time>
      </trkpt>
      <trkpt lat="43.71606" lon="7.05357">
        <ele>429.87707519531</ele>
        <time>2013-12-09T17:18:20Z</time>
      </trkpt>
      <trkpt lat="43.71607" lon="7.05358">
        <ele>429.77517700195</ele>
        <time>2013-12-09T17:18:21Z</time>
      </trkpt>
      <trkpt lat="43.71612" lon="7.05358">
        <ele>429.55633544922</ele>
        <time>2013-12-09T17:18:23Z</time>
      </trkpt>
      <trkpt lat="43.71622" lon="7.05362">
        <ele>428.35162353516</ele>
        <time>2013-12-09T17:18:26Z</time>
      </trkpt>
      <trkpt lat="43.71631" lon="7.05367">
        <ele>427.16802978516</ele>
        <time>2013-12-09T17:18:28Z</time>
      </trkpt>
      <trkpt lat="43.71664" lon="7.05378">
        <ele>424.26788330078</ele>
        <time>2013-12-09T17:18:34Z</time>
      </trkpt>
      <trkpt lat="43.71706" lon="7.05389">
        <ele>420.07897949219</ele>
        <time>2013-12-09T17:18:40Z</time>
      </trkpt>
      <trkpt lat="43.71757" lon="7.05395">
        <ele>419.39810180664</ele>
        <time>2013-12-09T17:18:46Z</time>
      </trkpt>
      <trkpt lat="43.71815" lon="7.05409">
        <ele>421.05313110352</ele>
        <time>2013-12-09T17:18:52Z</time>
      </trkpt>
      <trkpt lat="43.71839" lon="7.05415">
        <ele>421.38833618164</ele>
        <time>2013-12-09T17:18:55Z</time>
      </trkpt>
      <trkpt lat="43.71847" lon="7.05429">
        <ele>421.17727661133</ele>
        <time>2013-12-09T17:18:57Z</time>
      </trkpt>
      <trkpt lat="43.71841" lon="7.05445">
        <ele>419.28210449219</ele>
        <time>2013-12-09T17:18:59Z</time>
      </trkpt>
      <trkpt lat="43.71829" lon="7.05457">
        <ele>418.19229125977</ele>
        <time>2013-12-09T17:19:01Z</time>
      </trkpt>
      <trkpt lat="43.71822" lon="7.05463">
        <ele>417.27157592773</ele>
        <time>2013-12-09T17:19:02Z</time>
      </trkpt>
      <trkpt lat="43.71811" lon="7.0548">
        <ele>415.31030273438</ele>
        <time>2013-12-09T17:19:04Z</time>
      </trkpt>
      <trkpt lat="43.71807" lon="7.0549">
        <ele>414.50503540039</ele>
        <time>2013-12-09T17:19:05Z</time>
      </trkpt>
      <trkpt lat="43.71797" lon="7.05533">
        <ele>407.71725463867</ele>
        <time>2013-12-09T17:19:09Z</time>
      </trkpt>
      <trkpt lat="43.71784" lon="7.05586">
        <ele>401.75988769531</ele>
        <time>2013-12-09T17:19:15Z</time>
      </trkpt>
      <trkpt lat="43.71768" lon="7.05619">
        <ele>398.25564575195</ele>
        <time>2013-12-09T17:19:20Z</time>
      </trkpt>
      <trkpt lat="43.71754" lon="7.05656">
        <ele>397.29284667969</ele>
        <time>2013-12-09T17:19:26Z</time>
      </trkpt>
      <trkpt lat="43.71749" lon="7.05672">
        <ele>396.92602539062</ele>
        <time>2013-12-09T17:19:29Z</time>
      </trkpt>
      <trkpt lat="43.71747" lon="7.05687">
        <ele>396.91229248047</ele>
        <time>2013-12-09T17:19:32Z</time>
      </trkpt>
      <trkpt lat="43.71747" lon="7.05692">
        <ele>396.98782348633</ele>
        <time>2013-12-09T17:19:33Z</time>
      </trkpt>
      <trkpt lat="43.71746" lon="7.05696">
        <ele>397.0341796875</ele>
        <time>2013-12-09T17:19:34Z</time>
      </trkpt>
      <trkpt lat="43.71741" lon="7.05713">
        <ele>396.22564697266</ele>
        <time>2013-12-09T17:19:38Z</time>
      </trkpt>
      <trkpt lat="43.71723" lon="7.0574">
        <ele>391.80706787109</ele>
        <time>2013-12-09T17:19:43Z</time>
      </trkpt>
      <trkpt lat="43.71719" lon="7.05747">
        <ele>391.28344726562</ele>
        <time>2013-12-09T17:19:44Z</time>
      </trkpt>
      <trkpt lat="43.71703" lon="7.05781">
        <ele>389.73178100586</ele>
        <time>2013-12-09T17:19:48Z</time>
      </trkpt>
      <trkpt lat="43.71697" lon="7.05801">
        <ele>389.28033447266</ele>
        <time>2013-12-09T17:19:51Z</time>
      </trkpt>
      <trkpt lat="43.71695" lon="7.05807">
        <ele>389.08633422852</ele>
        <time>2013-12-09T17:19:52Z</time>
      </trkpt>
      <trkpt lat="43.71692" lon="7.05811">
        <ele>388.63821411133</ele>
        <time>2013-12-09T17:19:53Z</time>
      </trkpt>
      <trkpt lat="43.7169" lon="7.05816">
        <ele>388.09915161133</ele>
        <time>2013-12-09T17:19:55Z</time>
      </trkpt>
      <trkpt lat="43.71684" lon="7.05826">
        <ele>386.79159545898</ele>
        <time>2013-12-09T17:19:59Z</time>
      </trkpt>
      <trkpt lat="43.71684" lon="7.05829">
        <ele>386.74993896484</ele>
        <time>2013-12-09T17:20:00Z</time>
      </trkpt>
      <trkpt lat="43.71684" lon="7.0584">
        <ele>386.47738647461</ele>
        <time>2013-12-09T17:20:04Z</time>
      </trkpt>
      <trkpt lat="43.71685" lon="7.05857">
        <ele>385.46115112305</ele>
        <time>2013-12-09T17:20:10Z</time>
      </trkpt>
      <trkpt lat="43.71687" lon="7.05878">
        <ele>385.34887695312</ele>
        <time>2013-12-09T17:20:16Z</time>
      </trkpt>
      <trkpt lat="43.71693" lon="7.0591">
        <ele>384.3779296875</ele>
        <time>2013-12-09T17:20:22Z</time>
      </trkpt>
      <trkpt lat="43.71704" lon="7.05957">
        <ele>382.07662963867</ele>
        <time>2013-12-09T17:20:29Z</time>
      </trkpt>
      <trkpt lat="43.71724" lon="7.0602">
        <ele>380.58297729492</ele>
        <time>2013-12-09T17:20:38Z</time>
      </trkpt>
      <trkpt lat="43.71752" lon="7.06082">
        <ele>380.74261474609</ele>
        <time>2013-12-09T17:20:47Z</time>
      </trkpt>
      <trkpt lat="43.71778" lon="7.06141">
        <ele>379.99798583984</ele>
        <time>2013-12-09T17:20:55Z</time>
      </trkpt>
      <trkpt lat="43.71808" lon="7.06206">
        <ele>386.26049804688</ele>
        <time>2013-12-09T17:21:04Z</time>
      </trkpt>
      <trkpt lat="43.71814" lon="7.06219">
        <ele>387.63208007812</ele>
        <time>2013-12-09T17:21:06Z</time>
      </trkpt>
      <trkpt lat="43.71839" lon="7.06276">
        <ele>393.64331054688</ele>
        <time>2013-12-09T17:21:14Z</time>
      </trkpt>
      <trkpt lat="43.7184" lon="7.06284">
        <ele>393.69659423828</ele>
        <time>2013-12-09T17:21:15Z</time>
      </trkpt>
      <trkpt lat="43.71835" lon="7.06308">
        <ele>393.24090576172</ele>
        <time>2013-12-09T17:21:18Z</time>
      </trkpt>
      <trkpt lat="43.71835" lon="7.06329">
        <ele>393.98840332031</ele>
        <time>2013-12-09T17:21:21Z</time>
      </trkpt>
      <trkpt lat="43.71844" lon="7.06338">
        <ele>395.48779296875</ele>
        <time>2013-12-09T17:21:24Z</time>
      </trkpt>
      <trkpt lat="43.71852" lon="7.0634">
        <ele>396.32211303711</ele>
        <time>2013-12-09T17:21:26Z</time>
      </trkpt>
      <trkpt lat="43.71856" lon="7.06341">
        <ele>396.77896118164</ele>
        <time>2013-12-09T17:21:27Z</time>
      </trkpt>
      <trkpt lat="43.7186" lon="7.06348">
        <ele>397.44854736328</ele>
        <time>2013-12-09T17:21:29Z</time>
      </trkpt>
      <trkpt lat="43.71858" lon="7.06365">
        <ele>397.91137695312</ele>
        <time>2013-12-09T17:21:33Z</time>
      </trkpt>
      <trkpt lat="43.71852" lon="7.06374">
        <ele>397.83068847656</ele>
        <time>2013-12-09T17:21:36Z</time>
      </trkpt>
      <trkpt lat="43.71847" lon="7.06381">
        <ele>397.72253417969</ele>
        <time>2013-12-09T17:21:39Z</time>
      </trkpt>
      <trkpt lat="43.71847" lon="7.06382">
        <ele>397.71224975586</ele>
        <time>2013-12-09T17:21:41Z</time>
      </trkpt>
    </trkseg>
  </trk>
</gpx>